<?xml version="1.0" encoding="UTF-8" standalone="no" ?>
<gpx xmlns="http://www.topografix.com/GPX/1/1" xmlns:xsi="http://www.w3.org/2001/XMLSchema-instance" xsi:schemaLocation="http://www.topografix.com/GPX/1/1 http://www.topografix.com/GPX/1/1/gpx.xsd" version="1.1" creator="VisuGPX - https://www.visugpx.com">
  <metadata>
    <name>Pointe de Savolaire</name>
    <desc><![CDATA[AlpineQuest Track 3/8/26 10:19:52]]></desc>
  </metadata>
  <trk>
    <name><![CDATA[Pointe de Savolaire]]></name>
    <trkseg>
      <trkpt lat="46.24788" lon="6.72051">
        <ele>1186.375</ele>
        <time>2026-03-08T09:19:52Z</time>
      </trkpt>
      <trkpt lat="46.24788" lon="6.72052">
        <ele>1185.261</ele>
        <time>2026-03-08T09:19:59Z</time>
      </trkpt>
      <trkpt lat="46.24789" lon="6.72053">
        <ele>1186.309</ele>
        <time>2026-03-08T09:20:05Z</time>
      </trkpt>
      <trkpt lat="46.24789" lon="6.72053">
        <ele>1186.214</ele>
        <time>2026-03-08T09:20:10Z</time>
      </trkpt>
      <trkpt lat="46.24789" lon="6.72053">
        <ele>1186.36</ele>
        <time>2026-03-08T09:20:15Z</time>
      </trkpt>
      <trkpt lat="46.24789" lon="6.72053">
        <ele>1186.015</ele>
        <time>2026-03-08T09:20:20Z</time>
      </trkpt>
      <trkpt lat="46.24789" lon="6.72053">
        <ele>1186.117</ele>
        <time>2026-03-08T09:20:25Z</time>
      </trkpt>
      <trkpt lat="46.24794" lon="6.72044">
        <ele>1177.718</ele>
        <time>2026-03-08T09:20:30Z</time>
      </trkpt>
      <trkpt lat="46.24795" lon="6.72039">
        <ele>1175.801</ele>
        <time>2026-03-08T09:20:35Z</time>
      </trkpt>
      <trkpt lat="46.24794" lon="6.72033">
        <ele>1176.243</ele>
        <time>2026-03-08T09:20:40Z</time>
      </trkpt>
      <trkpt lat="46.24792" lon="6.72028">
        <ele>1176.908</ele>
        <time>2026-03-08T09:20:45Z</time>
      </trkpt>
      <trkpt lat="46.24791" lon="6.72022">
        <ele>1177.365</ele>
        <time>2026-03-08T09:20:50Z</time>
      </trkpt>
      <trkpt lat="46.24791" lon="6.72017">
        <ele>1177.106</ele>
        <time>2026-03-08T09:20:55Z</time>
      </trkpt>
      <trkpt lat="46.24791" lon="6.72012">
        <ele>1176.781</ele>
        <time>2026-03-08T09:21:00Z</time>
      </trkpt>
      <trkpt lat="46.24791" lon="6.72006">
        <ele>1175.685</ele>
        <time>2026-03-08T09:21:05Z</time>
      </trkpt>
      <trkpt lat="46.24791" lon="6.72001">
        <ele>1175.322</ele>
        <time>2026-03-08T09:21:10Z</time>
      </trkpt>
      <trkpt lat="46.24792" lon="6.71995">
        <ele>1175.105</ele>
        <time>2026-03-08T09:21:15Z</time>
      </trkpt>
      <trkpt lat="46.24793" lon="6.7199">
        <ele>1176.913</ele>
        <time>2026-03-08T09:21:20Z</time>
      </trkpt>
      <trkpt lat="46.24795" lon="6.71984">
        <ele>1177.181</ele>
        <time>2026-03-08T09:21:25Z</time>
      </trkpt>
      <trkpt lat="46.24796" lon="6.71978">
        <ele>1179.048</ele>
        <time>2026-03-08T09:21:30Z</time>
      </trkpt>
      <trkpt lat="46.24797" lon="6.71973">
        <ele>1179.846</ele>
        <time>2026-03-08T09:21:35Z</time>
      </trkpt>
      <trkpt lat="46.24801" lon="6.71968">
        <ele>1184.773</ele>
        <time>2026-03-08T09:21:40Z</time>
      </trkpt>
      <trkpt lat="46.24803" lon="6.71962">
        <ele>1184.257</ele>
        <time>2026-03-08T09:21:45Z</time>
      </trkpt>
      <trkpt lat="46.24804" lon="6.71955">
        <ele>1182.577</ele>
        <time>2026-03-08T09:21:50Z</time>
      </trkpt>
      <trkpt lat="46.24804" lon="6.7195">
        <ele>1182.629</ele>
        <time>2026-03-08T09:21:55Z</time>
      </trkpt>
      <trkpt lat="46.24805" lon="6.71945">
        <ele>1182.791</ele>
        <time>2026-03-08T09:22:00Z</time>
      </trkpt>
      <trkpt lat="46.24806" lon="6.71939">
        <ele>1183.676</ele>
        <time>2026-03-08T09:22:05Z</time>
      </trkpt>
      <trkpt lat="46.24807" lon="6.71934">
        <ele>1183.815</ele>
        <time>2026-03-08T09:22:10Z</time>
      </trkpt>
      <trkpt lat="46.24807" lon="6.71928">
        <ele>1185.3</ele>
        <time>2026-03-08T09:22:15Z</time>
      </trkpt>
      <trkpt lat="46.24807" lon="6.71923">
        <ele>1185.591</ele>
        <time>2026-03-08T09:22:20Z</time>
      </trkpt>
      <trkpt lat="46.24807" lon="6.71917">
        <ele>1187.351</ele>
        <time>2026-03-08T09:22:25Z</time>
      </trkpt>
      <trkpt lat="46.24806" lon="6.71912">
        <ele>1188.502</ele>
        <time>2026-03-08T09:22:30Z</time>
      </trkpt>
      <trkpt lat="46.24807" lon="6.71907">
        <ele>1187.373</ele>
        <time>2026-03-08T09:22:35Z</time>
      </trkpt>
      <trkpt lat="46.24807" lon="6.71902">
        <ele>1188.275</ele>
        <time>2026-03-08T09:22:40Z</time>
      </trkpt>
      <trkpt lat="46.24805" lon="6.71895">
        <ele>1186.95</ele>
        <time>2026-03-08T09:22:45Z</time>
      </trkpt>
      <trkpt lat="46.24805" lon="6.71891">
        <ele>1188.194</ele>
        <time>2026-03-08T09:22:50Z</time>
      </trkpt>
      <trkpt lat="46.24804" lon="6.71887">
        <ele>1190.449</ele>
        <time>2026-03-08T09:22:55Z</time>
      </trkpt>
      <trkpt lat="46.24801" lon="6.71883">
        <ele>1189.716</ele>
        <time>2026-03-08T09:23:00Z</time>
      </trkpt>
      <trkpt lat="46.248" lon="6.71877">
        <ele>1189.861</ele>
        <time>2026-03-08T09:23:05Z</time>
      </trkpt>
      <trkpt lat="46.24798" lon="6.71873">
        <ele>1189.487</ele>
        <time>2026-03-08T09:23:10Z</time>
      </trkpt>
      <trkpt lat="46.24795" lon="6.71867">
        <ele>1190.308</ele>
        <time>2026-03-08T09:23:15Z</time>
      </trkpt>
      <trkpt lat="46.24793" lon="6.71862">
        <ele>1190.61</ele>
        <time>2026-03-08T09:23:20Z</time>
      </trkpt>
      <trkpt lat="46.24791" lon="6.71857">
        <ele>1189.883</ele>
        <time>2026-03-08T09:23:25Z</time>
      </trkpt>
      <trkpt lat="46.2479" lon="6.71852">
        <ele>1189.888</ele>
        <time>2026-03-08T09:23:30Z</time>
      </trkpt>
      <trkpt lat="46.2479" lon="6.71847">
        <ele>1189.81</ele>
        <time>2026-03-08T09:23:35Z</time>
      </trkpt>
      <trkpt lat="46.2479" lon="6.71842">
        <ele>1191.439</ele>
        <time>2026-03-08T09:23:40Z</time>
      </trkpt>
      <trkpt lat="46.2479" lon="6.71839">
        <ele>1189.636</ele>
        <time>2026-03-08T09:23:45Z</time>
      </trkpt>
      <trkpt lat="46.24789" lon="6.71836">
        <ele>1190.416</ele>
        <time>2026-03-08T09:23:50Z</time>
      </trkpt>
      <trkpt lat="46.24789" lon="6.71831">
        <ele>1192.647</ele>
        <time>2026-03-08T09:23:55Z</time>
      </trkpt>
      <trkpt lat="46.24788" lon="6.71827">
        <ele>1196.604</ele>
        <time>2026-03-08T09:24:00Z</time>
      </trkpt>
      <trkpt lat="46.24786" lon="6.71826">
        <ele>1198.375</ele>
        <time>2026-03-08T09:24:05Z</time>
      </trkpt>
      <trkpt lat="46.24784" lon="6.71826">
        <ele>1202.671</ele>
        <time>2026-03-08T09:24:10Z</time>
      </trkpt>
      <trkpt lat="46.24781" lon="6.71825">
        <ele>1200.32</ele>
        <time>2026-03-08T09:24:15Z</time>
      </trkpt>
      <trkpt lat="46.24779" lon="6.7182">
        <ele>1193.471</ele>
        <time>2026-03-08T09:24:20Z</time>
      </trkpt>
      <trkpt lat="46.24779" lon="6.7182">
        <ele>1195.423</ele>
        <time>2026-03-08T09:24:25Z</time>
      </trkpt>
      <trkpt lat="46.24779" lon="6.7182">
        <ele>1196.263</ele>
        <time>2026-03-08T09:24:30Z</time>
      </trkpt>
      <trkpt lat="46.24778" lon="6.7182">
        <ele>1196.35</ele>
        <time>2026-03-08T09:24:35Z</time>
      </trkpt>
      <trkpt lat="46.24773" lon="6.71817">
        <ele>1195.627</ele>
        <time>2026-03-08T09:24:40Z</time>
      </trkpt>
      <trkpt lat="46.24769" lon="6.71812">
        <ele>1199.922</ele>
        <time>2026-03-08T09:24:45Z</time>
      </trkpt>
      <trkpt lat="46.24766" lon="6.7181">
        <ele>1199.773</ele>
        <time>2026-03-08T09:24:50Z</time>
      </trkpt>
      <trkpt lat="46.24761" lon="6.71809">
        <ele>1200.425</ele>
        <time>2026-03-08T09:24:55Z</time>
      </trkpt>
      <trkpt lat="46.24757" lon="6.71806">
        <ele>1201.092</ele>
        <time>2026-03-08T09:25:00Z</time>
      </trkpt>
      <trkpt lat="46.24754" lon="6.71804">
        <ele>1201.874</ele>
        <time>2026-03-08T09:25:05Z</time>
      </trkpt>
      <trkpt lat="46.24752" lon="6.71802">
        <ele>1201.993</ele>
        <time>2026-03-08T09:25:10Z</time>
      </trkpt>
      <trkpt lat="46.2475" lon="6.71799">
        <ele>1201.607</ele>
        <time>2026-03-08T09:25:15Z</time>
      </trkpt>
      <trkpt lat="46.24748" lon="6.71797">
        <ele>1203.251</ele>
        <time>2026-03-08T09:25:20Z</time>
      </trkpt>
      <trkpt lat="46.24745" lon="6.71794">
        <ele>1202.791</ele>
        <time>2026-03-08T09:25:25Z</time>
      </trkpt>
      <trkpt lat="46.24742" lon="6.71793">
        <ele>1201.957</ele>
        <time>2026-03-08T09:25:30Z</time>
      </trkpt>
      <trkpt lat="46.2474" lon="6.7179">
        <ele>1201.952</ele>
        <time>2026-03-08T09:25:35Z</time>
      </trkpt>
      <trkpt lat="46.24738" lon="6.71788">
        <ele>1203.203</ele>
        <time>2026-03-08T09:25:40Z</time>
      </trkpt>
      <trkpt lat="46.24736" lon="6.71783">
        <ele>1204.689</ele>
        <time>2026-03-08T09:25:45Z</time>
      </trkpt>
      <trkpt lat="46.24734" lon="6.71779">
        <ele>1205.807</ele>
        <time>2026-03-08T09:25:50Z</time>
      </trkpt>
      <trkpt lat="46.24731" lon="6.71777">
        <ele>1208.512</ele>
        <time>2026-03-08T09:25:55Z</time>
      </trkpt>
      <trkpt lat="46.24728" lon="6.71776">
        <ele>1207.009</ele>
        <time>2026-03-08T09:26:00Z</time>
      </trkpt>
      <trkpt lat="46.24727" lon="6.71773">
        <ele>1208.429</ele>
        <time>2026-03-08T09:26:05Z</time>
      </trkpt>
      <trkpt lat="46.24725" lon="6.7177">
        <ele>1209.756</ele>
        <time>2026-03-08T09:26:10Z</time>
      </trkpt>
      <trkpt lat="46.24723" lon="6.71768">
        <ele>1208.451</ele>
        <time>2026-03-08T09:26:15Z</time>
      </trkpt>
      <trkpt lat="46.2472" lon="6.71766">
        <ele>1206.773</ele>
        <time>2026-03-08T09:26:20Z</time>
      </trkpt>
      <trkpt lat="46.24718" lon="6.71764">
        <ele>1207.652</ele>
        <time>2026-03-08T09:26:25Z</time>
      </trkpt>
      <trkpt lat="46.24715" lon="6.71762">
        <ele>1208.257</ele>
        <time>2026-03-08T09:26:30Z</time>
      </trkpt>
      <trkpt lat="46.24711" lon="6.7176">
        <ele>1210.356</ele>
        <time>2026-03-08T09:26:35Z</time>
      </trkpt>
      <trkpt lat="46.24711" lon="6.71757">
        <ele>1211.399</ele>
        <time>2026-03-08T09:26:40Z</time>
      </trkpt>
      <trkpt lat="46.24707" lon="6.71756">
        <ele>1211.605</ele>
        <time>2026-03-08T09:26:45Z</time>
      </trkpt>
      <trkpt lat="46.24704" lon="6.71755">
        <ele>1213.364</ele>
        <time>2026-03-08T09:26:50Z</time>
      </trkpt>
      <trkpt lat="46.24703" lon="6.71754">
        <ele>1212.953</ele>
        <time>2026-03-08T09:26:55Z</time>
      </trkpt>
      <trkpt lat="46.24702" lon="6.71752">
        <ele>1214.606</ele>
        <time>2026-03-08T09:27:00Z</time>
      </trkpt>
      <trkpt lat="46.24701" lon="6.7175">
        <ele>1212.823</ele>
        <time>2026-03-08T09:27:05Z</time>
      </trkpt>
      <trkpt lat="46.247" lon="6.71747">
        <ele>1213.922</ele>
        <time>2026-03-08T09:27:10Z</time>
      </trkpt>
      <trkpt lat="46.24699" lon="6.71745">
        <ele>1213.821</ele>
        <time>2026-03-08T09:27:15Z</time>
      </trkpt>
      <trkpt lat="46.24697" lon="6.71743">
        <ele>1216.915</ele>
        <time>2026-03-08T09:27:20Z</time>
      </trkpt>
      <trkpt lat="46.24694" lon="6.71743">
        <ele>1215.726</ele>
        <time>2026-03-08T09:27:25Z</time>
      </trkpt>
      <trkpt lat="46.24691" lon="6.71744">
        <ele>1216.11</ele>
        <time>2026-03-08T09:27:30Z</time>
      </trkpt>
      <trkpt lat="46.24688" lon="6.71742">
        <ele>1216.204</ele>
        <time>2026-03-08T09:27:35Z</time>
      </trkpt>
      <trkpt lat="46.24686" lon="6.71741">
        <ele>1215.445</ele>
        <time>2026-03-08T09:27:40Z</time>
      </trkpt>
      <trkpt lat="46.24683" lon="6.7174">
        <ele>1216.997</ele>
        <time>2026-03-08T09:27:45Z</time>
      </trkpt>
      <trkpt lat="46.24681" lon="6.71737">
        <ele>1216.856</ele>
        <time>2026-03-08T09:27:50Z</time>
      </trkpt>
      <trkpt lat="46.24679" lon="6.71734">
        <ele>1216.888</ele>
        <time>2026-03-08T09:27:55Z</time>
      </trkpt>
      <trkpt lat="46.24677" lon="6.71731">
        <ele>1219.017</ele>
        <time>2026-03-08T09:28:00Z</time>
      </trkpt>
      <trkpt lat="46.24675" lon="6.71728">
        <ele>1221.174</ele>
        <time>2026-03-08T09:28:05Z</time>
      </trkpt>
      <trkpt lat="46.24673" lon="6.71724">
        <ele>1224.841</ele>
        <time>2026-03-08T09:28:10Z</time>
      </trkpt>
      <trkpt lat="46.24671" lon="6.71721">
        <ele>1226.125</ele>
        <time>2026-03-08T09:28:15Z</time>
      </trkpt>
      <trkpt lat="46.24668" lon="6.7172">
        <ele>1226.607</ele>
        <time>2026-03-08T09:28:20Z</time>
      </trkpt>
      <trkpt lat="46.24671" lon="6.717">
        <ele>1243.155</ele>
        <time>2026-03-08T09:28:25Z</time>
      </trkpt>
      <trkpt lat="46.24671" lon="6.717">
        <ele>1244.083</ele>
        <time>2026-03-08T09:28:30Z</time>
      </trkpt>
      <trkpt lat="46.24671" lon="6.717">
        <ele>1244.416</ele>
        <time>2026-03-08T09:28:35Z</time>
      </trkpt>
      <trkpt lat="46.24671" lon="6.717">
        <ele>1244.444</ele>
        <time>2026-03-08T09:28:40Z</time>
      </trkpt>
      <trkpt lat="46.24671" lon="6.717">
        <ele>1244.465</ele>
        <time>2026-03-08T09:28:45Z</time>
      </trkpt>
      <trkpt lat="46.24671" lon="6.717">
        <ele>1244.342</ele>
        <time>2026-03-08T09:28:50Z</time>
      </trkpt>
      <trkpt lat="46.24671" lon="6.717">
        <ele>1244.29</ele>
        <time>2026-03-08T09:28:55Z</time>
      </trkpt>
      <trkpt lat="46.24671" lon="6.717">
        <ele>1244.219</ele>
        <time>2026-03-08T09:29:00Z</time>
      </trkpt>
      <trkpt lat="46.2466" lon="6.71696">
        <ele>1239.14</ele>
        <time>2026-03-08T09:29:05Z</time>
      </trkpt>
      <trkpt lat="46.24653" lon="6.71695">
        <ele>1233.68</ele>
        <time>2026-03-08T09:29:10Z</time>
      </trkpt>
      <trkpt lat="46.24647" lon="6.71696">
        <ele>1231.938</ele>
        <time>2026-03-08T09:29:15Z</time>
      </trkpt>
      <trkpt lat="46.24643" lon="6.71695">
        <ele>1234.062</ele>
        <time>2026-03-08T09:29:20Z</time>
      </trkpt>
      <trkpt lat="46.24639" lon="6.71693">
        <ele>1234.73</ele>
        <time>2026-03-08T09:29:25Z</time>
      </trkpt>
      <trkpt lat="46.24639" lon="6.7169">
        <ele>1233.539</ele>
        <time>2026-03-08T09:29:30Z</time>
      </trkpt>
      <trkpt lat="46.24637" lon="6.71687">
        <ele>1233.225</ele>
        <time>2026-03-08T09:29:35Z</time>
      </trkpt>
      <trkpt lat="46.24636" lon="6.71686">
        <ele>1233.749</ele>
        <time>2026-03-08T09:29:40Z</time>
      </trkpt>
      <trkpt lat="46.24634" lon="6.71685">
        <ele>1234.229</ele>
        <time>2026-03-08T09:29:45Z</time>
      </trkpt>
      <trkpt lat="46.24633" lon="6.71682">
        <ele>1234.78</ele>
        <time>2026-03-08T09:29:50Z</time>
      </trkpt>
      <trkpt lat="46.24633" lon="6.7168">
        <ele>1235.309</ele>
        <time>2026-03-08T09:29:55Z</time>
      </trkpt>
      <trkpt lat="46.24631" lon="6.71676">
        <ele>1237.661</ele>
        <time>2026-03-08T09:30:00Z</time>
      </trkpt>
      <trkpt lat="46.2463" lon="6.71674">
        <ele>1237.328</ele>
        <time>2026-03-08T09:30:05Z</time>
      </trkpt>
      <trkpt lat="46.24629" lon="6.7167">
        <ele>1236.225</ele>
        <time>2026-03-08T09:30:10Z</time>
      </trkpt>
      <trkpt lat="46.24628" lon="6.71667">
        <ele>1236.324</ele>
        <time>2026-03-08T09:30:15Z</time>
      </trkpt>
      <trkpt lat="46.24626" lon="6.71665">
        <ele>1236.789</ele>
        <time>2026-03-08T09:30:20Z</time>
      </trkpt>
      <trkpt lat="46.24624" lon="6.71661">
        <ele>1238.288</ele>
        <time>2026-03-08T09:30:25Z</time>
      </trkpt>
      <trkpt lat="46.24623" lon="6.71659">
        <ele>1238.02</ele>
        <time>2026-03-08T09:30:30Z</time>
      </trkpt>
      <trkpt lat="46.24623" lon="6.71656">
        <ele>1238.187</ele>
        <time>2026-03-08T09:30:35Z</time>
      </trkpt>
      <trkpt lat="46.2462" lon="6.71655">
        <ele>1239.938</ele>
        <time>2026-03-08T09:30:40Z</time>
      </trkpt>
      <trkpt lat="46.24617" lon="6.71653">
        <ele>1239.68</ele>
        <time>2026-03-08T09:30:45Z</time>
      </trkpt>
      <trkpt lat="46.24617" lon="6.7165">
        <ele>1240.574</ele>
        <time>2026-03-08T09:30:50Z</time>
      </trkpt>
      <trkpt lat="46.24619" lon="6.71645">
        <ele>1241.835</ele>
        <time>2026-03-08T09:30:55Z</time>
      </trkpt>
      <trkpt lat="46.24619" lon="6.71641">
        <ele>1243.956</ele>
        <time>2026-03-08T09:31:00Z</time>
      </trkpt>
      <trkpt lat="46.24618" lon="6.71639">
        <ele>1243.787</ele>
        <time>2026-03-08T09:31:05Z</time>
      </trkpt>
      <trkpt lat="46.24617" lon="6.71636">
        <ele>1243.164</ele>
        <time>2026-03-08T09:31:10Z</time>
      </trkpt>
      <trkpt lat="46.24617" lon="6.71633">
        <ele>1245.578</ele>
        <time>2026-03-08T09:31:15Z</time>
      </trkpt>
      <trkpt lat="46.24617" lon="6.7163">
        <ele>1245.278</ele>
        <time>2026-03-08T09:31:20Z</time>
      </trkpt>
      <trkpt lat="46.24618" lon="6.71626">
        <ele>1244.85</ele>
        <time>2026-03-08T09:31:25Z</time>
      </trkpt>
      <trkpt lat="46.2462" lon="6.71623">
        <ele>1247.823</ele>
        <time>2026-03-08T09:31:30Z</time>
      </trkpt>
      <trkpt lat="46.24622" lon="6.71621">
        <ele>1250.751</ele>
        <time>2026-03-08T09:31:35Z</time>
      </trkpt>
      <trkpt lat="46.24624" lon="6.71619">
        <ele>1249.355</ele>
        <time>2026-03-08T09:31:40Z</time>
      </trkpt>
      <trkpt lat="46.24626" lon="6.71617">
        <ele>1250.701</ele>
        <time>2026-03-08T09:31:45Z</time>
      </trkpt>
      <trkpt lat="46.24629" lon="6.71616">
        <ele>1250.768</ele>
        <time>2026-03-08T09:31:50Z</time>
      </trkpt>
      <trkpt lat="46.2463" lon="6.71617">
        <ele>1250.603</ele>
        <time>2026-03-08T09:31:55Z</time>
      </trkpt>
      <trkpt lat="46.24633" lon="6.71616">
        <ele>1252.015</ele>
        <time>2026-03-08T09:32:00Z</time>
      </trkpt>
      <trkpt lat="46.24636" lon="6.71616">
        <ele>1253.537</ele>
        <time>2026-03-08T09:32:05Z</time>
      </trkpt>
      <trkpt lat="46.24637" lon="6.71618">
        <ele>1254.354</ele>
        <time>2026-03-08T09:32:10Z</time>
      </trkpt>
      <trkpt lat="46.2464" lon="6.71619">
        <ele>1255.406</ele>
        <time>2026-03-08T09:32:15Z</time>
      </trkpt>
      <trkpt lat="46.24643" lon="6.71617">
        <ele>1255.913</ele>
        <time>2026-03-08T09:32:20Z</time>
      </trkpt>
      <trkpt lat="46.24644" lon="6.71615">
        <ele>1255.145</ele>
        <time>2026-03-08T09:32:25Z</time>
      </trkpt>
      <trkpt lat="46.24645" lon="6.71614">
        <ele>1256.248</ele>
        <time>2026-03-08T09:32:30Z</time>
      </trkpt>
      <trkpt lat="46.24647" lon="6.71612">
        <ele>1258.288</ele>
        <time>2026-03-08T09:32:35Z</time>
      </trkpt>
      <trkpt lat="46.2465" lon="6.71611">
        <ele>1259.069</ele>
        <time>2026-03-08T09:32:40Z</time>
      </trkpt>
      <trkpt lat="46.2465" lon="6.71611">
        <ele>1259.267</ele>
        <time>2026-03-08T09:32:45Z</time>
      </trkpt>
      <trkpt lat="46.24652" lon="6.7161">
        <ele>1259.479</ele>
        <time>2026-03-08T09:32:50Z</time>
      </trkpt>
      <trkpt lat="46.24652" lon="6.7161">
        <ele>1259.635</ele>
        <time>2026-03-08T09:32:55Z</time>
      </trkpt>
      <trkpt lat="46.24652" lon="6.7161">
        <ele>1259.507</ele>
        <time>2026-03-08T09:33:00Z</time>
      </trkpt>
      <trkpt lat="46.24652" lon="6.7161">
        <ele>1258.799</ele>
        <time>2026-03-08T09:33:05Z</time>
      </trkpt>
      <trkpt lat="46.24652" lon="6.7161">
        <ele>1258.763</ele>
        <time>2026-03-08T09:33:10Z</time>
      </trkpt>
      <trkpt lat="46.24652" lon="6.7161">
        <ele>1258.771</ele>
        <time>2026-03-08T09:33:15Z</time>
      </trkpt>
      <trkpt lat="46.24652" lon="6.7161">
        <ele>1258.77</ele>
        <time>2026-03-08T09:33:20Z</time>
      </trkpt>
      <trkpt lat="46.24652" lon="6.7161">
        <ele>1258.737</ele>
        <time>2026-03-08T09:33:25Z</time>
      </trkpt>
      <trkpt lat="46.24652" lon="6.7161">
        <ele>1258.728</ele>
        <time>2026-03-08T09:33:30Z</time>
      </trkpt>
      <trkpt lat="46.24652" lon="6.7161">
        <ele>1258.48</ele>
        <time>2026-03-08T09:33:35Z</time>
      </trkpt>
      <trkpt lat="46.24652" lon="6.7161">
        <ele>1259.018</ele>
        <time>2026-03-08T09:33:40Z</time>
      </trkpt>
      <trkpt lat="46.24652" lon="6.7161">
        <ele>1259.017</ele>
        <time>2026-03-08T09:33:45Z</time>
      </trkpt>
      <trkpt lat="46.24652" lon="6.7161">
        <ele>1259.052</ele>
        <time>2026-03-08T09:33:50Z</time>
      </trkpt>
      <trkpt lat="46.24652" lon="6.7161">
        <ele>1259.034</ele>
        <time>2026-03-08T09:33:55Z</time>
      </trkpt>
      <trkpt lat="46.24652" lon="6.7161">
        <ele>1258.834</ele>
        <time>2026-03-08T09:34:00Z</time>
      </trkpt>
      <trkpt lat="46.24652" lon="6.7161">
        <ele>1258.769</ele>
        <time>2026-03-08T09:34:05Z</time>
      </trkpt>
      <trkpt lat="46.24652" lon="6.7161">
        <ele>1257.213</ele>
        <time>2026-03-08T09:34:10Z</time>
      </trkpt>
      <trkpt lat="46.24652" lon="6.7161">
        <ele>1259.468</ele>
        <time>2026-03-08T09:34:15Z</time>
      </trkpt>
      <trkpt lat="46.24652" lon="6.7161">
        <ele>1258.342</ele>
        <time>2026-03-08T09:34:20Z</time>
      </trkpt>
      <trkpt lat="46.24652" lon="6.7161">
        <ele>1257.823</ele>
        <time>2026-03-08T09:34:25Z</time>
      </trkpt>
      <trkpt lat="46.24652" lon="6.7161">
        <ele>1257.812</ele>
        <time>2026-03-08T09:34:30Z</time>
      </trkpt>
      <trkpt lat="46.24652" lon="6.7161">
        <ele>1257.808</ele>
        <time>2026-03-08T09:34:35Z</time>
      </trkpt>
      <trkpt lat="46.24652" lon="6.7161">
        <ele>1257.818</ele>
        <time>2026-03-08T09:34:40Z</time>
      </trkpt>
      <trkpt lat="46.24652" lon="6.7161">
        <ele>1257.842</ele>
        <time>2026-03-08T09:34:45Z</time>
      </trkpt>
      <trkpt lat="46.24657" lon="6.71616">
        <ele>1257.834</ele>
        <time>2026-03-08T09:34:50Z</time>
      </trkpt>
      <trkpt lat="46.24657" lon="6.71616">
        <ele>1257.917</ele>
        <time>2026-03-08T09:34:55Z</time>
      </trkpt>
      <trkpt lat="46.24657" lon="6.71616">
        <ele>1257.958</ele>
        <time>2026-03-08T09:35:00Z</time>
      </trkpt>
      <trkpt lat="46.24657" lon="6.71616">
        <ele>1258.028</ele>
        <time>2026-03-08T09:35:05Z</time>
      </trkpt>
      <trkpt lat="46.24659" lon="6.71616">
        <ele>1259.24</ele>
        <time>2026-03-08T09:35:10Z</time>
      </trkpt>
      <trkpt lat="46.2466" lon="6.71616">
        <ele>1259.272</ele>
        <time>2026-03-08T09:35:15Z</time>
      </trkpt>
      <trkpt lat="46.2466" lon="6.71616">
        <ele>1259.309</ele>
        <time>2026-03-08T09:35:20Z</time>
      </trkpt>
      <trkpt lat="46.2466" lon="6.71616">
        <ele>1258.715</ele>
        <time>2026-03-08T09:35:25Z</time>
      </trkpt>
      <trkpt lat="46.24662" lon="6.71615">
        <ele>1262.242</ele>
        <time>2026-03-08T09:35:30Z</time>
      </trkpt>
      <trkpt lat="46.24666" lon="6.71616">
        <ele>1264.134</ele>
        <time>2026-03-08T09:35:35Z</time>
      </trkpt>
      <trkpt lat="46.24666" lon="6.71616">
        <ele>1263.633</ele>
        <time>2026-03-08T09:35:40Z</time>
      </trkpt>
      <trkpt lat="46.24662" lon="6.71613">
        <ele>1264.414</ele>
        <time>2026-03-08T09:35:45Z</time>
      </trkpt>
      <trkpt lat="46.24656" lon="6.71611">
        <ele>1264.614</ele>
        <time>2026-03-08T09:35:50Z</time>
      </trkpt>
      <trkpt lat="46.24652" lon="6.7161">
        <ele>1263.857</ele>
        <time>2026-03-08T09:35:55Z</time>
      </trkpt>
      <trkpt lat="46.24651" lon="6.71609">
        <ele>1263.305</ele>
        <time>2026-03-08T09:36:00Z</time>
      </trkpt>
      <trkpt lat="46.24651" lon="6.7161">
        <ele>1262.703</ele>
        <time>2026-03-08T09:36:05Z</time>
      </trkpt>
      <trkpt lat="46.24651" lon="6.7161">
        <ele>1262.534</ele>
        <time>2026-03-08T09:36:10Z</time>
      </trkpt>
      <trkpt lat="46.24651" lon="6.7161">
        <ele>1262.137</ele>
        <time>2026-03-08T09:36:15Z</time>
      </trkpt>
      <trkpt lat="46.24651" lon="6.7161">
        <ele>1262.221</ele>
        <time>2026-03-08T09:36:20Z</time>
      </trkpt>
      <trkpt lat="46.24651" lon="6.7161">
        <ele>1261.401</ele>
        <time>2026-03-08T09:36:25Z</time>
      </trkpt>
      <trkpt lat="46.24651" lon="6.7161">
        <ele>1261.385</ele>
        <time>2026-03-08T09:36:30Z</time>
      </trkpt>
      <trkpt lat="46.24651" lon="6.7161">
        <ele>1259.939</ele>
        <time>2026-03-08T09:36:35Z</time>
      </trkpt>
      <trkpt lat="46.24651" lon="6.7161">
        <ele>1259.977</ele>
        <time>2026-03-08T09:36:40Z</time>
      </trkpt>
      <trkpt lat="46.24651" lon="6.71612">
        <ele>1260.112</ele>
        <time>2026-03-08T09:36:45Z</time>
      </trkpt>
      <trkpt lat="46.24652" lon="6.71614">
        <ele>1264.438</ele>
        <time>2026-03-08T09:36:50Z</time>
      </trkpt>
      <trkpt lat="46.24655" lon="6.71614">
        <ele>1264.849</ele>
        <time>2026-03-08T09:36:55Z</time>
      </trkpt>
      <trkpt lat="46.24657" lon="6.71611">
        <ele>1264.845</ele>
        <time>2026-03-08T09:37:00Z</time>
      </trkpt>
      <trkpt lat="46.2466" lon="6.71609">
        <ele>1266.123</ele>
        <time>2026-03-08T09:37:05Z</time>
      </trkpt>
      <trkpt lat="46.24663" lon="6.71607">
        <ele>1263.363</ele>
        <time>2026-03-08T09:37:10Z</time>
      </trkpt>
      <trkpt lat="46.24666" lon="6.71606">
        <ele>1264.385</ele>
        <time>2026-03-08T09:37:15Z</time>
      </trkpt>
      <trkpt lat="46.24669" lon="6.71603">
        <ele>1264.486</ele>
        <time>2026-03-08T09:37:20Z</time>
      </trkpt>
      <trkpt lat="46.24671" lon="6.71601">
        <ele>1266.052</ele>
        <time>2026-03-08T09:37:25Z</time>
      </trkpt>
      <trkpt lat="46.24674" lon="6.71602">
        <ele>1268.561</ele>
        <time>2026-03-08T09:37:30Z</time>
      </trkpt>
      <trkpt lat="46.24677" lon="6.71603">
        <ele>1268.367</ele>
        <time>2026-03-08T09:37:35Z</time>
      </trkpt>
      <trkpt lat="46.24677" lon="6.71601">
        <ele>1267.913</ele>
        <time>2026-03-08T09:37:40Z</time>
      </trkpt>
      <trkpt lat="46.24681" lon="6.71598">
        <ele>1266.689</ele>
        <time>2026-03-08T09:37:45Z</time>
      </trkpt>
      <trkpt lat="46.24683" lon="6.71599">
        <ele>1270.333</ele>
        <time>2026-03-08T09:37:50Z</time>
      </trkpt>
      <trkpt lat="46.24685" lon="6.716">
        <ele>1274.228</ele>
        <time>2026-03-08T09:37:55Z</time>
      </trkpt>
      <trkpt lat="46.24688" lon="6.71599">
        <ele>1274.503</ele>
        <time>2026-03-08T09:38:00Z</time>
      </trkpt>
      <trkpt lat="46.2469" lon="6.71597">
        <ele>1274.688</ele>
        <time>2026-03-08T09:38:05Z</time>
      </trkpt>
      <trkpt lat="46.24692" lon="6.71595">
        <ele>1274.475</ele>
        <time>2026-03-08T09:38:10Z</time>
      </trkpt>
      <trkpt lat="46.24695" lon="6.71595">
        <ele>1275.159</ele>
        <time>2026-03-08T09:38:15Z</time>
      </trkpt>
      <trkpt lat="46.24697" lon="6.71594">
        <ele>1277.858</ele>
        <time>2026-03-08T09:38:20Z</time>
      </trkpt>
      <trkpt lat="46.24699" lon="6.71593">
        <ele>1277.298</ele>
        <time>2026-03-08T09:38:25Z</time>
      </trkpt>
      <trkpt lat="46.247" lon="6.71592">
        <ele>1277.664</ele>
        <time>2026-03-08T09:38:30Z</time>
      </trkpt>
      <trkpt lat="46.24702" lon="6.71592">
        <ele>1278.501</ele>
        <time>2026-03-08T09:38:35Z</time>
      </trkpt>
      <trkpt lat="46.24705" lon="6.71592">
        <ele>1282.966</ele>
        <time>2026-03-08T09:38:40Z</time>
      </trkpt>
      <trkpt lat="46.24709" lon="6.71595">
        <ele>1285.452</ele>
        <time>2026-03-08T09:38:45Z</time>
      </trkpt>
      <trkpt lat="46.24711" lon="6.71597">
        <ele>1287.238</ele>
        <time>2026-03-08T09:38:50Z</time>
      </trkpt>
      <trkpt lat="46.24714" lon="6.71595">
        <ele>1286.584</ele>
        <time>2026-03-08T09:38:55Z</time>
      </trkpt>
      <trkpt lat="46.24715" lon="6.71592">
        <ele>1284.267</ele>
        <time>2026-03-08T09:39:00Z</time>
      </trkpt>
      <trkpt lat="46.24717" lon="6.7159">
        <ele>1284.698</ele>
        <time>2026-03-08T09:39:05Z</time>
      </trkpt>
      <trkpt lat="46.24719" lon="6.7159">
        <ele>1286.873</ele>
        <time>2026-03-08T09:39:10Z</time>
      </trkpt>
      <trkpt lat="46.24719" lon="6.7159">
        <ele>1288.592</ele>
        <time>2026-03-08T09:39:15Z</time>
      </trkpt>
      <trkpt lat="46.24719" lon="6.7159">
        <ele>1288.446</ele>
        <time>2026-03-08T09:39:20Z</time>
      </trkpt>
      <trkpt lat="46.24719" lon="6.7159">
        <ele>1288.535</ele>
        <time>2026-03-08T09:39:25Z</time>
      </trkpt>
      <trkpt lat="46.24719" lon="6.7159">
        <ele>1287.606</ele>
        <time>2026-03-08T09:39:30Z</time>
      </trkpt>
      <trkpt lat="46.24719" lon="6.71591">
        <ele>1287.207</ele>
        <time>2026-03-08T09:39:35Z</time>
      </trkpt>
      <trkpt lat="46.2472" lon="6.7159">
        <ele>1286.96</ele>
        <time>2026-03-08T09:39:40Z</time>
      </trkpt>
      <trkpt lat="46.24722" lon="6.71587">
        <ele>1287.87</ele>
        <time>2026-03-08T09:39:45Z</time>
      </trkpt>
      <trkpt lat="46.24726" lon="6.71586">
        <ele>1290.715</ele>
        <time>2026-03-08T09:39:50Z</time>
      </trkpt>
      <trkpt lat="46.2473" lon="6.71583">
        <ele>1288.867</ele>
        <time>2026-03-08T09:39:55Z</time>
      </trkpt>
      <trkpt lat="46.24733" lon="6.7158">
        <ele>1289.113</ele>
        <time>2026-03-08T09:40:00Z</time>
      </trkpt>
      <trkpt lat="46.24735" lon="6.71577">
        <ele>1288.883</ele>
        <time>2026-03-08T09:40:05Z</time>
      </trkpt>
      <trkpt lat="46.24737" lon="6.71575">
        <ele>1288.686</ele>
        <time>2026-03-08T09:40:10Z</time>
      </trkpt>
      <trkpt lat="46.24739" lon="6.71571">
        <ele>1288.459</ele>
        <time>2026-03-08T09:40:15Z</time>
      </trkpt>
      <trkpt lat="46.24742" lon="6.71571">
        <ele>1289.707</ele>
        <time>2026-03-08T09:40:20Z</time>
      </trkpt>
      <trkpt lat="46.24744" lon="6.71569">
        <ele>1289.21</ele>
        <time>2026-03-08T09:40:25Z</time>
      </trkpt>
      <trkpt lat="46.24746" lon="6.71568">
        <ele>1291.007</ele>
        <time>2026-03-08T09:40:30Z</time>
      </trkpt>
      <trkpt lat="46.24749" lon="6.71566">
        <ele>1292.405</ele>
        <time>2026-03-08T09:40:35Z</time>
      </trkpt>
      <trkpt lat="46.24752" lon="6.71565">
        <ele>1294.337</ele>
        <time>2026-03-08T09:40:40Z</time>
      </trkpt>
      <trkpt lat="46.24754" lon="6.71564">
        <ele>1293.446</ele>
        <time>2026-03-08T09:40:45Z</time>
      </trkpt>
      <trkpt lat="46.24755" lon="6.71562">
        <ele>1293.919</ele>
        <time>2026-03-08T09:40:50Z</time>
      </trkpt>
      <trkpt lat="46.24757" lon="6.71562">
        <ele>1297.717</ele>
        <time>2026-03-08T09:40:55Z</time>
      </trkpt>
      <trkpt lat="46.2476" lon="6.71561">
        <ele>1298.587</ele>
        <time>2026-03-08T09:41:00Z</time>
      </trkpt>
      <trkpt lat="46.24762" lon="6.71559">
        <ele>1299.102</ele>
        <time>2026-03-08T09:41:05Z</time>
      </trkpt>
      <trkpt lat="46.24765" lon="6.71556">
        <ele>1300.512</ele>
        <time>2026-03-08T09:41:10Z</time>
      </trkpt>
      <trkpt lat="46.24764" lon="6.71554">
        <ele>1300.888</ele>
        <time>2026-03-08T09:41:15Z</time>
      </trkpt>
      <trkpt lat="46.24767" lon="6.71551">
        <ele>1299.666</ele>
        <time>2026-03-08T09:41:20Z</time>
      </trkpt>
      <trkpt lat="46.2477" lon="6.71549">
        <ele>1298.925</ele>
        <time>2026-03-08T09:41:25Z</time>
      </trkpt>
      <trkpt lat="46.24771" lon="6.71549">
        <ele>1299.862</ele>
        <time>2026-03-08T09:41:30Z</time>
      </trkpt>
      <trkpt lat="46.24771" lon="6.71549">
        <ele>1298.388</ele>
        <time>2026-03-08T09:41:35Z</time>
      </trkpt>
      <trkpt lat="46.24771" lon="6.71549">
        <ele>1298.406</ele>
        <time>2026-03-08T09:41:40Z</time>
      </trkpt>
      <trkpt lat="46.24771" lon="6.71549">
        <ele>1299.929</ele>
        <time>2026-03-08T09:41:45Z</time>
      </trkpt>
      <trkpt lat="46.24771" lon="6.71549">
        <ele>1296.532</ele>
        <time>2026-03-08T09:41:50Z</time>
      </trkpt>
      <trkpt lat="46.24771" lon="6.71549">
        <ele>1297.135</ele>
        <time>2026-03-08T09:41:55Z</time>
      </trkpt>
      <trkpt lat="46.24772" lon="6.71548">
        <ele>1300.126</ele>
        <time>2026-03-08T09:42:00Z</time>
      </trkpt>
      <trkpt lat="46.24776" lon="6.71546">
        <ele>1305.075</ele>
        <time>2026-03-08T09:42:05Z</time>
      </trkpt>
      <trkpt lat="46.24781" lon="6.71547">
        <ele>1307.114</ele>
        <time>2026-03-08T09:42:10Z</time>
      </trkpt>
      <trkpt lat="46.24784" lon="6.71546">
        <ele>1308.822</ele>
        <time>2026-03-08T09:42:15Z</time>
      </trkpt>
      <trkpt lat="46.24786" lon="6.71547">
        <ele>1308.819</ele>
        <time>2026-03-08T09:42:20Z</time>
      </trkpt>
      <trkpt lat="46.24788" lon="6.71547">
        <ele>1309.152</ele>
        <time>2026-03-08T09:42:25Z</time>
      </trkpt>
      <trkpt lat="46.24792" lon="6.71545">
        <ele>1307.878</ele>
        <time>2026-03-08T09:42:30Z</time>
      </trkpt>
      <trkpt lat="46.24795" lon="6.71545">
        <ele>1307.805</ele>
        <time>2026-03-08T09:42:35Z</time>
      </trkpt>
      <trkpt lat="46.24796" lon="6.71546">
        <ele>1312.028</ele>
        <time>2026-03-08T09:42:40Z</time>
      </trkpt>
      <trkpt lat="46.24798" lon="6.71547">
        <ele>1315.447</ele>
        <time>2026-03-08T09:42:45Z</time>
      </trkpt>
      <trkpt lat="46.248" lon="6.71548">
        <ele>1316.138</ele>
        <time>2026-03-08T09:42:50Z</time>
      </trkpt>
      <trkpt lat="46.24802" lon="6.7155">
        <ele>1312.916</ele>
        <time>2026-03-08T09:42:55Z</time>
      </trkpt>
      <trkpt lat="46.24804" lon="6.71551">
        <ele>1314.099</ele>
        <time>2026-03-08T09:43:00Z</time>
      </trkpt>
      <trkpt lat="46.24804" lon="6.71551">
        <ele>1314.492</ele>
        <time>2026-03-08T09:43:05Z</time>
      </trkpt>
      <trkpt lat="46.24804" lon="6.71551">
        <ele>1314.441</ele>
        <time>2026-03-08T09:43:10Z</time>
      </trkpt>
      <trkpt lat="46.24804" lon="6.71551">
        <ele>1314.865</ele>
        <time>2026-03-08T09:43:15Z</time>
      </trkpt>
      <trkpt lat="46.24804" lon="6.71551">
        <ele>1314.991</ele>
        <time>2026-03-08T09:43:20Z</time>
      </trkpt>
      <trkpt lat="46.24804" lon="6.71551">
        <ele>1316.332</ele>
        <time>2026-03-08T09:43:25Z</time>
      </trkpt>
      <trkpt lat="46.24804" lon="6.71551">
        <ele>1316.033</ele>
        <time>2026-03-08T09:43:30Z</time>
      </trkpt>
      <trkpt lat="46.24804" lon="6.71551">
        <ele>1316.414</ele>
        <time>2026-03-08T09:43:35Z</time>
      </trkpt>
      <trkpt lat="46.24804" lon="6.71551">
        <ele>1316.607</ele>
        <time>2026-03-08T09:43:40Z</time>
      </trkpt>
      <trkpt lat="46.24804" lon="6.71551">
        <ele>1317.136</ele>
        <time>2026-03-08T09:43:45Z</time>
      </trkpt>
      <trkpt lat="46.24804" lon="6.71551">
        <ele>1315.035</ele>
        <time>2026-03-08T09:43:50Z</time>
      </trkpt>
      <trkpt lat="46.24805" lon="6.71551">
        <ele>1312.973</ele>
        <time>2026-03-08T09:43:55Z</time>
      </trkpt>
      <trkpt lat="46.2481" lon="6.71554">
        <ele>1314.972</ele>
        <time>2026-03-08T09:44:00Z</time>
      </trkpt>
      <trkpt lat="46.24814" lon="6.71556">
        <ele>1316.121</ele>
        <time>2026-03-08T09:44:05Z</time>
      </trkpt>
      <trkpt lat="46.24816" lon="6.71557">
        <ele>1318.727</ele>
        <time>2026-03-08T09:44:10Z</time>
      </trkpt>
      <trkpt lat="46.24819" lon="6.71557">
        <ele>1319.494</ele>
        <time>2026-03-08T09:44:15Z</time>
      </trkpt>
      <trkpt lat="46.24822" lon="6.71554">
        <ele>1319.273</ele>
        <time>2026-03-08T09:44:20Z</time>
      </trkpt>
      <trkpt lat="46.24824" lon="6.71552">
        <ele>1318.743</ele>
        <time>2026-03-08T09:44:25Z</time>
      </trkpt>
      <trkpt lat="46.24825" lon="6.71551">
        <ele>1318.449</ele>
        <time>2026-03-08T09:44:30Z</time>
      </trkpt>
      <trkpt lat="46.24825" lon="6.71551">
        <ele>1318.45</ele>
        <time>2026-03-08T09:44:35Z</time>
      </trkpt>
      <trkpt lat="46.24825" lon="6.71551">
        <ele>1318.441</ele>
        <time>2026-03-08T09:44:40Z</time>
      </trkpt>
      <trkpt lat="46.24825" lon="6.71551">
        <ele>1318.434</ele>
        <time>2026-03-08T09:44:45Z</time>
      </trkpt>
      <trkpt lat="46.24827" lon="6.7155">
        <ele>1318.057</ele>
        <time>2026-03-08T09:44:50Z</time>
      </trkpt>
      <trkpt lat="46.24829" lon="6.71549">
        <ele>1318.326</ele>
        <time>2026-03-08T09:44:55Z</time>
      </trkpt>
      <trkpt lat="46.24831" lon="6.71547">
        <ele>1317.19</ele>
        <time>2026-03-08T09:45:00Z</time>
      </trkpt>
      <trkpt lat="46.24833" lon="6.71545">
        <ele>1318.121</ele>
        <time>2026-03-08T09:45:05Z</time>
      </trkpt>
      <trkpt lat="46.24836" lon="6.71544">
        <ele>1317.613</ele>
        <time>2026-03-08T09:45:10Z</time>
      </trkpt>
      <trkpt lat="46.24839" lon="6.71544">
        <ele>1318.195</ele>
        <time>2026-03-08T09:45:15Z</time>
      </trkpt>
      <trkpt lat="46.24841" lon="6.71543">
        <ele>1318.069</ele>
        <time>2026-03-08T09:45:20Z</time>
      </trkpt>
      <trkpt lat="46.24843" lon="6.71542">
        <ele>1318.821</ele>
        <time>2026-03-08T09:45:25Z</time>
      </trkpt>
      <trkpt lat="46.24846" lon="6.71541">
        <ele>1319.774</ele>
        <time>2026-03-08T09:45:30Z</time>
      </trkpt>
      <trkpt lat="46.24849" lon="6.7154">
        <ele>1319.979</ele>
        <time>2026-03-08T09:45:35Z</time>
      </trkpt>
      <trkpt lat="46.24852" lon="6.7154">
        <ele>1319.906</ele>
        <time>2026-03-08T09:45:40Z</time>
      </trkpt>
      <trkpt lat="46.24854" lon="6.7154">
        <ele>1321.128</ele>
        <time>2026-03-08T09:45:45Z</time>
      </trkpt>
      <trkpt lat="46.24858" lon="6.71541">
        <ele>1323.346</ele>
        <time>2026-03-08T09:45:50Z</time>
      </trkpt>
      <trkpt lat="46.24862" lon="6.71541">
        <ele>1324.428</ele>
        <time>2026-03-08T09:45:55Z</time>
      </trkpt>
      <trkpt lat="46.24864" lon="6.71541">
        <ele>1324.595</ele>
        <time>2026-03-08T09:46:00Z</time>
      </trkpt>
      <trkpt lat="46.24867" lon="6.7154">
        <ele>1325.365</ele>
        <time>2026-03-08T09:46:05Z</time>
      </trkpt>
      <trkpt lat="46.24869" lon="6.71539">
        <ele>1326.133</ele>
        <time>2026-03-08T09:46:10Z</time>
      </trkpt>
      <trkpt lat="46.24873" lon="6.71539">
        <ele>1327.57</ele>
        <time>2026-03-08T09:46:15Z</time>
      </trkpt>
      <trkpt lat="46.24876" lon="6.71539">
        <ele>1328.627</ele>
        <time>2026-03-08T09:46:20Z</time>
      </trkpt>
      <trkpt lat="46.24878" lon="6.71535">
        <ele>1328.821</ele>
        <time>2026-03-08T09:46:25Z</time>
      </trkpt>
      <trkpt lat="46.24877" lon="6.71531">
        <ele>1329.446</ele>
        <time>2026-03-08T09:46:30Z</time>
      </trkpt>
      <trkpt lat="46.24875" lon="6.71529">
        <ele>1331.686</ele>
        <time>2026-03-08T09:46:35Z</time>
      </trkpt>
      <trkpt lat="46.24873" lon="6.71526">
        <ele>1331.047</ele>
        <time>2026-03-08T09:46:40Z</time>
      </trkpt>
      <trkpt lat="46.24872" lon="6.71524">
        <ele>1330.608</ele>
        <time>2026-03-08T09:46:45Z</time>
      </trkpt>
      <trkpt lat="46.24871" lon="6.71521">
        <ele>1331.023</ele>
        <time>2026-03-08T09:46:50Z</time>
      </trkpt>
      <trkpt lat="46.24869" lon="6.71517">
        <ele>1331.751</ele>
        <time>2026-03-08T09:46:55Z</time>
      </trkpt>
      <trkpt lat="46.24867" lon="6.71515">
        <ele>1332.033</ele>
        <time>2026-03-08T09:47:00Z</time>
      </trkpt>
      <trkpt lat="46.24866" lon="6.71512">
        <ele>1331.938</ele>
        <time>2026-03-08T09:47:05Z</time>
      </trkpt>
      <trkpt lat="46.24864" lon="6.71508">
        <ele>1332.835</ele>
        <time>2026-03-08T09:47:10Z</time>
      </trkpt>
      <trkpt lat="46.24861" lon="6.71505">
        <ele>1334.253</ele>
        <time>2026-03-08T09:47:15Z</time>
      </trkpt>
      <trkpt lat="46.2486" lon="6.71501">
        <ele>1335.659</ele>
        <time>2026-03-08T09:47:20Z</time>
      </trkpt>
      <trkpt lat="46.24858" lon="6.71498">
        <ele>1335.4</ele>
        <time>2026-03-08T09:47:25Z</time>
      </trkpt>
      <trkpt lat="46.24855" lon="6.71496">
        <ele>1335.796</ele>
        <time>2026-03-08T09:47:30Z</time>
      </trkpt>
      <trkpt lat="46.24853" lon="6.71493">
        <ele>1336.837</ele>
        <time>2026-03-08T09:47:35Z</time>
      </trkpt>
      <trkpt lat="46.24851" lon="6.71489">
        <ele>1338.252</ele>
        <time>2026-03-08T09:47:40Z</time>
      </trkpt>
      <trkpt lat="46.24849" lon="6.71485">
        <ele>1340.023</ele>
        <time>2026-03-08T09:47:45Z</time>
      </trkpt>
      <trkpt lat="46.24847" lon="6.71483">
        <ele>1340.326</ele>
        <time>2026-03-08T09:47:50Z</time>
      </trkpt>
      <trkpt lat="46.24845" lon="6.71479">
        <ele>1341.575</ele>
        <time>2026-03-08T09:47:55Z</time>
      </trkpt>
      <trkpt lat="46.24843" lon="6.71477">
        <ele>1342.876</ele>
        <time>2026-03-08T09:48:00Z</time>
      </trkpt>
      <trkpt lat="46.2484" lon="6.71474">
        <ele>1342.598</ele>
        <time>2026-03-08T09:48:05Z</time>
      </trkpt>
      <trkpt lat="46.24838" lon="6.71471">
        <ele>1343.68</ele>
        <time>2026-03-08T09:48:10Z</time>
      </trkpt>
      <trkpt lat="46.24836" lon="6.71468">
        <ele>1345.466</ele>
        <time>2026-03-08T09:48:15Z</time>
      </trkpt>
      <trkpt lat="46.24834" lon="6.71464">
        <ele>1347.236</ele>
        <time>2026-03-08T09:48:20Z</time>
      </trkpt>
      <trkpt lat="46.24833" lon="6.71461">
        <ele>1346.706</ele>
        <time>2026-03-08T09:48:25Z</time>
      </trkpt>
      <trkpt lat="46.24832" lon="6.71458">
        <ele>1347.767</ele>
        <time>2026-03-08T09:48:30Z</time>
      </trkpt>
      <trkpt lat="46.24831" lon="6.71454">
        <ele>1348.522</ele>
        <time>2026-03-08T09:48:35Z</time>
      </trkpt>
      <trkpt lat="46.2483" lon="6.7145">
        <ele>1349.921</ele>
        <time>2026-03-08T09:48:40Z</time>
      </trkpt>
      <trkpt lat="46.24828" lon="6.71446">
        <ele>1350.275</ele>
        <time>2026-03-08T09:48:45Z</time>
      </trkpt>
      <trkpt lat="46.24827" lon="6.71442">
        <ele>1351.731</ele>
        <time>2026-03-08T09:48:50Z</time>
      </trkpt>
      <trkpt lat="46.24827" lon="6.71438">
        <ele>1353.441</ele>
        <time>2026-03-08T09:48:55Z</time>
      </trkpt>
      <trkpt lat="46.24826" lon="6.71433">
        <ele>1352.949</ele>
        <time>2026-03-08T09:49:00Z</time>
      </trkpt>
      <trkpt lat="46.24827" lon="6.71429">
        <ele>1354.867</ele>
        <time>2026-03-08T09:49:05Z</time>
      </trkpt>
      <trkpt lat="46.24828" lon="6.71424">
        <ele>1355.206</ele>
        <time>2026-03-08T09:49:10Z</time>
      </trkpt>
      <trkpt lat="46.2483" lon="6.7142">
        <ele>1354.963</ele>
        <time>2026-03-08T09:49:15Z</time>
      </trkpt>
      <trkpt lat="46.24832" lon="6.71416">
        <ele>1354.87</ele>
        <time>2026-03-08T09:49:20Z</time>
      </trkpt>
      <trkpt lat="46.24834" lon="6.71413">
        <ele>1356.41</ele>
        <time>2026-03-08T09:49:25Z</time>
      </trkpt>
      <trkpt lat="46.24836" lon="6.7141">
        <ele>1357.79</ele>
        <time>2026-03-08T09:49:30Z</time>
      </trkpt>
      <trkpt lat="46.24837" lon="6.71407">
        <ele>1358.104</ele>
        <time>2026-03-08T09:49:35Z</time>
      </trkpt>
      <trkpt lat="46.24839" lon="6.71404">
        <ele>1359.767</ele>
        <time>2026-03-08T09:49:40Z</time>
      </trkpt>
      <trkpt lat="46.2484" lon="6.71401">
        <ele>1360.33</ele>
        <time>2026-03-08T09:49:45Z</time>
      </trkpt>
      <trkpt lat="46.24841" lon="6.71397">
        <ele>1360.799</ele>
        <time>2026-03-08T09:49:50Z</time>
      </trkpt>
      <trkpt lat="46.24841" lon="6.71392">
        <ele>1360.623</ele>
        <time>2026-03-08T09:49:55Z</time>
      </trkpt>
      <trkpt lat="46.2484" lon="6.71388">
        <ele>1361.368</ele>
        <time>2026-03-08T09:50:00Z</time>
      </trkpt>
      <trkpt lat="46.2484" lon="6.71383">
        <ele>1361.225</ele>
        <time>2026-03-08T09:50:05Z</time>
      </trkpt>
      <trkpt lat="46.24839" lon="6.71379">
        <ele>1361.801</ele>
        <time>2026-03-08T09:50:10Z</time>
      </trkpt>
      <trkpt lat="46.24839" lon="6.71374">
        <ele>1362.188</ele>
        <time>2026-03-08T09:50:15Z</time>
      </trkpt>
      <trkpt lat="46.24839" lon="6.7137">
        <ele>1363.153</ele>
        <time>2026-03-08T09:50:20Z</time>
      </trkpt>
      <trkpt lat="46.2484" lon="6.71365">
        <ele>1363.293</ele>
        <time>2026-03-08T09:50:25Z</time>
      </trkpt>
      <trkpt lat="46.2484" lon="6.71361">
        <ele>1363.396</ele>
        <time>2026-03-08T09:50:30Z</time>
      </trkpt>
      <trkpt lat="46.24841" lon="6.71356">
        <ele>1363.438</ele>
        <time>2026-03-08T09:50:35Z</time>
      </trkpt>
      <trkpt lat="46.24842" lon="6.71352">
        <ele>1364.391</ele>
        <time>2026-03-08T09:50:40Z</time>
      </trkpt>
      <trkpt lat="46.24842" lon="6.71347">
        <ele>1365.766</ele>
        <time>2026-03-08T09:50:45Z</time>
      </trkpt>
      <trkpt lat="46.24843" lon="6.71343">
        <ele>1366.916</ele>
        <time>2026-03-08T09:50:50Z</time>
      </trkpt>
      <trkpt lat="46.24844" lon="6.71339">
        <ele>1367.917</ele>
        <time>2026-03-08T09:50:55Z</time>
      </trkpt>
      <trkpt lat="46.24844" lon="6.71334">
        <ele>1369.15</ele>
        <time>2026-03-08T09:51:00Z</time>
      </trkpt>
      <trkpt lat="46.24842" lon="6.71332">
        <ele>1370.081</ele>
        <time>2026-03-08T09:51:05Z</time>
      </trkpt>
      <trkpt lat="46.24838" lon="6.7133">
        <ele>1371.521</ele>
        <time>2026-03-08T09:51:10Z</time>
      </trkpt>
      <trkpt lat="46.24834" lon="6.71329">
        <ele>1371.606</ele>
        <time>2026-03-08T09:51:15Z</time>
      </trkpt>
      <trkpt lat="46.2483" lon="6.71328">
        <ele>1371.988</ele>
        <time>2026-03-08T09:51:20Z</time>
      </trkpt>
      <trkpt lat="46.24827" lon="6.71327">
        <ele>1372.971</ele>
        <time>2026-03-08T09:51:25Z</time>
      </trkpt>
      <trkpt lat="46.24824" lon="6.71325">
        <ele>1372.35</ele>
        <time>2026-03-08T09:51:30Z</time>
      </trkpt>
      <trkpt lat="46.24823" lon="6.71321">
        <ele>1372.882</ele>
        <time>2026-03-08T09:51:35Z</time>
      </trkpt>
      <trkpt lat="46.24823" lon="6.71317">
        <ele>1372.506</ele>
        <time>2026-03-08T09:51:40Z</time>
      </trkpt>
      <trkpt lat="46.24825" lon="6.71313">
        <ele>1372.62</ele>
        <time>2026-03-08T09:51:45Z</time>
      </trkpt>
      <trkpt lat="46.24827" lon="6.7131">
        <ele>1372.446</ele>
        <time>2026-03-08T09:51:50Z</time>
      </trkpt>
      <trkpt lat="46.24829" lon="6.71307">
        <ele>1374.43</ele>
        <time>2026-03-08T09:51:55Z</time>
      </trkpt>
      <trkpt lat="46.2483" lon="6.71303">
        <ele>1374.259</ele>
        <time>2026-03-08T09:52:00Z</time>
      </trkpt>
      <trkpt lat="46.24831" lon="6.71299">
        <ele>1375.107</ele>
        <time>2026-03-08T09:52:05Z</time>
      </trkpt>
      <trkpt lat="46.24832" lon="6.71295">
        <ele>1375.617</ele>
        <time>2026-03-08T09:52:10Z</time>
      </trkpt>
      <trkpt lat="46.24832" lon="6.71292">
        <ele>1376.733</ele>
        <time>2026-03-08T09:52:15Z</time>
      </trkpt>
      <trkpt lat="46.24834" lon="6.71288">
        <ele>1377.858</ele>
        <time>2026-03-08T09:52:20Z</time>
      </trkpt>
      <trkpt lat="46.24835" lon="6.71285">
        <ele>1379.689</ele>
        <time>2026-03-08T09:52:25Z</time>
      </trkpt>
      <trkpt lat="46.24837" lon="6.71281">
        <ele>1380.915</ele>
        <time>2026-03-08T09:52:30Z</time>
      </trkpt>
      <trkpt lat="46.24838" lon="6.71277">
        <ele>1381.862</ele>
        <time>2026-03-08T09:52:35Z</time>
      </trkpt>
      <trkpt lat="46.24839" lon="6.71273">
        <ele>1383.038</ele>
        <time>2026-03-08T09:52:40Z</time>
      </trkpt>
      <trkpt lat="46.2484" lon="6.7127">
        <ele>1383.618</ele>
        <time>2026-03-08T09:52:45Z</time>
      </trkpt>
      <trkpt lat="46.2484" lon="6.71266">
        <ele>1385.065</ele>
        <time>2026-03-08T09:52:50Z</time>
      </trkpt>
      <trkpt lat="46.24841" lon="6.71262">
        <ele>1386.109</ele>
        <time>2026-03-08T09:52:55Z</time>
      </trkpt>
      <trkpt lat="46.24842" lon="6.71259">
        <ele>1387.876</ele>
        <time>2026-03-08T09:53:00Z</time>
      </trkpt>
      <trkpt lat="46.24842" lon="6.71255">
        <ele>1388.512</ele>
        <time>2026-03-08T09:53:05Z</time>
      </trkpt>
      <trkpt lat="46.24843" lon="6.71252">
        <ele>1388.897</ele>
        <time>2026-03-08T09:53:10Z</time>
      </trkpt>
      <trkpt lat="46.24843" lon="6.71248">
        <ele>1389.153</ele>
        <time>2026-03-08T09:53:15Z</time>
      </trkpt>
      <trkpt lat="46.24843" lon="6.71245">
        <ele>1389.669</ele>
        <time>2026-03-08T09:53:20Z</time>
      </trkpt>
      <trkpt lat="46.24843" lon="6.71241">
        <ele>1390.139</ele>
        <time>2026-03-08T09:53:25Z</time>
      </trkpt>
      <trkpt lat="46.24842" lon="6.71237">
        <ele>1389.968</ele>
        <time>2026-03-08T09:53:30Z</time>
      </trkpt>
      <trkpt lat="46.24841" lon="6.71234">
        <ele>1391.491</ele>
        <time>2026-03-08T09:53:35Z</time>
      </trkpt>
      <trkpt lat="46.2484" lon="6.71231">
        <ele>1391.068</ele>
        <time>2026-03-08T09:53:40Z</time>
      </trkpt>
      <trkpt lat="46.24839" lon="6.71227">
        <ele>1391.313</ele>
        <time>2026-03-08T09:53:45Z</time>
      </trkpt>
      <trkpt lat="46.24838" lon="6.71224">
        <ele>1391.544</ele>
        <time>2026-03-08T09:53:50Z</time>
      </trkpt>
      <trkpt lat="46.24838" lon="6.71222">
        <ele>1391.9</ele>
        <time>2026-03-08T09:53:55Z</time>
      </trkpt>
      <trkpt lat="46.24838" lon="6.71222">
        <ele>1391.906</ele>
        <time>2026-03-08T09:54:00Z</time>
      </trkpt>
      <trkpt lat="46.24838" lon="6.71222">
        <ele>1391.914</ele>
        <time>2026-03-08T09:54:05Z</time>
      </trkpt>
      <trkpt lat="46.24838" lon="6.71222">
        <ele>1391.906</ele>
        <time>2026-03-08T09:54:10Z</time>
      </trkpt>
      <trkpt lat="46.24838" lon="6.71222">
        <ele>1391.74</ele>
        <time>2026-03-08T09:54:15Z</time>
      </trkpt>
      <trkpt lat="46.24838" lon="6.71222">
        <ele>1391.735</ele>
        <time>2026-03-08T09:54:20Z</time>
      </trkpt>
      <trkpt lat="46.24838" lon="6.71222">
        <ele>1391.72</ele>
        <time>2026-03-08T09:54:25Z</time>
      </trkpt>
      <trkpt lat="46.24838" lon="6.71222">
        <ele>1391.719</ele>
        <time>2026-03-08T09:54:30Z</time>
      </trkpt>
      <trkpt lat="46.24838" lon="6.71222">
        <ele>1408.797</ele>
        <time>2026-03-08T09:54:35Z</time>
      </trkpt>
      <trkpt lat="46.24838" lon="6.71222">
        <ele>1412.466</ele>
        <time>2026-03-08T09:54:40Z</time>
      </trkpt>
      <trkpt lat="46.24838" lon="6.71222">
        <ele>1411.699</ele>
        <time>2026-03-08T09:54:45Z</time>
      </trkpt>
      <trkpt lat="46.24838" lon="6.71222">
        <ele>1411.13</ele>
        <time>2026-03-08T09:54:50Z</time>
      </trkpt>
      <trkpt lat="46.24838" lon="6.71222">
        <ele>1411.049</ele>
        <time>2026-03-08T09:54:55Z</time>
      </trkpt>
      <trkpt lat="46.24838" lon="6.71222">
        <ele>1408.489</ele>
        <time>2026-03-08T09:55:00Z</time>
      </trkpt>
      <trkpt lat="46.24838" lon="6.71222">
        <ele>1403.053</ele>
        <time>2026-03-08T09:55:05Z</time>
      </trkpt>
      <trkpt lat="46.24838" lon="6.71222">
        <ele>1399.366</ele>
        <time>2026-03-08T09:55:10Z</time>
      </trkpt>
      <trkpt lat="46.24838" lon="6.71222">
        <ele>1399.069</ele>
        <time>2026-03-08T09:55:15Z</time>
      </trkpt>
      <trkpt lat="46.24838" lon="6.71222">
        <ele>1398.889</ele>
        <time>2026-03-08T09:55:20Z</time>
      </trkpt>
      <trkpt lat="46.24838" lon="6.71222">
        <ele>1398.867</ele>
        <time>2026-03-08T09:55:25Z</time>
      </trkpt>
      <trkpt lat="46.24838" lon="6.71222">
        <ele>1398.858</ele>
        <time>2026-03-08T09:55:30Z</time>
      </trkpt>
      <trkpt lat="46.24838" lon="6.71222">
        <ele>1398.84</ele>
        <time>2026-03-08T09:55:35Z</time>
      </trkpt>
      <trkpt lat="46.24838" lon="6.71222">
        <ele>1398.844</ele>
        <time>2026-03-08T09:55:40Z</time>
      </trkpt>
      <trkpt lat="46.24838" lon="6.71222">
        <ele>1398.841</ele>
        <time>2026-03-08T09:55:45Z</time>
      </trkpt>
      <trkpt lat="46.24838" lon="6.71222">
        <ele>1398.828</ele>
        <time>2026-03-08T09:55:50Z</time>
      </trkpt>
      <trkpt lat="46.24838" lon="6.71222">
        <ele>1398.827</ele>
        <time>2026-03-08T09:55:55Z</time>
      </trkpt>
      <trkpt lat="46.24838" lon="6.71222">
        <ele>1398.794</ele>
        <time>2026-03-08T09:56:00Z</time>
      </trkpt>
      <trkpt lat="46.24838" lon="6.71222">
        <ele>1398.765</ele>
        <time>2026-03-08T09:56:05Z</time>
      </trkpt>
      <trkpt lat="46.24838" lon="6.71222">
        <ele>1398.707</ele>
        <time>2026-03-08T09:56:10Z</time>
      </trkpt>
      <trkpt lat="46.24838" lon="6.71222">
        <ele>1398.702</ele>
        <time>2026-03-08T09:56:15Z</time>
      </trkpt>
      <trkpt lat="46.24838" lon="6.71222">
        <ele>1398.662</ele>
        <time>2026-03-08T09:56:20Z</time>
      </trkpt>
      <trkpt lat="46.24838" lon="6.71222">
        <ele>1398.61</ele>
        <time>2026-03-08T09:56:25Z</time>
      </trkpt>
      <trkpt lat="46.24838" lon="6.71222">
        <ele>1398.603</ele>
        <time>2026-03-08T09:56:30Z</time>
      </trkpt>
      <trkpt lat="46.24838" lon="6.71222">
        <ele>1398.553</ele>
        <time>2026-03-08T09:56:35Z</time>
      </trkpt>
      <trkpt lat="46.24838" lon="6.71222">
        <ele>1398.512</ele>
        <time>2026-03-08T09:56:40Z</time>
      </trkpt>
      <trkpt lat="46.24838" lon="6.71222">
        <ele>1398.485</ele>
        <time>2026-03-08T09:56:45Z</time>
      </trkpt>
      <trkpt lat="46.24838" lon="6.71222">
        <ele>1398.433</ele>
        <time>2026-03-08T09:56:50Z</time>
      </trkpt>
      <trkpt lat="46.24838" lon="6.71222">
        <ele>1398.395</ele>
        <time>2026-03-08T09:56:55Z</time>
      </trkpt>
      <trkpt lat="46.24838" lon="6.71222">
        <ele>1398.379</ele>
        <time>2026-03-08T09:57:00Z</time>
      </trkpt>
      <trkpt lat="46.24838" lon="6.71222">
        <ele>1398.349</ele>
        <time>2026-03-08T09:57:05Z</time>
      </trkpt>
      <trkpt lat="46.24838" lon="6.71222">
        <ele>1398.308</ele>
        <time>2026-03-08T09:57:10Z</time>
      </trkpt>
      <trkpt lat="46.24838" lon="6.71222">
        <ele>1398.238</ele>
        <time>2026-03-08T09:57:15Z</time>
      </trkpt>
      <trkpt lat="46.24838" lon="6.71222">
        <ele>1398.135</ele>
        <time>2026-03-08T09:57:20Z</time>
      </trkpt>
      <trkpt lat="46.24838" lon="6.71222">
        <ele>1398.037</ele>
        <time>2026-03-08T09:57:25Z</time>
      </trkpt>
      <trkpt lat="46.24838" lon="6.71222">
        <ele>1397.965</ele>
        <time>2026-03-08T09:57:30Z</time>
      </trkpt>
      <trkpt lat="46.24838" lon="6.71222">
        <ele>1397.905</ele>
        <time>2026-03-08T09:57:35Z</time>
      </trkpt>
      <trkpt lat="46.24838" lon="6.71222">
        <ele>1397.863</ele>
        <time>2026-03-08T09:57:40Z</time>
      </trkpt>
      <trkpt lat="46.24838" lon="6.71222">
        <ele>1397.832</ele>
        <time>2026-03-08T09:57:45Z</time>
      </trkpt>
      <trkpt lat="46.24838" lon="6.71222">
        <ele>1397.798</ele>
        <time>2026-03-08T09:57:50Z</time>
      </trkpt>
      <trkpt lat="46.24838" lon="6.71222">
        <ele>1397.783</ele>
        <time>2026-03-08T09:57:55Z</time>
      </trkpt>
      <trkpt lat="46.24838" lon="6.71222">
        <ele>1397.771</ele>
        <time>2026-03-08T09:58:00Z</time>
      </trkpt>
      <trkpt lat="46.24838" lon="6.71222">
        <ele>1397.728</ele>
        <time>2026-03-08T09:58:05Z</time>
      </trkpt>
      <trkpt lat="46.24838" lon="6.71222">
        <ele>1394.856</ele>
        <time>2026-03-08T09:58:10Z</time>
      </trkpt>
      <trkpt lat="46.24838" lon="6.71222">
        <ele>1393.651</ele>
        <time>2026-03-08T09:58:15Z</time>
      </trkpt>
      <trkpt lat="46.24838" lon="6.71222">
        <ele>1394.023</ele>
        <time>2026-03-08T09:58:20Z</time>
      </trkpt>
      <trkpt lat="46.24838" lon="6.71222">
        <ele>1395.666</ele>
        <time>2026-03-08T09:58:25Z</time>
      </trkpt>
      <trkpt lat="46.24838" lon="6.71222">
        <ele>1397.677</ele>
        <time>2026-03-08T09:58:30Z</time>
      </trkpt>
      <trkpt lat="46.24838" lon="6.71222">
        <ele>1397.12</ele>
        <time>2026-03-08T09:58:35Z</time>
      </trkpt>
      <trkpt lat="46.24834" lon="6.71204">
        <ele>1396.087</ele>
        <time>2026-03-08T09:58:40Z</time>
      </trkpt>
      <trkpt lat="46.24833" lon="6.71204">
        <ele>1394.126</ele>
        <time>2026-03-08T09:58:45Z</time>
      </trkpt>
      <trkpt lat="46.24833" lon="6.71199">
        <ele>1393.999</ele>
        <time>2026-03-08T09:58:50Z</time>
      </trkpt>
      <trkpt lat="46.24832" lon="6.71195">
        <ele>1394.08</ele>
        <time>2026-03-08T09:58:55Z</time>
      </trkpt>
      <trkpt lat="46.24831" lon="6.7119">
        <ele>1394.27</ele>
        <time>2026-03-08T09:59:00Z</time>
      </trkpt>
      <trkpt lat="46.24829" lon="6.71185">
        <ele>1393.994</ele>
        <time>2026-03-08T09:59:05Z</time>
      </trkpt>
      <trkpt lat="46.24828" lon="6.71181">
        <ele>1395.081</ele>
        <time>2026-03-08T09:59:10Z</time>
      </trkpt>
      <trkpt lat="46.24828" lon="6.71177">
        <ele>1395.417</ele>
        <time>2026-03-08T09:59:15Z</time>
      </trkpt>
      <trkpt lat="46.24827" lon="6.71171">
        <ele>1404.95</ele>
        <time>2026-03-08T09:59:20Z</time>
      </trkpt>
      <trkpt lat="46.24827" lon="6.71168">
        <ele>1404.659</ele>
        <time>2026-03-08T09:59:26Z</time>
      </trkpt>
      <trkpt lat="46.24827" lon="6.71166">
        <ele>1404.501</ele>
        <time>2026-03-08T09:59:30Z</time>
      </trkpt>
      <trkpt lat="46.24827" lon="6.71161">
        <ele>1409.403</ele>
        <time>2026-03-08T09:59:36Z</time>
      </trkpt>
      <trkpt lat="46.24827" lon="6.71157">
        <ele>1410.554</ele>
        <time>2026-03-08T09:59:41Z</time>
      </trkpt>
      <trkpt lat="46.24827" lon="6.71151">
        <ele>1405.349</ele>
        <time>2026-03-08T09:59:46Z</time>
      </trkpt>
      <trkpt lat="46.24827" lon="6.71146">
        <ele>1402.556</ele>
        <time>2026-03-08T09:59:51Z</time>
      </trkpt>
      <trkpt lat="46.24828" lon="6.71145">
        <ele>1408.896</ele>
        <time>2026-03-08T09:59:56Z</time>
      </trkpt>
      <trkpt lat="46.24829" lon="6.7114">
        <ele>1409.644</ele>
        <time>2026-03-08T10:00:01Z</time>
      </trkpt>
      <trkpt lat="46.24828" lon="6.71133">
        <ele>1410.3</ele>
        <time>2026-03-08T10:00:06Z</time>
      </trkpt>
      <trkpt lat="46.24828" lon="6.71128">
        <ele>1411.268</ele>
        <time>2026-03-08T10:00:11Z</time>
      </trkpt>
      <trkpt lat="46.24828" lon="6.71125">
        <ele>1410.477</ele>
        <time>2026-03-08T10:00:16Z</time>
      </trkpt>
      <trkpt lat="46.24828" lon="6.7112">
        <ele>1408.162</ele>
        <time>2026-03-08T10:00:21Z</time>
      </trkpt>
      <trkpt lat="46.24829" lon="6.71115">
        <ele>1407.329</ele>
        <time>2026-03-08T10:00:26Z</time>
      </trkpt>
      <trkpt lat="46.24828" lon="6.71111">
        <ele>1406.935</ele>
        <time>2026-03-08T10:00:31Z</time>
      </trkpt>
      <trkpt lat="46.24827" lon="6.71106">
        <ele>1407.051</ele>
        <time>2026-03-08T10:00:36Z</time>
      </trkpt>
      <trkpt lat="46.24826" lon="6.71101">
        <ele>1407.021</ele>
        <time>2026-03-08T10:00:41Z</time>
      </trkpt>
      <trkpt lat="46.24826" lon="6.71097">
        <ele>1407.411</ele>
        <time>2026-03-08T10:00:46Z</time>
      </trkpt>
      <trkpt lat="46.24825" lon="6.71093">
        <ele>1408.065</ele>
        <time>2026-03-08T10:00:51Z</time>
      </trkpt>
      <trkpt lat="46.24824" lon="6.71088">
        <ele>1408.326</ele>
        <time>2026-03-08T10:00:56Z</time>
      </trkpt>
      <trkpt lat="46.24823" lon="6.71084">
        <ele>1409.511</ele>
        <time>2026-03-08T10:01:01Z</time>
      </trkpt>
      <trkpt lat="46.24823" lon="6.71081">
        <ele>1409.862</ele>
        <time>2026-03-08T10:01:06Z</time>
      </trkpt>
      <trkpt lat="46.24822" lon="6.71076">
        <ele>1409.835</ele>
        <time>2026-03-08T10:01:11Z</time>
      </trkpt>
      <trkpt lat="46.24821" lon="6.71072">
        <ele>1409.956</ele>
        <time>2026-03-08T10:01:16Z</time>
      </trkpt>
      <trkpt lat="46.2482" lon="6.71068">
        <ele>1410.433</ele>
        <time>2026-03-08T10:01:21Z</time>
      </trkpt>
      <trkpt lat="46.24819" lon="6.71064">
        <ele>1411.569</ele>
        <time>2026-03-08T10:01:26Z</time>
      </trkpt>
      <trkpt lat="46.24819" lon="6.7106">
        <ele>1411.997</ele>
        <time>2026-03-08T10:01:31Z</time>
      </trkpt>
      <trkpt lat="46.24818" lon="6.71055">
        <ele>1411.44</ele>
        <time>2026-03-08T10:01:36Z</time>
      </trkpt>
      <trkpt lat="46.24818" lon="6.7105">
        <ele>1411.407</ele>
        <time>2026-03-08T10:01:41Z</time>
      </trkpt>
      <trkpt lat="46.24818" lon="6.71046">
        <ele>1412.484</ele>
        <time>2026-03-08T10:01:46Z</time>
      </trkpt>
      <trkpt lat="46.24817" lon="6.71042">
        <ele>1413.226</ele>
        <time>2026-03-08T10:01:51Z</time>
      </trkpt>
      <trkpt lat="46.24816" lon="6.71037">
        <ele>1413.738</ele>
        <time>2026-03-08T10:01:56Z</time>
      </trkpt>
      <trkpt lat="46.24815" lon="6.71032">
        <ele>1414.693</ele>
        <time>2026-03-08T10:02:01Z</time>
      </trkpt>
      <trkpt lat="46.24814" lon="6.71028">
        <ele>1413.671</ele>
        <time>2026-03-08T10:02:06Z</time>
      </trkpt>
      <trkpt lat="46.24814" lon="6.71023">
        <ele>1415.545</ele>
        <time>2026-03-08T10:02:11Z</time>
      </trkpt>
      <trkpt lat="46.24813" lon="6.71019">
        <ele>1416.654</ele>
        <time>2026-03-08T10:02:16Z</time>
      </trkpt>
      <trkpt lat="46.24812" lon="6.71016">
        <ele>1415.444</ele>
        <time>2026-03-08T10:02:21Z</time>
      </trkpt>
      <trkpt lat="46.24811" lon="6.71012">
        <ele>1416.139</ele>
        <time>2026-03-08T10:02:26Z</time>
      </trkpt>
      <trkpt lat="46.2481" lon="6.71008">
        <ele>1416.644</ele>
        <time>2026-03-08T10:02:31Z</time>
      </trkpt>
      <trkpt lat="46.24808" lon="6.71005">
        <ele>1416.747</ele>
        <time>2026-03-08T10:02:36Z</time>
      </trkpt>
      <trkpt lat="46.24806" lon="6.71001">
        <ele>1417.933</ele>
        <time>2026-03-08T10:02:41Z</time>
      </trkpt>
      <trkpt lat="46.24804" lon="6.70999">
        <ele>1417.683</ele>
        <time>2026-03-08T10:02:46Z</time>
      </trkpt>
      <trkpt lat="46.24802" lon="6.70996">
        <ele>1416.909</ele>
        <time>2026-03-08T10:02:51Z</time>
      </trkpt>
      <trkpt lat="46.248" lon="6.70992">
        <ele>1418.131</ele>
        <time>2026-03-08T10:02:56Z</time>
      </trkpt>
      <trkpt lat="46.24798" lon="6.70988">
        <ele>1418.567</ele>
        <time>2026-03-08T10:03:01Z</time>
      </trkpt>
      <trkpt lat="46.24796" lon="6.70985">
        <ele>1419.029</ele>
        <time>2026-03-08T10:03:06Z</time>
      </trkpt>
      <trkpt lat="46.24795" lon="6.70982">
        <ele>1419.184</ele>
        <time>2026-03-08T10:03:11Z</time>
      </trkpt>
      <trkpt lat="46.24793" lon="6.70979">
        <ele>1420.625</ele>
        <time>2026-03-08T10:03:16Z</time>
      </trkpt>
      <trkpt lat="46.24792" lon="6.70976">
        <ele>1420.125</ele>
        <time>2026-03-08T10:03:21Z</time>
      </trkpt>
      <trkpt lat="46.2479" lon="6.70973">
        <ele>1421.107</ele>
        <time>2026-03-08T10:03:26Z</time>
      </trkpt>
      <trkpt lat="46.2479" lon="6.70971">
        <ele>1421.989</ele>
        <time>2026-03-08T10:03:31Z</time>
      </trkpt>
      <trkpt lat="46.24788" lon="6.70967">
        <ele>1422.636</ele>
        <time>2026-03-08T10:03:36Z</time>
      </trkpt>
      <trkpt lat="46.24787" lon="6.70965">
        <ele>1422.562</ele>
        <time>2026-03-08T10:03:41Z</time>
      </trkpt>
      <trkpt lat="46.24786" lon="6.70961">
        <ele>1423.413</ele>
        <time>2026-03-08T10:03:46Z</time>
      </trkpt>
      <trkpt lat="46.24785" lon="6.70957">
        <ele>1424.144</ele>
        <time>2026-03-08T10:03:51Z</time>
      </trkpt>
      <trkpt lat="46.24783" lon="6.70954">
        <ele>1423.955</ele>
        <time>2026-03-08T10:03:56Z</time>
      </trkpt>
      <trkpt lat="46.24781" lon="6.7095">
        <ele>1424.609</ele>
        <time>2026-03-08T10:04:01Z</time>
      </trkpt>
      <trkpt lat="46.24779" lon="6.70946">
        <ele>1424.656</ele>
        <time>2026-03-08T10:04:06Z</time>
      </trkpt>
      <trkpt lat="46.24777" lon="6.70943">
        <ele>1423.663</ele>
        <time>2026-03-08T10:04:11Z</time>
      </trkpt>
      <trkpt lat="46.24774" lon="6.70939">
        <ele>1423.662</ele>
        <time>2026-03-08T10:04:16Z</time>
      </trkpt>
      <trkpt lat="46.24772" lon="6.70935">
        <ele>1425.319</ele>
        <time>2026-03-08T10:04:21Z</time>
      </trkpt>
      <trkpt lat="46.24771" lon="6.70932">
        <ele>1426.323</ele>
        <time>2026-03-08T10:04:26Z</time>
      </trkpt>
      <trkpt lat="46.2477" lon="6.70929">
        <ele>1426.456</ele>
        <time>2026-03-08T10:04:31Z</time>
      </trkpt>
      <trkpt lat="46.24769" lon="6.70925">
        <ele>1426.729</ele>
        <time>2026-03-08T10:04:36Z</time>
      </trkpt>
      <trkpt lat="46.24768" lon="6.70921">
        <ele>1426.855</ele>
        <time>2026-03-08T10:04:41Z</time>
      </trkpt>
      <trkpt lat="46.24767" lon="6.70917">
        <ele>1426.612</ele>
        <time>2026-03-08T10:04:46Z</time>
      </trkpt>
      <trkpt lat="46.24766" lon="6.70913">
        <ele>1428.742</ele>
        <time>2026-03-08T10:04:51Z</time>
      </trkpt>
      <trkpt lat="46.24766" lon="6.70908">
        <ele>1428.865</ele>
        <time>2026-03-08T10:04:56Z</time>
      </trkpt>
      <trkpt lat="46.24765" lon="6.70904">
        <ele>1428.796</ele>
        <time>2026-03-08T10:05:01Z</time>
      </trkpt>
      <trkpt lat="46.24765" lon="6.709">
        <ele>1430.028</ele>
        <time>2026-03-08T10:05:06Z</time>
      </trkpt>
      <trkpt lat="46.24765" lon="6.70896">
        <ele>1431.644</ele>
        <time>2026-03-08T10:05:11Z</time>
      </trkpt>
      <trkpt lat="46.24765" lon="6.70893">
        <ele>1432.267</ele>
        <time>2026-03-08T10:05:16Z</time>
      </trkpt>
      <trkpt lat="46.24764" lon="6.70888">
        <ele>1432.941</ele>
        <time>2026-03-08T10:05:21Z</time>
      </trkpt>
      <trkpt lat="46.24763" lon="6.70884">
        <ele>1433.393</ele>
        <time>2026-03-08T10:05:26Z</time>
      </trkpt>
      <trkpt lat="46.24762" lon="6.7088">
        <ele>1434.749</ele>
        <time>2026-03-08T10:05:31Z</time>
      </trkpt>
      <trkpt lat="46.24761" lon="6.70876">
        <ele>1434.623</ele>
        <time>2026-03-08T10:05:36Z</time>
      </trkpt>
      <trkpt lat="46.24759" lon="6.70873">
        <ele>1434.26</ele>
        <time>2026-03-08T10:05:41Z</time>
      </trkpt>
      <trkpt lat="46.24757" lon="6.7087">
        <ele>1434.997</ele>
        <time>2026-03-08T10:05:46Z</time>
      </trkpt>
      <trkpt lat="46.24755" lon="6.70866">
        <ele>1434.752</ele>
        <time>2026-03-08T10:05:51Z</time>
      </trkpt>
      <trkpt lat="46.24755" lon="6.70863">
        <ele>1437.804</ele>
        <time>2026-03-08T10:05:56Z</time>
      </trkpt>
      <trkpt lat="46.24754" lon="6.70859">
        <ele>1438.908</ele>
        <time>2026-03-08T10:06:01Z</time>
      </trkpt>
      <trkpt lat="46.24753" lon="6.70855">
        <ele>1440.222</ele>
        <time>2026-03-08T10:06:06Z</time>
      </trkpt>
      <trkpt lat="46.24751" lon="6.70851">
        <ele>1441.008</ele>
        <time>2026-03-08T10:06:11Z</time>
      </trkpt>
      <trkpt lat="46.2475" lon="6.70847">
        <ele>1441.353</ele>
        <time>2026-03-08T10:06:16Z</time>
      </trkpt>
      <trkpt lat="46.24749" lon="6.70844">
        <ele>1442.772</ele>
        <time>2026-03-08T10:06:21Z</time>
      </trkpt>
      <trkpt lat="46.24748" lon="6.70841">
        <ele>1442.532</ele>
        <time>2026-03-08T10:06:26Z</time>
      </trkpt>
      <trkpt lat="46.24746" lon="6.70838">
        <ele>1441.945</ele>
        <time>2026-03-08T10:06:31Z</time>
      </trkpt>
      <trkpt lat="46.24744" lon="6.70835">
        <ele>1443.349</ele>
        <time>2026-03-08T10:06:36Z</time>
      </trkpt>
      <trkpt lat="46.24742" lon="6.70832">
        <ele>1443.608</ele>
        <time>2026-03-08T10:06:41Z</time>
      </trkpt>
      <trkpt lat="46.2474" lon="6.70828">
        <ele>1444.311</ele>
        <time>2026-03-08T10:06:46Z</time>
      </trkpt>
      <trkpt lat="46.24737" lon="6.70824">
        <ele>1444.506</ele>
        <time>2026-03-08T10:06:51Z</time>
      </trkpt>
      <trkpt lat="46.24736" lon="6.70821">
        <ele>1446.781</ele>
        <time>2026-03-08T10:06:56Z</time>
      </trkpt>
      <trkpt lat="46.24734" lon="6.70818">
        <ele>1445.841</ele>
        <time>2026-03-08T10:07:01Z</time>
      </trkpt>
      <trkpt lat="46.24732" lon="6.70814">
        <ele>1446.258</ele>
        <time>2026-03-08T10:07:06Z</time>
      </trkpt>
      <trkpt lat="46.2473" lon="6.70812">
        <ele>1446.802</ele>
        <time>2026-03-08T10:07:11Z</time>
      </trkpt>
      <trkpt lat="46.24729" lon="6.70809">
        <ele>1446.783</ele>
        <time>2026-03-08T10:07:16Z</time>
      </trkpt>
      <trkpt lat="46.24726" lon="6.70806">
        <ele>1447.542</ele>
        <time>2026-03-08T10:07:21Z</time>
      </trkpt>
      <trkpt lat="46.24723" lon="6.70805">
        <ele>1449.064</ele>
        <time>2026-03-08T10:07:26Z</time>
      </trkpt>
      <trkpt lat="46.24723" lon="6.70804">
        <ele>1449.251</ele>
        <time>2026-03-08T10:07:31Z</time>
      </trkpt>
      <trkpt lat="46.24723" lon="6.70804">
        <ele>1449.222</ele>
        <time>2026-03-08T10:07:36Z</time>
      </trkpt>
      <trkpt lat="46.24723" lon="6.70804">
        <ele>1449.21</ele>
        <time>2026-03-08T10:07:41Z</time>
      </trkpt>
      <trkpt lat="46.24723" lon="6.70804">
        <ele>1450.146</ele>
        <time>2026-03-08T10:07:46Z</time>
      </trkpt>
      <trkpt lat="46.24723" lon="6.70804">
        <ele>1450.184</ele>
        <time>2026-03-08T10:07:51Z</time>
      </trkpt>
      <trkpt lat="46.24723" lon="6.70804">
        <ele>1450.178</ele>
        <time>2026-03-08T10:07:56Z</time>
      </trkpt>
      <trkpt lat="46.24723" lon="6.70804">
        <ele>1450.177</ele>
        <time>2026-03-08T10:08:01Z</time>
      </trkpt>
      <trkpt lat="46.24723" lon="6.70804">
        <ele>1450.169</ele>
        <time>2026-03-08T10:08:06Z</time>
      </trkpt>
      <trkpt lat="46.24723" lon="6.70804">
        <ele>1450.162</ele>
        <time>2026-03-08T10:08:11Z</time>
      </trkpt>
      <trkpt lat="46.24723" lon="6.70804">
        <ele>1450.153</ele>
        <time>2026-03-08T10:08:16Z</time>
      </trkpt>
      <trkpt lat="46.24723" lon="6.70804">
        <ele>1450.151</ele>
        <time>2026-03-08T10:08:21Z</time>
      </trkpt>
      <trkpt lat="46.24723" lon="6.70804">
        <ele>1450.142</ele>
        <time>2026-03-08T10:08:26Z</time>
      </trkpt>
      <trkpt lat="46.24723" lon="6.70804">
        <ele>1450.155</ele>
        <time>2026-03-08T10:08:31Z</time>
      </trkpt>
      <trkpt lat="46.24723" lon="6.70804">
        <ele>1450.148</ele>
        <time>2026-03-08T10:08:36Z</time>
      </trkpt>
      <trkpt lat="46.24723" lon="6.70804">
        <ele>1450.152</ele>
        <time>2026-03-08T10:08:41Z</time>
      </trkpt>
      <trkpt lat="46.24723" lon="6.70804">
        <ele>1450.171</ele>
        <time>2026-03-08T10:08:46Z</time>
      </trkpt>
      <trkpt lat="46.24723" lon="6.70804">
        <ele>1450.179</ele>
        <time>2026-03-08T10:08:51Z</time>
      </trkpt>
      <trkpt lat="46.24723" lon="6.70804">
        <ele>1450.194</ele>
        <time>2026-03-08T10:08:56Z</time>
      </trkpt>
      <trkpt lat="46.24723" lon="6.70804">
        <ele>1450.196</ele>
        <time>2026-03-08T10:09:01Z</time>
      </trkpt>
      <trkpt lat="46.24723" lon="6.70804">
        <ele>1450.2</ele>
        <time>2026-03-08T10:09:06Z</time>
      </trkpt>
      <trkpt lat="46.24723" lon="6.70804">
        <ele>1450.199</ele>
        <time>2026-03-08T10:09:11Z</time>
      </trkpt>
      <trkpt lat="46.24723" lon="6.70804">
        <ele>1450.208</ele>
        <time>2026-03-08T10:09:16Z</time>
      </trkpt>
      <trkpt lat="46.24723" lon="6.70804">
        <ele>1450.207</ele>
        <time>2026-03-08T10:09:21Z</time>
      </trkpt>
      <trkpt lat="46.24723" lon="6.70804">
        <ele>1449.989</ele>
        <time>2026-03-08T10:09:26Z</time>
      </trkpt>
      <trkpt lat="46.24723" lon="6.70804">
        <ele>1449.997</ele>
        <time>2026-03-08T10:09:31Z</time>
      </trkpt>
      <trkpt lat="46.24723" lon="6.70804">
        <ele>1449.873</ele>
        <time>2026-03-08T10:09:36Z</time>
      </trkpt>
      <trkpt lat="46.24723" lon="6.70804">
        <ele>1449.885</ele>
        <time>2026-03-08T10:09:41Z</time>
      </trkpt>
      <trkpt lat="46.24723" lon="6.70804">
        <ele>1449.904</ele>
        <time>2026-03-08T10:09:46Z</time>
      </trkpt>
      <trkpt lat="46.24723" lon="6.70804">
        <ele>1449.911</ele>
        <time>2026-03-08T10:09:51Z</time>
      </trkpt>
      <trkpt lat="46.24723" lon="6.70804">
        <ele>1449.912</ele>
        <time>2026-03-08T10:09:56Z</time>
      </trkpt>
      <trkpt lat="46.24723" lon="6.70804">
        <ele>1449.893</ele>
        <time>2026-03-08T10:10:01Z</time>
      </trkpt>
      <trkpt lat="46.24723" lon="6.70804">
        <ele>1449.893</ele>
        <time>2026-03-08T10:10:06Z</time>
      </trkpt>
      <trkpt lat="46.24723" lon="6.70804">
        <ele>1449.895</ele>
        <time>2026-03-08T10:10:11Z</time>
      </trkpt>
      <trkpt lat="46.24723" lon="6.70804">
        <ele>1449.88</ele>
        <time>2026-03-08T10:10:16Z</time>
      </trkpt>
      <trkpt lat="46.24723" lon="6.70804">
        <ele>1449.862</ele>
        <time>2026-03-08T10:10:21Z</time>
      </trkpt>
      <trkpt lat="46.24723" lon="6.70804">
        <ele>1450.713</ele>
        <time>2026-03-08T10:10:26Z</time>
      </trkpt>
      <trkpt lat="46.24723" lon="6.70804">
        <ele>1450.683</ele>
        <time>2026-03-08T10:10:31Z</time>
      </trkpt>
      <trkpt lat="46.24723" lon="6.70804">
        <ele>1449.124</ele>
        <time>2026-03-08T10:10:36Z</time>
      </trkpt>
      <trkpt lat="46.24723" lon="6.70804">
        <ele>1449.532</ele>
        <time>2026-03-08T10:10:41Z</time>
      </trkpt>
      <trkpt lat="46.24723" lon="6.70804">
        <ele>1449.535</ele>
        <time>2026-03-08T10:10:46Z</time>
      </trkpt>
      <trkpt lat="46.24723" lon="6.70804">
        <ele>1449.706</ele>
        <time>2026-03-08T10:10:51Z</time>
      </trkpt>
      <trkpt lat="46.24723" lon="6.70804">
        <ele>1449.69</ele>
        <time>2026-03-08T10:10:56Z</time>
      </trkpt>
      <trkpt lat="46.24723" lon="6.70804">
        <ele>1449.673</ele>
        <time>2026-03-08T10:11:01Z</time>
      </trkpt>
      <trkpt lat="46.24723" lon="6.70804">
        <ele>1449.663</ele>
        <time>2026-03-08T10:11:06Z</time>
      </trkpt>
      <trkpt lat="46.24719" lon="6.70793">
        <ele>1449.665</ele>
        <time>2026-03-08T10:11:11Z</time>
      </trkpt>
      <trkpt lat="46.24719" lon="6.70792">
        <ele>1450.363</ele>
        <time>2026-03-08T10:11:16Z</time>
      </trkpt>
      <trkpt lat="46.24718" lon="6.70787">
        <ele>1450.443</ele>
        <time>2026-03-08T10:11:21Z</time>
      </trkpt>
      <trkpt lat="46.24716" lon="6.70781">
        <ele>1450.888</ele>
        <time>2026-03-08T10:11:26Z</time>
      </trkpt>
      <trkpt lat="46.24713" lon="6.70777">
        <ele>1451.183</ele>
        <time>2026-03-08T10:11:31Z</time>
      </trkpt>
      <trkpt lat="46.24711" lon="6.70772">
        <ele>1450.81</ele>
        <time>2026-03-08T10:11:36Z</time>
      </trkpt>
      <trkpt lat="46.24709" lon="6.70768">
        <ele>1451.226</ele>
        <time>2026-03-08T10:11:41Z</time>
      </trkpt>
      <trkpt lat="46.24706" lon="6.70764">
        <ele>1453.411</ele>
        <time>2026-03-08T10:11:46Z</time>
      </trkpt>
      <trkpt lat="46.24704" lon="6.7076">
        <ele>1453.383</ele>
        <time>2026-03-08T10:11:51Z</time>
      </trkpt>
      <trkpt lat="46.24701" lon="6.70755">
        <ele>1453.762</ele>
        <time>2026-03-08T10:11:56Z</time>
      </trkpt>
      <trkpt lat="46.24698" lon="6.70751">
        <ele>1453.988</ele>
        <time>2026-03-08T10:12:01Z</time>
      </trkpt>
      <trkpt lat="46.24696" lon="6.70746">
        <ele>1454.379</ele>
        <time>2026-03-08T10:12:06Z</time>
      </trkpt>
      <trkpt lat="46.24694" lon="6.70744">
        <ele>1454.012</ele>
        <time>2026-03-08T10:12:11Z</time>
      </trkpt>
      <trkpt lat="46.24694" lon="6.70744">
        <ele>1454.007</ele>
        <time>2026-03-08T10:12:16Z</time>
      </trkpt>
      <trkpt lat="46.24694" lon="6.70744">
        <ele>1454.009</ele>
        <time>2026-03-08T10:12:21Z</time>
      </trkpt>
      <trkpt lat="46.24693" lon="6.70741">
        <ele>1453.909</ele>
        <time>2026-03-08T10:12:26Z</time>
      </trkpt>
      <trkpt lat="46.24691" lon="6.70736">
        <ele>1454.197</ele>
        <time>2026-03-08T10:12:31Z</time>
      </trkpt>
      <trkpt lat="46.24689" lon="6.70732">
        <ele>1453.813</ele>
        <time>2026-03-08T10:12:36Z</time>
      </trkpt>
      <trkpt lat="46.24687" lon="6.70727">
        <ele>1455.705</ele>
        <time>2026-03-08T10:12:41Z</time>
      </trkpt>
      <trkpt lat="46.24686" lon="6.70722">
        <ele>1457.394</ele>
        <time>2026-03-08T10:12:46Z</time>
      </trkpt>
      <trkpt lat="46.24684" lon="6.70717">
        <ele>1455.863</ele>
        <time>2026-03-08T10:12:51Z</time>
      </trkpt>
      <trkpt lat="46.24682" lon="6.70713">
        <ele>1455.536</ele>
        <time>2026-03-08T10:12:56Z</time>
      </trkpt>
      <trkpt lat="46.24681" lon="6.70709">
        <ele>1456.752</ele>
        <time>2026-03-08T10:13:01Z</time>
      </trkpt>
      <trkpt lat="46.24679" lon="6.70704">
        <ele>1456.878</ele>
        <time>2026-03-08T10:13:06Z</time>
      </trkpt>
      <trkpt lat="46.24678" lon="6.70698">
        <ele>1457.629</ele>
        <time>2026-03-08T10:13:11Z</time>
      </trkpt>
      <trkpt lat="46.24675" lon="6.70693">
        <ele>1456.003</ele>
        <time>2026-03-08T10:13:16Z</time>
      </trkpt>
      <trkpt lat="46.24673" lon="6.70689">
        <ele>1456.078</ele>
        <time>2026-03-08T10:13:21Z</time>
      </trkpt>
      <trkpt lat="46.24669" lon="6.70687">
        <ele>1457.2</ele>
        <time>2026-03-08T10:13:26Z</time>
      </trkpt>
      <trkpt lat="46.24665" lon="6.70684">
        <ele>1456.858</ele>
        <time>2026-03-08T10:13:31Z</time>
      </trkpt>
      <trkpt lat="46.24662" lon="6.70683">
        <ele>1457.216</ele>
        <time>2026-03-08T10:13:36Z</time>
      </trkpt>
      <trkpt lat="46.24659" lon="6.7068">
        <ele>1458.568</ele>
        <time>2026-03-08T10:13:41Z</time>
      </trkpt>
      <trkpt lat="46.24656" lon="6.70678">
        <ele>1460.24</ele>
        <time>2026-03-08T10:13:46Z</time>
      </trkpt>
      <trkpt lat="46.24653" lon="6.70677">
        <ele>1460.11</ele>
        <time>2026-03-08T10:13:51Z</time>
      </trkpt>
      <trkpt lat="46.24651" lon="6.70674">
        <ele>1460.86</ele>
        <time>2026-03-08T10:13:56Z</time>
      </trkpt>
      <trkpt lat="46.24648" lon="6.70672">
        <ele>1460.848</ele>
        <time>2026-03-08T10:14:01Z</time>
      </trkpt>
      <trkpt lat="46.24646" lon="6.7067">
        <ele>1461.258</ele>
        <time>2026-03-08T10:14:06Z</time>
      </trkpt>
      <trkpt lat="46.24644" lon="6.70668">
        <ele>1463.006</ele>
        <time>2026-03-08T10:14:11Z</time>
      </trkpt>
      <trkpt lat="46.24642" lon="6.70666">
        <ele>1461.97</ele>
        <time>2026-03-08T10:14:16Z</time>
      </trkpt>
      <trkpt lat="46.2464" lon="6.70664">
        <ele>1461.903</ele>
        <time>2026-03-08T10:14:21Z</time>
      </trkpt>
      <trkpt lat="46.24638" lon="6.70661">
        <ele>1462.882</ele>
        <time>2026-03-08T10:14:26Z</time>
      </trkpt>
      <trkpt lat="46.24636" lon="6.70658">
        <ele>1463.067</ele>
        <time>2026-03-08T10:14:31Z</time>
      </trkpt>
      <trkpt lat="46.24634" lon="6.70656">
        <ele>1463.689</ele>
        <time>2026-03-08T10:14:36Z</time>
      </trkpt>
      <trkpt lat="46.24633" lon="6.70654">
        <ele>1464.294</ele>
        <time>2026-03-08T10:14:41Z</time>
      </trkpt>
      <trkpt lat="46.24631" lon="6.70653">
        <ele>1465.363</ele>
        <time>2026-03-08T10:14:46Z</time>
      </trkpt>
      <trkpt lat="46.24628" lon="6.70652">
        <ele>1466.679</ele>
        <time>2026-03-08T10:14:51Z</time>
      </trkpt>
      <trkpt lat="46.24625" lon="6.7065">
        <ele>1467.983</ele>
        <time>2026-03-08T10:14:56Z</time>
      </trkpt>
      <trkpt lat="46.24623" lon="6.70649">
        <ele>1468.894</ele>
        <time>2026-03-08T10:15:01Z</time>
      </trkpt>
      <trkpt lat="46.2462" lon="6.70648">
        <ele>1468.612</ele>
        <time>2026-03-08T10:15:06Z</time>
      </trkpt>
      <trkpt lat="46.24618" lon="6.70647">
        <ele>1470.106</ele>
        <time>2026-03-08T10:15:11Z</time>
      </trkpt>
      <trkpt lat="46.24615" lon="6.70645">
        <ele>1472.683</ele>
        <time>2026-03-08T10:15:16Z</time>
      </trkpt>
      <trkpt lat="46.24614" lon="6.70643">
        <ele>1473.723</ele>
        <time>2026-03-08T10:15:21Z</time>
      </trkpt>
      <trkpt lat="46.24613" lon="6.7064">
        <ele>1472.847</ele>
        <time>2026-03-08T10:15:26Z</time>
      </trkpt>
      <trkpt lat="46.24612" lon="6.70638">
        <ele>1474.024</ele>
        <time>2026-03-08T10:15:31Z</time>
      </trkpt>
      <trkpt lat="46.24611" lon="6.70635">
        <ele>1474.228</ele>
        <time>2026-03-08T10:15:36Z</time>
      </trkpt>
      <trkpt lat="46.24609" lon="6.70633">
        <ele>1475.047</ele>
        <time>2026-03-08T10:15:41Z</time>
      </trkpt>
      <trkpt lat="46.24606" lon="6.70632">
        <ele>1474.667</ele>
        <time>2026-03-08T10:15:46Z</time>
      </trkpt>
      <trkpt lat="46.24605" lon="6.7063">
        <ele>1474.18</ele>
        <time>2026-03-08T10:15:51Z</time>
      </trkpt>
      <trkpt lat="46.24603" lon="6.70628">
        <ele>1474.462</ele>
        <time>2026-03-08T10:15:56Z</time>
      </trkpt>
      <trkpt lat="46.24602" lon="6.70625">
        <ele>1475.158</ele>
        <time>2026-03-08T10:16:01Z</time>
      </trkpt>
      <trkpt lat="46.24601" lon="6.70624">
        <ele>1475.132</ele>
        <time>2026-03-08T10:16:06Z</time>
      </trkpt>
      <trkpt lat="46.246" lon="6.7062">
        <ele>1476.368</ele>
        <time>2026-03-08T10:16:11Z</time>
      </trkpt>
      <trkpt lat="46.246" lon="6.70619">
        <ele>1476.587</ele>
        <time>2026-03-08T10:16:16Z</time>
      </trkpt>
      <trkpt lat="46.246" lon="6.70619">
        <ele>1476.578</ele>
        <time>2026-03-08T10:16:21Z</time>
      </trkpt>
      <trkpt lat="46.246" lon="6.70619">
        <ele>1476.598</ele>
        <time>2026-03-08T10:16:26Z</time>
      </trkpt>
      <trkpt lat="46.246" lon="6.70619">
        <ele>1476.606</ele>
        <time>2026-03-08T10:16:31Z</time>
      </trkpt>
      <trkpt lat="46.246" lon="6.70619">
        <ele>1476.754</ele>
        <time>2026-03-08T10:16:36Z</time>
      </trkpt>
      <trkpt lat="46.246" lon="6.70619">
        <ele>1476.153</ele>
        <time>2026-03-08T10:16:41Z</time>
      </trkpt>
      <trkpt lat="46.246" lon="6.70619">
        <ele>1476.453</ele>
        <time>2026-03-08T10:16:46Z</time>
      </trkpt>
      <trkpt lat="46.246" lon="6.70619">
        <ele>1476.4</ele>
        <time>2026-03-08T10:16:51Z</time>
      </trkpt>
      <trkpt lat="46.246" lon="6.70619">
        <ele>1476.291</ele>
        <time>2026-03-08T10:16:56Z</time>
      </trkpt>
      <trkpt lat="46.246" lon="6.70619">
        <ele>1476.422</ele>
        <time>2026-03-08T10:17:01Z</time>
      </trkpt>
      <trkpt lat="46.246" lon="6.70619">
        <ele>1476.439</ele>
        <time>2026-03-08T10:17:06Z</time>
      </trkpt>
      <trkpt lat="46.246" lon="6.70619">
        <ele>1476.005</ele>
        <time>2026-03-08T10:17:11Z</time>
      </trkpt>
      <trkpt lat="46.246" lon="6.70619">
        <ele>1475.851</ele>
        <time>2026-03-08T10:17:16Z</time>
      </trkpt>
      <trkpt lat="46.246" lon="6.70619">
        <ele>1475.697</ele>
        <time>2026-03-08T10:17:21Z</time>
      </trkpt>
      <trkpt lat="46.246" lon="6.70619">
        <ele>1475.665</ele>
        <time>2026-03-08T10:17:26Z</time>
      </trkpt>
      <trkpt lat="46.246" lon="6.70619">
        <ele>1476.209</ele>
        <time>2026-03-08T10:17:31Z</time>
      </trkpt>
      <trkpt lat="46.246" lon="6.70619">
        <ele>1476.275</ele>
        <time>2026-03-08T10:17:36Z</time>
      </trkpt>
      <trkpt lat="46.246" lon="6.70619">
        <ele>1476.345</ele>
        <time>2026-03-08T10:17:41Z</time>
      </trkpt>
      <trkpt lat="46.246" lon="6.70619">
        <ele>1476.337</ele>
        <time>2026-03-08T10:17:46Z</time>
      </trkpt>
      <trkpt lat="46.246" lon="6.70619">
        <ele>1476.331</ele>
        <time>2026-03-08T10:17:51Z</time>
      </trkpt>
      <trkpt lat="46.246" lon="6.70619">
        <ele>1476.323</ele>
        <time>2026-03-08T10:17:56Z</time>
      </trkpt>
      <trkpt lat="46.246" lon="6.70619">
        <ele>1476.316</ele>
        <time>2026-03-08T10:18:01Z</time>
      </trkpt>
      <trkpt lat="46.246" lon="6.70619">
        <ele>1476.295</ele>
        <time>2026-03-08T10:18:06Z</time>
      </trkpt>
      <trkpt lat="46.246" lon="6.70619">
        <ele>1476.274</ele>
        <time>2026-03-08T10:18:11Z</time>
      </trkpt>
      <trkpt lat="46.246" lon="6.70619">
        <ele>1476.272</ele>
        <time>2026-03-08T10:18:16Z</time>
      </trkpt>
      <trkpt lat="46.246" lon="6.70619">
        <ele>1476.266</ele>
        <time>2026-03-08T10:18:21Z</time>
      </trkpt>
      <trkpt lat="46.246" lon="6.70619">
        <ele>1476.465</ele>
        <time>2026-03-08T10:18:26Z</time>
      </trkpt>
      <trkpt lat="46.246" lon="6.70619">
        <ele>1476.466</ele>
        <time>2026-03-08T10:18:31Z</time>
      </trkpt>
      <trkpt lat="46.246" lon="6.70619">
        <ele>1476.466</ele>
        <time>2026-03-08T10:18:36Z</time>
      </trkpt>
      <trkpt lat="46.246" lon="6.70619">
        <ele>1477.799</ele>
        <time>2026-03-08T10:18:41Z</time>
      </trkpt>
      <trkpt lat="46.246" lon="6.70619">
        <ele>1477.766</ele>
        <time>2026-03-08T10:18:46Z</time>
      </trkpt>
      <trkpt lat="46.246" lon="6.70619">
        <ele>1477.76</ele>
        <time>2026-03-08T10:18:51Z</time>
      </trkpt>
      <trkpt lat="46.246" lon="6.70619">
        <ele>1477.773</ele>
        <time>2026-03-08T10:18:56Z</time>
      </trkpt>
      <trkpt lat="46.246" lon="6.70619">
        <ele>1477.766</ele>
        <time>2026-03-08T10:19:01Z</time>
      </trkpt>
      <trkpt lat="46.246" lon="6.70619">
        <ele>1477.964</ele>
        <time>2026-03-08T10:19:06Z</time>
      </trkpt>
      <trkpt lat="46.246" lon="6.70619">
        <ele>1477.966</ele>
        <time>2026-03-08T10:19:11Z</time>
      </trkpt>
      <trkpt lat="46.246" lon="6.70619">
        <ele>1477.78</ele>
        <time>2026-03-08T10:19:16Z</time>
      </trkpt>
      <trkpt lat="46.246" lon="6.70619">
        <ele>1477.791</ele>
        <time>2026-03-08T10:19:21Z</time>
      </trkpt>
      <trkpt lat="46.246" lon="6.70619">
        <ele>1477.811</ele>
        <time>2026-03-08T10:19:26Z</time>
      </trkpt>
      <trkpt lat="46.246" lon="6.70619">
        <ele>1477.812</ele>
        <time>2026-03-08T10:19:31Z</time>
      </trkpt>
      <trkpt lat="46.246" lon="6.70619">
        <ele>1477.828</ele>
        <time>2026-03-08T10:19:36Z</time>
      </trkpt>
      <trkpt lat="46.246" lon="6.70619">
        <ele>1477.84</ele>
        <time>2026-03-08T10:19:41Z</time>
      </trkpt>
      <trkpt lat="46.246" lon="6.70619">
        <ele>1477.846</ele>
        <time>2026-03-08T10:19:46Z</time>
      </trkpt>
      <trkpt lat="46.246" lon="6.70619">
        <ele>1477.85</ele>
        <time>2026-03-08T10:19:51Z</time>
      </trkpt>
      <trkpt lat="46.246" lon="6.70619">
        <ele>1477.913</ele>
        <time>2026-03-08T10:19:56Z</time>
      </trkpt>
      <trkpt lat="46.246" lon="6.70619">
        <ele>1477.644</ele>
        <time>2026-03-08T10:20:01Z</time>
      </trkpt>
      <trkpt lat="46.246" lon="6.70619">
        <ele>1477.529</ele>
        <time>2026-03-08T10:20:06Z</time>
      </trkpt>
      <trkpt lat="46.246" lon="6.70619">
        <ele>1477.568</ele>
        <time>2026-03-08T10:20:11Z</time>
      </trkpt>
      <trkpt lat="46.246" lon="6.70619">
        <ele>1477.222</ele>
        <time>2026-03-08T10:20:16Z</time>
      </trkpt>
      <trkpt lat="46.246" lon="6.70619">
        <ele>1477.218</ele>
        <time>2026-03-08T10:20:21Z</time>
      </trkpt>
      <trkpt lat="46.246" lon="6.70619">
        <ele>1477.217</ele>
        <time>2026-03-08T10:20:26Z</time>
      </trkpt>
      <trkpt lat="46.246" lon="6.70619">
        <ele>1477.219</ele>
        <time>2026-03-08T10:20:31Z</time>
      </trkpt>
      <trkpt lat="46.246" lon="6.70619">
        <ele>1477.213</ele>
        <time>2026-03-08T10:20:36Z</time>
      </trkpt>
      <trkpt lat="46.246" lon="6.70619">
        <ele>1477.206</ele>
        <time>2026-03-08T10:20:41Z</time>
      </trkpt>
      <trkpt lat="46.246" lon="6.70619">
        <ele>1477.211</ele>
        <time>2026-03-08T10:20:46Z</time>
      </trkpt>
      <trkpt lat="46.246" lon="6.70619">
        <ele>1477.21</ele>
        <time>2026-03-08T10:20:51Z</time>
      </trkpt>
      <trkpt lat="46.246" lon="6.70619">
        <ele>1477.214</ele>
        <time>2026-03-08T10:20:56Z</time>
      </trkpt>
      <trkpt lat="46.246" lon="6.70619">
        <ele>1477.225</ele>
        <time>2026-03-08T10:21:01Z</time>
      </trkpt>
      <trkpt lat="46.246" lon="6.70619">
        <ele>1477.237</ele>
        <time>2026-03-08T10:21:06Z</time>
      </trkpt>
      <trkpt lat="46.246" lon="6.70619">
        <ele>1477.249</ele>
        <time>2026-03-08T10:21:11Z</time>
      </trkpt>
      <trkpt lat="46.246" lon="6.70619">
        <ele>1477.244</ele>
        <time>2026-03-08T10:21:16Z</time>
      </trkpt>
      <trkpt lat="46.246" lon="6.70619">
        <ele>1477.765</ele>
        <time>2026-03-08T10:21:21Z</time>
      </trkpt>
      <trkpt lat="46.246" lon="6.70619">
        <ele>1477.759</ele>
        <time>2026-03-08T10:21:26Z</time>
      </trkpt>
      <trkpt lat="46.246" lon="6.70619">
        <ele>1477.766</ele>
        <time>2026-03-08T10:21:31Z</time>
      </trkpt>
      <trkpt lat="46.246" lon="6.70619">
        <ele>1477.859</ele>
        <time>2026-03-08T10:21:36Z</time>
      </trkpt>
      <trkpt lat="46.246" lon="6.70619">
        <ele>1477.845</ele>
        <time>2026-03-08T10:21:41Z</time>
      </trkpt>
      <trkpt lat="46.246" lon="6.70619">
        <ele>1476.895</ele>
        <time>2026-03-08T10:21:46Z</time>
      </trkpt>
      <trkpt lat="46.246" lon="6.70619">
        <ele>1477.247</ele>
        <time>2026-03-08T10:21:51Z</time>
      </trkpt>
      <trkpt lat="46.246" lon="6.70619">
        <ele>1477.108</ele>
        <time>2026-03-08T10:21:56Z</time>
      </trkpt>
      <trkpt lat="46.246" lon="6.70619">
        <ele>1477.048</ele>
        <time>2026-03-08T10:22:01Z</time>
      </trkpt>
      <trkpt lat="46.246" lon="6.70619">
        <ele>1477.077</ele>
        <time>2026-03-08T10:22:06Z</time>
      </trkpt>
      <trkpt lat="46.246" lon="6.70619">
        <ele>1476.91</ele>
        <time>2026-03-08T10:22:11Z</time>
      </trkpt>
      <trkpt lat="46.246" lon="6.70619">
        <ele>1476.936</ele>
        <time>2026-03-08T10:22:16Z</time>
      </trkpt>
      <trkpt lat="46.246" lon="6.70619">
        <ele>1476.933</ele>
        <time>2026-03-08T10:22:21Z</time>
      </trkpt>
      <trkpt lat="46.246" lon="6.70619">
        <ele>1476.928</ele>
        <time>2026-03-08T10:22:26Z</time>
      </trkpt>
      <trkpt lat="46.246" lon="6.70619">
        <ele>1477.243</ele>
        <time>2026-03-08T10:22:31Z</time>
      </trkpt>
      <trkpt lat="46.246" lon="6.70619">
        <ele>1477.249</ele>
        <time>2026-03-08T10:22:36Z</time>
      </trkpt>
      <trkpt lat="46.246" lon="6.70619">
        <ele>1477.24</ele>
        <time>2026-03-08T10:22:41Z</time>
      </trkpt>
      <trkpt lat="46.246" lon="6.70619">
        <ele>1477.23</ele>
        <time>2026-03-08T10:22:46Z</time>
      </trkpt>
      <trkpt lat="46.246" lon="6.70619">
        <ele>1477.223</ele>
        <time>2026-03-08T10:22:51Z</time>
      </trkpt>
      <trkpt lat="46.246" lon="6.70619">
        <ele>1477.211</ele>
        <time>2026-03-08T10:22:56Z</time>
      </trkpt>
      <trkpt lat="46.246" lon="6.70619">
        <ele>1477.189</ele>
        <time>2026-03-08T10:23:01Z</time>
      </trkpt>
      <trkpt lat="46.246" lon="6.70619">
        <ele>1477.186</ele>
        <time>2026-03-08T10:23:06Z</time>
      </trkpt>
      <trkpt lat="46.246" lon="6.70619">
        <ele>1476.546</ele>
        <time>2026-03-08T10:23:11Z</time>
      </trkpt>
      <trkpt lat="46.246" lon="6.70619">
        <ele>1476.434</ele>
        <time>2026-03-08T10:23:16Z</time>
      </trkpt>
      <trkpt lat="46.246" lon="6.70619">
        <ele>1476.428</ele>
        <time>2026-03-08T10:23:21Z</time>
      </trkpt>
      <trkpt lat="46.246" lon="6.70619">
        <ele>1477.454</ele>
        <time>2026-03-08T10:23:26Z</time>
      </trkpt>
      <trkpt lat="46.246" lon="6.70619">
        <ele>1477.453</ele>
        <time>2026-03-08T10:23:31Z</time>
      </trkpt>
      <trkpt lat="46.246" lon="6.70619">
        <ele>1477.448</ele>
        <time>2026-03-08T10:23:36Z</time>
      </trkpt>
      <trkpt lat="46.246" lon="6.70619">
        <ele>1477.437</ele>
        <time>2026-03-08T10:23:41Z</time>
      </trkpt>
      <trkpt lat="46.246" lon="6.70619">
        <ele>1477.391</ele>
        <time>2026-03-08T10:23:46Z</time>
      </trkpt>
      <trkpt lat="46.246" lon="6.70619">
        <ele>1477.588</ele>
        <time>2026-03-08T10:23:51Z</time>
      </trkpt>
      <trkpt lat="46.246" lon="6.70619">
        <ele>1477.589</ele>
        <time>2026-03-08T10:23:56Z</time>
      </trkpt>
      <trkpt lat="46.246" lon="6.70619">
        <ele>1477.579</ele>
        <time>2026-03-08T10:24:01Z</time>
      </trkpt>
      <trkpt lat="46.246" lon="6.70619">
        <ele>1476.789</ele>
        <time>2026-03-08T10:24:06Z</time>
      </trkpt>
      <trkpt lat="46.246" lon="6.70619">
        <ele>1476.321</ele>
        <time>2026-03-08T10:24:11Z</time>
      </trkpt>
      <trkpt lat="46.246" lon="6.70619">
        <ele>1476.315</ele>
        <time>2026-03-08T10:24:16Z</time>
      </trkpt>
      <trkpt lat="46.246" lon="6.70619">
        <ele>1476.309</ele>
        <time>2026-03-08T10:24:21Z</time>
      </trkpt>
      <trkpt lat="46.246" lon="6.70619">
        <ele>1476.301</ele>
        <time>2026-03-08T10:24:26Z</time>
      </trkpt>
      <trkpt lat="46.246" lon="6.70619">
        <ele>1475.878</ele>
        <time>2026-03-08T10:24:31Z</time>
      </trkpt>
      <trkpt lat="46.246" lon="6.70619">
        <ele>1476.181</ele>
        <time>2026-03-08T10:24:36Z</time>
      </trkpt>
      <trkpt lat="46.246" lon="6.70619">
        <ele>1477.941</ele>
        <time>2026-03-08T10:24:41Z</time>
      </trkpt>
      <trkpt lat="46.246" lon="6.70619">
        <ele>1477.934</ele>
        <time>2026-03-08T10:24:46Z</time>
      </trkpt>
      <trkpt lat="46.246" lon="6.70619">
        <ele>1477.944</ele>
        <time>2026-03-08T10:24:51Z</time>
      </trkpt>
      <trkpt lat="46.246" lon="6.70619">
        <ele>1477.935</ele>
        <time>2026-03-08T10:24:56Z</time>
      </trkpt>
      <trkpt lat="46.246" lon="6.70619">
        <ele>1477.944</ele>
        <time>2026-03-08T10:25:01Z</time>
      </trkpt>
      <trkpt lat="46.246" lon="6.70619">
        <ele>1477.943</ele>
        <time>2026-03-08T10:25:06Z</time>
      </trkpt>
      <trkpt lat="46.246" lon="6.70619">
        <ele>1477.942</ele>
        <time>2026-03-08T10:25:11Z</time>
      </trkpt>
      <trkpt lat="46.246" lon="6.70619">
        <ele>1477.632</ele>
        <time>2026-03-08T10:25:16Z</time>
      </trkpt>
      <trkpt lat="46.246" lon="6.70619">
        <ele>1477.485</ele>
        <time>2026-03-08T10:25:21Z</time>
      </trkpt>
      <trkpt lat="46.246" lon="6.70619">
        <ele>1477.7</ele>
        <time>2026-03-08T10:25:26Z</time>
      </trkpt>
      <trkpt lat="46.246" lon="6.70619">
        <ele>1477.7</ele>
        <time>2026-03-08T10:25:31Z</time>
      </trkpt>
      <trkpt lat="46.246" lon="6.70619">
        <ele>1477.704</ele>
        <time>2026-03-08T10:25:36Z</time>
      </trkpt>
      <trkpt lat="46.246" lon="6.70619">
        <ele>1477.993</ele>
        <time>2026-03-08T10:25:41Z</time>
      </trkpt>
      <trkpt lat="46.246" lon="6.70619">
        <ele>1478.51</ele>
        <time>2026-03-08T10:25:46Z</time>
      </trkpt>
      <trkpt lat="46.246" lon="6.70619">
        <ele>1478.43</ele>
        <time>2026-03-08T10:25:51Z</time>
      </trkpt>
      <trkpt lat="46.246" lon="6.70619">
        <ele>1478.462</ele>
        <time>2026-03-08T10:25:56Z</time>
      </trkpt>
      <trkpt lat="46.246" lon="6.70619">
        <ele>1478.463</ele>
        <time>2026-03-08T10:26:01Z</time>
      </trkpt>
      <trkpt lat="46.246" lon="6.70619">
        <ele>1478.46</ele>
        <time>2026-03-08T10:26:06Z</time>
      </trkpt>
      <trkpt lat="46.246" lon="6.70619">
        <ele>1478.223</ele>
        <time>2026-03-08T10:26:11Z</time>
      </trkpt>
      <trkpt lat="46.246" lon="6.70619">
        <ele>1478.64</ele>
        <time>2026-03-08T10:26:16Z</time>
      </trkpt>
      <trkpt lat="46.246" lon="6.70619">
        <ele>1479.965</ele>
        <time>2026-03-08T10:26:21Z</time>
      </trkpt>
      <trkpt lat="46.246" lon="6.70619">
        <ele>1480.168</ele>
        <time>2026-03-08T10:26:26Z</time>
      </trkpt>
      <trkpt lat="46.246" lon="6.70619">
        <ele>1482.067</ele>
        <time>2026-03-08T10:26:31Z</time>
      </trkpt>
      <trkpt lat="46.246" lon="6.70619">
        <ele>1483.028</ele>
        <time>2026-03-08T10:26:37Z</time>
      </trkpt>
      <trkpt lat="46.246" lon="6.70619">
        <ele>1484.031</ele>
        <time>2026-03-08T10:26:42Z</time>
      </trkpt>
      <trkpt lat="46.24597" lon="6.70603">
        <ele>1484.533</ele>
        <time>2026-03-08T10:26:47Z</time>
      </trkpt>
      <trkpt lat="46.24596" lon="6.70601">
        <ele>1484.183</ele>
        <time>2026-03-08T10:26:52Z</time>
      </trkpt>
      <trkpt lat="46.24595" lon="6.706">
        <ele>1484.153</ele>
        <time>2026-03-08T10:26:57Z</time>
      </trkpt>
      <trkpt lat="46.24593" lon="6.70598">
        <ele>1482.307</ele>
        <time>2026-03-08T10:27:02Z</time>
      </trkpt>
      <trkpt lat="46.2459" lon="6.70596">
        <ele>1482.532</ele>
        <time>2026-03-08T10:27:07Z</time>
      </trkpt>
      <trkpt lat="46.24589" lon="6.70593">
        <ele>1484.692</ele>
        <time>2026-03-08T10:27:12Z</time>
      </trkpt>
      <trkpt lat="46.24588" lon="6.7059">
        <ele>1486.723</ele>
        <time>2026-03-08T10:27:17Z</time>
      </trkpt>
      <trkpt lat="46.24589" lon="6.70588">
        <ele>1487.939</ele>
        <time>2026-03-08T10:27:22Z</time>
      </trkpt>
      <trkpt lat="46.24589" lon="6.70587">
        <ele>1488.681</ele>
        <time>2026-03-08T10:27:27Z</time>
      </trkpt>
      <trkpt lat="46.24589" lon="6.70587">
        <ele>1488.674</ele>
        <time>2026-03-08T10:27:32Z</time>
      </trkpt>
      <trkpt lat="46.24589" lon="6.70587">
        <ele>1488.674</ele>
        <time>2026-03-08T10:27:37Z</time>
      </trkpt>
      <trkpt lat="46.24589" lon="6.70587">
        <ele>1488.666</ele>
        <time>2026-03-08T10:27:42Z</time>
      </trkpt>
      <trkpt lat="46.24589" lon="6.70587">
        <ele>1488.477</ele>
        <time>2026-03-08T10:27:47Z</time>
      </trkpt>
      <trkpt lat="46.24589" lon="6.70587">
        <ele>1488.476</ele>
        <time>2026-03-08T10:27:52Z</time>
      </trkpt>
      <trkpt lat="46.24589" lon="6.70587">
        <ele>1488.486</ele>
        <time>2026-03-08T10:27:57Z</time>
      </trkpt>
      <trkpt lat="46.24589" lon="6.70587">
        <ele>1488.499</ele>
        <time>2026-03-08T10:28:02Z</time>
      </trkpt>
      <trkpt lat="46.24589" lon="6.70587">
        <ele>1488.386</ele>
        <time>2026-03-08T10:28:07Z</time>
      </trkpt>
      <trkpt lat="46.24589" lon="6.70587">
        <ele>1488.421</ele>
        <time>2026-03-08T10:28:12Z</time>
      </trkpt>
      <trkpt lat="46.24589" lon="6.70587">
        <ele>1488.428</ele>
        <time>2026-03-08T10:28:17Z</time>
      </trkpt>
      <trkpt lat="46.24589" lon="6.70587">
        <ele>1488.427</ele>
        <time>2026-03-08T10:28:22Z</time>
      </trkpt>
      <trkpt lat="46.24589" lon="6.70587">
        <ele>1488.437</ele>
        <time>2026-03-08T10:28:27Z</time>
      </trkpt>
      <trkpt lat="46.24589" lon="6.70587">
        <ele>1488.443</ele>
        <time>2026-03-08T10:28:32Z</time>
      </trkpt>
      <trkpt lat="46.24589" lon="6.70587">
        <ele>1488.443</ele>
        <time>2026-03-08T10:28:37Z</time>
      </trkpt>
      <trkpt lat="46.24589" lon="6.70587">
        <ele>1488.449</ele>
        <time>2026-03-08T10:28:42Z</time>
      </trkpt>
      <trkpt lat="46.24589" lon="6.70587">
        <ele>1488.437</ele>
        <time>2026-03-08T10:28:47Z</time>
      </trkpt>
      <trkpt lat="46.24589" lon="6.70587">
        <ele>1488.427</ele>
        <time>2026-03-08T10:28:52Z</time>
      </trkpt>
      <trkpt lat="46.24589" lon="6.70587">
        <ele>1488.424</ele>
        <time>2026-03-08T10:28:57Z</time>
      </trkpt>
      <trkpt lat="46.24589" lon="6.70587">
        <ele>1488.415</ele>
        <time>2026-03-08T10:29:02Z</time>
      </trkpt>
      <trkpt lat="46.24589" lon="6.70587">
        <ele>1488.417</ele>
        <time>2026-03-08T10:29:07Z</time>
      </trkpt>
      <trkpt lat="46.24589" lon="6.70587">
        <ele>1488.414</ele>
        <time>2026-03-08T10:29:12Z</time>
      </trkpt>
      <trkpt lat="46.24589" lon="6.70587">
        <ele>1488.408</ele>
        <time>2026-03-08T10:29:17Z</time>
      </trkpt>
      <trkpt lat="46.24589" lon="6.70587">
        <ele>1488.411</ele>
        <time>2026-03-08T10:29:22Z</time>
      </trkpt>
      <trkpt lat="46.24589" lon="6.70587">
        <ele>1488.409</ele>
        <time>2026-03-08T10:29:27Z</time>
      </trkpt>
      <trkpt lat="46.24589" lon="6.70587">
        <ele>1488.403</ele>
        <time>2026-03-08T10:29:32Z</time>
      </trkpt>
      <trkpt lat="46.24589" lon="6.70587">
        <ele>1488.407</ele>
        <time>2026-03-08T10:29:37Z</time>
      </trkpt>
      <trkpt lat="46.24589" lon="6.70587">
        <ele>1488.895</ele>
        <time>2026-03-08T10:29:42Z</time>
      </trkpt>
      <trkpt lat="46.24588" lon="6.70583">
        <ele>1489.893</ele>
        <time>2026-03-08T10:29:47Z</time>
      </trkpt>
      <trkpt lat="46.24586" lon="6.7058">
        <ele>1490.098</ele>
        <time>2026-03-08T10:29:52Z</time>
      </trkpt>
      <trkpt lat="46.24585" lon="6.70577">
        <ele>1490.968</ele>
        <time>2026-03-08T10:29:57Z</time>
      </trkpt>
      <trkpt lat="46.24584" lon="6.70575">
        <ele>1491.636</ele>
        <time>2026-03-08T10:30:02Z</time>
      </trkpt>
      <trkpt lat="46.24583" lon="6.70572">
        <ele>1492.35</ele>
        <time>2026-03-08T10:30:07Z</time>
      </trkpt>
      <trkpt lat="46.24582" lon="6.7057">
        <ele>1492.931</ele>
        <time>2026-03-08T10:30:12Z</time>
      </trkpt>
      <trkpt lat="46.2458" lon="6.70569">
        <ele>1494.228</ele>
        <time>2026-03-08T10:30:17Z</time>
      </trkpt>
      <trkpt lat="46.24579" lon="6.70565">
        <ele>1494.933</ele>
        <time>2026-03-08T10:30:22Z</time>
      </trkpt>
      <trkpt lat="46.2458" lon="6.70563">
        <ele>1495.387</ele>
        <time>2026-03-08T10:30:27Z</time>
      </trkpt>
      <trkpt lat="46.24582" lon="6.70561">
        <ele>1496.422</ele>
        <time>2026-03-08T10:30:32Z</time>
      </trkpt>
      <trkpt lat="46.24583" lon="6.70559">
        <ele>1497.41</ele>
        <time>2026-03-08T10:30:37Z</time>
      </trkpt>
      <trkpt lat="46.24583" lon="6.70557">
        <ele>1499.345</ele>
        <time>2026-03-08T10:30:42Z</time>
      </trkpt>
      <trkpt lat="46.24581" lon="6.70556">
        <ele>1499.544</ele>
        <time>2026-03-08T10:30:47Z</time>
      </trkpt>
      <trkpt lat="46.2458" lon="6.70556">
        <ele>1500.033</ele>
        <time>2026-03-08T10:30:52Z</time>
      </trkpt>
      <trkpt lat="46.24578" lon="6.70553">
        <ele>1500.001</ele>
        <time>2026-03-08T10:30:57Z</time>
      </trkpt>
      <trkpt lat="46.24577" lon="6.70552">
        <ele>1500.424</ele>
        <time>2026-03-08T10:31:02Z</time>
      </trkpt>
      <trkpt lat="46.24577" lon="6.70552">
        <ele>1500.436</ele>
        <time>2026-03-08T10:31:07Z</time>
      </trkpt>
      <trkpt lat="46.24577" lon="6.70552">
        <ele>1500.445</ele>
        <time>2026-03-08T10:31:12Z</time>
      </trkpt>
      <trkpt lat="46.24577" lon="6.70552">
        <ele>1500.469</ele>
        <time>2026-03-08T10:31:17Z</time>
      </trkpt>
      <trkpt lat="46.24577" lon="6.70552">
        <ele>1500.487</ele>
        <time>2026-03-08T10:31:22Z</time>
      </trkpt>
      <trkpt lat="46.24577" lon="6.70552">
        <ele>1500.487</ele>
        <time>2026-03-08T10:31:27Z</time>
      </trkpt>
      <trkpt lat="46.24577" lon="6.70552">
        <ele>1500.493</ele>
        <time>2026-03-08T10:31:32Z</time>
      </trkpt>
      <trkpt lat="46.24577" lon="6.70552">
        <ele>1500.484</ele>
        <time>2026-03-08T10:31:37Z</time>
      </trkpt>
      <trkpt lat="46.24577" lon="6.70552">
        <ele>1500.486</ele>
        <time>2026-03-08T10:31:42Z</time>
      </trkpt>
      <trkpt lat="46.24576" lon="6.70549">
        <ele>1501.493</ele>
        <time>2026-03-08T10:31:47Z</time>
      </trkpt>
      <trkpt lat="46.24574" lon="6.70547">
        <ele>1502.092</ele>
        <time>2026-03-08T10:31:52Z</time>
      </trkpt>
      <trkpt lat="46.24573" lon="6.70545">
        <ele>1503.055</ele>
        <time>2026-03-08T10:31:57Z</time>
      </trkpt>
      <trkpt lat="46.24573" lon="6.70545">
        <ele>1502.466</ele>
        <time>2026-03-08T10:32:02Z</time>
      </trkpt>
      <trkpt lat="46.24576" lon="6.70543">
        <ele>1504.155</ele>
        <time>2026-03-08T10:32:07Z</time>
      </trkpt>
      <trkpt lat="46.24577" lon="6.70543">
        <ele>1504.985</ele>
        <time>2026-03-08T10:32:12Z</time>
      </trkpt>
      <trkpt lat="46.24577" lon="6.70543">
        <ele>1504.94</ele>
        <time>2026-03-08T10:32:17Z</time>
      </trkpt>
      <trkpt lat="46.24575" lon="6.70541">
        <ele>1504.527</ele>
        <time>2026-03-08T10:32:22Z</time>
      </trkpt>
      <trkpt lat="46.24572" lon="6.70539">
        <ele>1503.967</ele>
        <time>2026-03-08T10:32:27Z</time>
      </trkpt>
      <trkpt lat="46.2457" lon="6.70537">
        <ele>1503.551</ele>
        <time>2026-03-08T10:32:32Z</time>
      </trkpt>
      <trkpt lat="46.2457" lon="6.70534">
        <ele>1503.788</ele>
        <time>2026-03-08T10:32:37Z</time>
      </trkpt>
      <trkpt lat="46.2457" lon="6.70532">
        <ele>1504.832</ele>
        <time>2026-03-08T10:32:42Z</time>
      </trkpt>
      <trkpt lat="46.24571" lon="6.70529">
        <ele>1507.398</ele>
        <time>2026-03-08T10:32:47Z</time>
      </trkpt>
      <trkpt lat="46.24574" lon="6.70527">
        <ele>1508.311</ele>
        <time>2026-03-08T10:32:52Z</time>
      </trkpt>
      <trkpt lat="46.24575" lon="6.70525">
        <ele>1509.327</ele>
        <time>2026-03-08T10:32:57Z</time>
      </trkpt>
      <trkpt lat="46.24575" lon="6.70522">
        <ele>1510.143</ele>
        <time>2026-03-08T10:33:02Z</time>
      </trkpt>
      <trkpt lat="46.24576" lon="6.7052">
        <ele>1511.249</ele>
        <time>2026-03-08T10:33:07Z</time>
      </trkpt>
      <trkpt lat="46.24575" lon="6.70517">
        <ele>1510.457</ele>
        <time>2026-03-08T10:33:12Z</time>
      </trkpt>
      <trkpt lat="46.24574" lon="6.70515">
        <ele>1510.172</ele>
        <time>2026-03-08T10:33:17Z</time>
      </trkpt>
      <trkpt lat="46.24574" lon="6.70515">
        <ele>1510.18</ele>
        <time>2026-03-08T10:33:22Z</time>
      </trkpt>
      <trkpt lat="46.24574" lon="6.70515">
        <ele>1510.182</ele>
        <time>2026-03-08T10:33:27Z</time>
      </trkpt>
      <trkpt lat="46.24574" lon="6.70515">
        <ele>1510.179</ele>
        <time>2026-03-08T10:33:32Z</time>
      </trkpt>
      <trkpt lat="46.24574" lon="6.70515">
        <ele>1510.182</ele>
        <time>2026-03-08T10:33:37Z</time>
      </trkpt>
      <trkpt lat="46.24573" lon="6.70513">
        <ele>1511.328</ele>
        <time>2026-03-08T10:33:42Z</time>
      </trkpt>
      <trkpt lat="46.24571" lon="6.70509">
        <ele>1513.316</ele>
        <time>2026-03-08T10:33:47Z</time>
      </trkpt>
      <trkpt lat="46.2457" lon="6.70507">
        <ele>1515.264</ele>
        <time>2026-03-08T10:33:52Z</time>
      </trkpt>
      <trkpt lat="46.24568" lon="6.70504">
        <ele>1515.793</ele>
        <time>2026-03-08T10:33:57Z</time>
      </trkpt>
      <trkpt lat="46.24566" lon="6.70502">
        <ele>1514.611</ele>
        <time>2026-03-08T10:34:02Z</time>
      </trkpt>
      <trkpt lat="46.24565" lon="6.705">
        <ele>1514.742</ele>
        <time>2026-03-08T10:34:07Z</time>
      </trkpt>
      <trkpt lat="46.24562" lon="6.70497">
        <ele>1514.784</ele>
        <time>2026-03-08T10:34:12Z</time>
      </trkpt>
      <trkpt lat="46.2456" lon="6.70495">
        <ele>1516.111</ele>
        <time>2026-03-08T10:34:17Z</time>
      </trkpt>
      <trkpt lat="46.24557" lon="6.70492">
        <ele>1515.538</ele>
        <time>2026-03-08T10:34:22Z</time>
      </trkpt>
      <trkpt lat="46.24556" lon="6.70489">
        <ele>1516.493</ele>
        <time>2026-03-08T10:34:27Z</time>
      </trkpt>
      <trkpt lat="46.24555" lon="6.70486">
        <ele>1518.472</ele>
        <time>2026-03-08T10:34:32Z</time>
      </trkpt>
      <trkpt lat="46.24555" lon="6.70484">
        <ele>1518.996</ele>
        <time>2026-03-08T10:34:37Z</time>
      </trkpt>
      <trkpt lat="46.24553" lon="6.70482">
        <ele>1518.705</ele>
        <time>2026-03-08T10:34:42Z</time>
      </trkpt>
      <trkpt lat="46.24553" lon="6.70478">
        <ele>1520.029</ele>
        <time>2026-03-08T10:34:47Z</time>
      </trkpt>
      <trkpt lat="46.24551" lon="6.70475">
        <ele>1520.465</ele>
        <time>2026-03-08T10:34:52Z</time>
      </trkpt>
      <trkpt lat="46.24551" lon="6.70472">
        <ele>1521.178</ele>
        <time>2026-03-08T10:34:57Z</time>
      </trkpt>
      <trkpt lat="46.24551" lon="6.70469">
        <ele>1521.776</ele>
        <time>2026-03-08T10:35:02Z</time>
      </trkpt>
      <trkpt lat="46.2455" lon="6.70466">
        <ele>1521.011</ele>
        <time>2026-03-08T10:35:07Z</time>
      </trkpt>
      <trkpt lat="46.24548" lon="6.70463">
        <ele>1523.148</ele>
        <time>2026-03-08T10:35:12Z</time>
      </trkpt>
      <trkpt lat="46.24547" lon="6.70458">
        <ele>1524.114</ele>
        <time>2026-03-08T10:35:17Z</time>
      </trkpt>
      <trkpt lat="46.24545" lon="6.70456">
        <ele>1523.985</ele>
        <time>2026-03-08T10:35:22Z</time>
      </trkpt>
      <trkpt lat="46.24543" lon="6.70454">
        <ele>1525.403</ele>
        <time>2026-03-08T10:35:27Z</time>
      </trkpt>
      <trkpt lat="46.24542" lon="6.70451">
        <ele>1526.169</ele>
        <time>2026-03-08T10:35:32Z</time>
      </trkpt>
      <trkpt lat="46.24541" lon="6.70449">
        <ele>1526.548</ele>
        <time>2026-03-08T10:35:37Z</time>
      </trkpt>
      <trkpt lat="46.2454" lon="6.70447">
        <ele>1528.212</ele>
        <time>2026-03-08T10:35:42Z</time>
      </trkpt>
      <trkpt lat="46.24539" lon="6.70446">
        <ele>1527.59</ele>
        <time>2026-03-08T10:35:47Z</time>
      </trkpt>
      <trkpt lat="46.24538" lon="6.70444">
        <ele>1528.137</ele>
        <time>2026-03-08T10:35:52Z</time>
      </trkpt>
      <trkpt lat="46.24537" lon="6.70441">
        <ele>1529.734</ele>
        <time>2026-03-08T10:35:57Z</time>
      </trkpt>
      <trkpt lat="46.24537" lon="6.70437">
        <ele>1530.809</ele>
        <time>2026-03-08T10:36:02Z</time>
      </trkpt>
      <trkpt lat="46.24536" lon="6.70433">
        <ele>1531.413</ele>
        <time>2026-03-08T10:36:07Z</time>
      </trkpt>
      <trkpt lat="46.24535" lon="6.70431">
        <ele>1532.805</ele>
        <time>2026-03-08T10:36:12Z</time>
      </trkpt>
      <trkpt lat="46.24534" lon="6.70429">
        <ele>1534.164</ele>
        <time>2026-03-08T10:36:17Z</time>
      </trkpt>
      <trkpt lat="46.24532" lon="6.70427">
        <ele>1533.576</ele>
        <time>2026-03-08T10:36:22Z</time>
      </trkpt>
      <trkpt lat="46.2453" lon="6.70426">
        <ele>1534.19</ele>
        <time>2026-03-08T10:36:27Z</time>
      </trkpt>
      <trkpt lat="46.24528" lon="6.70424">
        <ele>1534.157</ele>
        <time>2026-03-08T10:36:32Z</time>
      </trkpt>
      <trkpt lat="46.24525" lon="6.70422">
        <ele>1533.694</ele>
        <time>2026-03-08T10:36:37Z</time>
      </trkpt>
      <trkpt lat="46.24525" lon="6.70422">
        <ele>1533.722</ele>
        <time>2026-03-08T10:36:42Z</time>
      </trkpt>
      <trkpt lat="46.24523" lon="6.70419">
        <ele>1534.532</ele>
        <time>2026-03-08T10:36:47Z</time>
      </trkpt>
      <trkpt lat="46.24523" lon="6.70417">
        <ele>1535.355</ele>
        <time>2026-03-08T10:36:52Z</time>
      </trkpt>
      <trkpt lat="46.24521" lon="6.70414">
        <ele>1535.389</ele>
        <time>2026-03-08T10:36:57Z</time>
      </trkpt>
      <trkpt lat="46.2452" lon="6.70412">
        <ele>1536.725</ele>
        <time>2026-03-08T10:37:02Z</time>
      </trkpt>
      <trkpt lat="46.24517" lon="6.70409">
        <ele>1535.729</ele>
        <time>2026-03-08T10:37:07Z</time>
      </trkpt>
      <trkpt lat="46.24514" lon="6.70408">
        <ele>1537.293</ele>
        <time>2026-03-08T10:37:12Z</time>
      </trkpt>
      <trkpt lat="46.24512" lon="6.70408">
        <ele>1539.57</ele>
        <time>2026-03-08T10:37:17Z</time>
      </trkpt>
      <trkpt lat="46.2451" lon="6.70406">
        <ele>1540.482</ele>
        <time>2026-03-08T10:37:22Z</time>
      </trkpt>
      <trkpt lat="46.24508" lon="6.70406">
        <ele>1540.761</ele>
        <time>2026-03-08T10:37:27Z</time>
      </trkpt>
      <trkpt lat="46.24505" lon="6.70406">
        <ele>1541.448</ele>
        <time>2026-03-08T10:37:32Z</time>
      </trkpt>
      <trkpt lat="46.24502" lon="6.70406">
        <ele>1540.902</ele>
        <time>2026-03-08T10:37:37Z</time>
      </trkpt>
      <trkpt lat="46.24499" lon="6.70408">
        <ele>1541.814</ele>
        <time>2026-03-08T10:37:42Z</time>
      </trkpt>
      <trkpt lat="46.24497" lon="6.70406">
        <ele>1543.005</ele>
        <time>2026-03-08T10:37:47Z</time>
      </trkpt>
      <trkpt lat="46.24496" lon="6.70404">
        <ele>1543.749</ele>
        <time>2026-03-08T10:37:52Z</time>
      </trkpt>
      <trkpt lat="46.24495" lon="6.70402">
        <ele>1544.379</ele>
        <time>2026-03-08T10:37:57Z</time>
      </trkpt>
      <trkpt lat="46.24494" lon="6.70402">
        <ele>1546.119</ele>
        <time>2026-03-08T10:38:02Z</time>
      </trkpt>
      <trkpt lat="46.24491" lon="6.70403">
        <ele>1545.288</ele>
        <time>2026-03-08T10:38:07Z</time>
      </trkpt>
      <trkpt lat="46.24488" lon="6.70404">
        <ele>1546.126</ele>
        <time>2026-03-08T10:38:12Z</time>
      </trkpt>
      <trkpt lat="46.24486" lon="6.70405">
        <ele>1547.102</ele>
        <time>2026-03-08T10:38:17Z</time>
      </trkpt>
      <trkpt lat="46.24485" lon="6.70407">
        <ele>1548.808</ele>
        <time>2026-03-08T10:38:22Z</time>
      </trkpt>
      <trkpt lat="46.24482" lon="6.70409">
        <ele>1549.921</ele>
        <time>2026-03-08T10:38:27Z</time>
      </trkpt>
      <trkpt lat="46.24481" lon="6.70411">
        <ele>1550.64</ele>
        <time>2026-03-08T10:38:32Z</time>
      </trkpt>
      <trkpt lat="46.24479" lon="6.70412">
        <ele>1551.175</ele>
        <time>2026-03-08T10:38:37Z</time>
      </trkpt>
      <trkpt lat="46.24476" lon="6.70413">
        <ele>1551.062</ele>
        <time>2026-03-08T10:38:42Z</time>
      </trkpt>
      <trkpt lat="46.24474" lon="6.70415">
        <ele>1552.022</ele>
        <time>2026-03-08T10:38:47Z</time>
      </trkpt>
      <trkpt lat="46.24471" lon="6.70417">
        <ele>1553.816</ele>
        <time>2026-03-08T10:38:52Z</time>
      </trkpt>
      <trkpt lat="46.24469" lon="6.70419">
        <ele>1554.72</ele>
        <time>2026-03-08T10:38:57Z</time>
      </trkpt>
      <trkpt lat="46.24467" lon="6.7042">
        <ele>1555.029</ele>
        <time>2026-03-08T10:39:02Z</time>
      </trkpt>
      <trkpt lat="46.24465" lon="6.70421">
        <ele>1556.468</ele>
        <time>2026-03-08T10:39:07Z</time>
      </trkpt>
      <trkpt lat="46.24464" lon="6.70422">
        <ele>1556.674</ele>
        <time>2026-03-08T10:39:12Z</time>
      </trkpt>
      <trkpt lat="46.24463" lon="6.70423">
        <ele>1557.081</ele>
        <time>2026-03-08T10:39:17Z</time>
      </trkpt>
      <trkpt lat="46.24461" lon="6.70423">
        <ele>1558.429</ele>
        <time>2026-03-08T10:39:22Z</time>
      </trkpt>
      <trkpt lat="46.2446" lon="6.70425">
        <ele>1559.847</ele>
        <time>2026-03-08T10:39:27Z</time>
      </trkpt>
      <trkpt lat="46.24458" lon="6.70426">
        <ele>1560.261</ele>
        <time>2026-03-08T10:39:32Z</time>
      </trkpt>
      <trkpt lat="46.24455" lon="6.70428">
        <ele>1560.961</ele>
        <time>2026-03-08T10:39:37Z</time>
      </trkpt>
      <trkpt lat="46.24454" lon="6.7043">
        <ele>1562.136</ele>
        <time>2026-03-08T10:39:42Z</time>
      </trkpt>
      <trkpt lat="46.24451" lon="6.70431">
        <ele>1563.339</ele>
        <time>2026-03-08T10:39:47Z</time>
      </trkpt>
      <trkpt lat="46.2445" lon="6.70432">
        <ele>1565.524</ele>
        <time>2026-03-08T10:39:52Z</time>
      </trkpt>
      <trkpt lat="46.24449" lon="6.70433">
        <ele>1565.285</ele>
        <time>2026-03-08T10:39:57Z</time>
      </trkpt>
      <trkpt lat="46.24447" lon="6.70434">
        <ele>1565.325</ele>
        <time>2026-03-08T10:40:02Z</time>
      </trkpt>
      <trkpt lat="46.24445" lon="6.70435">
        <ele>1565.427</ele>
        <time>2026-03-08T10:40:07Z</time>
      </trkpt>
      <trkpt lat="46.24444" lon="6.70436">
        <ele>1565.676</ele>
        <time>2026-03-08T10:40:12Z</time>
      </trkpt>
      <trkpt lat="46.24443" lon="6.70437">
        <ele>1566.034</ele>
        <time>2026-03-08T10:40:17Z</time>
      </trkpt>
      <trkpt lat="46.24442" lon="6.70438">
        <ele>1567.499</ele>
        <time>2026-03-08T10:40:22Z</time>
      </trkpt>
      <trkpt lat="46.24441" lon="6.7044">
        <ele>1568.194</ele>
        <time>2026-03-08T10:40:27Z</time>
      </trkpt>
      <trkpt lat="46.24439" lon="6.70441">
        <ele>1569.155</ele>
        <time>2026-03-08T10:40:32Z</time>
      </trkpt>
      <trkpt lat="46.24438" lon="6.70443">
        <ele>1569.47</ele>
        <time>2026-03-08T10:40:37Z</time>
      </trkpt>
      <trkpt lat="46.24436" lon="6.70444">
        <ele>1570.261</ele>
        <time>2026-03-08T10:40:42Z</time>
      </trkpt>
      <trkpt lat="46.24434" lon="6.70446">
        <ele>1570.763</ele>
        <time>2026-03-08T10:40:47Z</time>
      </trkpt>
      <trkpt lat="46.24433" lon="6.70448">
        <ele>1572.295</ele>
        <time>2026-03-08T10:40:52Z</time>
      </trkpt>
      <trkpt lat="46.24432" lon="6.70448">
        <ele>1573.496</ele>
        <time>2026-03-08T10:40:57Z</time>
      </trkpt>
      <trkpt lat="46.2443" lon="6.70449">
        <ele>1573.066</ele>
        <time>2026-03-08T10:41:02Z</time>
      </trkpt>
      <trkpt lat="46.24428" lon="6.70449">
        <ele>1572.74</ele>
        <time>2026-03-08T10:41:07Z</time>
      </trkpt>
      <trkpt lat="46.24427" lon="6.70448">
        <ele>1572.605</ele>
        <time>2026-03-08T10:41:12Z</time>
      </trkpt>
      <trkpt lat="46.24427" lon="6.70448">
        <ele>1572.609</ele>
        <time>2026-03-08T10:41:17Z</time>
      </trkpt>
      <trkpt lat="46.24427" lon="6.70448">
        <ele>1572.603</ele>
        <time>2026-03-08T10:41:22Z</time>
      </trkpt>
      <trkpt lat="46.24427" lon="6.70448">
        <ele>1572.594</ele>
        <time>2026-03-08T10:41:27Z</time>
      </trkpt>
      <trkpt lat="46.24427" lon="6.70448">
        <ele>1572.597</ele>
        <time>2026-03-08T10:41:32Z</time>
      </trkpt>
      <trkpt lat="46.24427" lon="6.70448">
        <ele>1572.597</ele>
        <time>2026-03-08T10:41:37Z</time>
      </trkpt>
      <trkpt lat="46.24427" lon="6.70448">
        <ele>1572.601</ele>
        <time>2026-03-08T10:41:42Z</time>
      </trkpt>
      <trkpt lat="46.24427" lon="6.70448">
        <ele>1572.616</ele>
        <time>2026-03-08T10:41:47Z</time>
      </trkpt>
      <trkpt lat="46.24426" lon="6.70447">
        <ele>1573.362</ele>
        <time>2026-03-08T10:41:52Z</time>
      </trkpt>
      <trkpt lat="46.24424" lon="6.70448">
        <ele>1574.044</ele>
        <time>2026-03-08T10:41:57Z</time>
      </trkpt>
      <trkpt lat="46.24422" lon="6.70447">
        <ele>1574.514</ele>
        <time>2026-03-08T10:42:02Z</time>
      </trkpt>
      <trkpt lat="46.2442" lon="6.70446">
        <ele>1575.571</ele>
        <time>2026-03-08T10:42:07Z</time>
      </trkpt>
      <trkpt lat="46.24417" lon="6.70444">
        <ele>1575.67</ele>
        <time>2026-03-08T10:42:12Z</time>
      </trkpt>
      <trkpt lat="46.24415" lon="6.70444">
        <ele>1576.032</ele>
        <time>2026-03-08T10:42:17Z</time>
      </trkpt>
      <trkpt lat="46.24413" lon="6.70443">
        <ele>1576.6</ele>
        <time>2026-03-08T10:42:22Z</time>
      </trkpt>
      <trkpt lat="46.24412" lon="6.70442">
        <ele>1576.211</ele>
        <time>2026-03-08T10:42:27Z</time>
      </trkpt>
      <trkpt lat="46.24412" lon="6.70441">
        <ele>1576.252</ele>
        <time>2026-03-08T10:42:32Z</time>
      </trkpt>
      <trkpt lat="46.24411" lon="6.70438">
        <ele>1577.356</ele>
        <time>2026-03-08T10:42:37Z</time>
      </trkpt>
      <trkpt lat="46.2441" lon="6.70434">
        <ele>1576.772</ele>
        <time>2026-03-08T10:42:42Z</time>
      </trkpt>
      <trkpt lat="46.24409" lon="6.70431">
        <ele>1577.643</ele>
        <time>2026-03-08T10:42:47Z</time>
      </trkpt>
      <trkpt lat="46.24409" lon="6.70429">
        <ele>1578.317</ele>
        <time>2026-03-08T10:42:52Z</time>
      </trkpt>
      <trkpt lat="46.24408" lon="6.70427">
        <ele>1578.537</ele>
        <time>2026-03-08T10:42:57Z</time>
      </trkpt>
      <trkpt lat="46.24407" lon="6.70424">
        <ele>1578.579</ele>
        <time>2026-03-08T10:43:02Z</time>
      </trkpt>
      <trkpt lat="46.24406" lon="6.70418">
        <ele>1579.341</ele>
        <time>2026-03-08T10:43:07Z</time>
      </trkpt>
      <trkpt lat="46.24404" lon="6.70414">
        <ele>1578.912</ele>
        <time>2026-03-08T10:43:12Z</time>
      </trkpt>
      <trkpt lat="46.24403" lon="6.70413">
        <ele>1579.401</ele>
        <time>2026-03-08T10:43:17Z</time>
      </trkpt>
      <trkpt lat="46.24402" lon="6.70408">
        <ele>1579.494</ele>
        <time>2026-03-08T10:43:22Z</time>
      </trkpt>
      <trkpt lat="46.24402" lon="6.70405">
        <ele>1580.648</ele>
        <time>2026-03-08T10:43:27Z</time>
      </trkpt>
      <trkpt lat="46.24401" lon="6.70402">
        <ele>1581.443</ele>
        <time>2026-03-08T10:43:32Z</time>
      </trkpt>
      <trkpt lat="46.24401" lon="6.704">
        <ele>1581.22</ele>
        <time>2026-03-08T10:43:37Z</time>
      </trkpt>
      <trkpt lat="46.24401" lon="6.70397">
        <ele>1582.12</ele>
        <time>2026-03-08T10:43:42Z</time>
      </trkpt>
      <trkpt lat="46.244" lon="6.70395">
        <ele>1582.758</ele>
        <time>2026-03-08T10:43:47Z</time>
      </trkpt>
      <trkpt lat="46.24399" lon="6.70391">
        <ele>1583.128</ele>
        <time>2026-03-08T10:43:52Z</time>
      </trkpt>
      <trkpt lat="46.24398" lon="6.70388">
        <ele>1583.875</ele>
        <time>2026-03-08T10:43:57Z</time>
      </trkpt>
      <trkpt lat="46.24396" lon="6.70386">
        <ele>1584.512</ele>
        <time>2026-03-08T10:44:02Z</time>
      </trkpt>
      <trkpt lat="46.24394" lon="6.70385">
        <ele>1585.005</ele>
        <time>2026-03-08T10:44:07Z</time>
      </trkpt>
      <trkpt lat="46.24392" lon="6.70388">
        <ele>1586.349</ele>
        <time>2026-03-08T10:44:12Z</time>
      </trkpt>
      <trkpt lat="46.24392" lon="6.7039">
        <ele>1587.874</ele>
        <time>2026-03-08T10:44:17Z</time>
      </trkpt>
      <trkpt lat="46.24391" lon="6.70391">
        <ele>1588.237</ele>
        <time>2026-03-08T10:44:22Z</time>
      </trkpt>
      <trkpt lat="46.24389" lon="6.70392">
        <ele>1589.422</ele>
        <time>2026-03-08T10:44:27Z</time>
      </trkpt>
      <trkpt lat="46.24388" lon="6.70393">
        <ele>1589.649</ele>
        <time>2026-03-08T10:44:32Z</time>
      </trkpt>
      <trkpt lat="46.24386" lon="6.70395">
        <ele>1590.688</ele>
        <time>2026-03-08T10:44:37Z</time>
      </trkpt>
      <trkpt lat="46.24384" lon="6.70398">
        <ele>1591.04</ele>
        <time>2026-03-08T10:44:42Z</time>
      </trkpt>
      <trkpt lat="46.24383" lon="6.704">
        <ele>1591.994</ele>
        <time>2026-03-08T10:44:47Z</time>
      </trkpt>
      <trkpt lat="46.24381" lon="6.70399">
        <ele>1591.087</ele>
        <time>2026-03-08T10:44:52Z</time>
      </trkpt>
      <trkpt lat="46.2438" lon="6.70397">
        <ele>1590.779</ele>
        <time>2026-03-08T10:44:57Z</time>
      </trkpt>
      <trkpt lat="46.24378" lon="6.70395">
        <ele>1591.663</ele>
        <time>2026-03-08T10:45:02Z</time>
      </trkpt>
      <trkpt lat="46.24377" lon="6.70392">
        <ele>1592.766</ele>
        <time>2026-03-08T10:45:07Z</time>
      </trkpt>
      <trkpt lat="46.24377" lon="6.70391">
        <ele>1593.201</ele>
        <time>2026-03-08T10:45:12Z</time>
      </trkpt>
      <trkpt lat="46.24376" lon="6.70389">
        <ele>1593.985</ele>
        <time>2026-03-08T10:45:17Z</time>
      </trkpt>
      <trkpt lat="46.24376" lon="6.70387">
        <ele>1595.385</ele>
        <time>2026-03-08T10:45:22Z</time>
      </trkpt>
      <trkpt lat="46.24374" lon="6.70382">
        <ele>1595.764</ele>
        <time>2026-03-08T10:45:27Z</time>
      </trkpt>
      <trkpt lat="46.24374" lon="6.70379">
        <ele>1596.452</ele>
        <time>2026-03-08T10:45:32Z</time>
      </trkpt>
      <trkpt lat="46.24374" lon="6.70377">
        <ele>1596.27</ele>
        <time>2026-03-08T10:45:37Z</time>
      </trkpt>
      <trkpt lat="46.24372" lon="6.70374">
        <ele>1598.303</ele>
        <time>2026-03-08T10:45:42Z</time>
      </trkpt>
      <trkpt lat="46.24371" lon="6.70372">
        <ele>1599.239</ele>
        <time>2026-03-08T10:45:47Z</time>
      </trkpt>
      <trkpt lat="46.2437" lon="6.70369">
        <ele>1600.251</ele>
        <time>2026-03-08T10:45:52Z</time>
      </trkpt>
      <trkpt lat="46.24369" lon="6.70367">
        <ele>1601.237</ele>
        <time>2026-03-08T10:45:57Z</time>
      </trkpt>
      <trkpt lat="46.24367" lon="6.70366">
        <ele>1601.906</ele>
        <time>2026-03-08T10:46:02Z</time>
      </trkpt>
      <trkpt lat="46.24366" lon="6.70368">
        <ele>1601.582</ele>
        <time>2026-03-08T10:46:07Z</time>
      </trkpt>
      <trkpt lat="46.24365" lon="6.7037">
        <ele>1601.215</ele>
        <time>2026-03-08T10:46:12Z</time>
      </trkpt>
      <trkpt lat="46.24365" lon="6.7037">
        <ele>1601.211</ele>
        <time>2026-03-08T10:46:17Z</time>
      </trkpt>
      <trkpt lat="46.24365" lon="6.7037">
        <ele>1601.216</ele>
        <time>2026-03-08T10:46:22Z</time>
      </trkpt>
      <trkpt lat="46.24365" lon="6.7037">
        <ele>1601.21</ele>
        <time>2026-03-08T10:46:27Z</time>
      </trkpt>
      <trkpt lat="46.24365" lon="6.7037">
        <ele>1601.21</ele>
        <time>2026-03-08T10:46:32Z</time>
      </trkpt>
      <trkpt lat="46.24365" lon="6.7037">
        <ele>1601.224</ele>
        <time>2026-03-08T10:46:37Z</time>
      </trkpt>
      <trkpt lat="46.24365" lon="6.7037">
        <ele>1601.228</ele>
        <time>2026-03-08T10:46:42Z</time>
      </trkpt>
      <trkpt lat="46.24365" lon="6.7037">
        <ele>1595.638</ele>
        <time>2026-03-08T10:46:47Z</time>
      </trkpt>
      <trkpt lat="46.24365" lon="6.7037">
        <ele>1596.104</ele>
        <time>2026-03-08T10:46:52Z</time>
      </trkpt>
      <trkpt lat="46.24362" lon="6.70372">
        <ele>1598.311</ele>
        <time>2026-03-08T10:46:57Z</time>
      </trkpt>
      <trkpt lat="46.24361" lon="6.70375">
        <ele>1601.786</ele>
        <time>2026-03-08T10:47:02Z</time>
      </trkpt>
      <trkpt lat="46.24359" lon="6.70379">
        <ele>1605.065</ele>
        <time>2026-03-08T10:47:07Z</time>
      </trkpt>
      <trkpt lat="46.24357" lon="6.70382">
        <ele>1605.885</ele>
        <time>2026-03-08T10:47:12Z</time>
      </trkpt>
      <trkpt lat="46.24356" lon="6.70381">
        <ele>1606.618</ele>
        <time>2026-03-08T10:47:17Z</time>
      </trkpt>
      <trkpt lat="46.24355" lon="6.70378">
        <ele>1607.794</ele>
        <time>2026-03-08T10:47:22Z</time>
      </trkpt>
      <trkpt lat="46.24355" lon="6.70376">
        <ele>1608.966</ele>
        <time>2026-03-08T10:47:27Z</time>
      </trkpt>
      <trkpt lat="46.24354" lon="6.70374">
        <ele>1609.42</ele>
        <time>2026-03-08T10:47:32Z</time>
      </trkpt>
      <trkpt lat="46.24353" lon="6.70371">
        <ele>1610.254</ele>
        <time>2026-03-08T10:47:37Z</time>
      </trkpt>
      <trkpt lat="46.24352" lon="6.70369">
        <ele>1611.854</ele>
        <time>2026-03-08T10:47:42Z</time>
      </trkpt>
      <trkpt lat="46.2435" lon="6.70367">
        <ele>1611.919</ele>
        <time>2026-03-08T10:47:47Z</time>
      </trkpt>
      <trkpt lat="46.24348" lon="6.70363">
        <ele>1612.175</ele>
        <time>2026-03-08T10:47:52Z</time>
      </trkpt>
      <trkpt lat="46.24347" lon="6.70361">
        <ele>1613.006</ele>
        <time>2026-03-08T10:47:57Z</time>
      </trkpt>
      <trkpt lat="46.24346" lon="6.7036">
        <ele>1613.31</ele>
        <time>2026-03-08T10:48:02Z</time>
      </trkpt>
      <trkpt lat="46.24344" lon="6.70357">
        <ele>1613.86</ele>
        <time>2026-03-08T10:48:07Z</time>
      </trkpt>
      <trkpt lat="46.24344" lon="6.70355">
        <ele>1614.37</ele>
        <time>2026-03-08T10:48:12Z</time>
      </trkpt>
      <trkpt lat="46.24343" lon="6.70353">
        <ele>1615.274</ele>
        <time>2026-03-08T10:48:17Z</time>
      </trkpt>
      <trkpt lat="46.24342" lon="6.70352">
        <ele>1614.719</ele>
        <time>2026-03-08T10:48:22Z</time>
      </trkpt>
      <trkpt lat="46.24341" lon="6.70348">
        <ele>1614.863</ele>
        <time>2026-03-08T10:48:27Z</time>
      </trkpt>
      <trkpt lat="46.24339" lon="6.70346">
        <ele>1616.309</ele>
        <time>2026-03-08T10:48:32Z</time>
      </trkpt>
      <trkpt lat="46.24338" lon="6.70344">
        <ele>1616.741</ele>
        <time>2026-03-08T10:48:37Z</time>
      </trkpt>
      <trkpt lat="46.24338" lon="6.70341">
        <ele>1616.681</ele>
        <time>2026-03-08T10:48:42Z</time>
      </trkpt>
      <trkpt lat="46.24337" lon="6.70338">
        <ele>1617.338</ele>
        <time>2026-03-08T10:48:47Z</time>
      </trkpt>
      <trkpt lat="46.24336" lon="6.70334">
        <ele>1617.037</ele>
        <time>2026-03-08T10:48:52Z</time>
      </trkpt>
      <trkpt lat="46.24334" lon="6.7033">
        <ele>1617.895</ele>
        <time>2026-03-08T10:48:57Z</time>
      </trkpt>
      <trkpt lat="46.24333" lon="6.70327">
        <ele>1617.133</ele>
        <time>2026-03-08T10:49:02Z</time>
      </trkpt>
      <trkpt lat="46.24333" lon="6.70323">
        <ele>1617.043</ele>
        <time>2026-03-08T10:49:07Z</time>
      </trkpt>
      <trkpt lat="46.24333" lon="6.70319">
        <ele>1616.928</ele>
        <time>2026-03-08T10:49:12Z</time>
      </trkpt>
      <trkpt lat="46.24334" lon="6.70316">
        <ele>1618.115</ele>
        <time>2026-03-08T10:49:17Z</time>
      </trkpt>
      <trkpt lat="46.24334" lon="6.70313">
        <ele>1618.155</ele>
        <time>2026-03-08T10:49:22Z</time>
      </trkpt>
      <trkpt lat="46.24333" lon="6.70311">
        <ele>1619.032</ele>
        <time>2026-03-08T10:49:27Z</time>
      </trkpt>
      <trkpt lat="46.24333" lon="6.70308">
        <ele>1619.414</ele>
        <time>2026-03-08T10:49:32Z</time>
      </trkpt>
      <trkpt lat="46.24333" lon="6.70306">
        <ele>1619.558</ele>
        <time>2026-03-08T10:49:37Z</time>
      </trkpt>
      <trkpt lat="46.24333" lon="6.70303">
        <ele>1620.768</ele>
        <time>2026-03-08T10:49:42Z</time>
      </trkpt>
      <trkpt lat="46.24333" lon="6.70302">
        <ele>1622.399</ele>
        <time>2026-03-08T10:49:47Z</time>
      </trkpt>
      <trkpt lat="46.24334" lon="6.70299">
        <ele>1623.479</ele>
        <time>2026-03-08T10:49:52Z</time>
      </trkpt>
      <trkpt lat="46.24334" lon="6.70296">
        <ele>1624.689</ele>
        <time>2026-03-08T10:49:57Z</time>
      </trkpt>
      <trkpt lat="46.24334" lon="6.70296">
        <ele>1624.697</ele>
        <time>2026-03-08T10:50:02Z</time>
      </trkpt>
      <trkpt lat="46.24334" lon="6.70296">
        <ele>1624.705</ele>
        <time>2026-03-08T10:50:07Z</time>
      </trkpt>
      <trkpt lat="46.24334" lon="6.70296">
        <ele>1624.7</ele>
        <time>2026-03-08T10:50:12Z</time>
      </trkpt>
      <trkpt lat="46.24334" lon="6.70296">
        <ele>1624.693</ele>
        <time>2026-03-08T10:50:17Z</time>
      </trkpt>
      <trkpt lat="46.24333" lon="6.70294">
        <ele>1624.826</ele>
        <time>2026-03-08T10:50:22Z</time>
      </trkpt>
      <trkpt lat="46.24334" lon="6.70291">
        <ele>1626.598</ele>
        <time>2026-03-08T10:50:27Z</time>
      </trkpt>
      <trkpt lat="46.24334" lon="6.70288">
        <ele>1626.939</ele>
        <time>2026-03-08T10:50:32Z</time>
      </trkpt>
      <trkpt lat="46.24334" lon="6.70285">
        <ele>1627.404</ele>
        <time>2026-03-08T10:50:37Z</time>
      </trkpt>
      <trkpt lat="46.24334" lon="6.70283">
        <ele>1628.22</ele>
        <time>2026-03-08T10:50:42Z</time>
      </trkpt>
      <trkpt lat="46.24335" lon="6.70281">
        <ele>1628.722</ele>
        <time>2026-03-08T10:50:47Z</time>
      </trkpt>
      <trkpt lat="46.24336" lon="6.70279">
        <ele>1630.774</ele>
        <time>2026-03-08T10:50:52Z</time>
      </trkpt>
      <trkpt lat="46.24336" lon="6.70276">
        <ele>1632.434</ele>
        <time>2026-03-08T10:50:57Z</time>
      </trkpt>
      <trkpt lat="46.24336" lon="6.70273">
        <ele>1633.43</ele>
        <time>2026-03-08T10:51:02Z</time>
      </trkpt>
      <trkpt lat="46.24336" lon="6.7027">
        <ele>1633.355</ele>
        <time>2026-03-08T10:51:07Z</time>
      </trkpt>
      <trkpt lat="46.24336" lon="6.70269">
        <ele>1634.159</ele>
        <time>2026-03-08T10:51:12Z</time>
      </trkpt>
      <trkpt lat="46.24336" lon="6.70268">
        <ele>1634.758</ele>
        <time>2026-03-08T10:51:17Z</time>
      </trkpt>
      <trkpt lat="46.24337" lon="6.70266">
        <ele>1635.985</ele>
        <time>2026-03-08T10:51:22Z</time>
      </trkpt>
      <trkpt lat="46.24337" lon="6.70264">
        <ele>1636.625</ele>
        <time>2026-03-08T10:51:27Z</time>
      </trkpt>
      <trkpt lat="46.24337" lon="6.70263">
        <ele>1637.322</ele>
        <time>2026-03-08T10:51:32Z</time>
      </trkpt>
      <trkpt lat="46.24337" lon="6.7026">
        <ele>1638.124</ele>
        <time>2026-03-08T10:51:37Z</time>
      </trkpt>
      <trkpt lat="46.24336" lon="6.70258">
        <ele>1638.98</ele>
        <time>2026-03-08T10:51:42Z</time>
      </trkpt>
      <trkpt lat="46.24336" lon="6.70256">
        <ele>1640.023</ele>
        <time>2026-03-08T10:51:47Z</time>
      </trkpt>
      <trkpt lat="46.24336" lon="6.70253">
        <ele>1641.296</ele>
        <time>2026-03-08T10:51:52Z</time>
      </trkpt>
      <trkpt lat="46.24335" lon="6.7025">
        <ele>1641.941</ele>
        <time>2026-03-08T10:51:57Z</time>
      </trkpt>
      <trkpt lat="46.24334" lon="6.70248">
        <ele>1642.629</ele>
        <time>2026-03-08T10:52:02Z</time>
      </trkpt>
      <trkpt lat="46.24333" lon="6.70245">
        <ele>1643.508</ele>
        <time>2026-03-08T10:52:07Z</time>
      </trkpt>
      <trkpt lat="46.24332" lon="6.70242">
        <ele>1643.95</ele>
        <time>2026-03-08T10:52:12Z</time>
      </trkpt>
      <trkpt lat="46.24331" lon="6.70239">
        <ele>1644.586</ele>
        <time>2026-03-08T10:52:17Z</time>
      </trkpt>
      <trkpt lat="46.2433" lon="6.70237">
        <ele>1646.672</ele>
        <time>2026-03-08T10:52:22Z</time>
      </trkpt>
      <trkpt lat="46.24328" lon="6.70235">
        <ele>1647.258</ele>
        <time>2026-03-08T10:52:27Z</time>
      </trkpt>
      <trkpt lat="46.24327" lon="6.70233">
        <ele>1647.104</ele>
        <time>2026-03-08T10:52:32Z</time>
      </trkpt>
      <trkpt lat="46.24325" lon="6.70231">
        <ele>1646.88</ele>
        <time>2026-03-08T10:52:37Z</time>
      </trkpt>
      <trkpt lat="46.24323" lon="6.7023">
        <ele>1646.846</ele>
        <time>2026-03-08T10:52:42Z</time>
      </trkpt>
      <trkpt lat="46.24322" lon="6.7023">
        <ele>1646.637</ele>
        <time>2026-03-08T10:52:47Z</time>
      </trkpt>
      <trkpt lat="46.24321" lon="6.70228">
        <ele>1646.285</ele>
        <time>2026-03-08T10:52:52Z</time>
      </trkpt>
      <trkpt lat="46.24319" lon="6.70227">
        <ele>1646.369</ele>
        <time>2026-03-08T10:52:57Z</time>
      </trkpt>
      <trkpt lat="46.2432" lon="6.70224">
        <ele>1646.458</ele>
        <time>2026-03-08T10:53:02Z</time>
      </trkpt>
      <trkpt lat="46.2432" lon="6.70224">
        <ele>1646.462</ele>
        <time>2026-03-08T10:53:07Z</time>
      </trkpt>
      <trkpt lat="46.2432" lon="6.70224">
        <ele>1646.469</ele>
        <time>2026-03-08T10:53:12Z</time>
      </trkpt>
      <trkpt lat="46.2432" lon="6.70224">
        <ele>1646.469</ele>
        <time>2026-03-08T10:53:17Z</time>
      </trkpt>
      <trkpt lat="46.2432" lon="6.70224">
        <ele>1646.449</ele>
        <time>2026-03-08T10:53:22Z</time>
      </trkpt>
      <trkpt lat="46.2432" lon="6.70224">
        <ele>1646.448</ele>
        <time>2026-03-08T10:53:27Z</time>
      </trkpt>
      <trkpt lat="46.2432" lon="6.70224">
        <ele>1646.475</ele>
        <time>2026-03-08T10:53:32Z</time>
      </trkpt>
      <trkpt lat="46.2432" lon="6.70224">
        <ele>1646.47</ele>
        <time>2026-03-08T10:53:37Z</time>
      </trkpt>
      <trkpt lat="46.2432" lon="6.70224">
        <ele>1646.445</ele>
        <time>2026-03-08T10:53:42Z</time>
      </trkpt>
      <trkpt lat="46.2432" lon="6.70224">
        <ele>1646.424</ele>
        <time>2026-03-08T10:53:47Z</time>
      </trkpt>
      <trkpt lat="46.2432" lon="6.70224">
        <ele>1646.418</ele>
        <time>2026-03-08T10:53:52Z</time>
      </trkpt>
      <trkpt lat="46.2432" lon="6.70224">
        <ele>1646.436</ele>
        <time>2026-03-08T10:53:57Z</time>
      </trkpt>
      <trkpt lat="46.2432" lon="6.70224">
        <ele>1646.438</ele>
        <time>2026-03-08T10:54:02Z</time>
      </trkpt>
      <trkpt lat="46.2432" lon="6.70224">
        <ele>1646.435</ele>
        <time>2026-03-08T10:54:07Z</time>
      </trkpt>
      <trkpt lat="46.2432" lon="6.70224">
        <ele>1646.439</ele>
        <time>2026-03-08T10:54:12Z</time>
      </trkpt>
      <trkpt lat="46.2432" lon="6.70224">
        <ele>1646.436</ele>
        <time>2026-03-08T10:54:17Z</time>
      </trkpt>
      <trkpt lat="46.2432" lon="6.70224">
        <ele>1646.094</ele>
        <time>2026-03-08T10:54:22Z</time>
      </trkpt>
      <trkpt lat="46.2432" lon="6.70224">
        <ele>1645.884</ele>
        <time>2026-03-08T10:54:27Z</time>
      </trkpt>
      <trkpt lat="46.2432" lon="6.70224">
        <ele>1645.932</ele>
        <time>2026-03-08T10:54:32Z</time>
      </trkpt>
      <trkpt lat="46.2432" lon="6.70224">
        <ele>1645.922</ele>
        <time>2026-03-08T10:54:37Z</time>
      </trkpt>
      <trkpt lat="46.2432" lon="6.70224">
        <ele>1645.919</ele>
        <time>2026-03-08T10:54:42Z</time>
      </trkpt>
      <trkpt lat="46.2432" lon="6.70224">
        <ele>1645.72</ele>
        <time>2026-03-08T10:54:47Z</time>
      </trkpt>
      <trkpt lat="46.2432" lon="6.70224">
        <ele>1645.724</ele>
        <time>2026-03-08T10:54:52Z</time>
      </trkpt>
      <trkpt lat="46.2432" lon="6.70224">
        <ele>1645.723</ele>
        <time>2026-03-08T10:54:57Z</time>
      </trkpt>
      <trkpt lat="46.2432" lon="6.70224">
        <ele>1645.71</ele>
        <time>2026-03-08T10:55:02Z</time>
      </trkpt>
      <trkpt lat="46.2432" lon="6.70224">
        <ele>1645.692</ele>
        <time>2026-03-08T10:55:07Z</time>
      </trkpt>
      <trkpt lat="46.2432" lon="6.70224">
        <ele>1645.686</ele>
        <time>2026-03-08T10:55:12Z</time>
      </trkpt>
      <trkpt lat="46.2432" lon="6.70224">
        <ele>1645.687</ele>
        <time>2026-03-08T10:55:17Z</time>
      </trkpt>
      <trkpt lat="46.2432" lon="6.70224">
        <ele>1645.689</ele>
        <time>2026-03-08T10:55:22Z</time>
      </trkpt>
      <trkpt lat="46.2432" lon="6.70224">
        <ele>1645.687</ele>
        <time>2026-03-08T10:55:27Z</time>
      </trkpt>
      <trkpt lat="46.2432" lon="6.70224">
        <ele>1645.614</ele>
        <time>2026-03-08T10:55:32Z</time>
      </trkpt>
      <trkpt lat="46.2432" lon="6.70224">
        <ele>1645.602</ele>
        <time>2026-03-08T10:55:37Z</time>
      </trkpt>
      <trkpt lat="46.2432" lon="6.70224">
        <ele>1645.594</ele>
        <time>2026-03-08T10:55:42Z</time>
      </trkpt>
      <trkpt lat="46.2432" lon="6.70224">
        <ele>1645.59</ele>
        <time>2026-03-08T10:55:47Z</time>
      </trkpt>
      <trkpt lat="46.2432" lon="6.70224">
        <ele>1645.588</ele>
        <time>2026-03-08T10:55:52Z</time>
      </trkpt>
      <trkpt lat="46.2432" lon="6.70224">
        <ele>1645.586</ele>
        <time>2026-03-08T10:55:57Z</time>
      </trkpt>
      <trkpt lat="46.2432" lon="6.70224">
        <ele>1645.584</ele>
        <time>2026-03-08T10:56:02Z</time>
      </trkpt>
      <trkpt lat="46.2432" lon="6.70224">
        <ele>1645.584</ele>
        <time>2026-03-08T10:56:07Z</time>
      </trkpt>
      <trkpt lat="46.2432" lon="6.70224">
        <ele>1645.574</ele>
        <time>2026-03-08T10:56:12Z</time>
      </trkpt>
      <trkpt lat="46.2432" lon="6.70224">
        <ele>1645.53</ele>
        <time>2026-03-08T10:56:17Z</time>
      </trkpt>
      <trkpt lat="46.2432" lon="6.70224">
        <ele>1645.077</ele>
        <time>2026-03-08T10:56:22Z</time>
      </trkpt>
      <trkpt lat="46.2432" lon="6.70224">
        <ele>1645.06</ele>
        <time>2026-03-08T10:56:27Z</time>
      </trkpt>
      <trkpt lat="46.2432" lon="6.70224">
        <ele>1645.053</ele>
        <time>2026-03-08T10:56:32Z</time>
      </trkpt>
      <trkpt lat="46.2432" lon="6.70224">
        <ele>1645.032</ele>
        <time>2026-03-08T10:56:37Z</time>
      </trkpt>
      <trkpt lat="46.2432" lon="6.70224">
        <ele>1645.025</ele>
        <time>2026-03-08T10:56:42Z</time>
      </trkpt>
      <trkpt lat="46.2432" lon="6.70224">
        <ele>1645.024</ele>
        <time>2026-03-08T10:56:47Z</time>
      </trkpt>
      <trkpt lat="46.2432" lon="6.70224">
        <ele>1645.021</ele>
        <time>2026-03-08T10:56:52Z</time>
      </trkpt>
      <trkpt lat="46.2432" lon="6.70224">
        <ele>1645.027</ele>
        <time>2026-03-08T10:56:57Z</time>
      </trkpt>
      <trkpt lat="46.2432" lon="6.70224">
        <ele>1645.033</ele>
        <time>2026-03-08T10:57:02Z</time>
      </trkpt>
      <trkpt lat="46.2432" lon="6.70224">
        <ele>1645.014</ele>
        <time>2026-03-08T10:57:07Z</time>
      </trkpt>
      <trkpt lat="46.2432" lon="6.70224">
        <ele>1645.017</ele>
        <time>2026-03-08T10:57:12Z</time>
      </trkpt>
      <trkpt lat="46.2432" lon="6.70224">
        <ele>1645.012</ele>
        <time>2026-03-08T10:57:17Z</time>
      </trkpt>
      <trkpt lat="46.2432" lon="6.70224">
        <ele>1645.015</ele>
        <time>2026-03-08T10:57:22Z</time>
      </trkpt>
      <trkpt lat="46.2432" lon="6.70224">
        <ele>1644.485</ele>
        <time>2026-03-08T10:57:27Z</time>
      </trkpt>
      <trkpt lat="46.2432" lon="6.70224">
        <ele>1644.379</ele>
        <time>2026-03-08T10:57:32Z</time>
      </trkpt>
      <trkpt lat="46.2432" lon="6.70224">
        <ele>1644.444</ele>
        <time>2026-03-08T10:57:37Z</time>
      </trkpt>
      <trkpt lat="46.2432" lon="6.70224">
        <ele>1644.021</ele>
        <time>2026-03-08T10:57:42Z</time>
      </trkpt>
      <trkpt lat="46.2432" lon="6.70224">
        <ele>1644.014</ele>
        <time>2026-03-08T10:57:47Z</time>
      </trkpt>
      <trkpt lat="46.2432" lon="6.70224">
        <ele>1644.016</ele>
        <time>2026-03-08T10:57:52Z</time>
      </trkpt>
      <trkpt lat="46.2432" lon="6.70224">
        <ele>1644.016</ele>
        <time>2026-03-08T10:57:57Z</time>
      </trkpt>
      <trkpt lat="46.2432" lon="6.70224">
        <ele>1644.019</ele>
        <time>2026-03-08T10:58:02Z</time>
      </trkpt>
      <trkpt lat="46.2432" lon="6.70224">
        <ele>1644.022</ele>
        <time>2026-03-08T10:58:07Z</time>
      </trkpt>
      <trkpt lat="46.2432" lon="6.70224">
        <ele>1644.023</ele>
        <time>2026-03-08T10:58:12Z</time>
      </trkpt>
      <trkpt lat="46.2432" lon="6.70224">
        <ele>1644.024</ele>
        <time>2026-03-08T10:58:17Z</time>
      </trkpt>
      <trkpt lat="46.2432" lon="6.70224">
        <ele>1644.021</ele>
        <time>2026-03-08T10:58:22Z</time>
      </trkpt>
      <trkpt lat="46.2432" lon="6.70224">
        <ele>1644.017</ele>
        <time>2026-03-08T10:58:27Z</time>
      </trkpt>
      <trkpt lat="46.2432" lon="6.70224">
        <ele>1644.01</ele>
        <time>2026-03-08T10:58:32Z</time>
      </trkpt>
      <trkpt lat="46.2432" lon="6.70224">
        <ele>1644.019</ele>
        <time>2026-03-08T10:58:37Z</time>
      </trkpt>
      <trkpt lat="46.2432" lon="6.70224">
        <ele>1643.849</ele>
        <time>2026-03-08T10:58:42Z</time>
      </trkpt>
      <trkpt lat="46.2432" lon="6.70224">
        <ele>1643.835</ele>
        <time>2026-03-08T10:58:47Z</time>
      </trkpt>
      <trkpt lat="46.2432" lon="6.70224">
        <ele>1643.827</ele>
        <time>2026-03-08T10:58:52Z</time>
      </trkpt>
      <trkpt lat="46.2432" lon="6.70224">
        <ele>1643.819</ele>
        <time>2026-03-08T10:58:57Z</time>
      </trkpt>
      <trkpt lat="46.2432" lon="6.70224">
        <ele>1643.813</ele>
        <time>2026-03-08T10:59:02Z</time>
      </trkpt>
      <trkpt lat="46.2432" lon="6.70224">
        <ele>1643.821</ele>
        <time>2026-03-08T10:59:07Z</time>
      </trkpt>
      <trkpt lat="46.2432" lon="6.70224">
        <ele>1643.828</ele>
        <time>2026-03-08T10:59:12Z</time>
      </trkpt>
      <trkpt lat="46.2432" lon="6.70224">
        <ele>1643.822</ele>
        <time>2026-03-08T10:59:17Z</time>
      </trkpt>
      <trkpt lat="46.2432" lon="6.70224">
        <ele>1643.807</ele>
        <time>2026-03-08T10:59:22Z</time>
      </trkpt>
      <trkpt lat="46.2432" lon="6.70224">
        <ele>1643.809</ele>
        <time>2026-03-08T10:59:27Z</time>
      </trkpt>
      <trkpt lat="46.2432" lon="6.70224">
        <ele>1643.811</ele>
        <time>2026-03-08T10:59:32Z</time>
      </trkpt>
      <trkpt lat="46.2432" lon="6.70224">
        <ele>1643.794</ele>
        <time>2026-03-08T10:59:37Z</time>
      </trkpt>
      <trkpt lat="46.2432" lon="6.70224">
        <ele>1643.802</ele>
        <time>2026-03-08T10:59:42Z</time>
      </trkpt>
      <trkpt lat="46.2432" lon="6.70224">
        <ele>1643.807</ele>
        <time>2026-03-08T10:59:47Z</time>
      </trkpt>
      <trkpt lat="46.2432" lon="6.70224">
        <ele>1643.454</ele>
        <time>2026-03-08T10:59:52Z</time>
      </trkpt>
      <trkpt lat="46.2432" lon="6.70224">
        <ele>1643.435</ele>
        <time>2026-03-08T10:59:57Z</time>
      </trkpt>
      <trkpt lat="46.2432" lon="6.70224">
        <ele>1643.412</ele>
        <time>2026-03-08T11:00:02Z</time>
      </trkpt>
      <trkpt lat="46.2432" lon="6.70224">
        <ele>1643.389</ele>
        <time>2026-03-08T11:00:07Z</time>
      </trkpt>
      <trkpt lat="46.2432" lon="6.70224">
        <ele>1643.377</ele>
        <time>2026-03-08T11:00:12Z</time>
      </trkpt>
      <trkpt lat="46.2432" lon="6.70224">
        <ele>1643.367</ele>
        <time>2026-03-08T11:00:17Z</time>
      </trkpt>
      <trkpt lat="46.2432" lon="6.70224">
        <ele>1643.363</ele>
        <time>2026-03-08T11:00:22Z</time>
      </trkpt>
      <trkpt lat="46.2432" lon="6.70224">
        <ele>1643.356</ele>
        <time>2026-03-08T11:00:27Z</time>
      </trkpt>
      <trkpt lat="46.2432" lon="6.70223">
        <ele>1643.359</ele>
        <time>2026-03-08T11:00:32Z</time>
      </trkpt>
      <trkpt lat="46.2432" lon="6.70223">
        <ele>1643.341</ele>
        <time>2026-03-08T11:00:37Z</time>
      </trkpt>
      <trkpt lat="46.2432" lon="6.70223">
        <ele>1643.327</ele>
        <time>2026-03-08T11:00:42Z</time>
      </trkpt>
      <trkpt lat="46.2432" lon="6.70223">
        <ele>1643.309</ele>
        <time>2026-03-08T11:00:47Z</time>
      </trkpt>
      <trkpt lat="46.2432" lon="6.70223">
        <ele>1643.279</ele>
        <time>2026-03-08T11:00:52Z</time>
      </trkpt>
      <trkpt lat="46.2432" lon="6.70223">
        <ele>1643.28</ele>
        <time>2026-03-08T11:00:57Z</time>
      </trkpt>
      <trkpt lat="46.2432" lon="6.70222">
        <ele>1642.942</ele>
        <time>2026-03-08T11:01:02Z</time>
      </trkpt>
      <trkpt lat="46.2432" lon="6.70222">
        <ele>1642.938</ele>
        <time>2026-03-08T11:01:07Z</time>
      </trkpt>
      <trkpt lat="46.24319" lon="6.70221">
        <ele>1643.111</ele>
        <time>2026-03-08T11:01:12Z</time>
      </trkpt>
      <trkpt lat="46.24315" lon="6.70218">
        <ele>1641.716</ele>
        <time>2026-03-08T11:01:17Z</time>
      </trkpt>
      <trkpt lat="46.24312" lon="6.70216">
        <ele>1640.371</ele>
        <time>2026-03-08T11:01:22Z</time>
      </trkpt>
      <trkpt lat="46.24308" lon="6.70212">
        <ele>1639.573</ele>
        <time>2026-03-08T11:01:27Z</time>
      </trkpt>
      <trkpt lat="46.24305" lon="6.7021">
        <ele>1638.782</ele>
        <time>2026-03-08T11:01:32Z</time>
      </trkpt>
      <trkpt lat="46.24303" lon="6.70207">
        <ele>1639.225</ele>
        <time>2026-03-08T11:01:37Z</time>
      </trkpt>
      <trkpt lat="46.24301" lon="6.70205">
        <ele>1639.597</ele>
        <time>2026-03-08T11:01:42Z</time>
      </trkpt>
      <trkpt lat="46.24298" lon="6.70203">
        <ele>1639.441</ele>
        <time>2026-03-08T11:01:47Z</time>
      </trkpt>
      <trkpt lat="46.24296" lon="6.70201">
        <ele>1638.304</ele>
        <time>2026-03-08T11:01:52Z</time>
      </trkpt>
      <trkpt lat="46.24293" lon="6.70198">
        <ele>1638.947</ele>
        <time>2026-03-08T11:01:57Z</time>
      </trkpt>
      <trkpt lat="46.24291" lon="6.70195">
        <ele>1639.937</ele>
        <time>2026-03-08T11:02:02Z</time>
      </trkpt>
      <trkpt lat="46.24288" lon="6.70193">
        <ele>1640.099</ele>
        <time>2026-03-08T11:02:07Z</time>
      </trkpt>
      <trkpt lat="46.24286" lon="6.70191">
        <ele>1640.079</ele>
        <time>2026-03-08T11:02:12Z</time>
      </trkpt>
      <trkpt lat="46.24283" lon="6.70189">
        <ele>1640.571</ele>
        <time>2026-03-08T11:02:17Z</time>
      </trkpt>
      <trkpt lat="46.24281" lon="6.70187">
        <ele>1641.614</ele>
        <time>2026-03-08T11:02:22Z</time>
      </trkpt>
      <trkpt lat="46.24279" lon="6.70185">
        <ele>1641.769</ele>
        <time>2026-03-08T11:02:27Z</time>
      </trkpt>
      <trkpt lat="46.24276" lon="6.70183">
        <ele>1641.674</ele>
        <time>2026-03-08T11:02:32Z</time>
      </trkpt>
      <trkpt lat="46.24273" lon="6.70181">
        <ele>1641.855</ele>
        <time>2026-03-08T11:02:37Z</time>
      </trkpt>
      <trkpt lat="46.24271" lon="6.70178">
        <ele>1641.896</ele>
        <time>2026-03-08T11:02:42Z</time>
      </trkpt>
      <trkpt lat="46.24269" lon="6.70177">
        <ele>1641.931</ele>
        <time>2026-03-08T11:02:47Z</time>
      </trkpt>
      <trkpt lat="46.24266" lon="6.70176">
        <ele>1642.639</ele>
        <time>2026-03-08T11:02:52Z</time>
      </trkpt>
      <trkpt lat="46.24264" lon="6.70174">
        <ele>1642.995</ele>
        <time>2026-03-08T11:02:57Z</time>
      </trkpt>
      <trkpt lat="46.24262" lon="6.70173">
        <ele>1643.21</ele>
        <time>2026-03-08T11:03:02Z</time>
      </trkpt>
      <trkpt lat="46.24259" lon="6.70172">
        <ele>1644.188</ele>
        <time>2026-03-08T11:03:07Z</time>
      </trkpt>
      <trkpt lat="46.24258" lon="6.7017">
        <ele>1644.288</ele>
        <time>2026-03-08T11:03:12Z</time>
      </trkpt>
      <trkpt lat="46.24255" lon="6.70169">
        <ele>1644.501</ele>
        <time>2026-03-08T11:03:17Z</time>
      </trkpt>
      <trkpt lat="46.24254" lon="6.70168">
        <ele>1645.098</ele>
        <time>2026-03-08T11:03:22Z</time>
      </trkpt>
      <trkpt lat="46.24252" lon="6.70166">
        <ele>1647.035</ele>
        <time>2026-03-08T11:03:27Z</time>
      </trkpt>
      <trkpt lat="46.24251" lon="6.70164">
        <ele>1647.415</ele>
        <time>2026-03-08T11:03:32Z</time>
      </trkpt>
      <trkpt lat="46.24249" lon="6.70163">
        <ele>1648.092</ele>
        <time>2026-03-08T11:03:37Z</time>
      </trkpt>
      <trkpt lat="46.24247" lon="6.70161">
        <ele>1648.304</ele>
        <time>2026-03-08T11:03:42Z</time>
      </trkpt>
      <trkpt lat="46.24244" lon="6.7016">
        <ele>1648.601</ele>
        <time>2026-03-08T11:03:47Z</time>
      </trkpt>
      <trkpt lat="46.24243" lon="6.70159">
        <ele>1648.363</ele>
        <time>2026-03-08T11:03:52Z</time>
      </trkpt>
      <trkpt lat="46.24241" lon="6.70158">
        <ele>1649.268</ele>
        <time>2026-03-08T11:03:57Z</time>
      </trkpt>
      <trkpt lat="46.2424" lon="6.70156">
        <ele>1650.271</ele>
        <time>2026-03-08T11:04:02Z</time>
      </trkpt>
      <trkpt lat="46.24239" lon="6.70155">
        <ele>1651.41</ele>
        <time>2026-03-08T11:04:07Z</time>
      </trkpt>
      <trkpt lat="46.24237" lon="6.70155">
        <ele>1652.287</ele>
        <time>2026-03-08T11:04:12Z</time>
      </trkpt>
      <trkpt lat="46.24235" lon="6.70153">
        <ele>1652.753</ele>
        <time>2026-03-08T11:04:17Z</time>
      </trkpt>
      <trkpt lat="46.24234" lon="6.70152">
        <ele>1653.609</ele>
        <time>2026-03-08T11:04:22Z</time>
      </trkpt>
      <trkpt lat="46.24232" lon="6.70151">
        <ele>1653.612</ele>
        <time>2026-03-08T11:04:27Z</time>
      </trkpt>
      <trkpt lat="46.24231" lon="6.70149">
        <ele>1654.023</ele>
        <time>2026-03-08T11:04:32Z</time>
      </trkpt>
      <trkpt lat="46.2423" lon="6.70146">
        <ele>1655.059</ele>
        <time>2026-03-08T11:04:37Z</time>
      </trkpt>
      <trkpt lat="46.24228" lon="6.70145">
        <ele>1655.039</ele>
        <time>2026-03-08T11:04:42Z</time>
      </trkpt>
      <trkpt lat="46.24226" lon="6.70143">
        <ele>1655.717</ele>
        <time>2026-03-08T11:04:47Z</time>
      </trkpt>
      <trkpt lat="46.24225" lon="6.7014">
        <ele>1656.374</ele>
        <time>2026-03-08T11:04:52Z</time>
      </trkpt>
      <trkpt lat="46.24223" lon="6.70139">
        <ele>1657.238</ele>
        <time>2026-03-08T11:04:57Z</time>
      </trkpt>
      <trkpt lat="46.24222" lon="6.70136">
        <ele>1657.917</ele>
        <time>2026-03-08T11:05:02Z</time>
      </trkpt>
      <trkpt lat="46.24221" lon="6.70135">
        <ele>1659.561</ele>
        <time>2026-03-08T11:05:07Z</time>
      </trkpt>
      <trkpt lat="46.24219" lon="6.70133">
        <ele>1659.861</ele>
        <time>2026-03-08T11:05:12Z</time>
      </trkpt>
      <trkpt lat="46.24217" lon="6.70132">
        <ele>1660.51</ele>
        <time>2026-03-08T11:05:17Z</time>
      </trkpt>
      <trkpt lat="46.24216" lon="6.70129">
        <ele>1661.039</ele>
        <time>2026-03-08T11:05:22Z</time>
      </trkpt>
      <trkpt lat="46.24213" lon="6.70127">
        <ele>1662.013</ele>
        <time>2026-03-08T11:05:27Z</time>
      </trkpt>
      <trkpt lat="46.24211" lon="6.70125">
        <ele>1662.769</ele>
        <time>2026-03-08T11:05:32Z</time>
      </trkpt>
      <trkpt lat="46.24209" lon="6.70124">
        <ele>1663.927</ele>
        <time>2026-03-08T11:05:37Z</time>
      </trkpt>
      <trkpt lat="46.24207" lon="6.70123">
        <ele>1664.575</ele>
        <time>2026-03-08T11:05:42Z</time>
      </trkpt>
      <trkpt lat="46.24205" lon="6.70121">
        <ele>1665.379</ele>
        <time>2026-03-08T11:05:47Z</time>
      </trkpt>
      <trkpt lat="46.24203" lon="6.70118">
        <ele>1666.006</ele>
        <time>2026-03-08T11:05:52Z</time>
      </trkpt>
      <trkpt lat="46.24202" lon="6.70116">
        <ele>1667.986</ele>
        <time>2026-03-08T11:05:57Z</time>
      </trkpt>
      <trkpt lat="46.24201" lon="6.70113">
        <ele>1669.629</ele>
        <time>2026-03-08T11:06:02Z</time>
      </trkpt>
      <trkpt lat="46.24199" lon="6.70111">
        <ele>1670.025</ele>
        <time>2026-03-08T11:06:07Z</time>
      </trkpt>
      <trkpt lat="46.24197" lon="6.7011">
        <ele>1670.474</ele>
        <time>2026-03-08T11:06:12Z</time>
      </trkpt>
      <trkpt lat="46.24195" lon="6.70108">
        <ele>1669.889</ele>
        <time>2026-03-08T11:06:17Z</time>
      </trkpt>
      <trkpt lat="46.24193" lon="6.70106">
        <ele>1670.452</ele>
        <time>2026-03-08T11:06:22Z</time>
      </trkpt>
      <trkpt lat="46.24192" lon="6.70104">
        <ele>1672.296</ele>
        <time>2026-03-08T11:06:27Z</time>
      </trkpt>
      <trkpt lat="46.2419" lon="6.70102">
        <ele>1673.03</ele>
        <time>2026-03-08T11:06:32Z</time>
      </trkpt>
      <trkpt lat="46.24188" lon="6.70101">
        <ele>1673.589</ele>
        <time>2026-03-08T11:06:37Z</time>
      </trkpt>
      <trkpt lat="46.24186" lon="6.70099">
        <ele>1673.201</ele>
        <time>2026-03-08T11:06:42Z</time>
      </trkpt>
      <trkpt lat="46.24184" lon="6.70097">
        <ele>1674.735</ele>
        <time>2026-03-08T11:06:47Z</time>
      </trkpt>
      <trkpt lat="46.24183" lon="6.70096">
        <ele>1674.777</ele>
        <time>2026-03-08T11:06:52Z</time>
      </trkpt>
      <trkpt lat="46.24181" lon="6.70096">
        <ele>1675.263</ele>
        <time>2026-03-08T11:06:57Z</time>
      </trkpt>
      <trkpt lat="46.24179" lon="6.70095">
        <ele>1675.736</ele>
        <time>2026-03-08T11:07:02Z</time>
      </trkpt>
      <trkpt lat="46.24176" lon="6.70094">
        <ele>1675.25</ele>
        <time>2026-03-08T11:07:07Z</time>
      </trkpt>
      <trkpt lat="46.24175" lon="6.70092">
        <ele>1677.611</ele>
        <time>2026-03-08T11:07:12Z</time>
      </trkpt>
      <trkpt lat="46.24174" lon="6.7009">
        <ele>1678.008</ele>
        <time>2026-03-08T11:07:17Z</time>
      </trkpt>
      <trkpt lat="46.24173" lon="6.70089">
        <ele>1680.012</ele>
        <time>2026-03-08T11:07:22Z</time>
      </trkpt>
      <trkpt lat="46.24171" lon="6.70088">
        <ele>1681.074</ele>
        <time>2026-03-08T11:07:27Z</time>
      </trkpt>
      <trkpt lat="46.24171" lon="6.70085">
        <ele>1680.968</ele>
        <time>2026-03-08T11:07:32Z</time>
      </trkpt>
      <trkpt lat="46.24169" lon="6.70083">
        <ele>1681.407</ele>
        <time>2026-03-08T11:07:37Z</time>
      </trkpt>
      <trkpt lat="46.24168" lon="6.70079">
        <ele>1681.71</ele>
        <time>2026-03-08T11:07:42Z</time>
      </trkpt>
      <trkpt lat="46.24167" lon="6.70077">
        <ele>1682.69</ele>
        <time>2026-03-08T11:07:47Z</time>
      </trkpt>
      <trkpt lat="46.24165" lon="6.70076">
        <ele>1683.864</ele>
        <time>2026-03-08T11:07:52Z</time>
      </trkpt>
      <trkpt lat="46.24164" lon="6.70073">
        <ele>1685.263</ele>
        <time>2026-03-08T11:07:57Z</time>
      </trkpt>
      <trkpt lat="46.24163" lon="6.7007">
        <ele>1685.491</ele>
        <time>2026-03-08T11:08:02Z</time>
      </trkpt>
      <trkpt lat="46.24161" lon="6.7007">
        <ele>1686.277</ele>
        <time>2026-03-08T11:08:07Z</time>
      </trkpt>
      <trkpt lat="46.24159" lon="6.70071">
        <ele>1687.781</ele>
        <time>2026-03-08T11:08:12Z</time>
      </trkpt>
      <trkpt lat="46.24159" lon="6.70068">
        <ele>1688.533</ele>
        <time>2026-03-08T11:08:17Z</time>
      </trkpt>
      <trkpt lat="46.24158" lon="6.70065">
        <ele>1689.603</ele>
        <time>2026-03-08T11:08:22Z</time>
      </trkpt>
      <trkpt lat="46.24158" lon="6.70063">
        <ele>1691.114</ele>
        <time>2026-03-08T11:08:27Z</time>
      </trkpt>
      <trkpt lat="46.24158" lon="6.7006">
        <ele>1692.747</ele>
        <time>2026-03-08T11:08:32Z</time>
      </trkpt>
      <trkpt lat="46.24156" lon="6.70059">
        <ele>1693.409</ele>
        <time>2026-03-08T11:08:37Z</time>
      </trkpt>
      <trkpt lat="46.24153" lon="6.7006">
        <ele>1694.205</ele>
        <time>2026-03-08T11:08:42Z</time>
      </trkpt>
      <trkpt lat="46.24151" lon="6.70061">
        <ele>1695.427</ele>
        <time>2026-03-08T11:08:47Z</time>
      </trkpt>
      <trkpt lat="46.2415" lon="6.70062">
        <ele>1697.001</ele>
        <time>2026-03-08T11:08:52Z</time>
      </trkpt>
      <trkpt lat="46.24148" lon="6.70063">
        <ele>1696.869</ele>
        <time>2026-03-08T11:08:57Z</time>
      </trkpt>
      <trkpt lat="46.24145" lon="6.70065">
        <ele>1698.223</ele>
        <time>2026-03-08T11:09:02Z</time>
      </trkpt>
      <trkpt lat="46.24143" lon="6.70067">
        <ele>1698.924</ele>
        <time>2026-03-08T11:09:07Z</time>
      </trkpt>
      <trkpt lat="46.24142" lon="6.70067">
        <ele>1699.726</ele>
        <time>2026-03-08T11:09:12Z</time>
      </trkpt>
      <trkpt lat="46.24141" lon="6.70068">
        <ele>1700.615</ele>
        <time>2026-03-08T11:09:17Z</time>
      </trkpt>
      <trkpt lat="46.24139" lon="6.7007">
        <ele>1701.893</ele>
        <time>2026-03-08T11:09:22Z</time>
      </trkpt>
      <trkpt lat="46.24138" lon="6.70072">
        <ele>1703.269</ele>
        <time>2026-03-08T11:09:27Z</time>
      </trkpt>
      <trkpt lat="46.24137" lon="6.70073">
        <ele>1703.922</ele>
        <time>2026-03-08T11:09:32Z</time>
      </trkpt>
      <trkpt lat="46.24135" lon="6.70074">
        <ele>1705.024</ele>
        <time>2026-03-08T11:09:37Z</time>
      </trkpt>
      <trkpt lat="46.24133" lon="6.70075">
        <ele>1705.889</ele>
        <time>2026-03-08T11:09:42Z</time>
      </trkpt>
      <trkpt lat="46.24132" lon="6.70075">
        <ele>1705.756</ele>
        <time>2026-03-08T11:09:47Z</time>
      </trkpt>
      <trkpt lat="46.24131" lon="6.70073">
        <ele>1707.15</ele>
        <time>2026-03-08T11:09:52Z</time>
      </trkpt>
      <trkpt lat="46.24131" lon="6.70069">
        <ele>1709.013</ele>
        <time>2026-03-08T11:09:57Z</time>
      </trkpt>
      <trkpt lat="46.2413" lon="6.70067">
        <ele>1709.906</ele>
        <time>2026-03-08T11:10:02Z</time>
      </trkpt>
      <trkpt lat="46.24129" lon="6.70064">
        <ele>1710.609</ele>
        <time>2026-03-08T11:10:07Z</time>
      </trkpt>
      <trkpt lat="46.24128" lon="6.70062">
        <ele>1711.212</ele>
        <time>2026-03-08T11:10:12Z</time>
      </trkpt>
      <trkpt lat="46.24126" lon="6.70058">
        <ele>1712.141</ele>
        <time>2026-03-08T11:10:17Z</time>
      </trkpt>
      <trkpt lat="46.24126" lon="6.70057">
        <ele>1713.089</ele>
        <time>2026-03-08T11:10:22Z</time>
      </trkpt>
      <trkpt lat="46.24125" lon="6.70054">
        <ele>1713.665</ele>
        <time>2026-03-08T11:10:27Z</time>
      </trkpt>
      <trkpt lat="46.24124" lon="6.70052">
        <ele>1713.572</ele>
        <time>2026-03-08T11:10:32Z</time>
      </trkpt>
      <trkpt lat="46.24123" lon="6.7005">
        <ele>1715.238</ele>
        <time>2026-03-08T11:10:37Z</time>
      </trkpt>
      <trkpt lat="46.24122" lon="6.70047">
        <ele>1715.441</ele>
        <time>2026-03-08T11:10:42Z</time>
      </trkpt>
      <trkpt lat="46.24121" lon="6.70045">
        <ele>1716.82</ele>
        <time>2026-03-08T11:10:47Z</time>
      </trkpt>
      <trkpt lat="46.2412" lon="6.70043">
        <ele>1717.913</ele>
        <time>2026-03-08T11:10:52Z</time>
      </trkpt>
      <trkpt lat="46.24119" lon="6.70041">
        <ele>1717.688</ele>
        <time>2026-03-08T11:10:57Z</time>
      </trkpt>
      <trkpt lat="46.24118" lon="6.70039">
        <ele>1718.627</ele>
        <time>2026-03-08T11:11:02Z</time>
      </trkpt>
      <trkpt lat="46.24118" lon="6.70036">
        <ele>1719.765</ele>
        <time>2026-03-08T11:11:07Z</time>
      </trkpt>
      <trkpt lat="46.24117" lon="6.70035">
        <ele>1720.298</ele>
        <time>2026-03-08T11:11:12Z</time>
      </trkpt>
      <trkpt lat="46.24116" lon="6.70033">
        <ele>1721.004</ele>
        <time>2026-03-08T11:11:17Z</time>
      </trkpt>
      <trkpt lat="46.24114" lon="6.7003">
        <ele>1721.384</ele>
        <time>2026-03-08T11:11:22Z</time>
      </trkpt>
      <trkpt lat="46.24113" lon="6.70029">
        <ele>1721.799</ele>
        <time>2026-03-08T11:11:27Z</time>
      </trkpt>
      <trkpt lat="46.24112" lon="6.70027">
        <ele>1722.484</ele>
        <time>2026-03-08T11:11:32Z</time>
      </trkpt>
      <trkpt lat="46.24111" lon="6.70027">
        <ele>1722.598</ele>
        <time>2026-03-08T11:11:37Z</time>
      </trkpt>
      <trkpt lat="46.24111" lon="6.70027">
        <ele>1722.604</ele>
        <time>2026-03-08T11:11:42Z</time>
      </trkpt>
      <trkpt lat="46.24109" lon="6.70025">
        <ele>1724.402</ele>
        <time>2026-03-08T11:11:47Z</time>
      </trkpt>
      <trkpt lat="46.24108" lon="6.70022">
        <ele>1724.848</ele>
        <time>2026-03-08T11:11:52Z</time>
      </trkpt>
      <trkpt lat="46.24106" lon="6.7002">
        <ele>1725.752</ele>
        <time>2026-03-08T11:11:57Z</time>
      </trkpt>
      <trkpt lat="46.24104" lon="6.70017">
        <ele>1726.907</ele>
        <time>2026-03-08T11:12:02Z</time>
      </trkpt>
      <trkpt lat="46.24103" lon="6.70014">
        <ele>1726.812</ele>
        <time>2026-03-08T11:12:07Z</time>
      </trkpt>
      <trkpt lat="46.24102" lon="6.70013">
        <ele>1727.288</ele>
        <time>2026-03-08T11:12:12Z</time>
      </trkpt>
      <trkpt lat="46.24101" lon="6.7001">
        <ele>1728.272</ele>
        <time>2026-03-08T11:12:17Z</time>
      </trkpt>
      <trkpt lat="46.241" lon="6.70008">
        <ele>1728.519</ele>
        <time>2026-03-08T11:12:22Z</time>
      </trkpt>
      <trkpt lat="46.24099" lon="6.70005">
        <ele>1729.939</ele>
        <time>2026-03-08T11:12:27Z</time>
      </trkpt>
      <trkpt lat="46.24098" lon="6.70003">
        <ele>1730.557</ele>
        <time>2026-03-08T11:12:32Z</time>
      </trkpt>
      <trkpt lat="46.24097" lon="6.7">
        <ele>1731.645</ele>
        <time>2026-03-08T11:12:37Z</time>
      </trkpt>
      <trkpt lat="46.24096" lon="6.69999">
        <ele>1733.201</ele>
        <time>2026-03-08T11:12:42Z</time>
      </trkpt>
      <trkpt lat="46.24095" lon="6.69996">
        <ele>1733.339</ele>
        <time>2026-03-08T11:12:47Z</time>
      </trkpt>
      <trkpt lat="46.24095" lon="6.69993">
        <ele>1733.851</ele>
        <time>2026-03-08T11:12:52Z</time>
      </trkpt>
      <trkpt lat="46.24094" lon="6.69991">
        <ele>1734.045</ele>
        <time>2026-03-08T11:12:57Z</time>
      </trkpt>
      <trkpt lat="46.24092" lon="6.69988">
        <ele>1735.346</ele>
        <time>2026-03-08T11:13:02Z</time>
      </trkpt>
      <trkpt lat="46.24091" lon="6.69985">
        <ele>1735.768</ele>
        <time>2026-03-08T11:13:07Z</time>
      </trkpt>
      <trkpt lat="46.24089" lon="6.69982">
        <ele>1736.541</ele>
        <time>2026-03-08T11:13:12Z</time>
      </trkpt>
      <trkpt lat="46.24088" lon="6.69981">
        <ele>1736.981</ele>
        <time>2026-03-08T11:13:17Z</time>
      </trkpt>
      <trkpt lat="46.24087" lon="6.69978">
        <ele>1736.98</ele>
        <time>2026-03-08T11:13:22Z</time>
      </trkpt>
      <trkpt lat="46.24086" lon="6.69976">
        <ele>1738.223</ele>
        <time>2026-03-08T11:13:27Z</time>
      </trkpt>
      <trkpt lat="46.24085" lon="6.69975">
        <ele>1739.585</ele>
        <time>2026-03-08T11:13:32Z</time>
      </trkpt>
      <trkpt lat="46.24084" lon="6.69973">
        <ele>1740.493</ele>
        <time>2026-03-08T11:13:37Z</time>
      </trkpt>
      <trkpt lat="46.24083" lon="6.69972">
        <ele>1742.123</ele>
        <time>2026-03-08T11:13:42Z</time>
      </trkpt>
      <trkpt lat="46.24081" lon="6.6997">
        <ele>1743.593</ele>
        <time>2026-03-08T11:13:47Z</time>
      </trkpt>
      <trkpt lat="46.2408" lon="6.69967">
        <ele>1743.985</ele>
        <time>2026-03-08T11:13:52Z</time>
      </trkpt>
      <trkpt lat="46.24079" lon="6.69964">
        <ele>1745.195</ele>
        <time>2026-03-08T11:13:57Z</time>
      </trkpt>
      <trkpt lat="46.24077" lon="6.69962">
        <ele>1746.069</ele>
        <time>2026-03-08T11:14:02Z</time>
      </trkpt>
      <trkpt lat="46.24076" lon="6.69958">
        <ele>1746.293</ele>
        <time>2026-03-08T11:14:07Z</time>
      </trkpt>
      <trkpt lat="46.24074" lon="6.69956">
        <ele>1746.462</ele>
        <time>2026-03-08T11:14:12Z</time>
      </trkpt>
      <trkpt lat="46.24072" lon="6.69954">
        <ele>1747.439</ele>
        <time>2026-03-08T11:14:17Z</time>
      </trkpt>
      <trkpt lat="46.24071" lon="6.69952">
        <ele>1748.688</ele>
        <time>2026-03-08T11:14:22Z</time>
      </trkpt>
      <trkpt lat="46.24069" lon="6.6995">
        <ele>1749.122</ele>
        <time>2026-03-08T11:14:27Z</time>
      </trkpt>
      <trkpt lat="46.24068" lon="6.69948">
        <ele>1750.098</ele>
        <time>2026-03-08T11:14:32Z</time>
      </trkpt>
      <trkpt lat="46.24066" lon="6.69946">
        <ele>1751.658</ele>
        <time>2026-03-08T11:14:37Z</time>
      </trkpt>
      <trkpt lat="46.24064" lon="6.69943">
        <ele>1751.642</ele>
        <time>2026-03-08T11:14:42Z</time>
      </trkpt>
      <trkpt lat="46.24062" lon="6.69941">
        <ele>1751.753</ele>
        <time>2026-03-08T11:14:47Z</time>
      </trkpt>
      <trkpt lat="46.2406" lon="6.69939">
        <ele>1752.036</ele>
        <time>2026-03-08T11:14:52Z</time>
      </trkpt>
      <trkpt lat="46.24059" lon="6.69936">
        <ele>1753.007</ele>
        <time>2026-03-08T11:14:57Z</time>
      </trkpt>
      <trkpt lat="46.24057" lon="6.69934">
        <ele>1754.129</ele>
        <time>2026-03-08T11:15:02Z</time>
      </trkpt>
      <trkpt lat="46.24055" lon="6.69932">
        <ele>1754.487</ele>
        <time>2026-03-08T11:15:07Z</time>
      </trkpt>
      <trkpt lat="46.24054" lon="6.6993">
        <ele>1754.602</ele>
        <time>2026-03-08T11:15:12Z</time>
      </trkpt>
      <trkpt lat="46.24052" lon="6.69928">
        <ele>1755.544</ele>
        <time>2026-03-08T11:15:17Z</time>
      </trkpt>
      <trkpt lat="46.24051" lon="6.69927">
        <ele>1755.193</ele>
        <time>2026-03-08T11:15:22Z</time>
      </trkpt>
      <trkpt lat="46.24049" lon="6.69924">
        <ele>1757.103</ele>
        <time>2026-03-08T11:15:27Z</time>
      </trkpt>
      <trkpt lat="46.24048" lon="6.69922">
        <ele>1757.668</ele>
        <time>2026-03-08T11:15:32Z</time>
      </trkpt>
      <trkpt lat="46.24048" lon="6.69922">
        <ele>1757.906</ele>
        <time>2026-03-08T11:15:37Z</time>
      </trkpt>
      <trkpt lat="46.24047" lon="6.6992">
        <ele>1758.394</ele>
        <time>2026-03-08T11:15:42Z</time>
      </trkpt>
      <trkpt lat="46.24045" lon="6.69917">
        <ele>1758.947</ele>
        <time>2026-03-08T11:15:47Z</time>
      </trkpt>
      <trkpt lat="46.24044" lon="6.69915">
        <ele>1759.297</ele>
        <time>2026-03-08T11:15:52Z</time>
      </trkpt>
      <trkpt lat="46.24043" lon="6.69913">
        <ele>1759.899</ele>
        <time>2026-03-08T11:15:57Z</time>
      </trkpt>
      <trkpt lat="46.24041" lon="6.69911">
        <ele>1760.625</ele>
        <time>2026-03-08T11:16:02Z</time>
      </trkpt>
      <trkpt lat="46.24039" lon="6.69909">
        <ele>1760.703</ele>
        <time>2026-03-08T11:16:07Z</time>
      </trkpt>
      <trkpt lat="46.24037" lon="6.69907">
        <ele>1761.65</ele>
        <time>2026-03-08T11:16:12Z</time>
      </trkpt>
      <trkpt lat="46.24036" lon="6.69905">
        <ele>1761.958</ele>
        <time>2026-03-08T11:16:17Z</time>
      </trkpt>
      <trkpt lat="46.24034" lon="6.69902">
        <ele>1762.879</ele>
        <time>2026-03-08T11:16:22Z</time>
      </trkpt>
      <trkpt lat="46.24032" lon="6.69899">
        <ele>1762.554</ele>
        <time>2026-03-08T11:16:27Z</time>
      </trkpt>
      <trkpt lat="46.2403" lon="6.69898">
        <ele>1762.957</ele>
        <time>2026-03-08T11:16:32Z</time>
      </trkpt>
      <trkpt lat="46.24028" lon="6.69897">
        <ele>1763.985</ele>
        <time>2026-03-08T11:16:37Z</time>
      </trkpt>
      <trkpt lat="46.24026" lon="6.69895">
        <ele>1765.506</ele>
        <time>2026-03-08T11:16:42Z</time>
      </trkpt>
      <trkpt lat="46.24024" lon="6.69894">
        <ele>1766.012</ele>
        <time>2026-03-08T11:16:47Z</time>
      </trkpt>
      <trkpt lat="46.24024" lon="6.69894">
        <ele>1768.867</ele>
        <time>2026-03-08T11:16:52Z</time>
      </trkpt>
      <trkpt lat="46.24022" lon="6.69893">
        <ele>1770.772</ele>
        <time>2026-03-08T11:16:57Z</time>
      </trkpt>
      <trkpt lat="46.24021" lon="6.69893">
        <ele>1771.365</ele>
        <time>2026-03-08T11:17:02Z</time>
      </trkpt>
      <trkpt lat="46.2402" lon="6.69892">
        <ele>1772.724</ele>
        <time>2026-03-08T11:17:07Z</time>
      </trkpt>
      <trkpt lat="46.24018" lon="6.69891">
        <ele>1772.574</ele>
        <time>2026-03-08T11:17:12Z</time>
      </trkpt>
      <trkpt lat="46.24017" lon="6.69889">
        <ele>1773.822</ele>
        <time>2026-03-08T11:17:17Z</time>
      </trkpt>
      <trkpt lat="46.24016" lon="6.69888">
        <ele>1774.956</ele>
        <time>2026-03-08T11:17:22Z</time>
      </trkpt>
      <trkpt lat="46.24015" lon="6.69887">
        <ele>1775.974</ele>
        <time>2026-03-08T11:17:27Z</time>
      </trkpt>
      <trkpt lat="46.24013" lon="6.69887">
        <ele>1776.311</ele>
        <time>2026-03-08T11:17:32Z</time>
      </trkpt>
      <trkpt lat="46.24011" lon="6.69886">
        <ele>1777.891</ele>
        <time>2026-03-08T11:17:37Z</time>
      </trkpt>
      <trkpt lat="46.24009" lon="6.69885">
        <ele>1778.525</ele>
        <time>2026-03-08T11:17:42Z</time>
      </trkpt>
      <trkpt lat="46.24008" lon="6.69884">
        <ele>1778.685</ele>
        <time>2026-03-08T11:17:47Z</time>
      </trkpt>
      <trkpt lat="46.24006" lon="6.69884">
        <ele>1779.384</ele>
        <time>2026-03-08T11:17:52Z</time>
      </trkpt>
      <trkpt lat="46.24005" lon="6.69883">
        <ele>1779.385</ele>
        <time>2026-03-08T11:17:57Z</time>
      </trkpt>
      <trkpt lat="46.24003" lon="6.69881">
        <ele>1779.959</ele>
        <time>2026-03-08T11:18:02Z</time>
      </trkpt>
      <trkpt lat="46.24001" lon="6.6988">
        <ele>1780.737</ele>
        <time>2026-03-08T11:18:07Z</time>
      </trkpt>
      <trkpt lat="46.23999" lon="6.69878">
        <ele>1781.92</ele>
        <time>2026-03-08T11:18:12Z</time>
      </trkpt>
      <trkpt lat="46.23997" lon="6.69876">
        <ele>1782.255</ele>
        <time>2026-03-08T11:18:17Z</time>
      </trkpt>
      <trkpt lat="46.23995" lon="6.69874">
        <ele>1783.67</ele>
        <time>2026-03-08T11:18:22Z</time>
      </trkpt>
      <trkpt lat="46.23994" lon="6.69872">
        <ele>1782.208</ele>
        <time>2026-03-08T11:18:27Z</time>
      </trkpt>
      <trkpt lat="46.23992" lon="6.69871">
        <ele>1782.755</ele>
        <time>2026-03-08T11:18:32Z</time>
      </trkpt>
      <trkpt lat="46.23991" lon="6.69871">
        <ele>1783.608</ele>
        <time>2026-03-08T11:18:37Z</time>
      </trkpt>
      <trkpt lat="46.2399" lon="6.69869">
        <ele>1783.247</ele>
        <time>2026-03-08T11:18:42Z</time>
      </trkpt>
      <trkpt lat="46.23989" lon="6.69867">
        <ele>1783.889</ele>
        <time>2026-03-08T11:18:47Z</time>
      </trkpt>
      <trkpt lat="46.23988" lon="6.69866">
        <ele>1784.87</ele>
        <time>2026-03-08T11:18:52Z</time>
      </trkpt>
      <trkpt lat="46.23987" lon="6.69865">
        <ele>1786.069</ele>
        <time>2026-03-08T11:18:57Z</time>
      </trkpt>
      <trkpt lat="46.23986" lon="6.69864">
        <ele>1787.204</ele>
        <time>2026-03-08T11:19:02Z</time>
      </trkpt>
      <trkpt lat="46.23984" lon="6.69863">
        <ele>1787.6</ele>
        <time>2026-03-08T11:19:07Z</time>
      </trkpt>
      <trkpt lat="46.23983" lon="6.69862">
        <ele>1788.396</ele>
        <time>2026-03-08T11:19:12Z</time>
      </trkpt>
      <trkpt lat="46.23982" lon="6.6986">
        <ele>1788.992</ele>
        <time>2026-03-08T11:19:17Z</time>
      </trkpt>
      <trkpt lat="46.23981" lon="6.6986">
        <ele>1789.978</ele>
        <time>2026-03-08T11:19:22Z</time>
      </trkpt>
      <trkpt lat="46.2398" lon="6.69858">
        <ele>1791.007</ele>
        <time>2026-03-08T11:19:27Z</time>
      </trkpt>
      <trkpt lat="46.23978" lon="6.69858">
        <ele>1792.148</ele>
        <time>2026-03-08T11:19:32Z</time>
      </trkpt>
      <trkpt lat="46.23976" lon="6.69856">
        <ele>1792.625</ele>
        <time>2026-03-08T11:19:37Z</time>
      </trkpt>
      <trkpt lat="46.23975" lon="6.69855">
        <ele>1794.162</ele>
        <time>2026-03-08T11:19:42Z</time>
      </trkpt>
      <trkpt lat="46.23973" lon="6.69853">
        <ele>1794.549</ele>
        <time>2026-03-08T11:19:47Z</time>
      </trkpt>
      <trkpt lat="46.23972" lon="6.69851">
        <ele>1794.932</ele>
        <time>2026-03-08T11:19:52Z</time>
      </trkpt>
      <trkpt lat="46.23971" lon="6.69851">
        <ele>1794.275</ele>
        <time>2026-03-08T11:19:57Z</time>
      </trkpt>
      <trkpt lat="46.23968" lon="6.6985">
        <ele>1795.202</ele>
        <time>2026-03-08T11:20:02Z</time>
      </trkpt>
      <trkpt lat="46.23966" lon="6.69849">
        <ele>1796.445</ele>
        <time>2026-03-08T11:20:07Z</time>
      </trkpt>
      <trkpt lat="46.23964" lon="6.69848">
        <ele>1795.995</ele>
        <time>2026-03-08T11:20:12Z</time>
      </trkpt>
      <trkpt lat="46.23963" lon="6.69846">
        <ele>1797.861</ele>
        <time>2026-03-08T11:20:17Z</time>
      </trkpt>
      <trkpt lat="46.23962" lon="6.69845">
        <ele>1798.806</ele>
        <time>2026-03-08T11:20:22Z</time>
      </trkpt>
      <trkpt lat="46.2396" lon="6.69844">
        <ele>1800.219</ele>
        <time>2026-03-08T11:20:27Z</time>
      </trkpt>
      <trkpt lat="46.23959" lon="6.69843">
        <ele>1800.573</ele>
        <time>2026-03-08T11:20:32Z</time>
      </trkpt>
      <trkpt lat="46.23957" lon="6.69841">
        <ele>1801.529</ele>
        <time>2026-03-08T11:20:37Z</time>
      </trkpt>
      <trkpt lat="46.23956" lon="6.6984">
        <ele>1804.014</ele>
        <time>2026-03-08T11:20:42Z</time>
      </trkpt>
      <trkpt lat="46.23954" lon="6.6984">
        <ele>1802.832</ele>
        <time>2026-03-08T11:20:47Z</time>
      </trkpt>
      <trkpt lat="46.23952" lon="6.69839">
        <ele>1801.888</ele>
        <time>2026-03-08T11:20:52Z</time>
      </trkpt>
      <trkpt lat="46.23951" lon="6.69837">
        <ele>1803.731</ele>
        <time>2026-03-08T11:20:57Z</time>
      </trkpt>
      <trkpt lat="46.23949" lon="6.69836">
        <ele>1804.062</ele>
        <time>2026-03-08T11:21:02Z</time>
      </trkpt>
      <trkpt lat="46.23948" lon="6.69836">
        <ele>1806.051</ele>
        <time>2026-03-08T11:21:07Z</time>
      </trkpt>
      <trkpt lat="46.23947" lon="6.69834">
        <ele>1806.538</ele>
        <time>2026-03-08T11:21:12Z</time>
      </trkpt>
      <trkpt lat="46.23946" lon="6.69834">
        <ele>1807.055</ele>
        <time>2026-03-08T11:21:17Z</time>
      </trkpt>
      <trkpt lat="46.23944" lon="6.69833">
        <ele>1809.669</ele>
        <time>2026-03-08T11:21:22Z</time>
      </trkpt>
      <trkpt lat="46.23943" lon="6.69832">
        <ele>1810.556</ele>
        <time>2026-03-08T11:21:27Z</time>
      </trkpt>
      <trkpt lat="46.23942" lon="6.6983">
        <ele>1812.043</ele>
        <time>2026-03-08T11:21:32Z</time>
      </trkpt>
      <trkpt lat="46.2394" lon="6.6983">
        <ele>1813.107</ele>
        <time>2026-03-08T11:21:37Z</time>
      </trkpt>
      <trkpt lat="46.23938" lon="6.69829">
        <ele>1812.659</ele>
        <time>2026-03-08T11:21:42Z</time>
      </trkpt>
      <trkpt lat="46.23936" lon="6.69829">
        <ele>1814.304</ele>
        <time>2026-03-08T11:21:47Z</time>
      </trkpt>
      <trkpt lat="46.23934" lon="6.69827">
        <ele>1814.181</ele>
        <time>2026-03-08T11:21:52Z</time>
      </trkpt>
      <trkpt lat="46.23933" lon="6.69826">
        <ele>1815.529</ele>
        <time>2026-03-08T11:21:57Z</time>
      </trkpt>
      <trkpt lat="46.23931" lon="6.69825">
        <ele>1815.85</ele>
        <time>2026-03-08T11:22:02Z</time>
      </trkpt>
      <trkpt lat="46.2393" lon="6.69825">
        <ele>1816.686</ele>
        <time>2026-03-08T11:22:07Z</time>
      </trkpt>
      <trkpt lat="46.23928" lon="6.69824">
        <ele>1815.713</ele>
        <time>2026-03-08T11:22:12Z</time>
      </trkpt>
      <trkpt lat="46.23926" lon="6.69824">
        <ele>1815.921</ele>
        <time>2026-03-08T11:22:17Z</time>
      </trkpt>
      <trkpt lat="46.23924" lon="6.69823">
        <ele>1815.403</ele>
        <time>2026-03-08T11:22:22Z</time>
      </trkpt>
      <trkpt lat="46.23922" lon="6.69822">
        <ele>1815.001</ele>
        <time>2026-03-08T11:22:27Z</time>
      </trkpt>
      <trkpt lat="46.2392" lon="6.69821">
        <ele>1815.871</ele>
        <time>2026-03-08T11:22:32Z</time>
      </trkpt>
      <trkpt lat="46.23917" lon="6.69821">
        <ele>1815.601</ele>
        <time>2026-03-08T11:22:37Z</time>
      </trkpt>
      <trkpt lat="46.23916" lon="6.6982">
        <ele>1814.811</ele>
        <time>2026-03-08T11:22:42Z</time>
      </trkpt>
      <trkpt lat="46.23914" lon="6.6982">
        <ele>1814.898</ele>
        <time>2026-03-08T11:22:47Z</time>
      </trkpt>
      <trkpt lat="46.23911" lon="6.69819">
        <ele>1815.234</ele>
        <time>2026-03-08T11:22:52Z</time>
      </trkpt>
      <trkpt lat="46.23909" lon="6.69817">
        <ele>1817.385</ele>
        <time>2026-03-08T11:22:57Z</time>
      </trkpt>
      <trkpt lat="46.23907" lon="6.69817">
        <ele>1816.887</ele>
        <time>2026-03-08T11:23:02Z</time>
      </trkpt>
      <trkpt lat="46.23905" lon="6.69817">
        <ele>1817.64</ele>
        <time>2026-03-08T11:23:07Z</time>
      </trkpt>
      <trkpt lat="46.23903" lon="6.69816">
        <ele>1817.109</ele>
        <time>2026-03-08T11:23:12Z</time>
      </trkpt>
      <trkpt lat="46.23901" lon="6.69815">
        <ele>1817.135</ele>
        <time>2026-03-08T11:23:17Z</time>
      </trkpt>
      <trkpt lat="46.23899" lon="6.69814">
        <ele>1817.604</ele>
        <time>2026-03-08T11:23:22Z</time>
      </trkpt>
      <trkpt lat="46.23897" lon="6.69814">
        <ele>1819.119</ele>
        <time>2026-03-08T11:23:27Z</time>
      </trkpt>
      <trkpt lat="46.23896" lon="6.69814">
        <ele>1819.72</ele>
        <time>2026-03-08T11:23:32Z</time>
      </trkpt>
      <trkpt lat="46.23894" lon="6.69813">
        <ele>1819.477</ele>
        <time>2026-03-08T11:23:37Z</time>
      </trkpt>
      <trkpt lat="46.23893" lon="6.69812">
        <ele>1818.589</ele>
        <time>2026-03-08T11:23:42Z</time>
      </trkpt>
      <trkpt lat="46.23891" lon="6.69811">
        <ele>1820.015</ele>
        <time>2026-03-08T11:23:47Z</time>
      </trkpt>
      <trkpt lat="46.2389" lon="6.6981">
        <ele>1820.246</ele>
        <time>2026-03-08T11:23:52Z</time>
      </trkpt>
      <trkpt lat="46.23887" lon="6.6981">
        <ele>1821.819</ele>
        <time>2026-03-08T11:23:57Z</time>
      </trkpt>
      <trkpt lat="46.23886" lon="6.6981">
        <ele>1824.463</ele>
        <time>2026-03-08T11:24:02Z</time>
      </trkpt>
      <trkpt lat="46.23885" lon="6.69809">
        <ele>1825.533</ele>
        <time>2026-03-08T11:24:07Z</time>
      </trkpt>
      <trkpt lat="46.23883" lon="6.69808">
        <ele>1826.528</ele>
        <time>2026-03-08T11:24:12Z</time>
      </trkpt>
      <trkpt lat="46.23882" lon="6.69808">
        <ele>1826.893</ele>
        <time>2026-03-08T11:24:17Z</time>
      </trkpt>
      <trkpt lat="46.23881" lon="6.69808">
        <ele>1826.715</ele>
        <time>2026-03-08T11:24:22Z</time>
      </trkpt>
      <trkpt lat="46.2388" lon="6.69807">
        <ele>1826.42</ele>
        <time>2026-03-08T11:24:27Z</time>
      </trkpt>
      <trkpt lat="46.23878" lon="6.69806">
        <ele>1825.918</ele>
        <time>2026-03-08T11:24:32Z</time>
      </trkpt>
      <trkpt lat="46.23876" lon="6.69805">
        <ele>1826.979</ele>
        <time>2026-03-08T11:24:37Z</time>
      </trkpt>
      <trkpt lat="46.23874" lon="6.69804">
        <ele>1827.923</ele>
        <time>2026-03-08T11:24:42Z</time>
      </trkpt>
      <trkpt lat="46.23873" lon="6.69804">
        <ele>1828.325</ele>
        <time>2026-03-08T11:24:47Z</time>
      </trkpt>
      <trkpt lat="46.23871" lon="6.69804">
        <ele>1828.752</ele>
        <time>2026-03-08T11:24:52Z</time>
      </trkpt>
      <trkpt lat="46.2387" lon="6.69804">
        <ele>1829.116</ele>
        <time>2026-03-08T11:24:57Z</time>
      </trkpt>
      <trkpt lat="46.23868" lon="6.69802">
        <ele>1829.467</ele>
        <time>2026-03-08T11:25:02Z</time>
      </trkpt>
      <trkpt lat="46.23865" lon="6.69802">
        <ele>1830.53</ele>
        <time>2026-03-08T11:25:07Z</time>
      </trkpt>
      <trkpt lat="46.23863" lon="6.69801">
        <ele>1832.42</ele>
        <time>2026-03-08T11:25:12Z</time>
      </trkpt>
      <trkpt lat="46.23862" lon="6.69801">
        <ele>1831.891</ele>
        <time>2026-03-08T11:25:17Z</time>
      </trkpt>
      <trkpt lat="46.2386" lon="6.69802">
        <ele>1831.455</ele>
        <time>2026-03-08T11:25:22Z</time>
      </trkpt>
      <trkpt lat="46.23859" lon="6.69801">
        <ele>1832.656</ele>
        <time>2026-03-08T11:25:27Z</time>
      </trkpt>
      <trkpt lat="46.23858" lon="6.69801">
        <ele>1833.055</ele>
        <time>2026-03-08T11:25:32Z</time>
      </trkpt>
      <trkpt lat="46.23857" lon="6.69801">
        <ele>1835.023</ele>
        <time>2026-03-08T11:25:37Z</time>
      </trkpt>
      <trkpt lat="46.23855" lon="6.698">
        <ele>1833.949</ele>
        <time>2026-03-08T11:25:42Z</time>
      </trkpt>
      <trkpt lat="46.23853" lon="6.698">
        <ele>1835.041</ele>
        <time>2026-03-08T11:25:47Z</time>
      </trkpt>
      <trkpt lat="46.23851" lon="6.698">
        <ele>1835.974</ele>
        <time>2026-03-08T11:25:52Z</time>
      </trkpt>
      <trkpt lat="46.23849" lon="6.69801">
        <ele>1836.012</ele>
        <time>2026-03-08T11:25:57Z</time>
      </trkpt>
      <trkpt lat="46.23847" lon="6.69801">
        <ele>1836.195</ele>
        <time>2026-03-08T11:26:02Z</time>
      </trkpt>
      <trkpt lat="46.23845" lon="6.69801">
        <ele>1837.931</ele>
        <time>2026-03-08T11:26:07Z</time>
      </trkpt>
      <trkpt lat="46.23843" lon="6.69802">
        <ele>1838.468</ele>
        <time>2026-03-08T11:26:12Z</time>
      </trkpt>
      <trkpt lat="46.23841" lon="6.69801">
        <ele>1838.693</ele>
        <time>2026-03-08T11:26:17Z</time>
      </trkpt>
      <trkpt lat="46.2384" lon="6.698">
        <ele>1838.174</ele>
        <time>2026-03-08T11:26:22Z</time>
      </trkpt>
      <trkpt lat="46.2384" lon="6.698">
        <ele>1838.313</ele>
        <time>2026-03-08T11:26:27Z</time>
      </trkpt>
      <trkpt lat="46.23838" lon="6.698">
        <ele>1839.627</ele>
        <time>2026-03-08T11:26:32Z</time>
      </trkpt>
      <trkpt lat="46.23837" lon="6.698">
        <ele>1840.731</ele>
        <time>2026-03-08T11:26:37Z</time>
      </trkpt>
      <trkpt lat="46.23834" lon="6.698">
        <ele>1843.283</ele>
        <time>2026-03-08T11:26:42Z</time>
      </trkpt>
      <trkpt lat="46.23832" lon="6.698">
        <ele>1842.963</ele>
        <time>2026-03-08T11:26:47Z</time>
      </trkpt>
      <trkpt lat="46.2383" lon="6.69802">
        <ele>1842.666</ele>
        <time>2026-03-08T11:26:52Z</time>
      </trkpt>
      <trkpt lat="46.2383" lon="6.698">
        <ele>1842.597</ele>
        <time>2026-03-08T11:26:57Z</time>
      </trkpt>
      <trkpt lat="46.23831" lon="6.69797">
        <ele>1841.544</ele>
        <time>2026-03-08T11:27:02Z</time>
      </trkpt>
      <trkpt lat="46.23831" lon="6.69795">
        <ele>1841.828</ele>
        <time>2026-03-08T11:27:07Z</time>
      </trkpt>
      <trkpt lat="46.23832" lon="6.69793">
        <ele>1842.039</ele>
        <time>2026-03-08T11:27:12Z</time>
      </trkpt>
      <trkpt lat="46.23832" lon="6.69791">
        <ele>1842.387</ele>
        <time>2026-03-08T11:27:17Z</time>
      </trkpt>
      <trkpt lat="46.23833" lon="6.69788">
        <ele>1843.575</ele>
        <time>2026-03-08T11:27:22Z</time>
      </trkpt>
      <trkpt lat="46.23834" lon="6.69786">
        <ele>1844.615</ele>
        <time>2026-03-08T11:27:27Z</time>
      </trkpt>
      <trkpt lat="46.23834" lon="6.69784">
        <ele>1845.334</ele>
        <time>2026-03-08T11:27:32Z</time>
      </trkpt>
      <trkpt lat="46.23835" lon="6.69783">
        <ele>1844.678</ele>
        <time>2026-03-08T11:27:37Z</time>
      </trkpt>
      <trkpt lat="46.23835" lon="6.69783">
        <ele>1844.709</ele>
        <time>2026-03-08T11:27:42Z</time>
      </trkpt>
      <trkpt lat="46.23835" lon="6.69783">
        <ele>1844.667</ele>
        <time>2026-03-08T11:27:47Z</time>
      </trkpt>
      <trkpt lat="46.23835" lon="6.69783">
        <ele>1844.691</ele>
        <time>2026-03-08T11:27:52Z</time>
      </trkpt>
      <trkpt lat="46.23835" lon="6.69782">
        <ele>1844.979</ele>
        <time>2026-03-08T11:27:57Z</time>
      </trkpt>
      <trkpt lat="46.23836" lon="6.6978">
        <ele>1846.066</ele>
        <time>2026-03-08T11:28:02Z</time>
      </trkpt>
      <trkpt lat="46.23836" lon="6.69777">
        <ele>1847.364</ele>
        <time>2026-03-08T11:28:07Z</time>
      </trkpt>
      <trkpt lat="46.23837" lon="6.69775">
        <ele>1848.439</ele>
        <time>2026-03-08T11:28:12Z</time>
      </trkpt>
      <trkpt lat="46.23838" lon="6.69772">
        <ele>1848.121</ele>
        <time>2026-03-08T11:28:17Z</time>
      </trkpt>
      <trkpt lat="46.23839" lon="6.69769">
        <ele>1849.541</ele>
        <time>2026-03-08T11:28:22Z</time>
      </trkpt>
      <trkpt lat="46.23839" lon="6.69767">
        <ele>1850.362</ele>
        <time>2026-03-08T11:28:27Z</time>
      </trkpt>
      <trkpt lat="46.2384" lon="6.69765">
        <ele>1851.522</ele>
        <time>2026-03-08T11:28:32Z</time>
      </trkpt>
      <trkpt lat="46.23841" lon="6.69763">
        <ele>1852.637</ele>
        <time>2026-03-08T11:28:37Z</time>
      </trkpt>
      <trkpt lat="46.23841" lon="6.69761">
        <ele>1854.146</ele>
        <time>2026-03-08T11:28:42Z</time>
      </trkpt>
      <trkpt lat="46.23842" lon="6.69759">
        <ele>1854.663</ele>
        <time>2026-03-08T11:28:47Z</time>
      </trkpt>
      <trkpt lat="46.23842" lon="6.69758">
        <ele>1855.784</ele>
        <time>2026-03-08T11:28:52Z</time>
      </trkpt>
      <trkpt lat="46.23842" lon="6.69757">
        <ele>1857.095</ele>
        <time>2026-03-08T11:28:57Z</time>
      </trkpt>
      <trkpt lat="46.23843" lon="6.69755">
        <ele>1857.137</ele>
        <time>2026-03-08T11:29:02Z</time>
      </trkpt>
      <trkpt lat="46.23844" lon="6.69752">
        <ele>1856.37</ele>
        <time>2026-03-08T11:29:07Z</time>
      </trkpt>
      <trkpt lat="46.23844" lon="6.6975">
        <ele>1856.262</ele>
        <time>2026-03-08T11:29:12Z</time>
      </trkpt>
      <trkpt lat="46.23845" lon="6.69748">
        <ele>1856.65</ele>
        <time>2026-03-08T11:29:17Z</time>
      </trkpt>
      <trkpt lat="46.23846" lon="6.69746">
        <ele>1856.465</ele>
        <time>2026-03-08T11:29:22Z</time>
      </trkpt>
      <trkpt lat="46.23846" lon="6.69745">
        <ele>1856.541</ele>
        <time>2026-03-08T11:29:27Z</time>
      </trkpt>
      <trkpt lat="46.23846" lon="6.69744">
        <ele>1856.736</ele>
        <time>2026-03-08T11:29:32Z</time>
      </trkpt>
      <trkpt lat="46.23844" lon="6.69746">
        <ele>1858.683</ele>
        <time>2026-03-08T11:29:37Z</time>
      </trkpt>
      <trkpt lat="46.23841" lon="6.69748">
        <ele>1860.322</ele>
        <time>2026-03-08T11:29:42Z</time>
      </trkpt>
      <trkpt lat="46.23839" lon="6.69747">
        <ele>1859.89</ele>
        <time>2026-03-08T11:29:47Z</time>
      </trkpt>
      <trkpt lat="46.23837" lon="6.69748">
        <ele>1861.239</ele>
        <time>2026-03-08T11:29:52Z</time>
      </trkpt>
      <trkpt lat="46.23835" lon="6.69749">
        <ele>1861.492</ele>
        <time>2026-03-08T11:29:57Z</time>
      </trkpt>
      <trkpt lat="46.23834" lon="6.69749">
        <ele>1861.96</ele>
        <time>2026-03-08T11:30:02Z</time>
      </trkpt>
      <trkpt lat="46.23831" lon="6.69749">
        <ele>1861.743</ele>
        <time>2026-03-08T11:30:07Z</time>
      </trkpt>
      <trkpt lat="46.23829" lon="6.69749">
        <ele>1862.496</ele>
        <time>2026-03-08T11:30:12Z</time>
      </trkpt>
      <trkpt lat="46.23827" lon="6.69749">
        <ele>1863.531</ele>
        <time>2026-03-08T11:30:17Z</time>
      </trkpt>
      <trkpt lat="46.23824" lon="6.6975">
        <ele>1864.68</ele>
        <time>2026-03-08T11:30:22Z</time>
      </trkpt>
      <trkpt lat="46.23822" lon="6.6975">
        <ele>1865.75</ele>
        <time>2026-03-08T11:30:27Z</time>
      </trkpt>
      <trkpt lat="46.2382" lon="6.6975">
        <ele>1866.012</ele>
        <time>2026-03-08T11:30:32Z</time>
      </trkpt>
      <trkpt lat="46.23818" lon="6.6975">
        <ele>1865.361</ele>
        <time>2026-03-08T11:30:37Z</time>
      </trkpt>
      <trkpt lat="46.23817" lon="6.69751">
        <ele>1866.257</ele>
        <time>2026-03-08T11:30:42Z</time>
      </trkpt>
      <trkpt lat="46.23815" lon="6.69751">
        <ele>1866.613</ele>
        <time>2026-03-08T11:30:47Z</time>
      </trkpt>
      <trkpt lat="46.23814" lon="6.69752">
        <ele>1867.434</ele>
        <time>2026-03-08T11:30:52Z</time>
      </trkpt>
      <trkpt lat="46.23812" lon="6.69752">
        <ele>1868.257</ele>
        <time>2026-03-08T11:30:57Z</time>
      </trkpt>
      <trkpt lat="46.2381" lon="6.69752">
        <ele>1869.546</ele>
        <time>2026-03-08T11:31:02Z</time>
      </trkpt>
      <trkpt lat="46.2381" lon="6.69752">
        <ele>1869.506</ele>
        <time>2026-03-08T11:31:07Z</time>
      </trkpt>
      <trkpt lat="46.2381" lon="6.69752">
        <ele>1869.503</ele>
        <time>2026-03-08T11:31:12Z</time>
      </trkpt>
      <trkpt lat="46.2381" lon="6.69752">
        <ele>1869.515</ele>
        <time>2026-03-08T11:31:17Z</time>
      </trkpt>
      <trkpt lat="46.2381" lon="6.69752">
        <ele>1869.521</ele>
        <time>2026-03-08T11:31:22Z</time>
      </trkpt>
      <trkpt lat="46.2381" lon="6.69752">
        <ele>1869.524</ele>
        <time>2026-03-08T11:31:27Z</time>
      </trkpt>
      <trkpt lat="46.23809" lon="6.69752">
        <ele>1870.083</ele>
        <time>2026-03-08T11:31:32Z</time>
      </trkpt>
      <trkpt lat="46.23807" lon="6.69751">
        <ele>1870.275</ele>
        <time>2026-03-08T11:31:37Z</time>
      </trkpt>
      <trkpt lat="46.23804" lon="6.69752">
        <ele>1871.498</ele>
        <time>2026-03-08T11:31:42Z</time>
      </trkpt>
      <trkpt lat="46.23802" lon="6.69751">
        <ele>1873.458</ele>
        <time>2026-03-08T11:31:47Z</time>
      </trkpt>
      <trkpt lat="46.238" lon="6.69752">
        <ele>1873.574</ele>
        <time>2026-03-08T11:31:52Z</time>
      </trkpt>
      <trkpt lat="46.23799" lon="6.69753">
        <ele>1874.089</ele>
        <time>2026-03-08T11:31:57Z</time>
      </trkpt>
      <trkpt lat="46.23797" lon="6.69753">
        <ele>1874.471</ele>
        <time>2026-03-08T11:32:02Z</time>
      </trkpt>
      <trkpt lat="46.23796" lon="6.69754">
        <ele>1875.413</ele>
        <time>2026-03-08T11:32:07Z</time>
      </trkpt>
      <trkpt lat="46.23794" lon="6.69754">
        <ele>1875.899</ele>
        <time>2026-03-08T11:32:12Z</time>
      </trkpt>
      <trkpt lat="46.23792" lon="6.69754">
        <ele>1875.251</ele>
        <time>2026-03-08T11:32:17Z</time>
      </trkpt>
      <trkpt lat="46.2379" lon="6.69756">
        <ele>1874.526</ele>
        <time>2026-03-08T11:32:22Z</time>
      </trkpt>
      <trkpt lat="46.23789" lon="6.69756">
        <ele>1875.755</ele>
        <time>2026-03-08T11:32:27Z</time>
      </trkpt>
      <trkpt lat="46.23787" lon="6.69757">
        <ele>1876.32</ele>
        <time>2026-03-08T11:32:32Z</time>
      </trkpt>
      <trkpt lat="46.23785" lon="6.69757">
        <ele>1877.515</ele>
        <time>2026-03-08T11:32:37Z</time>
      </trkpt>
      <trkpt lat="46.23784" lon="6.69758">
        <ele>1877.701</ele>
        <time>2026-03-08T11:32:42Z</time>
      </trkpt>
      <trkpt lat="46.23783" lon="6.69761">
        <ele>1878.422</ele>
        <time>2026-03-08T11:32:47Z</time>
      </trkpt>
      <trkpt lat="46.23782" lon="6.69762">
        <ele>1878.27</ele>
        <time>2026-03-08T11:32:52Z</time>
      </trkpt>
      <trkpt lat="46.23781" lon="6.69764">
        <ele>1878.835</ele>
        <time>2026-03-08T11:32:57Z</time>
      </trkpt>
      <trkpt lat="46.2378" lon="6.69765">
        <ele>1880.035</ele>
        <time>2026-03-08T11:33:02Z</time>
      </trkpt>
      <trkpt lat="46.2378" lon="6.69767">
        <ele>1880.252</ele>
        <time>2026-03-08T11:33:07Z</time>
      </trkpt>
      <trkpt lat="46.23779" lon="6.69767">
        <ele>1880.706</ele>
        <time>2026-03-08T11:33:12Z</time>
      </trkpt>
      <trkpt lat="46.23779" lon="6.69767">
        <ele>1880.756</ele>
        <time>2026-03-08T11:33:17Z</time>
      </trkpt>
      <trkpt lat="46.2378" lon="6.69767">
        <ele>1880.581</ele>
        <time>2026-03-08T11:33:22Z</time>
      </trkpt>
      <trkpt lat="46.23779" lon="6.69764">
        <ele>1880.188</ele>
        <time>2026-03-08T11:33:27Z</time>
      </trkpt>
      <trkpt lat="46.2378" lon="6.69759">
        <ele>1881.108</ele>
        <time>2026-03-08T11:33:32Z</time>
      </trkpt>
      <trkpt lat="46.2378" lon="6.69755">
        <ele>1882.137</ele>
        <time>2026-03-08T11:33:37Z</time>
      </trkpt>
      <trkpt lat="46.2378" lon="6.69752">
        <ele>1882.663</ele>
        <time>2026-03-08T11:33:42Z</time>
      </trkpt>
      <trkpt lat="46.23781" lon="6.69748">
        <ele>1883.511</ele>
        <time>2026-03-08T11:33:47Z</time>
      </trkpt>
      <trkpt lat="46.23781" lon="6.69747">
        <ele>1883.499</ele>
        <time>2026-03-08T11:33:52Z</time>
      </trkpt>
      <trkpt lat="46.23781" lon="6.69747">
        <ele>1883.506</ele>
        <time>2026-03-08T11:33:57Z</time>
      </trkpt>
      <trkpt lat="46.23781" lon="6.69746">
        <ele>1884.074</ele>
        <time>2026-03-08T11:34:02Z</time>
      </trkpt>
      <trkpt lat="46.23781" lon="6.69743">
        <ele>1885.349</ele>
        <time>2026-03-08T11:34:07Z</time>
      </trkpt>
      <trkpt lat="46.23781" lon="6.69743">
        <ele>1885.421</ele>
        <time>2026-03-08T11:34:12Z</time>
      </trkpt>
      <trkpt lat="46.23779" lon="6.69744">
        <ele>1885.56</ele>
        <time>2026-03-08T11:34:17Z</time>
      </trkpt>
      <trkpt lat="46.23777" lon="6.69746">
        <ele>1886.188</ele>
        <time>2026-03-08T11:34:22Z</time>
      </trkpt>
      <trkpt lat="46.23775" lon="6.69749">
        <ele>1886.92</ele>
        <time>2026-03-08T11:34:27Z</time>
      </trkpt>
      <trkpt lat="46.23773" lon="6.69752">
        <ele>1887.558</ele>
        <time>2026-03-08T11:34:32Z</time>
      </trkpt>
      <trkpt lat="46.23772" lon="6.69755">
        <ele>1888.252</ele>
        <time>2026-03-08T11:34:37Z</time>
      </trkpt>
      <trkpt lat="46.2377" lon="6.69757">
        <ele>1888.461</ele>
        <time>2026-03-08T11:34:42Z</time>
      </trkpt>
      <trkpt lat="46.2377" lon="6.69759">
        <ele>1888.753</ele>
        <time>2026-03-08T11:34:47Z</time>
      </trkpt>
      <trkpt lat="46.23769" lon="6.69762">
        <ele>1889.308</ele>
        <time>2026-03-08T11:34:52Z</time>
      </trkpt>
      <trkpt lat="46.23768" lon="6.69763">
        <ele>1889.85</ele>
        <time>2026-03-08T11:34:57Z</time>
      </trkpt>
      <trkpt lat="46.23768" lon="6.69765">
        <ele>1890.487</ele>
        <time>2026-03-08T11:35:02Z</time>
      </trkpt>
      <trkpt lat="46.23767" lon="6.69767">
        <ele>1892.028</ele>
        <time>2026-03-08T11:35:07Z</time>
      </trkpt>
      <trkpt lat="46.23766" lon="6.69768">
        <ele>1891.99</ele>
        <time>2026-03-08T11:35:12Z</time>
      </trkpt>
      <trkpt lat="46.23766" lon="6.69769">
        <ele>1892.237</ele>
        <time>2026-03-08T11:35:17Z</time>
      </trkpt>
      <trkpt lat="46.23766" lon="6.69768">
        <ele>1892.802</ele>
        <time>2026-03-08T11:35:22Z</time>
      </trkpt>
      <trkpt lat="46.23766" lon="6.69766">
        <ele>1892.945</ele>
        <time>2026-03-08T11:35:27Z</time>
      </trkpt>
      <trkpt lat="46.23766" lon="6.69766">
        <ele>1892.759</ele>
        <time>2026-03-08T11:35:32Z</time>
      </trkpt>
      <trkpt lat="46.23766" lon="6.69764">
        <ele>1892.703</ele>
        <time>2026-03-08T11:35:37Z</time>
      </trkpt>
      <trkpt lat="46.23766" lon="6.69764">
        <ele>1892.91</ele>
        <time>2026-03-08T11:35:42Z</time>
      </trkpt>
      <trkpt lat="46.23765" lon="6.69762">
        <ele>1892.453</ele>
        <time>2026-03-08T11:35:47Z</time>
      </trkpt>
      <trkpt lat="46.23764" lon="6.69759">
        <ele>1893.137</ele>
        <time>2026-03-08T11:35:52Z</time>
      </trkpt>
      <trkpt lat="46.23764" lon="6.69756">
        <ele>1893.556</ele>
        <time>2026-03-08T11:35:57Z</time>
      </trkpt>
      <trkpt lat="46.23764" lon="6.69754">
        <ele>1893.63</ele>
        <time>2026-03-08T11:36:02Z</time>
      </trkpt>
      <trkpt lat="46.23764" lon="6.69752">
        <ele>1894.214</ele>
        <time>2026-03-08T11:36:07Z</time>
      </trkpt>
      <trkpt lat="46.23764" lon="6.6975">
        <ele>1894.424</ele>
        <time>2026-03-08T11:36:12Z</time>
      </trkpt>
      <trkpt lat="46.23764" lon="6.69747">
        <ele>1895.317</ele>
        <time>2026-03-08T11:36:17Z</time>
      </trkpt>
      <trkpt lat="46.23765" lon="6.69745">
        <ele>1897.877</ele>
        <time>2026-03-08T11:36:22Z</time>
      </trkpt>
      <trkpt lat="46.23765" lon="6.69743">
        <ele>1898.455</ele>
        <time>2026-03-08T11:36:27Z</time>
      </trkpt>
      <trkpt lat="46.23765" lon="6.69741">
        <ele>1899.025</ele>
        <time>2026-03-08T11:36:32Z</time>
      </trkpt>
      <trkpt lat="46.23765" lon="6.69739">
        <ele>1899.361</ele>
        <time>2026-03-08T11:36:37Z</time>
      </trkpt>
      <trkpt lat="46.23765" lon="6.69736">
        <ele>1899.192</ele>
        <time>2026-03-08T11:36:42Z</time>
      </trkpt>
      <trkpt lat="46.23765" lon="6.69734">
        <ele>1900.678</ele>
        <time>2026-03-08T11:36:47Z</time>
      </trkpt>
      <trkpt lat="46.23766" lon="6.69732">
        <ele>1900.668</ele>
        <time>2026-03-08T11:36:52Z</time>
      </trkpt>
      <trkpt lat="46.23766" lon="6.69731">
        <ele>1901.03</ele>
        <time>2026-03-08T11:36:57Z</time>
      </trkpt>
      <trkpt lat="46.23767" lon="6.69728">
        <ele>1901.841</ele>
        <time>2026-03-08T11:37:02Z</time>
      </trkpt>
      <trkpt lat="46.23768" lon="6.69725">
        <ele>1902.016</ele>
        <time>2026-03-08T11:37:07Z</time>
      </trkpt>
      <trkpt lat="46.23768" lon="6.69723">
        <ele>1902.66</ele>
        <time>2026-03-08T11:37:12Z</time>
      </trkpt>
      <trkpt lat="46.23769" lon="6.69722">
        <ele>1902.238</ele>
        <time>2026-03-08T11:37:17Z</time>
      </trkpt>
      <trkpt lat="46.23769" lon="6.69721">
        <ele>1902.47</ele>
        <time>2026-03-08T11:37:22Z</time>
      </trkpt>
      <trkpt lat="46.23769" lon="6.6972">
        <ele>1902.336</ele>
        <time>2026-03-08T11:37:27Z</time>
      </trkpt>
      <trkpt lat="46.23769" lon="6.69718">
        <ele>1902.648</ele>
        <time>2026-03-08T11:37:32Z</time>
      </trkpt>
      <trkpt lat="46.2377" lon="6.69715">
        <ele>1902.667</ele>
        <time>2026-03-08T11:37:37Z</time>
      </trkpt>
      <trkpt lat="46.2377" lon="6.69713">
        <ele>1903.202</ele>
        <time>2026-03-08T11:37:42Z</time>
      </trkpt>
      <trkpt lat="46.23772" lon="6.6971">
        <ele>1904.252</ele>
        <time>2026-03-08T11:37:47Z</time>
      </trkpt>
      <trkpt lat="46.23773" lon="6.69708">
        <ele>1904.274</ele>
        <time>2026-03-08T11:37:52Z</time>
      </trkpt>
      <trkpt lat="46.23773" lon="6.69708">
        <ele>1904.639</ele>
        <time>2026-03-08T11:37:57Z</time>
      </trkpt>
      <trkpt lat="46.23774" lon="6.69706">
        <ele>1905.416</ele>
        <time>2026-03-08T11:38:02Z</time>
      </trkpt>
      <trkpt lat="46.23775" lon="6.69705">
        <ele>1906.7</ele>
        <time>2026-03-08T11:38:07Z</time>
      </trkpt>
      <trkpt lat="46.23776" lon="6.69704">
        <ele>1908.582</ele>
        <time>2026-03-08T11:38:12Z</time>
      </trkpt>
      <trkpt lat="46.23776" lon="6.69703">
        <ele>1909.323</ele>
        <time>2026-03-08T11:38:17Z</time>
      </trkpt>
      <trkpt lat="46.23777" lon="6.69702">
        <ele>1910.303</ele>
        <time>2026-03-08T11:38:22Z</time>
      </trkpt>
      <trkpt lat="46.23778" lon="6.697">
        <ele>1911.54</ele>
        <time>2026-03-08T11:38:27Z</time>
      </trkpt>
      <trkpt lat="46.23779" lon="6.697">
        <ele>1911.751</ele>
        <time>2026-03-08T11:38:32Z</time>
      </trkpt>
      <trkpt lat="46.23779" lon="6.697">
        <ele>1911.752</ele>
        <time>2026-03-08T11:38:37Z</time>
      </trkpt>
      <trkpt lat="46.23777" lon="6.697">
        <ele>1912.569</ele>
        <time>2026-03-08T11:38:42Z</time>
      </trkpt>
      <trkpt lat="46.23775" lon="6.697">
        <ele>1913.146</ele>
        <time>2026-03-08T11:38:47Z</time>
      </trkpt>
      <trkpt lat="46.23773" lon="6.697">
        <ele>1913.948</ele>
        <time>2026-03-08T11:38:52Z</time>
      </trkpt>
      <trkpt lat="46.2377" lon="6.697">
        <ele>1914.46</ele>
        <time>2026-03-08T11:38:57Z</time>
      </trkpt>
      <trkpt lat="46.23768" lon="6.69699">
        <ele>1914.909</ele>
        <time>2026-03-08T11:39:02Z</time>
      </trkpt>
      <trkpt lat="46.23767" lon="6.69699">
        <ele>1915.416</ele>
        <time>2026-03-08T11:39:07Z</time>
      </trkpt>
      <trkpt lat="46.23765" lon="6.697">
        <ele>1915.826</ele>
        <time>2026-03-08T11:39:12Z</time>
      </trkpt>
      <trkpt lat="46.23762" lon="6.69701">
        <ele>1916.376</ele>
        <time>2026-03-08T11:39:17Z</time>
      </trkpt>
      <trkpt lat="46.23761" lon="6.69701">
        <ele>1916.848</ele>
        <time>2026-03-08T11:39:22Z</time>
      </trkpt>
      <trkpt lat="46.23759" lon="6.69701">
        <ele>1917.521</ele>
        <time>2026-03-08T11:39:27Z</time>
      </trkpt>
      <trkpt lat="46.23757" lon="6.69701">
        <ele>1917.763</ele>
        <time>2026-03-08T11:39:32Z</time>
      </trkpt>
      <trkpt lat="46.23755" lon="6.69702">
        <ele>1917.865</ele>
        <time>2026-03-08T11:39:37Z</time>
      </trkpt>
      <trkpt lat="46.23753" lon="6.69703">
        <ele>1918.925</ele>
        <time>2026-03-08T11:39:42Z</time>
      </trkpt>
      <trkpt lat="46.23751" lon="6.69702">
        <ele>1919.44</ele>
        <time>2026-03-08T11:39:47Z</time>
      </trkpt>
      <trkpt lat="46.23748" lon="6.69701">
        <ele>1920.774</ele>
        <time>2026-03-08T11:39:52Z</time>
      </trkpt>
      <trkpt lat="46.23745" lon="6.69702">
        <ele>1921.608</ele>
        <time>2026-03-08T11:39:57Z</time>
      </trkpt>
      <trkpt lat="46.23744" lon="6.69702">
        <ele>1922.102</ele>
        <time>2026-03-08T11:40:02Z</time>
      </trkpt>
      <trkpt lat="46.23744" lon="6.69702">
        <ele>1922.077</ele>
        <time>2026-03-08T11:40:07Z</time>
      </trkpt>
      <trkpt lat="46.23744" lon="6.69702">
        <ele>1922.072</ele>
        <time>2026-03-08T11:40:12Z</time>
      </trkpt>
      <trkpt lat="46.23744" lon="6.69702">
        <ele>1921.69</ele>
        <time>2026-03-08T11:40:17Z</time>
      </trkpt>
      <trkpt lat="46.23744" lon="6.69702">
        <ele>1921.661</ele>
        <time>2026-03-08T11:40:22Z</time>
      </trkpt>
      <trkpt lat="46.23744" lon="6.69702">
        <ele>1921.492</ele>
        <time>2026-03-08T11:40:27Z</time>
      </trkpt>
      <trkpt lat="46.23744" lon="6.69702">
        <ele>1921.28</ele>
        <time>2026-03-08T11:40:32Z</time>
      </trkpt>
      <trkpt lat="46.23744" lon="6.69702">
        <ele>1921.272</ele>
        <time>2026-03-08T11:40:37Z</time>
      </trkpt>
      <trkpt lat="46.23744" lon="6.69702">
        <ele>1921.287</ele>
        <time>2026-03-08T11:40:42Z</time>
      </trkpt>
      <trkpt lat="46.23744" lon="6.69702">
        <ele>1921.279</ele>
        <time>2026-03-08T11:40:47Z</time>
      </trkpt>
      <trkpt lat="46.23744" lon="6.69702">
        <ele>1921.279</ele>
        <time>2026-03-08T11:40:52Z</time>
      </trkpt>
      <trkpt lat="46.23744" lon="6.69702">
        <ele>1921.277</ele>
        <time>2026-03-08T11:40:57Z</time>
      </trkpt>
      <trkpt lat="46.23744" lon="6.69702">
        <ele>1921.251</ele>
        <time>2026-03-08T11:41:02Z</time>
      </trkpt>
      <trkpt lat="46.23744" lon="6.69702">
        <ele>1921.248</ele>
        <time>2026-03-08T11:41:07Z</time>
      </trkpt>
      <trkpt lat="46.23744" lon="6.69702">
        <ele>1921.247</ele>
        <time>2026-03-08T11:41:12Z</time>
      </trkpt>
      <trkpt lat="46.23744" lon="6.69702">
        <ele>1921.248</ele>
        <time>2026-03-08T11:41:17Z</time>
      </trkpt>
      <trkpt lat="46.23744" lon="6.69702">
        <ele>1921.251</ele>
        <time>2026-03-08T11:41:22Z</time>
      </trkpt>
      <trkpt lat="46.23744" lon="6.69702">
        <ele>1921.248</ele>
        <time>2026-03-08T11:41:27Z</time>
      </trkpt>
      <trkpt lat="46.23744" lon="6.69702">
        <ele>1921.245</ele>
        <time>2026-03-08T11:41:32Z</time>
      </trkpt>
      <trkpt lat="46.23744" lon="6.69702">
        <ele>1921.242</ele>
        <time>2026-03-08T11:41:37Z</time>
      </trkpt>
      <trkpt lat="46.23744" lon="6.69702">
        <ele>1921.245</ele>
        <time>2026-03-08T11:41:42Z</time>
      </trkpt>
      <trkpt lat="46.23744" lon="6.69702">
        <ele>1921.261</ele>
        <time>2026-03-08T11:41:47Z</time>
      </trkpt>
      <trkpt lat="46.23744" lon="6.69702">
        <ele>1921.274</ele>
        <time>2026-03-08T11:41:52Z</time>
      </trkpt>
      <trkpt lat="46.23744" lon="6.69702">
        <ele>1921.293</ele>
        <time>2026-03-08T11:41:57Z</time>
      </trkpt>
      <trkpt lat="46.23744" lon="6.69702">
        <ele>1921.308</ele>
        <time>2026-03-08T11:42:02Z</time>
      </trkpt>
      <trkpt lat="46.23744" lon="6.69702">
        <ele>1921.321</ele>
        <time>2026-03-08T11:42:07Z</time>
      </trkpt>
      <trkpt lat="46.23744" lon="6.69702">
        <ele>1921.327</ele>
        <time>2026-03-08T11:42:12Z</time>
      </trkpt>
      <trkpt lat="46.23744" lon="6.69702">
        <ele>1921.576</ele>
        <time>2026-03-08T11:42:17Z</time>
      </trkpt>
      <trkpt lat="46.23744" lon="6.69702">
        <ele>1922.332</ele>
        <time>2026-03-08T11:42:22Z</time>
      </trkpt>
      <trkpt lat="46.23744" lon="6.69702">
        <ele>1922.64</ele>
        <time>2026-03-08T11:42:27Z</time>
      </trkpt>
      <trkpt lat="46.23744" lon="6.69702">
        <ele>1922.479</ele>
        <time>2026-03-08T11:42:32Z</time>
      </trkpt>
      <trkpt lat="46.23744" lon="6.69702">
        <ele>1922.493</ele>
        <time>2026-03-08T11:42:37Z</time>
      </trkpt>
      <trkpt lat="46.23744" lon="6.69702">
        <ele>1922.504</ele>
        <time>2026-03-08T11:42:42Z</time>
      </trkpt>
      <trkpt lat="46.23744" lon="6.69702">
        <ele>1922.514</ele>
        <time>2026-03-08T11:42:47Z</time>
      </trkpt>
      <trkpt lat="46.23744" lon="6.69702">
        <ele>1922.528</ele>
        <time>2026-03-08T11:42:52Z</time>
      </trkpt>
      <trkpt lat="46.23744" lon="6.69702">
        <ele>1922.654</ele>
        <time>2026-03-08T11:42:57Z</time>
      </trkpt>
      <trkpt lat="46.23744" lon="6.69702">
        <ele>1922.663</ele>
        <time>2026-03-08T11:43:02Z</time>
      </trkpt>
      <trkpt lat="46.23744" lon="6.69702">
        <ele>1922.672</ele>
        <time>2026-03-08T11:43:07Z</time>
      </trkpt>
      <trkpt lat="46.23744" lon="6.69702">
        <ele>1922.683</ele>
        <time>2026-03-08T11:43:12Z</time>
      </trkpt>
      <trkpt lat="46.23744" lon="6.69702">
        <ele>1922.955</ele>
        <time>2026-03-08T11:43:17Z</time>
      </trkpt>
      <trkpt lat="46.23744" lon="6.69702">
        <ele>1923.089</ele>
        <time>2026-03-08T11:43:22Z</time>
      </trkpt>
      <trkpt lat="46.23744" lon="6.69702">
        <ele>1922.636</ele>
        <time>2026-03-08T11:43:27Z</time>
      </trkpt>
      <trkpt lat="46.23744" lon="6.69702">
        <ele>1922.636</ele>
        <time>2026-03-08T11:43:32Z</time>
      </trkpt>
      <trkpt lat="46.23744" lon="6.69702">
        <ele>1922.637</ele>
        <time>2026-03-08T11:43:37Z</time>
      </trkpt>
      <trkpt lat="46.23744" lon="6.69702">
        <ele>1922.635</ele>
        <time>2026-03-08T11:43:42Z</time>
      </trkpt>
      <trkpt lat="46.23744" lon="6.69702">
        <ele>1922.871</ele>
        <time>2026-03-08T11:43:47Z</time>
      </trkpt>
      <trkpt lat="46.23744" lon="6.69702">
        <ele>1922.876</ele>
        <time>2026-03-08T11:43:52Z</time>
      </trkpt>
      <trkpt lat="46.23744" lon="6.69702">
        <ele>1925.691</ele>
        <time>2026-03-08T11:43:57Z</time>
      </trkpt>
      <trkpt lat="46.23744" lon="6.69702">
        <ele>1925.691</ele>
        <time>2026-03-08T11:44:02Z</time>
      </trkpt>
      <trkpt lat="46.23744" lon="6.69702">
        <ele>1925.592</ele>
        <time>2026-03-08T11:44:07Z</time>
      </trkpt>
      <trkpt lat="46.23744" lon="6.69702">
        <ele>1924.728</ele>
        <time>2026-03-08T11:44:12Z</time>
      </trkpt>
      <trkpt lat="46.23744" lon="6.69702">
        <ele>1924.698</ele>
        <time>2026-03-08T11:44:17Z</time>
      </trkpt>
      <trkpt lat="46.23744" lon="6.69702">
        <ele>1924.297</ele>
        <time>2026-03-08T11:44:22Z</time>
      </trkpt>
      <trkpt lat="46.23744" lon="6.69702">
        <ele>1924.608</ele>
        <time>2026-03-08T11:44:27Z</time>
      </trkpt>
      <trkpt lat="46.23744" lon="6.69702">
        <ele>1924.803</ele>
        <time>2026-03-08T11:44:32Z</time>
      </trkpt>
      <trkpt lat="46.23744" lon="6.69702">
        <ele>1925.739</ele>
        <time>2026-03-08T11:44:37Z</time>
      </trkpt>
      <trkpt lat="46.23744" lon="6.69702">
        <ele>1925.283</ele>
        <time>2026-03-08T11:44:42Z</time>
      </trkpt>
      <trkpt lat="46.23744" lon="6.69702">
        <ele>1924.465</ele>
        <time>2026-03-08T11:44:47Z</time>
      </trkpt>
      <trkpt lat="46.23744" lon="6.69702">
        <ele>1923.369</ele>
        <time>2026-03-08T11:44:52Z</time>
      </trkpt>
      <trkpt lat="46.23744" lon="6.69702">
        <ele>1921.75</ele>
        <time>2026-03-08T11:44:57Z</time>
      </trkpt>
      <trkpt lat="46.23744" lon="6.69702">
        <ele>1921.773</ele>
        <time>2026-03-08T11:45:02Z</time>
      </trkpt>
      <trkpt lat="46.23744" lon="6.69702">
        <ele>1921.543</ele>
        <time>2026-03-08T11:45:07Z</time>
      </trkpt>
      <trkpt lat="46.23744" lon="6.69702">
        <ele>1921.511</ele>
        <time>2026-03-08T11:45:12Z</time>
      </trkpt>
      <trkpt lat="46.23744" lon="6.69702">
        <ele>1921.51</ele>
        <time>2026-03-08T11:45:17Z</time>
      </trkpt>
      <trkpt lat="46.23744" lon="6.69702">
        <ele>1921.527</ele>
        <time>2026-03-08T11:45:22Z</time>
      </trkpt>
      <trkpt lat="46.23744" lon="6.69702">
        <ele>1921.54</ele>
        <time>2026-03-08T11:45:27Z</time>
      </trkpt>
      <trkpt lat="46.23744" lon="6.69702">
        <ele>1921.541</ele>
        <time>2026-03-08T11:45:32Z</time>
      </trkpt>
      <trkpt lat="46.23744" lon="6.69702">
        <ele>1921.541</ele>
        <time>2026-03-08T11:45:37Z</time>
      </trkpt>
      <trkpt lat="46.23744" lon="6.69702">
        <ele>1921.541</ele>
        <time>2026-03-08T11:45:42Z</time>
      </trkpt>
      <trkpt lat="46.23744" lon="6.69702">
        <ele>1921.544</ele>
        <time>2026-03-08T11:45:47Z</time>
      </trkpt>
      <trkpt lat="46.23744" lon="6.69702">
        <ele>1921.545</ele>
        <time>2026-03-08T11:45:52Z</time>
      </trkpt>
      <trkpt lat="46.23744" lon="6.69702">
        <ele>1921.549</ele>
        <time>2026-03-08T11:45:57Z</time>
      </trkpt>
      <trkpt lat="46.23744" lon="6.69702">
        <ele>1922.168</ele>
        <time>2026-03-08T11:46:02Z</time>
      </trkpt>
      <trkpt lat="46.23744" lon="6.69702">
        <ele>1922.741</ele>
        <time>2026-03-08T11:46:07Z</time>
      </trkpt>
      <trkpt lat="46.23744" lon="6.69702">
        <ele>1922.719</ele>
        <time>2026-03-08T11:46:12Z</time>
      </trkpt>
      <trkpt lat="46.23744" lon="6.69702">
        <ele>1922.841</ele>
        <time>2026-03-08T11:46:17Z</time>
      </trkpt>
      <trkpt lat="46.23744" lon="6.69702">
        <ele>1922.851</ele>
        <time>2026-03-08T11:46:22Z</time>
      </trkpt>
      <trkpt lat="46.23744" lon="6.69702">
        <ele>1923.058</ele>
        <time>2026-03-08T11:46:27Z</time>
      </trkpt>
      <trkpt lat="46.23744" lon="6.69702">
        <ele>1923.058</ele>
        <time>2026-03-08T11:46:32Z</time>
      </trkpt>
      <trkpt lat="46.23744" lon="6.69702">
        <ele>1922.045</ele>
        <time>2026-03-08T11:46:37Z</time>
      </trkpt>
      <trkpt lat="46.23744" lon="6.69702">
        <ele>1921.996</ele>
        <time>2026-03-08T11:46:42Z</time>
      </trkpt>
      <trkpt lat="46.23744" lon="6.69702">
        <ele>1921.999</ele>
        <time>2026-03-08T11:46:47Z</time>
      </trkpt>
      <trkpt lat="46.23744" lon="6.69702">
        <ele>1922.001</ele>
        <time>2026-03-08T11:46:52Z</time>
      </trkpt>
      <trkpt lat="46.23744" lon="6.69702">
        <ele>1922.002</ele>
        <time>2026-03-08T11:46:57Z</time>
      </trkpt>
      <trkpt lat="46.23744" lon="6.69702">
        <ele>1922.007</ele>
        <time>2026-03-08T11:47:02Z</time>
      </trkpt>
      <trkpt lat="46.23744" lon="6.69702">
        <ele>1922.004</ele>
        <time>2026-03-08T11:47:07Z</time>
      </trkpt>
      <trkpt lat="46.23744" lon="6.69702">
        <ele>1922.003</ele>
        <time>2026-03-08T11:47:12Z</time>
      </trkpt>
      <trkpt lat="46.23744" lon="6.69702">
        <ele>1922.01</ele>
        <time>2026-03-08T11:47:17Z</time>
      </trkpt>
      <trkpt lat="46.23744" lon="6.69702">
        <ele>1922.01</ele>
        <time>2026-03-08T11:47:22Z</time>
      </trkpt>
      <trkpt lat="46.23744" lon="6.69702">
        <ele>1922.018</ele>
        <time>2026-03-08T11:47:27Z</time>
      </trkpt>
      <trkpt lat="46.23744" lon="6.69702">
        <ele>1922.026</ele>
        <time>2026-03-08T11:47:32Z</time>
      </trkpt>
      <trkpt lat="46.23744" lon="6.69702">
        <ele>1922.035</ele>
        <time>2026-03-08T11:47:37Z</time>
      </trkpt>
      <trkpt lat="46.23744" lon="6.69702">
        <ele>1922.043</ele>
        <time>2026-03-08T11:47:42Z</time>
      </trkpt>
      <trkpt lat="46.23744" lon="6.69702">
        <ele>1922.053</ele>
        <time>2026-03-08T11:47:47Z</time>
      </trkpt>
      <trkpt lat="46.23744" lon="6.69702">
        <ele>1922.063</ele>
        <time>2026-03-08T11:47:52Z</time>
      </trkpt>
      <trkpt lat="46.23744" lon="6.69702">
        <ele>1922.071</ele>
        <time>2026-03-08T11:47:57Z</time>
      </trkpt>
      <trkpt lat="46.23744" lon="6.69702">
        <ele>1922.078</ele>
        <time>2026-03-08T11:48:02Z</time>
      </trkpt>
      <trkpt lat="46.23744" lon="6.69702">
        <ele>1922.083</ele>
        <time>2026-03-08T11:48:07Z</time>
      </trkpt>
      <trkpt lat="46.23744" lon="6.69702">
        <ele>1922.085</ele>
        <time>2026-03-08T11:48:12Z</time>
      </trkpt>
      <trkpt lat="46.23744" lon="6.69702">
        <ele>1922.084</ele>
        <time>2026-03-08T11:48:17Z</time>
      </trkpt>
      <trkpt lat="46.23744" lon="6.69702">
        <ele>1922.086</ele>
        <time>2026-03-08T11:48:22Z</time>
      </trkpt>
      <trkpt lat="46.23744" lon="6.69702">
        <ele>1922.082</ele>
        <time>2026-03-08T11:48:27Z</time>
      </trkpt>
      <trkpt lat="46.23744" lon="6.69702">
        <ele>1922.08</ele>
        <time>2026-03-08T11:48:32Z</time>
      </trkpt>
      <trkpt lat="46.23744" lon="6.69702">
        <ele>1927.427</ele>
        <time>2026-03-08T11:48:37Z</time>
      </trkpt>
      <trkpt lat="46.23744" lon="6.69702">
        <ele>1926.239</ele>
        <time>2026-03-08T11:48:42Z</time>
      </trkpt>
      <trkpt lat="46.23744" lon="6.69702">
        <ele>1925.154</ele>
        <time>2026-03-08T11:48:47Z</time>
      </trkpt>
      <trkpt lat="46.23744" lon="6.69702">
        <ele>1924.327</ele>
        <time>2026-03-08T11:48:52Z</time>
      </trkpt>
      <trkpt lat="46.23744" lon="6.69702">
        <ele>1923.63</ele>
        <time>2026-03-08T11:48:57Z</time>
      </trkpt>
      <trkpt lat="46.23744" lon="6.69702">
        <ele>1923.568</ele>
        <time>2026-03-08T11:49:02Z</time>
      </trkpt>
      <trkpt lat="46.23744" lon="6.69702">
        <ele>1923.542</ele>
        <time>2026-03-08T11:49:07Z</time>
      </trkpt>
      <trkpt lat="46.23744" lon="6.69702">
        <ele>1923.551</ele>
        <time>2026-03-08T11:49:12Z</time>
      </trkpt>
      <trkpt lat="46.23744" lon="6.69702">
        <ele>1923.574</ele>
        <time>2026-03-08T11:49:17Z</time>
      </trkpt>
      <trkpt lat="46.23744" lon="6.69702">
        <ele>1923.589</ele>
        <time>2026-03-08T11:49:22Z</time>
      </trkpt>
      <trkpt lat="46.23744" lon="6.69702">
        <ele>1923.583</ele>
        <time>2026-03-08T11:49:27Z</time>
      </trkpt>
      <trkpt lat="46.23744" lon="6.69702">
        <ele>1923.572</ele>
        <time>2026-03-08T11:49:32Z</time>
      </trkpt>
      <trkpt lat="46.23744" lon="6.69702">
        <ele>1923.597</ele>
        <time>2026-03-08T11:49:37Z</time>
      </trkpt>
      <trkpt lat="46.23744" lon="6.69702">
        <ele>1923.569</ele>
        <time>2026-03-08T11:49:42Z</time>
      </trkpt>
      <trkpt lat="46.23744" lon="6.69702">
        <ele>1923.567</ele>
        <time>2026-03-08T11:49:47Z</time>
      </trkpt>
      <trkpt lat="46.23744" lon="6.69702">
        <ele>1923.569</ele>
        <time>2026-03-08T11:49:52Z</time>
      </trkpt>
      <trkpt lat="46.23744" lon="6.69702">
        <ele>1923.561</ele>
        <time>2026-03-08T11:49:57Z</time>
      </trkpt>
      <trkpt lat="46.23744" lon="6.69702">
        <ele>1923.557</ele>
        <time>2026-03-08T11:50:02Z</time>
      </trkpt>
      <trkpt lat="46.23744" lon="6.69702">
        <ele>1923.552</ele>
        <time>2026-03-08T11:50:07Z</time>
      </trkpt>
      <trkpt lat="46.23744" lon="6.69702">
        <ele>1923.558</ele>
        <time>2026-03-08T11:50:12Z</time>
      </trkpt>
      <trkpt lat="46.23744" lon="6.69702">
        <ele>1923.56</ele>
        <time>2026-03-08T11:50:17Z</time>
      </trkpt>
      <trkpt lat="46.23744" lon="6.69702">
        <ele>1923.554</ele>
        <time>2026-03-08T11:50:22Z</time>
      </trkpt>
      <trkpt lat="46.23744" lon="6.69702">
        <ele>1923.547</ele>
        <time>2026-03-08T11:50:27Z</time>
      </trkpt>
      <trkpt lat="46.23744" lon="6.69702">
        <ele>1923.53</ele>
        <time>2026-03-08T11:50:32Z</time>
      </trkpt>
      <trkpt lat="46.23744" lon="6.69702">
        <ele>1923.504</ele>
        <time>2026-03-08T11:50:37Z</time>
      </trkpt>
      <trkpt lat="46.23744" lon="6.69702">
        <ele>1923.508</ele>
        <time>2026-03-08T11:50:42Z</time>
      </trkpt>
      <trkpt lat="46.23744" lon="6.69702">
        <ele>1923.508</ele>
        <time>2026-03-08T11:50:47Z</time>
      </trkpt>
      <trkpt lat="46.23744" lon="6.69702">
        <ele>1923.507</ele>
        <time>2026-03-08T11:50:52Z</time>
      </trkpt>
      <trkpt lat="46.23744" lon="6.69702">
        <ele>1923.499</ele>
        <time>2026-03-08T11:50:57Z</time>
      </trkpt>
      <trkpt lat="46.23744" lon="6.69702">
        <ele>1923.487</ele>
        <time>2026-03-08T11:51:02Z</time>
      </trkpt>
      <trkpt lat="46.23744" lon="6.69702">
        <ele>1923.468</ele>
        <time>2026-03-08T11:51:07Z</time>
      </trkpt>
      <trkpt lat="46.23744" lon="6.69702">
        <ele>1923.453</ele>
        <time>2026-03-08T11:51:12Z</time>
      </trkpt>
      <trkpt lat="46.23744" lon="6.69702">
        <ele>1923.439</ele>
        <time>2026-03-08T11:51:17Z</time>
      </trkpt>
      <trkpt lat="46.23744" lon="6.69702">
        <ele>1923.432</ele>
        <time>2026-03-08T11:51:22Z</time>
      </trkpt>
      <trkpt lat="46.23744" lon="6.69702">
        <ele>1923.419</ele>
        <time>2026-03-08T11:51:27Z</time>
      </trkpt>
      <trkpt lat="46.23744" lon="6.69702">
        <ele>1923.403</ele>
        <time>2026-03-08T11:51:32Z</time>
      </trkpt>
      <trkpt lat="46.23744" lon="6.69702">
        <ele>1923.368</ele>
        <time>2026-03-08T11:51:37Z</time>
      </trkpt>
      <trkpt lat="46.23744" lon="6.69702">
        <ele>1923.354</ele>
        <time>2026-03-08T11:51:42Z</time>
      </trkpt>
      <trkpt lat="46.23744" lon="6.69702">
        <ele>1923.355</ele>
        <time>2026-03-08T11:51:47Z</time>
      </trkpt>
      <trkpt lat="46.23744" lon="6.69702">
        <ele>1923.341</ele>
        <time>2026-03-08T11:51:52Z</time>
      </trkpt>
      <trkpt lat="46.23744" lon="6.69702">
        <ele>1923.336</ele>
        <time>2026-03-08T11:51:57Z</time>
      </trkpt>
      <trkpt lat="46.23744" lon="6.69702">
        <ele>1923.328</ele>
        <time>2026-03-08T11:52:02Z</time>
      </trkpt>
      <trkpt lat="46.23744" lon="6.69702">
        <ele>1923.325</ele>
        <time>2026-03-08T11:52:07Z</time>
      </trkpt>
      <trkpt lat="46.23744" lon="6.69702">
        <ele>1923.313</ele>
        <time>2026-03-08T11:52:12Z</time>
      </trkpt>
      <trkpt lat="46.23744" lon="6.69702">
        <ele>1923.316</ele>
        <time>2026-03-08T11:52:17Z</time>
      </trkpt>
      <trkpt lat="46.23744" lon="6.69702">
        <ele>1923.322</ele>
        <time>2026-03-08T11:52:22Z</time>
      </trkpt>
      <trkpt lat="46.23744" lon="6.69702">
        <ele>1923.329</ele>
        <time>2026-03-08T11:52:27Z</time>
      </trkpt>
      <trkpt lat="46.23744" lon="6.69702">
        <ele>1923.343</ele>
        <time>2026-03-08T11:52:32Z</time>
      </trkpt>
      <trkpt lat="46.23744" lon="6.69702">
        <ele>1923.349</ele>
        <time>2026-03-08T11:52:37Z</time>
      </trkpt>
      <trkpt lat="46.23744" lon="6.69702">
        <ele>1923.351</ele>
        <time>2026-03-08T11:52:42Z</time>
      </trkpt>
      <trkpt lat="46.23744" lon="6.69702">
        <ele>1923.35</ele>
        <time>2026-03-08T11:52:47Z</time>
      </trkpt>
      <trkpt lat="46.23744" lon="6.69702">
        <ele>1923.342</ele>
        <time>2026-03-08T11:52:52Z</time>
      </trkpt>
      <trkpt lat="46.23744" lon="6.69702">
        <ele>1923.338</ele>
        <time>2026-03-08T11:52:57Z</time>
      </trkpt>
      <trkpt lat="46.23744" lon="6.69702">
        <ele>1923.332</ele>
        <time>2026-03-08T11:53:02Z</time>
      </trkpt>
      <trkpt lat="46.23744" lon="6.69702">
        <ele>1923.319</ele>
        <time>2026-03-08T11:53:07Z</time>
      </trkpt>
      <trkpt lat="46.23744" lon="6.69702">
        <ele>1923.31</ele>
        <time>2026-03-08T11:53:12Z</time>
      </trkpt>
      <trkpt lat="46.23744" lon="6.69702">
        <ele>1923.301</ele>
        <time>2026-03-08T11:53:17Z</time>
      </trkpt>
      <trkpt lat="46.23744" lon="6.69702">
        <ele>1923.299</ele>
        <time>2026-03-08T11:53:22Z</time>
      </trkpt>
      <trkpt lat="46.23744" lon="6.69702">
        <ele>1923.293</ele>
        <time>2026-03-08T11:53:27Z</time>
      </trkpt>
      <trkpt lat="46.23744" lon="6.69702">
        <ele>1923.283</ele>
        <time>2026-03-08T11:53:32Z</time>
      </trkpt>
      <trkpt lat="46.23744" lon="6.69702">
        <ele>1923.277</ele>
        <time>2026-03-08T11:53:37Z</time>
      </trkpt>
      <trkpt lat="46.23744" lon="6.69702">
        <ele>1923.273</ele>
        <time>2026-03-08T11:53:42Z</time>
      </trkpt>
      <trkpt lat="46.23744" lon="6.69702">
        <ele>1923.265</ele>
        <time>2026-03-08T11:53:47Z</time>
      </trkpt>
      <trkpt lat="46.23744" lon="6.69702">
        <ele>1923.257</ele>
        <time>2026-03-08T11:53:52Z</time>
      </trkpt>
      <trkpt lat="46.23744" lon="6.69702">
        <ele>1923.247</ele>
        <time>2026-03-08T11:53:57Z</time>
      </trkpt>
      <trkpt lat="46.23744" lon="6.69702">
        <ele>1923.242</ele>
        <time>2026-03-08T11:54:02Z</time>
      </trkpt>
      <trkpt lat="46.23744" lon="6.69702">
        <ele>1923.232</ele>
        <time>2026-03-08T11:54:07Z</time>
      </trkpt>
      <trkpt lat="46.23744" lon="6.69702">
        <ele>1923.226</ele>
        <time>2026-03-08T11:54:12Z</time>
      </trkpt>
      <trkpt lat="46.23744" lon="6.69702">
        <ele>1923.213</ele>
        <time>2026-03-08T11:54:17Z</time>
      </trkpt>
      <trkpt lat="46.23744" lon="6.69702">
        <ele>1923.195</ele>
        <time>2026-03-08T11:54:22Z</time>
      </trkpt>
      <trkpt lat="46.23744" lon="6.69702">
        <ele>1923.175</ele>
        <time>2026-03-08T11:54:27Z</time>
      </trkpt>
      <trkpt lat="46.23744" lon="6.69702">
        <ele>1923.159</ele>
        <time>2026-03-08T11:54:32Z</time>
      </trkpt>
      <trkpt lat="46.23744" lon="6.69702">
        <ele>1923.149</ele>
        <time>2026-03-08T11:54:37Z</time>
      </trkpt>
      <trkpt lat="46.23744" lon="6.69702">
        <ele>1923.131</ele>
        <time>2026-03-08T11:54:42Z</time>
      </trkpt>
      <trkpt lat="46.23744" lon="6.69702">
        <ele>1923.122</ele>
        <time>2026-03-08T11:54:47Z</time>
      </trkpt>
      <trkpt lat="46.23744" lon="6.69702">
        <ele>1923.117</ele>
        <time>2026-03-08T11:54:52Z</time>
      </trkpt>
      <trkpt lat="46.23744" lon="6.69702">
        <ele>1923.103</ele>
        <time>2026-03-08T11:54:57Z</time>
      </trkpt>
      <trkpt lat="46.23744" lon="6.69702">
        <ele>1923.097</ele>
        <time>2026-03-08T11:55:02Z</time>
      </trkpt>
      <trkpt lat="46.23744" lon="6.69702">
        <ele>1923.092</ele>
        <time>2026-03-08T11:55:07Z</time>
      </trkpt>
      <trkpt lat="46.23744" lon="6.69702">
        <ele>1923.088</ele>
        <time>2026-03-08T11:55:12Z</time>
      </trkpt>
      <trkpt lat="46.23744" lon="6.69702">
        <ele>1923.071</ele>
        <time>2026-03-08T11:55:17Z</time>
      </trkpt>
      <trkpt lat="46.23744" lon="6.69702">
        <ele>1923.062</ele>
        <time>2026-03-08T11:55:22Z</time>
      </trkpt>
      <trkpt lat="46.23744" lon="6.69702">
        <ele>1923.046</ele>
        <time>2026-03-08T11:55:27Z</time>
      </trkpt>
      <trkpt lat="46.23744" lon="6.69702">
        <ele>1923.032</ele>
        <time>2026-03-08T11:55:32Z</time>
      </trkpt>
      <trkpt lat="46.23744" lon="6.69702">
        <ele>1923.02</ele>
        <time>2026-03-08T11:55:37Z</time>
      </trkpt>
      <trkpt lat="46.23744" lon="6.69702">
        <ele>1923.01</ele>
        <time>2026-03-08T11:55:42Z</time>
      </trkpt>
      <trkpt lat="46.23744" lon="6.69702">
        <ele>1923.006</ele>
        <time>2026-03-08T11:55:47Z</time>
      </trkpt>
      <trkpt lat="46.23744" lon="6.69702">
        <ele>1923.005</ele>
        <time>2026-03-08T11:55:52Z</time>
      </trkpt>
      <trkpt lat="46.23744" lon="6.69702">
        <ele>1923.002</ele>
        <time>2026-03-08T11:55:57Z</time>
      </trkpt>
      <trkpt lat="46.23744" lon="6.69702">
        <ele>1922.997</ele>
        <time>2026-03-08T11:56:02Z</time>
      </trkpt>
      <trkpt lat="46.23744" lon="6.69702">
        <ele>1922.983</ele>
        <time>2026-03-08T11:56:07Z</time>
      </trkpt>
      <trkpt lat="46.23744" lon="6.69702">
        <ele>1922.974</ele>
        <time>2026-03-08T11:56:12Z</time>
      </trkpt>
      <trkpt lat="46.23744" lon="6.69702">
        <ele>1922.962</ele>
        <time>2026-03-08T11:56:17Z</time>
      </trkpt>
      <trkpt lat="46.23744" lon="6.69702">
        <ele>1922.95</ele>
        <time>2026-03-08T11:56:22Z</time>
      </trkpt>
      <trkpt lat="46.23744" lon="6.69702">
        <ele>1922.936</ele>
        <time>2026-03-08T11:56:27Z</time>
      </trkpt>
      <trkpt lat="46.23744" lon="6.69702">
        <ele>1922.926</ele>
        <time>2026-03-08T11:56:32Z</time>
      </trkpt>
      <trkpt lat="46.23744" lon="6.69702">
        <ele>1922.915</ele>
        <time>2026-03-08T11:56:37Z</time>
      </trkpt>
      <trkpt lat="46.23744" lon="6.69702">
        <ele>1922.907</ele>
        <time>2026-03-08T11:56:42Z</time>
      </trkpt>
      <trkpt lat="46.23744" lon="6.69702">
        <ele>1922.89</ele>
        <time>2026-03-08T11:56:47Z</time>
      </trkpt>
      <trkpt lat="46.23744" lon="6.69702">
        <ele>1922.889</ele>
        <time>2026-03-08T11:56:52Z</time>
      </trkpt>
      <trkpt lat="46.23744" lon="6.69702">
        <ele>1922.88</ele>
        <time>2026-03-08T11:56:57Z</time>
      </trkpt>
      <trkpt lat="46.23744" lon="6.69702">
        <ele>1922.876</ele>
        <time>2026-03-08T11:57:02Z</time>
      </trkpt>
      <trkpt lat="46.23744" lon="6.69702">
        <ele>1922.865</ele>
        <time>2026-03-08T11:57:07Z</time>
      </trkpt>
      <trkpt lat="46.23744" lon="6.69702">
        <ele>1922.85</ele>
        <time>2026-03-08T11:57:12Z</time>
      </trkpt>
      <trkpt lat="46.23744" lon="6.69702">
        <ele>1922.844</ele>
        <time>2026-03-08T11:57:17Z</time>
      </trkpt>
      <trkpt lat="46.23744" lon="6.69702">
        <ele>1922.842</ele>
        <time>2026-03-08T11:57:22Z</time>
      </trkpt>
      <trkpt lat="46.23744" lon="6.69702">
        <ele>1922.838</ele>
        <time>2026-03-08T11:57:27Z</time>
      </trkpt>
      <trkpt lat="46.23744" lon="6.69702">
        <ele>1922.835</ele>
        <time>2026-03-08T11:57:32Z</time>
      </trkpt>
      <trkpt lat="46.23744" lon="6.69702">
        <ele>1922.828</ele>
        <time>2026-03-08T11:57:37Z</time>
      </trkpt>
      <trkpt lat="46.23744" lon="6.69702">
        <ele>1922.819</ele>
        <time>2026-03-08T11:57:42Z</time>
      </trkpt>
      <trkpt lat="46.23744" lon="6.69702">
        <ele>1922.811</ele>
        <time>2026-03-08T11:57:47Z</time>
      </trkpt>
      <trkpt lat="46.23744" lon="6.69702">
        <ele>1922.805</ele>
        <time>2026-03-08T11:57:52Z</time>
      </trkpt>
      <trkpt lat="46.23744" lon="6.69702">
        <ele>1922.796</ele>
        <time>2026-03-08T11:57:57Z</time>
      </trkpt>
      <trkpt lat="46.23744" lon="6.69702">
        <ele>1922.791</ele>
        <time>2026-03-08T11:58:02Z</time>
      </trkpt>
      <trkpt lat="46.23744" lon="6.69702">
        <ele>1922.784</ele>
        <time>2026-03-08T11:58:07Z</time>
      </trkpt>
      <trkpt lat="46.23744" lon="6.69702">
        <ele>1922.783</ele>
        <time>2026-03-08T11:58:12Z</time>
      </trkpt>
      <trkpt lat="46.23744" lon="6.69702">
        <ele>1922.782</ele>
        <time>2026-03-08T11:58:17Z</time>
      </trkpt>
      <trkpt lat="46.23744" lon="6.69702">
        <ele>1922.779</ele>
        <time>2026-03-08T11:58:22Z</time>
      </trkpt>
      <trkpt lat="46.23744" lon="6.69702">
        <ele>1922.783</ele>
        <time>2026-03-08T11:58:27Z</time>
      </trkpt>
      <trkpt lat="46.23744" lon="6.69702">
        <ele>1922.786</ele>
        <time>2026-03-08T11:58:32Z</time>
      </trkpt>
      <trkpt lat="46.23744" lon="6.69702">
        <ele>1922.752</ele>
        <time>2026-03-08T11:58:37Z</time>
      </trkpt>
      <trkpt lat="46.23744" lon="6.69702">
        <ele>1922.731</ele>
        <time>2026-03-08T11:58:42Z</time>
      </trkpt>
      <trkpt lat="46.23744" lon="6.69702">
        <ele>1922.711</ele>
        <time>2026-03-08T11:58:47Z</time>
      </trkpt>
      <trkpt lat="46.23744" lon="6.69702">
        <ele>1922.701</ele>
        <time>2026-03-08T11:58:52Z</time>
      </trkpt>
      <trkpt lat="46.23744" lon="6.69702">
        <ele>1922.695</ele>
        <time>2026-03-08T11:58:57Z</time>
      </trkpt>
      <trkpt lat="46.23744" lon="6.69702">
        <ele>1922.685</ele>
        <time>2026-03-08T11:59:02Z</time>
      </trkpt>
      <trkpt lat="46.23744" lon="6.69702">
        <ele>1922.673</ele>
        <time>2026-03-08T11:59:07Z</time>
      </trkpt>
      <trkpt lat="46.23744" lon="6.69702">
        <ele>1922.659</ele>
        <time>2026-03-08T11:59:12Z</time>
      </trkpt>
      <trkpt lat="46.23744" lon="6.69702">
        <ele>1922.639</ele>
        <time>2026-03-08T11:59:17Z</time>
      </trkpt>
      <trkpt lat="46.23744" lon="6.69702">
        <ele>1922.626</ele>
        <time>2026-03-08T11:59:22Z</time>
      </trkpt>
      <trkpt lat="46.23744" lon="6.69702">
        <ele>1922.609</ele>
        <time>2026-03-08T11:59:27Z</time>
      </trkpt>
      <trkpt lat="46.23744" lon="6.69702">
        <ele>1922.595</ele>
        <time>2026-03-08T11:59:32Z</time>
      </trkpt>
      <trkpt lat="46.23744" lon="6.69702">
        <ele>1922.579</ele>
        <time>2026-03-08T11:59:37Z</time>
      </trkpt>
      <trkpt lat="46.23744" lon="6.69702">
        <ele>1922.57</ele>
        <time>2026-03-08T11:59:42Z</time>
      </trkpt>
      <trkpt lat="46.23744" lon="6.69702">
        <ele>1922.554</ele>
        <time>2026-03-08T11:59:47Z</time>
      </trkpt>
      <trkpt lat="46.23744" lon="6.69702">
        <ele>1922.544</ele>
        <time>2026-03-08T11:59:52Z</time>
      </trkpt>
      <trkpt lat="46.23744" lon="6.69702">
        <ele>1922.537</ele>
        <time>2026-03-08T11:59:57Z</time>
      </trkpt>
      <trkpt lat="46.23744" lon="6.69702">
        <ele>1922.531</ele>
        <time>2026-03-08T12:00:02Z</time>
      </trkpt>
      <trkpt lat="46.23744" lon="6.69702">
        <ele>1922.527</ele>
        <time>2026-03-08T12:00:07Z</time>
      </trkpt>
      <trkpt lat="46.23744" lon="6.69702">
        <ele>1922.521</ele>
        <time>2026-03-08T12:00:12Z</time>
      </trkpt>
      <trkpt lat="46.23744" lon="6.69702">
        <ele>1922.512</ele>
        <time>2026-03-08T12:00:17Z</time>
      </trkpt>
      <trkpt lat="46.23744" lon="6.69702">
        <ele>1922.502</ele>
        <time>2026-03-08T12:00:22Z</time>
      </trkpt>
      <trkpt lat="46.23744" lon="6.69702">
        <ele>1922.496</ele>
        <time>2026-03-08T12:00:27Z</time>
      </trkpt>
      <trkpt lat="46.23744" lon="6.69702">
        <ele>1922.488</ele>
        <time>2026-03-08T12:00:32Z</time>
      </trkpt>
      <trkpt lat="46.23744" lon="6.69702">
        <ele>1922.479</ele>
        <time>2026-03-08T12:00:37Z</time>
      </trkpt>
      <trkpt lat="46.23744" lon="6.69702">
        <ele>1922.473</ele>
        <time>2026-03-08T12:00:42Z</time>
      </trkpt>
      <trkpt lat="46.23744" lon="6.69702">
        <ele>1922.461</ele>
        <time>2026-03-08T12:00:47Z</time>
      </trkpt>
      <trkpt lat="46.23744" lon="6.69702">
        <ele>1922.451</ele>
        <time>2026-03-08T12:00:52Z</time>
      </trkpt>
      <trkpt lat="46.23744" lon="6.69702">
        <ele>1922.446</ele>
        <time>2026-03-08T12:00:57Z</time>
      </trkpt>
      <trkpt lat="46.23744" lon="6.69702">
        <ele>1922.436</ele>
        <time>2026-03-08T12:01:02Z</time>
      </trkpt>
      <trkpt lat="46.23744" lon="6.69702">
        <ele>1922.428</ele>
        <time>2026-03-08T12:01:07Z</time>
      </trkpt>
      <trkpt lat="46.23744" lon="6.69702">
        <ele>1922.426</ele>
        <time>2026-03-08T12:01:12Z</time>
      </trkpt>
      <trkpt lat="46.23744" lon="6.69702">
        <ele>1922.417</ele>
        <time>2026-03-08T12:01:17Z</time>
      </trkpt>
      <trkpt lat="46.23744" lon="6.69702">
        <ele>1922.406</ele>
        <time>2026-03-08T12:01:22Z</time>
      </trkpt>
      <trkpt lat="46.23744" lon="6.69702">
        <ele>1922.399</ele>
        <time>2026-03-08T12:01:27Z</time>
      </trkpt>
      <trkpt lat="46.23744" lon="6.69702">
        <ele>1922.391</ele>
        <time>2026-03-08T12:01:32Z</time>
      </trkpt>
      <trkpt lat="46.23744" lon="6.69702">
        <ele>1922.379</ele>
        <time>2026-03-08T12:01:37Z</time>
      </trkpt>
      <trkpt lat="46.23744" lon="6.69702">
        <ele>1922.373</ele>
        <time>2026-03-08T12:01:42Z</time>
      </trkpt>
      <trkpt lat="46.23744" lon="6.69702">
        <ele>1922.366</ele>
        <time>2026-03-08T12:01:47Z</time>
      </trkpt>
      <trkpt lat="46.23744" lon="6.69702">
        <ele>1922.357</ele>
        <time>2026-03-08T12:01:52Z</time>
      </trkpt>
      <trkpt lat="46.23744" lon="6.69702">
        <ele>1922.357</ele>
        <time>2026-03-08T12:01:57Z</time>
      </trkpt>
      <trkpt lat="46.23744" lon="6.69702">
        <ele>1922.355</ele>
        <time>2026-03-08T12:02:02Z</time>
      </trkpt>
      <trkpt lat="46.23744" lon="6.69702">
        <ele>1922.34</ele>
        <time>2026-03-08T12:02:07Z</time>
      </trkpt>
      <trkpt lat="46.23744" lon="6.69702">
        <ele>1922.33</ele>
        <time>2026-03-08T12:02:12Z</time>
      </trkpt>
      <trkpt lat="46.23744" lon="6.69702">
        <ele>1922.32</ele>
        <time>2026-03-08T12:02:17Z</time>
      </trkpt>
      <trkpt lat="46.23744" lon="6.69702">
        <ele>1922.328</ele>
        <time>2026-03-08T12:02:22Z</time>
      </trkpt>
      <trkpt lat="46.23744" lon="6.69702">
        <ele>1922.317</ele>
        <time>2026-03-08T12:02:27Z</time>
      </trkpt>
      <trkpt lat="46.23744" lon="6.69702">
        <ele>1922.312</ele>
        <time>2026-03-08T12:02:32Z</time>
      </trkpt>
      <trkpt lat="46.23744" lon="6.69702">
        <ele>1922.3</ele>
        <time>2026-03-08T12:02:37Z</time>
      </trkpt>
      <trkpt lat="46.23744" lon="6.69702">
        <ele>1922.292</ele>
        <time>2026-03-08T12:02:42Z</time>
      </trkpt>
      <trkpt lat="46.23744" lon="6.69702">
        <ele>1922.291</ele>
        <time>2026-03-08T12:02:47Z</time>
      </trkpt>
      <trkpt lat="46.23744" lon="6.69702">
        <ele>1922.288</ele>
        <time>2026-03-08T12:02:52Z</time>
      </trkpt>
      <trkpt lat="46.23744" lon="6.69702">
        <ele>1922.287</ele>
        <time>2026-03-08T12:02:57Z</time>
      </trkpt>
      <trkpt lat="46.23744" lon="6.69702">
        <ele>1922.282</ele>
        <time>2026-03-08T12:03:02Z</time>
      </trkpt>
      <trkpt lat="46.23744" lon="6.69702">
        <ele>1922.277</ele>
        <time>2026-03-08T12:03:07Z</time>
      </trkpt>
      <trkpt lat="46.23744" lon="6.69702">
        <ele>1922.281</ele>
        <time>2026-03-08T12:03:12Z</time>
      </trkpt>
      <trkpt lat="46.23744" lon="6.69702">
        <ele>1922.279</ele>
        <time>2026-03-08T12:03:17Z</time>
      </trkpt>
      <trkpt lat="46.23744" lon="6.69702">
        <ele>1922.276</ele>
        <time>2026-03-08T12:03:22Z</time>
      </trkpt>
      <trkpt lat="46.23744" lon="6.69702">
        <ele>1922.279</ele>
        <time>2026-03-08T12:03:27Z</time>
      </trkpt>
      <trkpt lat="46.23744" lon="6.69702">
        <ele>1922.287</ele>
        <time>2026-03-08T12:03:32Z</time>
      </trkpt>
      <trkpt lat="46.23744" lon="6.69702">
        <ele>1922.285</ele>
        <time>2026-03-08T12:03:37Z</time>
      </trkpt>
      <trkpt lat="46.23744" lon="6.69702">
        <ele>1922.274</ele>
        <time>2026-03-08T12:03:42Z</time>
      </trkpt>
      <trkpt lat="46.23744" lon="6.69702">
        <ele>1922.264</ele>
        <time>2026-03-08T12:03:47Z</time>
      </trkpt>
      <trkpt lat="46.23744" lon="6.69702">
        <ele>1922.257</ele>
        <time>2026-03-08T12:03:52Z</time>
      </trkpt>
      <trkpt lat="46.23744" lon="6.69702">
        <ele>1922.252</ele>
        <time>2026-03-08T12:03:57Z</time>
      </trkpt>
      <trkpt lat="46.23744" lon="6.69702">
        <ele>1922.247</ele>
        <time>2026-03-08T12:04:02Z</time>
      </trkpt>
      <trkpt lat="46.23744" lon="6.69702">
        <ele>1922.231</ele>
        <time>2026-03-08T12:04:07Z</time>
      </trkpt>
      <trkpt lat="46.23744" lon="6.69702">
        <ele>1922.219</ele>
        <time>2026-03-08T12:04:12Z</time>
      </trkpt>
      <trkpt lat="46.23744" lon="6.69702">
        <ele>1922.209</ele>
        <time>2026-03-08T12:04:17Z</time>
      </trkpt>
      <trkpt lat="46.23744" lon="6.69702">
        <ele>1922.203</ele>
        <time>2026-03-08T12:04:22Z</time>
      </trkpt>
      <trkpt lat="46.23744" lon="6.69702">
        <ele>1922.197</ele>
        <time>2026-03-08T12:04:27Z</time>
      </trkpt>
      <trkpt lat="46.23744" lon="6.69702">
        <ele>1922.19</ele>
        <time>2026-03-08T12:04:32Z</time>
      </trkpt>
      <trkpt lat="46.23744" lon="6.69702">
        <ele>1922.175</ele>
        <time>2026-03-08T12:04:37Z</time>
      </trkpt>
      <trkpt lat="46.23744" lon="6.69702">
        <ele>1922.17</ele>
        <time>2026-03-08T12:04:42Z</time>
      </trkpt>
      <trkpt lat="46.23744" lon="6.69702">
        <ele>1922.156</ele>
        <time>2026-03-08T12:04:47Z</time>
      </trkpt>
      <trkpt lat="46.23744" lon="6.69702">
        <ele>1922.151</ele>
        <time>2026-03-08T12:04:52Z</time>
      </trkpt>
      <trkpt lat="46.23744" lon="6.69702">
        <ele>1922.145</ele>
        <time>2026-03-08T12:04:57Z</time>
      </trkpt>
      <trkpt lat="46.23744" lon="6.69702">
        <ele>1922.139</ele>
        <time>2026-03-08T12:05:02Z</time>
      </trkpt>
      <trkpt lat="46.23744" lon="6.69702">
        <ele>1922.134</ele>
        <time>2026-03-08T12:05:07Z</time>
      </trkpt>
      <trkpt lat="46.23744" lon="6.69702">
        <ele>1922.126</ele>
        <time>2026-03-08T12:05:12Z</time>
      </trkpt>
      <trkpt lat="46.23744" lon="6.69702">
        <ele>1922.127</ele>
        <time>2026-03-08T12:05:17Z</time>
      </trkpt>
      <trkpt lat="46.23744" lon="6.69702">
        <ele>1922.115</ele>
        <time>2026-03-08T12:05:22Z</time>
      </trkpt>
      <trkpt lat="46.23744" lon="6.69702">
        <ele>1922.109</ele>
        <time>2026-03-08T12:05:27Z</time>
      </trkpt>
      <trkpt lat="46.23744" lon="6.69702">
        <ele>1922.098</ele>
        <time>2026-03-08T12:05:32Z</time>
      </trkpt>
      <trkpt lat="46.23744" lon="6.69702">
        <ele>1922.086</ele>
        <time>2026-03-08T12:05:37Z</time>
      </trkpt>
      <trkpt lat="46.23744" lon="6.69702">
        <ele>1922.07</ele>
        <time>2026-03-08T12:05:42Z</time>
      </trkpt>
      <trkpt lat="46.23744" lon="6.69702">
        <ele>1922.061</ele>
        <time>2026-03-08T12:05:47Z</time>
      </trkpt>
      <trkpt lat="46.23744" lon="6.69702">
        <ele>1922.052</ele>
        <time>2026-03-08T12:05:52Z</time>
      </trkpt>
      <trkpt lat="46.23744" lon="6.69702">
        <ele>1922.041</ele>
        <time>2026-03-08T12:05:57Z</time>
      </trkpt>
      <trkpt lat="46.23744" lon="6.69702">
        <ele>1922.027</ele>
        <time>2026-03-08T12:06:02Z</time>
      </trkpt>
      <trkpt lat="46.23744" lon="6.69702">
        <ele>1922.014</ele>
        <time>2026-03-08T12:06:07Z</time>
      </trkpt>
      <trkpt lat="46.23744" lon="6.69702">
        <ele>1921.999</ele>
        <time>2026-03-08T12:06:12Z</time>
      </trkpt>
      <trkpt lat="46.23744" lon="6.69702">
        <ele>1921.985</ele>
        <time>2026-03-08T12:06:17Z</time>
      </trkpt>
      <trkpt lat="46.23744" lon="6.69702">
        <ele>1921.977</ele>
        <time>2026-03-08T12:06:22Z</time>
      </trkpt>
      <trkpt lat="46.23744" lon="6.69702">
        <ele>1921.969</ele>
        <time>2026-03-08T12:06:27Z</time>
      </trkpt>
      <trkpt lat="46.23744" lon="6.69702">
        <ele>1921.958</ele>
        <time>2026-03-08T12:06:32Z</time>
      </trkpt>
      <trkpt lat="46.23744" lon="6.69702">
        <ele>1921.949</ele>
        <time>2026-03-08T12:06:37Z</time>
      </trkpt>
      <trkpt lat="46.23744" lon="6.69702">
        <ele>1921.94</ele>
        <time>2026-03-08T12:06:42Z</time>
      </trkpt>
      <trkpt lat="46.23744" lon="6.69702">
        <ele>1921.927</ele>
        <time>2026-03-08T12:06:47Z</time>
      </trkpt>
      <trkpt lat="46.23744" lon="6.69702">
        <ele>1921.912</ele>
        <time>2026-03-08T12:06:52Z</time>
      </trkpt>
      <trkpt lat="46.23744" lon="6.69702">
        <ele>1921.899</ele>
        <time>2026-03-08T12:06:57Z</time>
      </trkpt>
      <trkpt lat="46.23744" lon="6.69702">
        <ele>1921.885</ele>
        <time>2026-03-08T12:07:02Z</time>
      </trkpt>
      <trkpt lat="46.23744" lon="6.69702">
        <ele>1921.871</ele>
        <time>2026-03-08T12:07:07Z</time>
      </trkpt>
      <trkpt lat="46.23744" lon="6.69702">
        <ele>1921.856</ele>
        <time>2026-03-08T12:07:12Z</time>
      </trkpt>
      <trkpt lat="46.23744" lon="6.69702">
        <ele>1921.846</ele>
        <time>2026-03-08T12:07:17Z</time>
      </trkpt>
      <trkpt lat="46.23744" lon="6.69702">
        <ele>1921.837</ele>
        <time>2026-03-08T12:07:22Z</time>
      </trkpt>
      <trkpt lat="46.23744" lon="6.69702">
        <ele>1921.826</ele>
        <time>2026-03-08T12:07:27Z</time>
      </trkpt>
      <trkpt lat="46.23744" lon="6.69702">
        <ele>1921.825</ele>
        <time>2026-03-08T12:07:32Z</time>
      </trkpt>
      <trkpt lat="46.23744" lon="6.69702">
        <ele>1921.824</ele>
        <time>2026-03-08T12:07:37Z</time>
      </trkpt>
      <trkpt lat="46.23744" lon="6.69702">
        <ele>1921.82</ele>
        <time>2026-03-08T12:07:42Z</time>
      </trkpt>
      <trkpt lat="46.23744" lon="6.69702">
        <ele>1921.818</ele>
        <time>2026-03-08T12:07:47Z</time>
      </trkpt>
      <trkpt lat="46.23744" lon="6.69702">
        <ele>1921.811</ele>
        <time>2026-03-08T12:07:52Z</time>
      </trkpt>
      <trkpt lat="46.23744" lon="6.69702">
        <ele>1921.801</ele>
        <time>2026-03-08T12:07:57Z</time>
      </trkpt>
      <trkpt lat="46.23744" lon="6.69702">
        <ele>1921.796</ele>
        <time>2026-03-08T12:08:02Z</time>
      </trkpt>
      <trkpt lat="46.23744" lon="6.69702">
        <ele>1921.785</ele>
        <time>2026-03-08T12:08:07Z</time>
      </trkpt>
      <trkpt lat="46.23744" lon="6.69702">
        <ele>1921.774</ele>
        <time>2026-03-08T12:08:12Z</time>
      </trkpt>
      <trkpt lat="46.23744" lon="6.69702">
        <ele>1921.77</ele>
        <time>2026-03-08T12:08:17Z</time>
      </trkpt>
      <trkpt lat="46.23744" lon="6.69702">
        <ele>1921.762</ele>
        <time>2026-03-08T12:08:22Z</time>
      </trkpt>
      <trkpt lat="46.23744" lon="6.69702">
        <ele>1921.761</ele>
        <time>2026-03-08T12:08:27Z</time>
      </trkpt>
      <trkpt lat="46.23744" lon="6.69702">
        <ele>1922.398</ele>
        <time>2026-03-08T12:08:32Z</time>
      </trkpt>
      <trkpt lat="46.23744" lon="6.69702">
        <ele>1921.876</ele>
        <time>2026-03-08T12:08:37Z</time>
      </trkpt>
      <trkpt lat="46.23744" lon="6.69702">
        <ele>1921.471</ele>
        <time>2026-03-08T12:08:42Z</time>
      </trkpt>
      <trkpt lat="46.23744" lon="6.69702">
        <ele>1921.933</ele>
        <time>2026-03-08T12:08:47Z</time>
      </trkpt>
      <trkpt lat="46.23744" lon="6.69702">
        <ele>1921.935</ele>
        <time>2026-03-08T12:08:52Z</time>
      </trkpt>
      <trkpt lat="46.23744" lon="6.69702">
        <ele>1921.941</ele>
        <time>2026-03-08T12:08:57Z</time>
      </trkpt>
      <trkpt lat="46.23744" lon="6.69702">
        <ele>1921.945</ele>
        <time>2026-03-08T12:09:02Z</time>
      </trkpt>
      <trkpt lat="46.23744" lon="6.69702">
        <ele>1921.951</ele>
        <time>2026-03-08T12:09:07Z</time>
      </trkpt>
      <trkpt lat="46.23744" lon="6.69702">
        <ele>1922.373</ele>
        <time>2026-03-08T12:09:12Z</time>
      </trkpt>
      <trkpt lat="46.23744" lon="6.69702">
        <ele>1923.31</ele>
        <time>2026-03-08T12:09:17Z</time>
      </trkpt>
      <trkpt lat="46.23744" lon="6.69702">
        <ele>1923.488</ele>
        <time>2026-03-08T12:09:22Z</time>
      </trkpt>
      <trkpt lat="46.23744" lon="6.69702">
        <ele>1923.499</ele>
        <time>2026-03-08T12:09:27Z</time>
      </trkpt>
      <trkpt lat="46.23744" lon="6.69702">
        <ele>1923.503</ele>
        <time>2026-03-08T12:09:32Z</time>
      </trkpt>
      <trkpt lat="46.23744" lon="6.69702">
        <ele>1923.516</ele>
        <time>2026-03-08T12:09:37Z</time>
      </trkpt>
      <trkpt lat="46.23744" lon="6.69702">
        <ele>1923.523</ele>
        <time>2026-03-08T12:09:42Z</time>
      </trkpt>
      <trkpt lat="46.23744" lon="6.69702">
        <ele>1923.979</ele>
        <time>2026-03-08T12:09:47Z</time>
      </trkpt>
      <trkpt lat="46.23744" lon="6.69702">
        <ele>1923.759</ele>
        <time>2026-03-08T12:09:52Z</time>
      </trkpt>
      <trkpt lat="46.23744" lon="6.69702">
        <ele>1923.759</ele>
        <time>2026-03-08T12:09:57Z</time>
      </trkpt>
      <trkpt lat="46.23744" lon="6.69702">
        <ele>1923.761</ele>
        <time>2026-03-08T12:10:02Z</time>
      </trkpt>
      <trkpt lat="46.23744" lon="6.69702">
        <ele>1923.765</ele>
        <time>2026-03-08T12:10:07Z</time>
      </trkpt>
      <trkpt lat="46.23744" lon="6.69702">
        <ele>1923.768</ele>
        <time>2026-03-08T12:10:12Z</time>
      </trkpt>
      <trkpt lat="46.23744" lon="6.69702">
        <ele>1923.768</ele>
        <time>2026-03-08T12:10:17Z</time>
      </trkpt>
      <trkpt lat="46.23744" lon="6.69702">
        <ele>1923.766</ele>
        <time>2026-03-08T12:10:22Z</time>
      </trkpt>
      <trkpt lat="46.23744" lon="6.69702">
        <ele>1923.766</ele>
        <time>2026-03-08T12:10:27Z</time>
      </trkpt>
      <trkpt lat="46.23744" lon="6.69702">
        <ele>1923.768</ele>
        <time>2026-03-08T12:10:32Z</time>
      </trkpt>
      <trkpt lat="46.23744" lon="6.69702">
        <ele>1923.761</ele>
        <time>2026-03-08T12:10:37Z</time>
      </trkpt>
      <trkpt lat="46.23744" lon="6.69702">
        <ele>1923.758</ele>
        <time>2026-03-08T12:10:42Z</time>
      </trkpt>
      <trkpt lat="46.23744" lon="6.69702">
        <ele>1923.759</ele>
        <time>2026-03-08T12:10:47Z</time>
      </trkpt>
      <trkpt lat="46.23744" lon="6.69702">
        <ele>1923.757</ele>
        <time>2026-03-08T12:10:52Z</time>
      </trkpt>
      <trkpt lat="46.23744" lon="6.69702">
        <ele>1923.757</ele>
        <time>2026-03-08T12:10:57Z</time>
      </trkpt>
      <trkpt lat="46.23744" lon="6.69702">
        <ele>1923.758</ele>
        <time>2026-03-08T12:11:02Z</time>
      </trkpt>
      <trkpt lat="46.23744" lon="6.69702">
        <ele>1923.759</ele>
        <time>2026-03-08T12:11:07Z</time>
      </trkpt>
      <trkpt lat="46.23744" lon="6.69702">
        <ele>1923.761</ele>
        <time>2026-03-08T12:11:12Z</time>
      </trkpt>
      <trkpt lat="46.23744" lon="6.69702">
        <ele>1923.762</ele>
        <time>2026-03-08T12:11:17Z</time>
      </trkpt>
      <trkpt lat="46.23744" lon="6.69702">
        <ele>1923.764</ele>
        <time>2026-03-08T12:11:22Z</time>
      </trkpt>
      <trkpt lat="46.23744" lon="6.69702">
        <ele>1923.766</ele>
        <time>2026-03-08T12:11:27Z</time>
      </trkpt>
      <trkpt lat="46.23744" lon="6.69702">
        <ele>1923.769</ele>
        <time>2026-03-08T12:11:32Z</time>
      </trkpt>
      <trkpt lat="46.23744" lon="6.69702">
        <ele>1923.767</ele>
        <time>2026-03-08T12:11:37Z</time>
      </trkpt>
      <trkpt lat="46.23744" lon="6.69702">
        <ele>1923.813</ele>
        <time>2026-03-08T12:11:42Z</time>
      </trkpt>
      <trkpt lat="46.23744" lon="6.69702">
        <ele>1923.914</ele>
        <time>2026-03-08T12:11:47Z</time>
      </trkpt>
      <trkpt lat="46.23744" lon="6.69702">
        <ele>1923.927</ele>
        <time>2026-03-08T12:11:52Z</time>
      </trkpt>
      <trkpt lat="46.23744" lon="6.69702">
        <ele>1923.933</ele>
        <time>2026-03-08T12:11:57Z</time>
      </trkpt>
      <trkpt lat="46.23744" lon="6.69702">
        <ele>1923.938</ele>
        <time>2026-03-08T12:12:02Z</time>
      </trkpt>
      <trkpt lat="46.23744" lon="6.69702">
        <ele>1923.947</ele>
        <time>2026-03-08T12:12:07Z</time>
      </trkpt>
      <trkpt lat="46.23744" lon="6.69702">
        <ele>1923.957</ele>
        <time>2026-03-08T12:12:12Z</time>
      </trkpt>
      <trkpt lat="46.23744" lon="6.69702">
        <ele>1923.959</ele>
        <time>2026-03-08T12:12:17Z</time>
      </trkpt>
      <trkpt lat="46.23744" lon="6.69702">
        <ele>1923.962</ele>
        <time>2026-03-08T12:12:22Z</time>
      </trkpt>
      <trkpt lat="46.23744" lon="6.69702">
        <ele>1923.965</ele>
        <time>2026-03-08T12:12:27Z</time>
      </trkpt>
      <trkpt lat="46.23744" lon="6.69702">
        <ele>1923.98</ele>
        <time>2026-03-08T12:12:32Z</time>
      </trkpt>
      <trkpt lat="46.23744" lon="6.69702">
        <ele>1923.982</ele>
        <time>2026-03-08T12:12:37Z</time>
      </trkpt>
      <trkpt lat="46.23744" lon="6.69702">
        <ele>1923.983</ele>
        <time>2026-03-08T12:12:42Z</time>
      </trkpt>
      <trkpt lat="46.23744" lon="6.69702">
        <ele>1923.984</ele>
        <time>2026-03-08T12:12:47Z</time>
      </trkpt>
      <trkpt lat="46.23744" lon="6.69702">
        <ele>1923.983</ele>
        <time>2026-03-08T12:12:52Z</time>
      </trkpt>
      <trkpt lat="46.23744" lon="6.69702">
        <ele>1923.987</ele>
        <time>2026-03-08T12:12:57Z</time>
      </trkpt>
      <trkpt lat="46.23744" lon="6.69702">
        <ele>1923.988</ele>
        <time>2026-03-08T12:13:02Z</time>
      </trkpt>
      <trkpt lat="46.23744" lon="6.69702">
        <ele>1924</ele>
        <time>2026-03-08T12:13:07Z</time>
      </trkpt>
      <trkpt lat="46.23744" lon="6.69702">
        <ele>1924.007</ele>
        <time>2026-03-08T12:13:12Z</time>
      </trkpt>
      <trkpt lat="46.23744" lon="6.69702">
        <ele>1924.016</ele>
        <time>2026-03-08T12:13:17Z</time>
      </trkpt>
      <trkpt lat="46.23744" lon="6.69702">
        <ele>1924.004</ele>
        <time>2026-03-08T12:13:22Z</time>
      </trkpt>
      <trkpt lat="46.23744" lon="6.69702">
        <ele>1924.009</ele>
        <time>2026-03-08T12:13:27Z</time>
      </trkpt>
      <trkpt lat="46.23744" lon="6.69702">
        <ele>1923.981</ele>
        <time>2026-03-08T12:13:32Z</time>
      </trkpt>
      <trkpt lat="46.23744" lon="6.69702">
        <ele>1923.979</ele>
        <time>2026-03-08T12:13:37Z</time>
      </trkpt>
      <trkpt lat="46.23744" lon="6.69702">
        <ele>1923.98</ele>
        <time>2026-03-08T12:13:42Z</time>
      </trkpt>
      <trkpt lat="46.23744" lon="6.69702">
        <ele>1923.977</ele>
        <time>2026-03-08T12:13:47Z</time>
      </trkpt>
      <trkpt lat="46.23744" lon="6.69702">
        <ele>1923.975</ele>
        <time>2026-03-08T12:13:52Z</time>
      </trkpt>
      <trkpt lat="46.23744" lon="6.69702">
        <ele>1923.975</ele>
        <time>2026-03-08T12:13:57Z</time>
      </trkpt>
      <trkpt lat="46.23744" lon="6.69702">
        <ele>1923.974</ele>
        <time>2026-03-08T12:14:02Z</time>
      </trkpt>
      <trkpt lat="46.23744" lon="6.69702">
        <ele>1923.973</ele>
        <time>2026-03-08T12:14:07Z</time>
      </trkpt>
      <trkpt lat="46.23744" lon="6.69702">
        <ele>1923.973</ele>
        <time>2026-03-08T12:14:12Z</time>
      </trkpt>
      <trkpt lat="46.23744" lon="6.69702">
        <ele>1923.976</ele>
        <time>2026-03-08T12:14:17Z</time>
      </trkpt>
      <trkpt lat="46.23744" lon="6.69702">
        <ele>1923.974</ele>
        <time>2026-03-08T12:14:22Z</time>
      </trkpt>
      <trkpt lat="46.23744" lon="6.69702">
        <ele>1923.971</ele>
        <time>2026-03-08T12:14:27Z</time>
      </trkpt>
      <trkpt lat="46.23744" lon="6.69702">
        <ele>1923.968</ele>
        <time>2026-03-08T12:14:32Z</time>
      </trkpt>
      <trkpt lat="46.23744" lon="6.69702">
        <ele>1923.969</ele>
        <time>2026-03-08T12:14:37Z</time>
      </trkpt>
      <trkpt lat="46.23744" lon="6.69702">
        <ele>1923.971</ele>
        <time>2026-03-08T12:14:42Z</time>
      </trkpt>
      <trkpt lat="46.23744" lon="6.69702">
        <ele>1923.972</ele>
        <time>2026-03-08T12:14:47Z</time>
      </trkpt>
      <trkpt lat="46.23744" lon="6.69702">
        <ele>1923.975</ele>
        <time>2026-03-08T12:14:52Z</time>
      </trkpt>
      <trkpt lat="46.23744" lon="6.69702">
        <ele>1923.975</ele>
        <time>2026-03-08T12:14:57Z</time>
      </trkpt>
      <trkpt lat="46.23744" lon="6.69702">
        <ele>1924.317</ele>
        <time>2026-03-08T12:15:02Z</time>
      </trkpt>
      <trkpt lat="46.23744" lon="6.69702">
        <ele>1924.317</ele>
        <time>2026-03-08T12:15:07Z</time>
      </trkpt>
      <trkpt lat="46.23744" lon="6.69702">
        <ele>1924.192</ele>
        <time>2026-03-08T12:15:12Z</time>
      </trkpt>
      <trkpt lat="46.23744" lon="6.69702">
        <ele>1924.201</ele>
        <time>2026-03-08T12:15:17Z</time>
      </trkpt>
      <trkpt lat="46.23744" lon="6.69702">
        <ele>1924.184</ele>
        <time>2026-03-08T12:15:22Z</time>
      </trkpt>
      <trkpt lat="46.23744" lon="6.69702">
        <ele>1924.053</ele>
        <time>2026-03-08T12:15:27Z</time>
      </trkpt>
      <trkpt lat="46.23744" lon="6.69702">
        <ele>1924.069</ele>
        <time>2026-03-08T12:15:32Z</time>
      </trkpt>
      <trkpt lat="46.23744" lon="6.69702">
        <ele>1924.115</ele>
        <time>2026-03-08T12:15:37Z</time>
      </trkpt>
      <trkpt lat="46.23744" lon="6.69702">
        <ele>1923.796</ele>
        <time>2026-03-08T12:15:42Z</time>
      </trkpt>
      <trkpt lat="46.23744" lon="6.69702">
        <ele>1923.992</ele>
        <time>2026-03-08T12:15:47Z</time>
      </trkpt>
      <trkpt lat="46.23744" lon="6.69702">
        <ele>1924.532</ele>
        <time>2026-03-08T12:15:52Z</time>
      </trkpt>
      <trkpt lat="46.23744" lon="6.69702">
        <ele>1924.54</ele>
        <time>2026-03-08T12:15:57Z</time>
      </trkpt>
      <trkpt lat="46.23744" lon="6.69702">
        <ele>1924.327</ele>
        <time>2026-03-08T12:16:02Z</time>
      </trkpt>
      <trkpt lat="46.23744" lon="6.69702">
        <ele>1924.054</ele>
        <time>2026-03-08T12:16:07Z</time>
      </trkpt>
      <trkpt lat="46.23744" lon="6.69702">
        <ele>1923.911</ele>
        <time>2026-03-08T12:16:12Z</time>
      </trkpt>
      <trkpt lat="46.23744" lon="6.69702">
        <ele>1924.309</ele>
        <time>2026-03-08T12:16:17Z</time>
      </trkpt>
      <trkpt lat="46.23744" lon="6.69702">
        <ele>1924.524</ele>
        <time>2026-03-08T12:16:22Z</time>
      </trkpt>
      <trkpt lat="46.23744" lon="6.69702">
        <ele>1924.523</ele>
        <time>2026-03-08T12:16:27Z</time>
      </trkpt>
      <trkpt lat="46.23744" lon="6.69702">
        <ele>1924.525</ele>
        <time>2026-03-08T12:16:32Z</time>
      </trkpt>
      <trkpt lat="46.23744" lon="6.69702">
        <ele>1924.523</ele>
        <time>2026-03-08T12:16:37Z</time>
      </trkpt>
      <trkpt lat="46.23744" lon="6.69702">
        <ele>1924.524</ele>
        <time>2026-03-08T12:16:42Z</time>
      </trkpt>
      <trkpt lat="46.23744" lon="6.69702">
        <ele>1924.529</ele>
        <time>2026-03-08T12:16:47Z</time>
      </trkpt>
      <trkpt lat="46.23744" lon="6.69702">
        <ele>1924.533</ele>
        <time>2026-03-08T12:16:52Z</time>
      </trkpt>
      <trkpt lat="46.23744" lon="6.69702">
        <ele>1924.534</ele>
        <time>2026-03-08T12:16:57Z</time>
      </trkpt>
      <trkpt lat="46.23744" lon="6.69702">
        <ele>1924.54</ele>
        <time>2026-03-08T12:17:02Z</time>
      </trkpt>
      <trkpt lat="46.23744" lon="6.69702">
        <ele>1924.546</ele>
        <time>2026-03-08T12:17:07Z</time>
      </trkpt>
      <trkpt lat="46.23744" lon="6.69702">
        <ele>1924.55</ele>
        <time>2026-03-08T12:17:12Z</time>
      </trkpt>
      <trkpt lat="46.23744" lon="6.69702">
        <ele>1924.553</ele>
        <time>2026-03-08T12:17:17Z</time>
      </trkpt>
      <trkpt lat="46.23744" lon="6.69702">
        <ele>1925.405</ele>
        <time>2026-03-08T12:17:22Z</time>
      </trkpt>
      <trkpt lat="46.23744" lon="6.69702">
        <ele>1925.569</ele>
        <time>2026-03-08T12:17:27Z</time>
      </trkpt>
      <trkpt lat="46.23744" lon="6.69702">
        <ele>1924.973</ele>
        <time>2026-03-08T12:17:32Z</time>
      </trkpt>
      <trkpt lat="46.23744" lon="6.69702">
        <ele>1924.976</ele>
        <time>2026-03-08T12:17:37Z</time>
      </trkpt>
      <trkpt lat="46.23744" lon="6.69702">
        <ele>1925.031</ele>
        <time>2026-03-08T12:17:42Z</time>
      </trkpt>
      <trkpt lat="46.23744" lon="6.69702">
        <ele>1925.456</ele>
        <time>2026-03-08T12:17:47Z</time>
      </trkpt>
      <trkpt lat="46.23744" lon="6.69702">
        <ele>1925.393</ele>
        <time>2026-03-08T12:17:52Z</time>
      </trkpt>
      <trkpt lat="46.23744" lon="6.69702">
        <ele>1925.394</ele>
        <time>2026-03-08T12:17:57Z</time>
      </trkpt>
      <trkpt lat="46.23744" lon="6.69702">
        <ele>1925.664</ele>
        <time>2026-03-08T12:18:02Z</time>
      </trkpt>
      <trkpt lat="46.23744" lon="6.69702">
        <ele>1925.552</ele>
        <time>2026-03-08T12:18:07Z</time>
      </trkpt>
      <trkpt lat="46.23741" lon="6.69705">
        <ele>1925.556</ele>
        <time>2026-03-08T12:18:12Z</time>
      </trkpt>
      <trkpt lat="46.23741" lon="6.69705">
        <ele>1925.557</ele>
        <time>2026-03-08T12:18:17Z</time>
      </trkpt>
      <trkpt lat="46.23741" lon="6.69705">
        <ele>1925.737</ele>
        <time>2026-03-08T12:18:22Z</time>
      </trkpt>
      <trkpt lat="46.2374" lon="6.69704">
        <ele>1925.615</ele>
        <time>2026-03-08T12:18:27Z</time>
      </trkpt>
      <trkpt lat="46.2374" lon="6.69705">
        <ele>1925.608</ele>
        <time>2026-03-08T12:18:32Z</time>
      </trkpt>
      <trkpt lat="46.2374" lon="6.69705">
        <ele>1925.614</ele>
        <time>2026-03-08T12:18:37Z</time>
      </trkpt>
      <trkpt lat="46.2374" lon="6.69705">
        <ele>1926.011</ele>
        <time>2026-03-08T12:18:42Z</time>
      </trkpt>
      <trkpt lat="46.23741" lon="6.69705">
        <ele>1925.837</ele>
        <time>2026-03-08T12:18:47Z</time>
      </trkpt>
      <trkpt lat="46.23744" lon="6.69703">
        <ele>1925.603</ele>
        <time>2026-03-08T12:18:52Z</time>
      </trkpt>
      <trkpt lat="46.23746" lon="6.697">
        <ele>1925.331</ele>
        <time>2026-03-08T12:18:57Z</time>
      </trkpt>
      <trkpt lat="46.23748" lon="6.69697">
        <ele>1925.33</ele>
        <time>2026-03-08T12:19:02Z</time>
      </trkpt>
      <trkpt lat="46.23749" lon="6.69697">
        <ele>1924.386</ele>
        <time>2026-03-08T12:19:07Z</time>
      </trkpt>
      <trkpt lat="46.23749" lon="6.69696">
        <ele>1924.577</ele>
        <time>2026-03-08T12:19:12Z</time>
      </trkpt>
      <trkpt lat="46.23751" lon="6.69693">
        <ele>1924.677</ele>
        <time>2026-03-08T12:19:17Z</time>
      </trkpt>
      <trkpt lat="46.23753" lon="6.6969">
        <ele>1925.328</ele>
        <time>2026-03-08T12:19:22Z</time>
      </trkpt>
      <trkpt lat="46.23754" lon="6.69687">
        <ele>1925.89</ele>
        <time>2026-03-08T12:19:27Z</time>
      </trkpt>
      <trkpt lat="46.23755" lon="6.69685">
        <ele>1926.255</ele>
        <time>2026-03-08T12:19:32Z</time>
      </trkpt>
      <trkpt lat="46.23757" lon="6.69683">
        <ele>1926.908</ele>
        <time>2026-03-08T12:19:37Z</time>
      </trkpt>
      <trkpt lat="46.23759" lon="6.69681">
        <ele>1927.089</ele>
        <time>2026-03-08T12:19:42Z</time>
      </trkpt>
      <trkpt lat="46.2376" lon="6.69678">
        <ele>1927.385</ele>
        <time>2026-03-08T12:19:47Z</time>
      </trkpt>
      <trkpt lat="46.23763" lon="6.69674">
        <ele>1927.071</ele>
        <time>2026-03-08T12:19:52Z</time>
      </trkpt>
      <trkpt lat="46.23765" lon="6.69671">
        <ele>1926.444</ele>
        <time>2026-03-08T12:19:57Z</time>
      </trkpt>
      <trkpt lat="46.23768" lon="6.6967">
        <ele>1926.445</ele>
        <time>2026-03-08T12:20:02Z</time>
      </trkpt>
      <trkpt lat="46.2377" lon="6.69669">
        <ele>1926.356</ele>
        <time>2026-03-08T12:20:07Z</time>
      </trkpt>
      <trkpt lat="46.23771" lon="6.69665">
        <ele>1925.833</ele>
        <time>2026-03-08T12:20:12Z</time>
      </trkpt>
      <trkpt lat="46.23774" lon="6.69663">
        <ele>1927.382</ele>
        <time>2026-03-08T12:20:17Z</time>
      </trkpt>
      <trkpt lat="46.23776" lon="6.69661">
        <ele>1927.366</ele>
        <time>2026-03-08T12:20:22Z</time>
      </trkpt>
      <trkpt lat="46.23779" lon="6.69659">
        <ele>1926.549</ele>
        <time>2026-03-08T12:20:27Z</time>
      </trkpt>
      <trkpt lat="46.23783" lon="6.69657">
        <ele>1926.148</ele>
        <time>2026-03-08T12:20:32Z</time>
      </trkpt>
      <trkpt lat="46.23785" lon="6.69656">
        <ele>1927.043</ele>
        <time>2026-03-08T12:20:37Z</time>
      </trkpt>
      <trkpt lat="46.23785" lon="6.69656">
        <ele>1927.391</ele>
        <time>2026-03-08T12:20:42Z</time>
      </trkpt>
      <trkpt lat="46.23785" lon="6.69656">
        <ele>1927.43</ele>
        <time>2026-03-08T12:20:47Z</time>
      </trkpt>
      <trkpt lat="46.23785" lon="6.69656">
        <ele>1927.549</ele>
        <time>2026-03-08T12:20:52Z</time>
      </trkpt>
      <trkpt lat="46.23785" lon="6.69656">
        <ele>1928.167</ele>
        <time>2026-03-08T12:20:57Z</time>
      </trkpt>
      <trkpt lat="46.23785" lon="6.69656">
        <ele>1928.021</ele>
        <time>2026-03-08T12:21:02Z</time>
      </trkpt>
      <trkpt lat="46.23786" lon="6.69656">
        <ele>1927.507</ele>
        <time>2026-03-08T12:21:07Z</time>
      </trkpt>
      <trkpt lat="46.23787" lon="6.69655">
        <ele>1926.721</ele>
        <time>2026-03-08T12:21:12Z</time>
      </trkpt>
      <trkpt lat="46.23787" lon="6.69655">
        <ele>1925.601</ele>
        <time>2026-03-08T12:21:17Z</time>
      </trkpt>
      <trkpt lat="46.23789" lon="6.69655">
        <ele>1925.138</ele>
        <time>2026-03-08T12:21:22Z</time>
      </trkpt>
      <trkpt lat="46.2379" lon="6.69655">
        <ele>1924.526</ele>
        <time>2026-03-08T12:21:27Z</time>
      </trkpt>
      <trkpt lat="46.23792" lon="6.69653">
        <ele>1923.75</ele>
        <time>2026-03-08T12:21:32Z</time>
      </trkpt>
      <trkpt lat="46.23793" lon="6.6965">
        <ele>1923.209</ele>
        <time>2026-03-08T12:21:37Z</time>
      </trkpt>
      <trkpt lat="46.23794" lon="6.69644">
        <ele>1922.481</ele>
        <time>2026-03-08T12:21:42Z</time>
      </trkpt>
      <trkpt lat="46.23795" lon="6.69639">
        <ele>1921.335</ele>
        <time>2026-03-08T12:21:47Z</time>
      </trkpt>
      <trkpt lat="46.23795" lon="6.69635">
        <ele>1921.752</ele>
        <time>2026-03-08T12:21:52Z</time>
      </trkpt>
      <trkpt lat="46.23793" lon="6.69633">
        <ele>1920.015</ele>
        <time>2026-03-08T12:21:57Z</time>
      </trkpt>
      <trkpt lat="46.23792" lon="6.69633">
        <ele>1919.629</ele>
        <time>2026-03-08T12:22:02Z</time>
      </trkpt>
      <trkpt lat="46.23792" lon="6.69633">
        <ele>1919.626</ele>
        <time>2026-03-08T12:22:07Z</time>
      </trkpt>
      <trkpt lat="46.23792" lon="6.69633">
        <ele>1919.632</ele>
        <time>2026-03-08T12:22:12Z</time>
      </trkpt>
      <trkpt lat="46.23792" lon="6.69633">
        <ele>1919.646</ele>
        <time>2026-03-08T12:22:17Z</time>
      </trkpt>
      <trkpt lat="46.23792" lon="6.69633">
        <ele>1919.638</ele>
        <time>2026-03-08T12:22:22Z</time>
      </trkpt>
      <trkpt lat="46.23792" lon="6.69633">
        <ele>1919.647</ele>
        <time>2026-03-08T12:22:27Z</time>
      </trkpt>
      <trkpt lat="46.23792" lon="6.69633">
        <ele>1919.787</ele>
        <time>2026-03-08T12:22:32Z</time>
      </trkpt>
      <trkpt lat="46.23792" lon="6.69633">
        <ele>1919.792</ele>
        <time>2026-03-08T12:22:37Z</time>
      </trkpt>
      <trkpt lat="46.23792" lon="6.69633">
        <ele>1919.797</ele>
        <time>2026-03-08T12:22:42Z</time>
      </trkpt>
      <trkpt lat="46.23792" lon="6.69633">
        <ele>1919.508</ele>
        <time>2026-03-08T12:22:47Z</time>
      </trkpt>
      <trkpt lat="46.23792" lon="6.69633">
        <ele>1919.501</ele>
        <time>2026-03-08T12:22:52Z</time>
      </trkpt>
      <trkpt lat="46.23792" lon="6.69633">
        <ele>1919.571</ele>
        <time>2026-03-08T12:22:57Z</time>
      </trkpt>
      <trkpt lat="46.23792" lon="6.69633">
        <ele>1920.106</ele>
        <time>2026-03-08T12:23:02Z</time>
      </trkpt>
      <trkpt lat="46.23792" lon="6.69633">
        <ele>1920.326</ele>
        <time>2026-03-08T12:23:07Z</time>
      </trkpt>
      <trkpt lat="46.23792" lon="6.69633">
        <ele>1920.316</ele>
        <time>2026-03-08T12:23:12Z</time>
      </trkpt>
      <trkpt lat="46.23792" lon="6.69633">
        <ele>1920.772</ele>
        <time>2026-03-08T12:23:17Z</time>
      </trkpt>
      <trkpt lat="46.23792" lon="6.69633">
        <ele>1920.149</ele>
        <time>2026-03-08T12:23:22Z</time>
      </trkpt>
      <trkpt lat="46.23792" lon="6.69633">
        <ele>1920.141</ele>
        <time>2026-03-08T12:23:27Z</time>
      </trkpt>
      <trkpt lat="46.23792" lon="6.69633">
        <ele>1920.086</ele>
        <time>2026-03-08T12:23:32Z</time>
      </trkpt>
      <trkpt lat="46.23792" lon="6.69633">
        <ele>1920.096</ele>
        <time>2026-03-08T12:23:37Z</time>
      </trkpt>
      <trkpt lat="46.23793" lon="6.69622">
        <ele>1920.575</ele>
        <time>2026-03-08T12:23:42Z</time>
      </trkpt>
      <trkpt lat="46.23793" lon="6.69617">
        <ele>1920.816</ele>
        <time>2026-03-08T12:23:47Z</time>
      </trkpt>
      <trkpt lat="46.23793" lon="6.69613">
        <ele>1920.747</ele>
        <time>2026-03-08T12:23:52Z</time>
      </trkpt>
      <trkpt lat="46.23794" lon="6.69609">
        <ele>1920.563</ele>
        <time>2026-03-08T12:23:57Z</time>
      </trkpt>
      <trkpt lat="46.23794" lon="6.69606">
        <ele>1921.536</ele>
        <time>2026-03-08T12:24:02Z</time>
      </trkpt>
      <trkpt lat="46.23794" lon="6.69602">
        <ele>1921.997</ele>
        <time>2026-03-08T12:24:07Z</time>
      </trkpt>
      <trkpt lat="46.23793" lon="6.69599">
        <ele>1922.441</ele>
        <time>2026-03-08T12:24:12Z</time>
      </trkpt>
      <trkpt lat="46.23793" lon="6.69596">
        <ele>1922.09</ele>
        <time>2026-03-08T12:24:17Z</time>
      </trkpt>
      <trkpt lat="46.23792" lon="6.69592">
        <ele>1922.096</ele>
        <time>2026-03-08T12:24:22Z</time>
      </trkpt>
      <trkpt lat="46.23792" lon="6.69588">
        <ele>1921.904</ele>
        <time>2026-03-08T12:24:27Z</time>
      </trkpt>
      <trkpt lat="46.23792" lon="6.69585">
        <ele>1921.859</ele>
        <time>2026-03-08T12:24:32Z</time>
      </trkpt>
      <trkpt lat="46.23792" lon="6.69581">
        <ele>1922.607</ele>
        <time>2026-03-08T12:24:37Z</time>
      </trkpt>
      <trkpt lat="46.23792" lon="6.69578">
        <ele>1922.872</ele>
        <time>2026-03-08T12:24:42Z</time>
      </trkpt>
      <trkpt lat="46.23792" lon="6.69575">
        <ele>1923.059</ele>
        <time>2026-03-08T12:24:47Z</time>
      </trkpt>
      <trkpt lat="46.23792" lon="6.69572">
        <ele>1922.681</ele>
        <time>2026-03-08T12:24:52Z</time>
      </trkpt>
      <trkpt lat="46.23792" lon="6.69568">
        <ele>1922.798</ele>
        <time>2026-03-08T12:24:57Z</time>
      </trkpt>
      <trkpt lat="46.23791" lon="6.69565">
        <ele>1922.835</ele>
        <time>2026-03-08T12:25:02Z</time>
      </trkpt>
      <trkpt lat="46.2379" lon="6.69561">
        <ele>1922.285</ele>
        <time>2026-03-08T12:25:07Z</time>
      </trkpt>
      <trkpt lat="46.2379" lon="6.69557">
        <ele>1921.739</ele>
        <time>2026-03-08T12:25:12Z</time>
      </trkpt>
      <trkpt lat="46.2379" lon="6.69554">
        <ele>1923.025</ele>
        <time>2026-03-08T12:25:17Z</time>
      </trkpt>
      <trkpt lat="46.2379" lon="6.69554">
        <ele>1924.039</ele>
        <time>2026-03-08T12:25:22Z</time>
      </trkpt>
      <trkpt lat="46.23792" lon="6.69555">
        <ele>1925.572</ele>
        <time>2026-03-08T12:25:27Z</time>
      </trkpt>
      <trkpt lat="46.23793" lon="6.69557">
        <ele>1927.55</ele>
        <time>2026-03-08T12:25:32Z</time>
      </trkpt>
      <trkpt lat="46.23794" lon="6.69559">
        <ele>1928.626</ele>
        <time>2026-03-08T12:25:37Z</time>
      </trkpt>
      <trkpt lat="46.23796" lon="6.69561">
        <ele>1930.559</ele>
        <time>2026-03-08T12:25:42Z</time>
      </trkpt>
      <trkpt lat="46.23797" lon="6.69562">
        <ele>1931.146</ele>
        <time>2026-03-08T12:25:47Z</time>
      </trkpt>
      <trkpt lat="46.23798" lon="6.69564">
        <ele>1931.98</ele>
        <time>2026-03-08T12:25:52Z</time>
      </trkpt>
      <trkpt lat="46.238" lon="6.69566">
        <ele>1932.708</ele>
        <time>2026-03-08T12:25:57Z</time>
      </trkpt>
      <trkpt lat="46.23801" lon="6.69568">
        <ele>1933.558</ele>
        <time>2026-03-08T12:26:02Z</time>
      </trkpt>
      <trkpt lat="46.23802" lon="6.6957">
        <ele>1934.004</ele>
        <time>2026-03-08T12:26:07Z</time>
      </trkpt>
      <trkpt lat="46.23804" lon="6.69573">
        <ele>1934.285</ele>
        <time>2026-03-08T12:26:12Z</time>
      </trkpt>
      <trkpt lat="46.23804" lon="6.69574">
        <ele>1934.603</ele>
        <time>2026-03-08T12:26:17Z</time>
      </trkpt>
      <trkpt lat="46.23804" lon="6.69573">
        <ele>1934.814</ele>
        <time>2026-03-08T12:26:22Z</time>
      </trkpt>
      <trkpt lat="46.23805" lon="6.6957">
        <ele>1934.495</ele>
        <time>2026-03-08T12:26:27Z</time>
      </trkpt>
      <trkpt lat="46.23805" lon="6.69568">
        <ele>1934.556</ele>
        <time>2026-03-08T12:26:32Z</time>
      </trkpt>
      <trkpt lat="46.23805" lon="6.69564">
        <ele>1933.953</ele>
        <time>2026-03-08T12:26:37Z</time>
      </trkpt>
      <trkpt lat="46.23805" lon="6.69561">
        <ele>1933.577</ele>
        <time>2026-03-08T12:26:42Z</time>
      </trkpt>
      <trkpt lat="46.23805" lon="6.69558">
        <ele>1933.011</ele>
        <time>2026-03-08T12:26:47Z</time>
      </trkpt>
      <trkpt lat="46.23805" lon="6.69555">
        <ele>1933.395</ele>
        <time>2026-03-08T12:26:52Z</time>
      </trkpt>
      <trkpt lat="46.23805" lon="6.69551">
        <ele>1932.701</ele>
        <time>2026-03-08T12:26:57Z</time>
      </trkpt>
      <trkpt lat="46.23806" lon="6.69548">
        <ele>1933.422</ele>
        <time>2026-03-08T12:27:02Z</time>
      </trkpt>
      <trkpt lat="46.23806" lon="6.69545">
        <ele>1933.678</ele>
        <time>2026-03-08T12:27:07Z</time>
      </trkpt>
      <trkpt lat="46.23806" lon="6.69545">
        <ele>1933.699</ele>
        <time>2026-03-08T12:27:12Z</time>
      </trkpt>
      <trkpt lat="46.23806" lon="6.69545">
        <ele>1933.298</ele>
        <time>2026-03-08T12:27:17Z</time>
      </trkpt>
      <trkpt lat="46.23806" lon="6.69545">
        <ele>1933.475</ele>
        <time>2026-03-08T12:27:22Z</time>
      </trkpt>
      <trkpt lat="46.23806" lon="6.69545">
        <ele>1934.395</ele>
        <time>2026-03-08T12:27:27Z</time>
      </trkpt>
      <trkpt lat="46.23809" lon="6.69541">
        <ele>1937.676</ele>
        <time>2026-03-08T12:27:32Z</time>
      </trkpt>
      <trkpt lat="46.23811" lon="6.69544">
        <ele>1939.97</ele>
        <time>2026-03-08T12:27:37Z</time>
      </trkpt>
      <trkpt lat="46.23812" lon="6.69546">
        <ele>1941.371</ele>
        <time>2026-03-08T12:27:42Z</time>
      </trkpt>
      <trkpt lat="46.23814" lon="6.69548">
        <ele>1942.118</ele>
        <time>2026-03-08T12:27:47Z</time>
      </trkpt>
      <trkpt lat="46.23815" lon="6.69551">
        <ele>1942.6</ele>
        <time>2026-03-08T12:27:52Z</time>
      </trkpt>
      <trkpt lat="46.23816" lon="6.69553">
        <ele>1943.301</ele>
        <time>2026-03-08T12:27:57Z</time>
      </trkpt>
      <trkpt lat="46.23817" lon="6.69556">
        <ele>1944.176</ele>
        <time>2026-03-08T12:28:02Z</time>
      </trkpt>
      <trkpt lat="46.23818" lon="6.69557">
        <ele>1944.212</ele>
        <time>2026-03-08T12:28:07Z</time>
      </trkpt>
      <trkpt lat="46.23818" lon="6.69557">
        <ele>1944.224</ele>
        <time>2026-03-08T12:28:12Z</time>
      </trkpt>
      <trkpt lat="46.23818" lon="6.69557">
        <ele>1944.227</ele>
        <time>2026-03-08T12:28:17Z</time>
      </trkpt>
      <trkpt lat="46.23818" lon="6.69559">
        <ele>1944.273</ele>
        <time>2026-03-08T12:28:22Z</time>
      </trkpt>
      <trkpt lat="46.23819" lon="6.69562">
        <ele>1945.141</ele>
        <time>2026-03-08T12:28:27Z</time>
      </trkpt>
      <trkpt lat="46.23821" lon="6.69565">
        <ele>1945.579</ele>
        <time>2026-03-08T12:28:32Z</time>
      </trkpt>
      <trkpt lat="46.23822" lon="6.69567">
        <ele>1946.145</ele>
        <time>2026-03-08T12:28:37Z</time>
      </trkpt>
      <trkpt lat="46.23823" lon="6.6957">
        <ele>1947.091</ele>
        <time>2026-03-08T12:28:42Z</time>
      </trkpt>
      <trkpt lat="46.23824" lon="6.69572">
        <ele>1946.986</ele>
        <time>2026-03-08T12:28:47Z</time>
      </trkpt>
      <trkpt lat="46.23824" lon="6.69572">
        <ele>1947.004</ele>
        <time>2026-03-08T12:28:52Z</time>
      </trkpt>
      <trkpt lat="46.23824" lon="6.69572">
        <ele>1947.014</ele>
        <time>2026-03-08T12:28:57Z</time>
      </trkpt>
      <trkpt lat="46.23825" lon="6.69573">
        <ele>1946.81</ele>
        <time>2026-03-08T12:29:02Z</time>
      </trkpt>
      <trkpt lat="46.23826" lon="6.69576">
        <ele>1947.712</ele>
        <time>2026-03-08T12:29:07Z</time>
      </trkpt>
      <trkpt lat="46.23827" lon="6.69579">
        <ele>1948.192</ele>
        <time>2026-03-08T12:29:12Z</time>
      </trkpt>
      <trkpt lat="46.23828" lon="6.69581">
        <ele>1949.082</ele>
        <time>2026-03-08T12:29:17Z</time>
      </trkpt>
      <trkpt lat="46.23828" lon="6.69582">
        <ele>1949.46</ele>
        <time>2026-03-08T12:29:22Z</time>
      </trkpt>
      <trkpt lat="46.23829" lon="6.69583">
        <ele>1949.88</ele>
        <time>2026-03-08T12:29:27Z</time>
      </trkpt>
      <trkpt lat="46.2383" lon="6.69583">
        <ele>1950.383</ele>
        <time>2026-03-08T12:29:32Z</time>
      </trkpt>
      <trkpt lat="46.2383" lon="6.69582">
        <ele>1950.381</ele>
        <time>2026-03-08T12:29:37Z</time>
      </trkpt>
      <trkpt lat="46.23831" lon="6.6958">
        <ele>1950.084</ele>
        <time>2026-03-08T12:29:42Z</time>
      </trkpt>
      <trkpt lat="46.23831" lon="6.6958">
        <ele>1949.998</ele>
        <time>2026-03-08T12:29:47Z</time>
      </trkpt>
      <trkpt lat="46.23832" lon="6.69579">
        <ele>1950.431</ele>
        <time>2026-03-08T12:29:52Z</time>
      </trkpt>
      <trkpt lat="46.23832" lon="6.69577">
        <ele>1950.376</ele>
        <time>2026-03-08T12:29:57Z</time>
      </trkpt>
      <trkpt lat="46.23833" lon="6.69573">
        <ele>1950.692</ele>
        <time>2026-03-08T12:30:02Z</time>
      </trkpt>
      <trkpt lat="46.23833" lon="6.69571">
        <ele>1950.69</ele>
        <time>2026-03-08T12:30:07Z</time>
      </trkpt>
      <trkpt lat="46.23833" lon="6.69567">
        <ele>1949.948</ele>
        <time>2026-03-08T12:30:12Z</time>
      </trkpt>
      <trkpt lat="46.23833" lon="6.69564">
        <ele>1950.089</ele>
        <time>2026-03-08T12:30:17Z</time>
      </trkpt>
      <trkpt lat="46.23834" lon="6.69561">
        <ele>1950.425</ele>
        <time>2026-03-08T12:30:22Z</time>
      </trkpt>
      <trkpt lat="46.23834" lon="6.69558">
        <ele>1951.366</ele>
        <time>2026-03-08T12:30:27Z</time>
      </trkpt>
      <trkpt lat="46.23833" lon="6.69556">
        <ele>1952.132</ele>
        <time>2026-03-08T12:30:32Z</time>
      </trkpt>
      <trkpt lat="46.23833" lon="6.69556">
        <ele>1952.286</ele>
        <time>2026-03-08T12:30:37Z</time>
      </trkpt>
      <trkpt lat="46.23833" lon="6.69556">
        <ele>1952.309</ele>
        <time>2026-03-08T12:30:42Z</time>
      </trkpt>
      <trkpt lat="46.23833" lon="6.69556">
        <ele>1952.056</ele>
        <time>2026-03-08T12:30:47Z</time>
      </trkpt>
      <trkpt lat="46.23833" lon="6.69556">
        <ele>1952.324</ele>
        <time>2026-03-08T12:30:52Z</time>
      </trkpt>
      <trkpt lat="46.23833" lon="6.69556">
        <ele>1952.343</ele>
        <time>2026-03-08T12:30:57Z</time>
      </trkpt>
      <trkpt lat="46.23833" lon="6.69556">
        <ele>1952.828</ele>
        <time>2026-03-08T12:31:02Z</time>
      </trkpt>
      <trkpt lat="46.23833" lon="6.69556">
        <ele>1953.787</ele>
        <time>2026-03-08T12:31:07Z</time>
      </trkpt>
      <trkpt lat="46.23833" lon="6.69556">
        <ele>1955.359</ele>
        <time>2026-03-08T12:31:12Z</time>
      </trkpt>
      <trkpt lat="46.23833" lon="6.69556">
        <ele>1956.32</ele>
        <time>2026-03-08T12:31:17Z</time>
      </trkpt>
      <trkpt lat="46.23833" lon="6.69556">
        <ele>1956.35</ele>
        <time>2026-03-08T12:31:22Z</time>
      </trkpt>
      <trkpt lat="46.23833" lon="6.69556">
        <ele>1957.125</ele>
        <time>2026-03-08T12:31:27Z</time>
      </trkpt>
      <trkpt lat="46.23837" lon="6.69553">
        <ele>1958.894</ele>
        <time>2026-03-08T12:31:32Z</time>
      </trkpt>
      <trkpt lat="46.23839" lon="6.69555">
        <ele>1959.397</ele>
        <time>2026-03-08T12:31:37Z</time>
      </trkpt>
      <trkpt lat="46.23839" lon="6.69555">
        <ele>1959.46</ele>
        <time>2026-03-08T12:31:42Z</time>
      </trkpt>
      <trkpt lat="46.23839" lon="6.69555">
        <ele>1959.471</ele>
        <time>2026-03-08T12:31:47Z</time>
      </trkpt>
      <trkpt lat="46.2384" lon="6.69556">
        <ele>1959.911</ele>
        <time>2026-03-08T12:31:52Z</time>
      </trkpt>
      <trkpt lat="46.23841" lon="6.69556">
        <ele>1959.953</ele>
        <time>2026-03-08T12:31:57Z</time>
      </trkpt>
      <trkpt lat="46.23841" lon="6.69554">
        <ele>1959.803</ele>
        <time>2026-03-08T12:32:02Z</time>
      </trkpt>
      <trkpt lat="46.23841" lon="6.69553">
        <ele>1959.939</ele>
        <time>2026-03-08T12:32:07Z</time>
      </trkpt>
      <trkpt lat="46.23841" lon="6.69552">
        <ele>1959.979</ele>
        <time>2026-03-08T12:32:12Z</time>
      </trkpt>
      <trkpt lat="46.23841" lon="6.69549">
        <ele>1960.315</ele>
        <time>2026-03-08T12:32:17Z</time>
      </trkpt>
      <trkpt lat="46.2384" lon="6.69546">
        <ele>1960.446</ele>
        <time>2026-03-08T12:32:22Z</time>
      </trkpt>
      <trkpt lat="46.23841" lon="6.69542">
        <ele>1959.698</ele>
        <time>2026-03-08T12:32:27Z</time>
      </trkpt>
      <trkpt lat="46.23841" lon="6.69537">
        <ele>1960.283</ele>
        <time>2026-03-08T12:32:32Z</time>
      </trkpt>
      <trkpt lat="46.23841" lon="6.69533">
        <ele>1959.768</ele>
        <time>2026-03-08T12:32:37Z</time>
      </trkpt>
      <trkpt lat="46.23841" lon="6.69529">
        <ele>1959.587</ele>
        <time>2026-03-08T12:32:42Z</time>
      </trkpt>
      <trkpt lat="46.23842" lon="6.69528">
        <ele>1959.942</ele>
        <time>2026-03-08T12:32:47Z</time>
      </trkpt>
      <trkpt lat="46.23842" lon="6.69524">
        <ele>1960.176</ele>
        <time>2026-03-08T12:32:52Z</time>
      </trkpt>
      <trkpt lat="46.23843" lon="6.69521">
        <ele>1961.267</ele>
        <time>2026-03-08T12:32:57Z</time>
      </trkpt>
      <trkpt lat="46.23844" lon="6.69521">
        <ele>1961.153</ele>
        <time>2026-03-08T12:33:02Z</time>
      </trkpt>
      <trkpt lat="46.23844" lon="6.69521">
        <ele>1961.163</ele>
        <time>2026-03-08T12:33:07Z</time>
      </trkpt>
      <trkpt lat="46.23844" lon="6.69521">
        <ele>1961.187</ele>
        <time>2026-03-08T12:33:12Z</time>
      </trkpt>
      <trkpt lat="46.23844" lon="6.69521">
        <ele>1961.207</ele>
        <time>2026-03-08T12:33:17Z</time>
      </trkpt>
      <trkpt lat="46.23844" lon="6.69521">
        <ele>1961.214</ele>
        <time>2026-03-08T12:33:22Z</time>
      </trkpt>
      <trkpt lat="46.23844" lon="6.69521">
        <ele>1961.215</ele>
        <time>2026-03-08T12:33:27Z</time>
      </trkpt>
      <trkpt lat="46.23844" lon="6.69521">
        <ele>1961.212</ele>
        <time>2026-03-08T12:33:32Z</time>
      </trkpt>
      <trkpt lat="46.23844" lon="6.69521">
        <ele>1961.21</ele>
        <time>2026-03-08T12:33:37Z</time>
      </trkpt>
      <trkpt lat="46.23844" lon="6.69521">
        <ele>1961.208</ele>
        <time>2026-03-08T12:33:42Z</time>
      </trkpt>
      <trkpt lat="46.23844" lon="6.69521">
        <ele>1961.205</ele>
        <time>2026-03-08T12:33:47Z</time>
      </trkpt>
      <trkpt lat="46.23844" lon="6.69521">
        <ele>1961.207</ele>
        <time>2026-03-08T12:33:52Z</time>
      </trkpt>
      <trkpt lat="46.23844" lon="6.69521">
        <ele>1961.206</ele>
        <time>2026-03-08T12:33:57Z</time>
      </trkpt>
      <trkpt lat="46.23844" lon="6.69521">
        <ele>1961.205</ele>
        <time>2026-03-08T12:34:02Z</time>
      </trkpt>
      <trkpt lat="46.23844" lon="6.69521">
        <ele>1961.206</ele>
        <time>2026-03-08T12:34:07Z</time>
      </trkpt>
      <trkpt lat="46.23844" lon="6.69521">
        <ele>1961.207</ele>
        <time>2026-03-08T12:34:12Z</time>
      </trkpt>
      <trkpt lat="46.23844" lon="6.69521">
        <ele>1961.212</ele>
        <time>2026-03-08T12:34:17Z</time>
      </trkpt>
      <trkpt lat="46.23844" lon="6.69521">
        <ele>1961.217</ele>
        <time>2026-03-08T12:34:22Z</time>
      </trkpt>
      <trkpt lat="46.23844" lon="6.69521">
        <ele>1961.215</ele>
        <time>2026-03-08T12:34:27Z</time>
      </trkpt>
      <trkpt lat="46.23844" lon="6.69521">
        <ele>1961.21</ele>
        <time>2026-03-08T12:34:32Z</time>
      </trkpt>
      <trkpt lat="46.23844" lon="6.69521">
        <ele>1961.209</ele>
        <time>2026-03-08T12:34:37Z</time>
      </trkpt>
      <trkpt lat="46.23844" lon="6.69521">
        <ele>1961.205</ele>
        <time>2026-03-08T12:34:42Z</time>
      </trkpt>
      <trkpt lat="46.23844" lon="6.69521">
        <ele>1961.205</ele>
        <time>2026-03-08T12:34:47Z</time>
      </trkpt>
      <trkpt lat="46.23844" lon="6.69521">
        <ele>1961.205</ele>
        <time>2026-03-08T12:34:52Z</time>
      </trkpt>
      <trkpt lat="46.23844" lon="6.69521">
        <ele>1960.622</ele>
        <time>2026-03-08T12:34:57Z</time>
      </trkpt>
      <trkpt lat="46.23844" lon="6.69521">
        <ele>1961.329</ele>
        <time>2026-03-08T12:35:02Z</time>
      </trkpt>
      <trkpt lat="46.23844" lon="6.69521">
        <ele>1961.072</ele>
        <time>2026-03-08T12:35:07Z</time>
      </trkpt>
      <trkpt lat="46.23844" lon="6.69521">
        <ele>1961.074</ele>
        <time>2026-03-08T12:35:12Z</time>
      </trkpt>
      <trkpt lat="46.23844" lon="6.69521">
        <ele>1961.068</ele>
        <time>2026-03-08T12:35:17Z</time>
      </trkpt>
      <trkpt lat="46.23844" lon="6.69521">
        <ele>1961.073</ele>
        <time>2026-03-08T12:35:22Z</time>
      </trkpt>
      <trkpt lat="46.23844" lon="6.69521">
        <ele>1961.077</ele>
        <time>2026-03-08T12:35:27Z</time>
      </trkpt>
      <trkpt lat="46.23844" lon="6.69521">
        <ele>1961.091</ele>
        <time>2026-03-08T12:35:32Z</time>
      </trkpt>
      <trkpt lat="46.23844" lon="6.69521">
        <ele>1961.119</ele>
        <time>2026-03-08T12:35:37Z</time>
      </trkpt>
      <trkpt lat="46.23844" lon="6.69521">
        <ele>1961.116</ele>
        <time>2026-03-08T12:35:42Z</time>
      </trkpt>
      <trkpt lat="46.23844" lon="6.69521">
        <ele>1961.13</ele>
        <time>2026-03-08T12:35:47Z</time>
      </trkpt>
      <trkpt lat="46.23844" lon="6.69521">
        <ele>1961.157</ele>
        <time>2026-03-08T12:35:52Z</time>
      </trkpt>
      <trkpt lat="46.23844" lon="6.69521">
        <ele>1961.179</ele>
        <time>2026-03-08T12:35:57Z</time>
      </trkpt>
      <trkpt lat="46.23844" lon="6.69521">
        <ele>1961.202</ele>
        <time>2026-03-08T12:36:02Z</time>
      </trkpt>
      <trkpt lat="46.23844" lon="6.69521">
        <ele>1961.207</ele>
        <time>2026-03-08T12:36:07Z</time>
      </trkpt>
      <trkpt lat="46.23844" lon="6.69521">
        <ele>1961.212</ele>
        <time>2026-03-08T12:36:12Z</time>
      </trkpt>
      <trkpt lat="46.23844" lon="6.69521">
        <ele>1961.232</ele>
        <time>2026-03-08T12:36:17Z</time>
      </trkpt>
      <trkpt lat="46.23844" lon="6.69521">
        <ele>1961.249</ele>
        <time>2026-03-08T12:36:22Z</time>
      </trkpt>
      <trkpt lat="46.23844" lon="6.69521">
        <ele>1961.262</ele>
        <time>2026-03-08T12:36:27Z</time>
      </trkpt>
      <trkpt lat="46.23844" lon="6.69521">
        <ele>1961.277</ele>
        <time>2026-03-08T12:36:32Z</time>
      </trkpt>
      <trkpt lat="46.23844" lon="6.69521">
        <ele>1961.285</ele>
        <time>2026-03-08T12:36:37Z</time>
      </trkpt>
      <trkpt lat="46.23844" lon="6.69521">
        <ele>1961.291</ele>
        <time>2026-03-08T12:36:42Z</time>
      </trkpt>
      <trkpt lat="46.23844" lon="6.69521">
        <ele>1961.305</ele>
        <time>2026-03-08T12:36:47Z</time>
      </trkpt>
      <trkpt lat="46.23844" lon="6.69521">
        <ele>1961.317</ele>
        <time>2026-03-08T12:36:52Z</time>
      </trkpt>
      <trkpt lat="46.23844" lon="6.69521">
        <ele>1961.325</ele>
        <time>2026-03-08T12:36:57Z</time>
      </trkpt>
      <trkpt lat="46.23844" lon="6.69521">
        <ele>1961.354</ele>
        <time>2026-03-08T12:37:02Z</time>
      </trkpt>
      <trkpt lat="46.23844" lon="6.69521">
        <ele>1961.369</ele>
        <time>2026-03-08T12:37:07Z</time>
      </trkpt>
      <trkpt lat="46.23844" lon="6.69521">
        <ele>1961.374</ele>
        <time>2026-03-08T12:37:12Z</time>
      </trkpt>
      <trkpt lat="46.23844" lon="6.69521">
        <ele>1961.379</ele>
        <time>2026-03-08T12:37:17Z</time>
      </trkpt>
      <trkpt lat="46.23844" lon="6.69521">
        <ele>1961.379</ele>
        <time>2026-03-08T12:37:22Z</time>
      </trkpt>
      <trkpt lat="46.23844" lon="6.69521">
        <ele>1961.377</ele>
        <time>2026-03-08T12:37:27Z</time>
      </trkpt>
      <trkpt lat="46.23844" lon="6.69521">
        <ele>1961.37</ele>
        <time>2026-03-08T12:37:32Z</time>
      </trkpt>
      <trkpt lat="46.23844" lon="6.69521">
        <ele>1961.363</ele>
        <time>2026-03-08T12:37:37Z</time>
      </trkpt>
      <trkpt lat="46.23844" lon="6.69521">
        <ele>1961.358</ele>
        <time>2026-03-08T12:37:42Z</time>
      </trkpt>
      <trkpt lat="46.23844" lon="6.69521">
        <ele>1961.355</ele>
        <time>2026-03-08T12:37:47Z</time>
      </trkpt>
      <trkpt lat="46.23844" lon="6.69521">
        <ele>1961.371</ele>
        <time>2026-03-08T12:37:52Z</time>
      </trkpt>
      <trkpt lat="46.23844" lon="6.69521">
        <ele>1961.367</ele>
        <time>2026-03-08T12:37:57Z</time>
      </trkpt>
      <trkpt lat="46.23844" lon="6.69521">
        <ele>1961.524</ele>
        <time>2026-03-08T12:38:02Z</time>
      </trkpt>
      <trkpt lat="46.23844" lon="6.69521">
        <ele>1961.514</ele>
        <time>2026-03-08T12:38:07Z</time>
      </trkpt>
      <trkpt lat="46.23844" lon="6.69521">
        <ele>1961.516</ele>
        <time>2026-03-08T12:38:12Z</time>
      </trkpt>
      <trkpt lat="46.23844" lon="6.69521">
        <ele>1961.518</ele>
        <time>2026-03-08T12:38:17Z</time>
      </trkpt>
      <trkpt lat="46.23844" lon="6.69521">
        <ele>1961.519</ele>
        <time>2026-03-08T12:38:22Z</time>
      </trkpt>
      <trkpt lat="46.23844" lon="6.69521">
        <ele>1961.515</ele>
        <time>2026-03-08T12:38:27Z</time>
      </trkpt>
      <trkpt lat="46.23844" lon="6.69521">
        <ele>1961.514</ele>
        <time>2026-03-08T12:38:32Z</time>
      </trkpt>
      <trkpt lat="46.23844" lon="6.69521">
        <ele>1961.511</ele>
        <time>2026-03-08T12:38:37Z</time>
      </trkpt>
      <trkpt lat="46.23844" lon="6.69521">
        <ele>1961.521</ele>
        <time>2026-03-08T12:38:42Z</time>
      </trkpt>
      <trkpt lat="46.23844" lon="6.69521">
        <ele>1961.527</ele>
        <time>2026-03-08T12:38:47Z</time>
      </trkpt>
      <trkpt lat="46.23844" lon="6.69521">
        <ele>1961.53</ele>
        <time>2026-03-08T12:38:52Z</time>
      </trkpt>
      <trkpt lat="46.23844" lon="6.69521">
        <ele>1961.53</ele>
        <time>2026-03-08T12:38:57Z</time>
      </trkpt>
      <trkpt lat="46.23844" lon="6.69521">
        <ele>1961.533</ele>
        <time>2026-03-08T12:39:02Z</time>
      </trkpt>
      <trkpt lat="46.23844" lon="6.69521">
        <ele>1961.534</ele>
        <time>2026-03-08T12:39:07Z</time>
      </trkpt>
      <trkpt lat="46.23844" lon="6.69521">
        <ele>1961.532</ele>
        <time>2026-03-08T12:39:12Z</time>
      </trkpt>
      <trkpt lat="46.23844" lon="6.69521">
        <ele>1961.534</ele>
        <time>2026-03-08T12:39:17Z</time>
      </trkpt>
      <trkpt lat="46.23844" lon="6.69521">
        <ele>1961.531</ele>
        <time>2026-03-08T12:39:22Z</time>
      </trkpt>
      <trkpt lat="46.23844" lon="6.69521">
        <ele>1961.525</ele>
        <time>2026-03-08T12:39:27Z</time>
      </trkpt>
      <trkpt lat="46.23844" lon="6.69521">
        <ele>1961.529</ele>
        <time>2026-03-08T12:39:32Z</time>
      </trkpt>
      <trkpt lat="46.23844" lon="6.69521">
        <ele>1961.508</ele>
        <time>2026-03-08T12:39:37Z</time>
      </trkpt>
      <trkpt lat="46.23844" lon="6.69521">
        <ele>1961.507</ele>
        <time>2026-03-08T12:39:42Z</time>
      </trkpt>
      <trkpt lat="46.23844" lon="6.69521">
        <ele>1961.503</ele>
        <time>2026-03-08T12:39:47Z</time>
      </trkpt>
      <trkpt lat="46.23844" lon="6.69521">
        <ele>1961.52</ele>
        <time>2026-03-08T12:39:52Z</time>
      </trkpt>
      <trkpt lat="46.23844" lon="6.69521">
        <ele>1961.534</ele>
        <time>2026-03-08T12:39:57Z</time>
      </trkpt>
      <trkpt lat="46.23844" lon="6.69521">
        <ele>1961.542</ele>
        <time>2026-03-08T12:40:02Z</time>
      </trkpt>
      <trkpt lat="46.23844" lon="6.69521">
        <ele>1961.542</ele>
        <time>2026-03-08T12:40:07Z</time>
      </trkpt>
      <trkpt lat="46.23844" lon="6.69521">
        <ele>1961.547</ele>
        <time>2026-03-08T12:40:12Z</time>
      </trkpt>
      <trkpt lat="46.23844" lon="6.69521">
        <ele>1961.554</ele>
        <time>2026-03-08T12:40:17Z</time>
      </trkpt>
      <trkpt lat="46.23844" lon="6.69521">
        <ele>1961.562</ele>
        <time>2026-03-08T12:40:22Z</time>
      </trkpt>
      <trkpt lat="46.23844" lon="6.69521">
        <ele>1961.555</ele>
        <time>2026-03-08T12:40:27Z</time>
      </trkpt>
      <trkpt lat="46.23844" lon="6.69521">
        <ele>1961.555</ele>
        <time>2026-03-08T12:40:32Z</time>
      </trkpt>
      <trkpt lat="46.23844" lon="6.69521">
        <ele>1961.497</ele>
        <time>2026-03-08T12:40:37Z</time>
      </trkpt>
      <trkpt lat="46.23844" lon="6.69521">
        <ele>1961.498</ele>
        <time>2026-03-08T12:40:42Z</time>
      </trkpt>
      <trkpt lat="46.23844" lon="6.69521">
        <ele>1961.5</ele>
        <time>2026-03-08T12:40:47Z</time>
      </trkpt>
      <trkpt lat="46.23844" lon="6.69521">
        <ele>1961.502</ele>
        <time>2026-03-08T12:40:52Z</time>
      </trkpt>
      <trkpt lat="46.23844" lon="6.69521">
        <ele>1961.493</ele>
        <time>2026-03-08T12:40:57Z</time>
      </trkpt>
      <trkpt lat="46.23844" lon="6.69521">
        <ele>1961.48</ele>
        <time>2026-03-08T12:41:02Z</time>
      </trkpt>
      <trkpt lat="46.23844" lon="6.69521">
        <ele>1961.492</ele>
        <time>2026-03-08T12:41:07Z</time>
      </trkpt>
      <trkpt lat="46.23844" lon="6.69521">
        <ele>1961.512</ele>
        <time>2026-03-08T12:41:12Z</time>
      </trkpt>
      <trkpt lat="46.23844" lon="6.69521">
        <ele>1961.524</ele>
        <time>2026-03-08T12:41:17Z</time>
      </trkpt>
      <trkpt lat="46.23844" lon="6.69521">
        <ele>1961.53</ele>
        <time>2026-03-08T12:41:22Z</time>
      </trkpt>
      <trkpt lat="46.23844" lon="6.69521">
        <ele>1961.543</ele>
        <time>2026-03-08T12:41:27Z</time>
      </trkpt>
      <trkpt lat="46.23844" lon="6.69521">
        <ele>1961.561</ele>
        <time>2026-03-08T12:41:32Z</time>
      </trkpt>
      <trkpt lat="46.23844" lon="6.69521">
        <ele>1961.568</ele>
        <time>2026-03-08T12:41:37Z</time>
      </trkpt>
      <trkpt lat="46.23844" lon="6.69521">
        <ele>1961.565</ele>
        <time>2026-03-08T12:41:42Z</time>
      </trkpt>
      <trkpt lat="46.23844" lon="6.69521">
        <ele>1961.567</ele>
        <time>2026-03-08T12:41:47Z</time>
      </trkpt>
      <trkpt lat="46.23844" lon="6.69521">
        <ele>1961.564</ele>
        <time>2026-03-08T12:41:52Z</time>
      </trkpt>
      <trkpt lat="46.23844" lon="6.69521">
        <ele>1961.564</ele>
        <time>2026-03-08T12:41:57Z</time>
      </trkpt>
      <trkpt lat="46.23844" lon="6.69521">
        <ele>1961.566</ele>
        <time>2026-03-08T12:42:02Z</time>
      </trkpt>
      <trkpt lat="46.23844" lon="6.69521">
        <ele>1961.563</ele>
        <time>2026-03-08T12:42:07Z</time>
      </trkpt>
      <trkpt lat="46.23844" lon="6.69521">
        <ele>1961.567</ele>
        <time>2026-03-08T12:42:12Z</time>
      </trkpt>
      <trkpt lat="46.23844" lon="6.69521">
        <ele>1961.56</ele>
        <time>2026-03-08T12:42:17Z</time>
      </trkpt>
      <trkpt lat="46.23844" lon="6.69521">
        <ele>1961.552</ele>
        <time>2026-03-08T12:42:22Z</time>
      </trkpt>
      <trkpt lat="46.23844" lon="6.69521">
        <ele>1961.54</ele>
        <time>2026-03-08T12:42:27Z</time>
      </trkpt>
      <trkpt lat="46.23844" lon="6.69521">
        <ele>1961.531</ele>
        <time>2026-03-08T12:42:32Z</time>
      </trkpt>
      <trkpt lat="46.23844" lon="6.69521">
        <ele>1961.523</ele>
        <time>2026-03-08T12:42:37Z</time>
      </trkpt>
      <trkpt lat="46.23844" lon="6.69521">
        <ele>1961.537</ele>
        <time>2026-03-08T12:42:42Z</time>
      </trkpt>
      <trkpt lat="46.23844" lon="6.69521">
        <ele>1961.571</ele>
        <time>2026-03-08T12:42:47Z</time>
      </trkpt>
      <trkpt lat="46.23844" lon="6.69521">
        <ele>1961.608</ele>
        <time>2026-03-08T12:42:52Z</time>
      </trkpt>
      <trkpt lat="46.23844" lon="6.69521">
        <ele>1961.638</ele>
        <time>2026-03-08T12:42:57Z</time>
      </trkpt>
      <trkpt lat="46.23844" lon="6.69521">
        <ele>1961.659</ele>
        <time>2026-03-08T12:43:02Z</time>
      </trkpt>
      <trkpt lat="46.23844" lon="6.69521">
        <ele>1961.68</ele>
        <time>2026-03-08T12:43:07Z</time>
      </trkpt>
      <trkpt lat="46.23844" lon="6.69521">
        <ele>1961.704</ele>
        <time>2026-03-08T12:43:12Z</time>
      </trkpt>
      <trkpt lat="46.23844" lon="6.69521">
        <ele>1961.717</ele>
        <time>2026-03-08T12:43:17Z</time>
      </trkpt>
      <trkpt lat="46.23844" lon="6.69521">
        <ele>1961.732</ele>
        <time>2026-03-08T12:43:22Z</time>
      </trkpt>
      <trkpt lat="46.23844" lon="6.69521">
        <ele>1961.75</ele>
        <time>2026-03-08T12:43:27Z</time>
      </trkpt>
      <trkpt lat="46.23844" lon="6.69521">
        <ele>1962.003</ele>
        <time>2026-03-08T12:43:32Z</time>
      </trkpt>
      <trkpt lat="46.23844" lon="6.69521">
        <ele>1962.076</ele>
        <time>2026-03-08T12:43:37Z</time>
      </trkpt>
      <trkpt lat="46.23844" lon="6.69521">
        <ele>1962.075</ele>
        <time>2026-03-08T12:43:42Z</time>
      </trkpt>
      <trkpt lat="46.23844" lon="6.69521">
        <ele>1962.079</ele>
        <time>2026-03-08T12:43:47Z</time>
      </trkpt>
      <trkpt lat="46.23844" lon="6.69521">
        <ele>1962.08</ele>
        <time>2026-03-08T12:43:52Z</time>
      </trkpt>
      <trkpt lat="46.23844" lon="6.69521">
        <ele>1962.08</ele>
        <time>2026-03-08T12:43:57Z</time>
      </trkpt>
      <trkpt lat="46.23844" lon="6.69521">
        <ele>1962.077</ele>
        <time>2026-03-08T12:44:02Z</time>
      </trkpt>
      <trkpt lat="46.23844" lon="6.69521">
        <ele>1962.075</ele>
        <time>2026-03-08T12:44:07Z</time>
      </trkpt>
      <trkpt lat="46.23844" lon="6.69521">
        <ele>1962.068</ele>
        <time>2026-03-08T12:44:12Z</time>
      </trkpt>
      <trkpt lat="46.23844" lon="6.69521">
        <ele>1962.074</ele>
        <time>2026-03-08T12:44:17Z</time>
      </trkpt>
      <trkpt lat="46.23844" lon="6.69521">
        <ele>1962.084</ele>
        <time>2026-03-08T12:44:22Z</time>
      </trkpt>
      <trkpt lat="46.23844" lon="6.69521">
        <ele>1962.088</ele>
        <time>2026-03-08T12:44:27Z</time>
      </trkpt>
      <trkpt lat="46.23844" lon="6.69521">
        <ele>1962.09</ele>
        <time>2026-03-08T12:44:32Z</time>
      </trkpt>
      <trkpt lat="46.23844" lon="6.69521">
        <ele>1962.093</ele>
        <time>2026-03-08T12:44:37Z</time>
      </trkpt>
      <trkpt lat="46.23844" lon="6.69521">
        <ele>1962.092</ele>
        <time>2026-03-08T12:44:42Z</time>
      </trkpt>
      <trkpt lat="46.23844" lon="6.69521">
        <ele>1962.095</ele>
        <time>2026-03-08T12:44:47Z</time>
      </trkpt>
      <trkpt lat="46.23844" lon="6.69521">
        <ele>1962.577</ele>
        <time>2026-03-08T12:44:52Z</time>
      </trkpt>
      <trkpt lat="46.23844" lon="6.69521">
        <ele>1962.579</ele>
        <time>2026-03-08T12:44:57Z</time>
      </trkpt>
      <trkpt lat="46.23844" lon="6.69521">
        <ele>1962.578</ele>
        <time>2026-03-08T12:45:02Z</time>
      </trkpt>
      <trkpt lat="46.23844" lon="6.69521">
        <ele>1962.583</ele>
        <time>2026-03-08T12:45:07Z</time>
      </trkpt>
      <trkpt lat="46.23844" lon="6.69521">
        <ele>1964.09</ele>
        <time>2026-03-08T12:45:12Z</time>
      </trkpt>
      <trkpt lat="46.23844" lon="6.69521">
        <ele>1964.378</ele>
        <time>2026-03-08T12:45:17Z</time>
      </trkpt>
      <trkpt lat="46.23844" lon="6.69521">
        <ele>1964.007</ele>
        <time>2026-03-08T12:45:22Z</time>
      </trkpt>
      <trkpt lat="46.23844" lon="6.69521">
        <ele>1962.76</ele>
        <time>2026-03-08T12:45:27Z</time>
      </trkpt>
      <trkpt lat="46.23844" lon="6.69521">
        <ele>1961.982</ele>
        <time>2026-03-08T12:45:32Z</time>
      </trkpt>
      <trkpt lat="46.23844" lon="6.69521">
        <ele>1962.203</ele>
        <time>2026-03-08T12:45:37Z</time>
      </trkpt>
      <trkpt lat="46.23844" lon="6.69521">
        <ele>1962.207</ele>
        <time>2026-03-08T12:45:42Z</time>
      </trkpt>
      <trkpt lat="46.23844" lon="6.69521">
        <ele>1962.205</ele>
        <time>2026-03-08T12:45:47Z</time>
      </trkpt>
      <trkpt lat="46.23844" lon="6.69521">
        <ele>1962.204</ele>
        <time>2026-03-08T12:45:52Z</time>
      </trkpt>
      <trkpt lat="46.23844" lon="6.69521">
        <ele>1962.195</ele>
        <time>2026-03-08T12:45:57Z</time>
      </trkpt>
      <trkpt lat="46.23844" lon="6.69521">
        <ele>1962.188</ele>
        <time>2026-03-08T12:46:02Z</time>
      </trkpt>
      <trkpt lat="46.23844" lon="6.69521">
        <ele>1962.197</ele>
        <time>2026-03-08T12:46:07Z</time>
      </trkpt>
      <trkpt lat="46.23844" lon="6.69521">
        <ele>1962.191</ele>
        <time>2026-03-08T12:46:12Z</time>
      </trkpt>
      <trkpt lat="46.23844" lon="6.69521">
        <ele>1962.191</ele>
        <time>2026-03-08T12:46:17Z</time>
      </trkpt>
      <trkpt lat="46.23844" lon="6.69521">
        <ele>1962.182</ele>
        <time>2026-03-08T12:46:22Z</time>
      </trkpt>
      <trkpt lat="46.23844" lon="6.69521">
        <ele>1962.172</ele>
        <time>2026-03-08T12:46:27Z</time>
      </trkpt>
      <trkpt lat="46.23844" lon="6.69521">
        <ele>1962.158</ele>
        <time>2026-03-08T12:46:32Z</time>
      </trkpt>
      <trkpt lat="46.23844" lon="6.69521">
        <ele>1962.148</ele>
        <time>2026-03-08T12:46:37Z</time>
      </trkpt>
      <trkpt lat="46.23844" lon="6.69521">
        <ele>1962.144</ele>
        <time>2026-03-08T12:46:42Z</time>
      </trkpt>
      <trkpt lat="46.23844" lon="6.69521">
        <ele>1962.148</ele>
        <time>2026-03-08T12:46:47Z</time>
      </trkpt>
      <trkpt lat="46.23844" lon="6.69521">
        <ele>1962.146</ele>
        <time>2026-03-08T12:46:52Z</time>
      </trkpt>
      <trkpt lat="46.23844" lon="6.69521">
        <ele>1962.149</ele>
        <time>2026-03-08T12:46:57Z</time>
      </trkpt>
      <trkpt lat="46.23844" lon="6.69521">
        <ele>1962.15</ele>
        <time>2026-03-08T12:47:02Z</time>
      </trkpt>
      <trkpt lat="46.23844" lon="6.69521">
        <ele>1962.149</ele>
        <time>2026-03-08T12:47:07Z</time>
      </trkpt>
      <trkpt lat="46.23844" lon="6.69521">
        <ele>1962.156</ele>
        <time>2026-03-08T12:47:12Z</time>
      </trkpt>
      <trkpt lat="46.23844" lon="6.69521">
        <ele>1962.151</ele>
        <time>2026-03-08T12:47:17Z</time>
      </trkpt>
      <trkpt lat="46.23844" lon="6.69521">
        <ele>1962.149</ele>
        <time>2026-03-08T12:47:22Z</time>
      </trkpt>
      <trkpt lat="46.23844" lon="6.69521">
        <ele>1962.158</ele>
        <time>2026-03-08T12:47:27Z</time>
      </trkpt>
      <trkpt lat="46.23844" lon="6.69521">
        <ele>1962.177</ele>
        <time>2026-03-08T12:47:32Z</time>
      </trkpt>
      <trkpt lat="46.23844" lon="6.69521">
        <ele>1962.197</ele>
        <time>2026-03-08T12:47:37Z</time>
      </trkpt>
      <trkpt lat="46.23844" lon="6.69521">
        <ele>1962.2</ele>
        <time>2026-03-08T12:47:42Z</time>
      </trkpt>
      <trkpt lat="46.23844" lon="6.69521">
        <ele>1962.196</ele>
        <time>2026-03-08T12:47:47Z</time>
      </trkpt>
      <trkpt lat="46.23844" lon="6.69521">
        <ele>1962.195</ele>
        <time>2026-03-08T12:47:52Z</time>
      </trkpt>
      <trkpt lat="46.23844" lon="6.69521">
        <ele>1962.194</ele>
        <time>2026-03-08T12:47:57Z</time>
      </trkpt>
      <trkpt lat="46.23844" lon="6.69521">
        <ele>1962.202</ele>
        <time>2026-03-08T12:48:02Z</time>
      </trkpt>
      <trkpt lat="46.23844" lon="6.69521">
        <ele>1962.209</ele>
        <time>2026-03-08T12:48:07Z</time>
      </trkpt>
      <trkpt lat="46.23844" lon="6.69521">
        <ele>1962.22</ele>
        <time>2026-03-08T12:48:12Z</time>
      </trkpt>
      <trkpt lat="46.23844" lon="6.69521">
        <ele>1962.233</ele>
        <time>2026-03-08T12:48:17Z</time>
      </trkpt>
      <trkpt lat="46.23844" lon="6.69521">
        <ele>1962.235</ele>
        <time>2026-03-08T12:48:22Z</time>
      </trkpt>
      <trkpt lat="46.23844" lon="6.69521">
        <ele>1962.242</ele>
        <time>2026-03-08T12:48:27Z</time>
      </trkpt>
      <trkpt lat="46.23844" lon="6.69521">
        <ele>1962.237</ele>
        <time>2026-03-08T12:48:32Z</time>
      </trkpt>
      <trkpt lat="46.23844" lon="6.69521">
        <ele>1962.622</ele>
        <time>2026-03-08T12:48:37Z</time>
      </trkpt>
      <trkpt lat="46.23844" lon="6.69521">
        <ele>1964.614</ele>
        <time>2026-03-08T12:48:42Z</time>
      </trkpt>
      <trkpt lat="46.23844" lon="6.69521">
        <ele>1965.284</ele>
        <time>2026-03-08T12:48:47Z</time>
      </trkpt>
      <trkpt lat="46.23844" lon="6.69521">
        <ele>1965.455</ele>
        <time>2026-03-08T12:48:52Z</time>
      </trkpt>
      <trkpt lat="46.23844" lon="6.69521">
        <ele>1965.473</ele>
        <time>2026-03-08T12:48:57Z</time>
      </trkpt>
      <trkpt lat="46.23844" lon="6.69521">
        <ele>1965.486</ele>
        <time>2026-03-08T12:49:02Z</time>
      </trkpt>
      <trkpt lat="46.23844" lon="6.69521">
        <ele>1963.83</ele>
        <time>2026-03-08T12:49:07Z</time>
      </trkpt>
      <trkpt lat="46.23844" lon="6.69521">
        <ele>1962.761</ele>
        <time>2026-03-08T12:49:12Z</time>
      </trkpt>
      <trkpt lat="46.23844" lon="6.69521">
        <ele>1961.951</ele>
        <time>2026-03-08T12:49:17Z</time>
      </trkpt>
      <trkpt lat="46.23844" lon="6.69521">
        <ele>1961.919</ele>
        <time>2026-03-08T12:49:22Z</time>
      </trkpt>
      <trkpt lat="46.23844" lon="6.69521">
        <ele>1961.916</ele>
        <time>2026-03-08T12:49:27Z</time>
      </trkpt>
      <trkpt lat="46.23844" lon="6.69521">
        <ele>1961.912</ele>
        <time>2026-03-08T12:49:32Z</time>
      </trkpt>
      <trkpt lat="46.23844" lon="6.69521">
        <ele>1961.904</ele>
        <time>2026-03-08T12:49:37Z</time>
      </trkpt>
      <trkpt lat="46.23844" lon="6.69521">
        <ele>1961.925</ele>
        <time>2026-03-08T12:49:42Z</time>
      </trkpt>
      <trkpt lat="46.23844" lon="6.69521">
        <ele>1961.917</ele>
        <time>2026-03-08T12:49:47Z</time>
      </trkpt>
      <trkpt lat="46.23844" lon="6.69521">
        <ele>1961.913</ele>
        <time>2026-03-08T12:49:52Z</time>
      </trkpt>
      <trkpt lat="46.23844" lon="6.69521">
        <ele>1961.895</ele>
        <time>2026-03-08T12:49:57Z</time>
      </trkpt>
      <trkpt lat="46.23844" lon="6.69521">
        <ele>1961.889</ele>
        <time>2026-03-08T12:50:02Z</time>
      </trkpt>
      <trkpt lat="46.23844" lon="6.69521">
        <ele>1961.886</ele>
        <time>2026-03-08T12:50:07Z</time>
      </trkpt>
      <trkpt lat="46.23844" lon="6.69521">
        <ele>1961.891</ele>
        <time>2026-03-08T12:50:12Z</time>
      </trkpt>
      <trkpt lat="46.23844" lon="6.69521">
        <ele>1961.891</ele>
        <time>2026-03-08T12:50:17Z</time>
      </trkpt>
      <trkpt lat="46.23844" lon="6.69521">
        <ele>1961.881</ele>
        <time>2026-03-08T12:50:22Z</time>
      </trkpt>
      <trkpt lat="46.23844" lon="6.69521">
        <ele>1962.014</ele>
        <time>2026-03-08T12:50:27Z</time>
      </trkpt>
      <trkpt lat="46.23844" lon="6.69521">
        <ele>1962.822</ele>
        <time>2026-03-08T12:50:32Z</time>
      </trkpt>
      <trkpt lat="46.23844" lon="6.69521">
        <ele>1962.826</ele>
        <time>2026-03-08T12:50:37Z</time>
      </trkpt>
      <trkpt lat="46.23844" lon="6.69521">
        <ele>1963.996</ele>
        <time>2026-03-08T12:50:42Z</time>
      </trkpt>
      <trkpt lat="46.23844" lon="6.69521">
        <ele>1964.191</ele>
        <time>2026-03-08T12:50:47Z</time>
      </trkpt>
      <trkpt lat="46.23844" lon="6.69521">
        <ele>1964.4</ele>
        <time>2026-03-08T12:50:52Z</time>
      </trkpt>
      <trkpt lat="46.23844" lon="6.69521">
        <ele>1964.42</ele>
        <time>2026-03-08T12:50:57Z</time>
      </trkpt>
      <trkpt lat="46.23844" lon="6.69521">
        <ele>1964.687</ele>
        <time>2026-03-08T12:51:02Z</time>
      </trkpt>
      <trkpt lat="46.23844" lon="6.69521">
        <ele>1964.866</ele>
        <time>2026-03-08T12:51:07Z</time>
      </trkpt>
      <trkpt lat="46.23844" lon="6.69521">
        <ele>1964.92</ele>
        <time>2026-03-08T12:51:12Z</time>
      </trkpt>
      <trkpt lat="46.23844" lon="6.69521">
        <ele>1965.038</ele>
        <time>2026-03-08T12:51:17Z</time>
      </trkpt>
      <trkpt lat="46.23844" lon="6.69521">
        <ele>1965.101</ele>
        <time>2026-03-08T12:51:22Z</time>
      </trkpt>
      <trkpt lat="46.23844" lon="6.69521">
        <ele>1964.816</ele>
        <time>2026-03-08T12:51:27Z</time>
      </trkpt>
      <trkpt lat="46.23844" lon="6.69521">
        <ele>1964.91</ele>
        <time>2026-03-08T12:51:32Z</time>
      </trkpt>
      <trkpt lat="46.23844" lon="6.69521">
        <ele>1965.012</ele>
        <time>2026-03-08T12:51:37Z</time>
      </trkpt>
      <trkpt lat="46.23844" lon="6.69521">
        <ele>1965.034</ele>
        <time>2026-03-08T12:51:42Z</time>
      </trkpt>
      <trkpt lat="46.23844" lon="6.69521">
        <ele>1965.053</ele>
        <time>2026-03-08T12:51:47Z</time>
      </trkpt>
      <trkpt lat="46.23844" lon="6.69521">
        <ele>1965.063</ele>
        <time>2026-03-08T12:51:52Z</time>
      </trkpt>
      <trkpt lat="46.23844" lon="6.69521">
        <ele>1965.074</ele>
        <time>2026-03-08T12:51:57Z</time>
      </trkpt>
      <trkpt lat="46.23844" lon="6.69521">
        <ele>1965.079</ele>
        <time>2026-03-08T12:52:02Z</time>
      </trkpt>
      <trkpt lat="46.23844" lon="6.69521">
        <ele>1964.518</ele>
        <time>2026-03-08T12:52:07Z</time>
      </trkpt>
      <trkpt lat="46.23844" lon="6.69521">
        <ele>1962.96</ele>
        <time>2026-03-08T12:52:12Z</time>
      </trkpt>
      <trkpt lat="46.23844" lon="6.69521">
        <ele>1963.126</ele>
        <time>2026-03-08T12:52:17Z</time>
      </trkpt>
      <trkpt lat="46.23844" lon="6.69521">
        <ele>1963.341</ele>
        <time>2026-03-08T12:52:22Z</time>
      </trkpt>
      <trkpt lat="46.23844" lon="6.69521">
        <ele>1962.828</ele>
        <time>2026-03-08T12:52:27Z</time>
      </trkpt>
      <trkpt lat="46.23844" lon="6.69521">
        <ele>1962.987</ele>
        <time>2026-03-08T12:52:32Z</time>
      </trkpt>
      <trkpt lat="46.23844" lon="6.69521">
        <ele>1963.042</ele>
        <time>2026-03-08T12:52:37Z</time>
      </trkpt>
      <trkpt lat="46.23844" lon="6.69521">
        <ele>1963.051</ele>
        <time>2026-03-08T12:52:42Z</time>
      </trkpt>
      <trkpt lat="46.23844" lon="6.69521">
        <ele>1962.972</ele>
        <time>2026-03-08T12:52:47Z</time>
      </trkpt>
      <trkpt lat="46.23839" lon="6.69525">
        <ele>1961.38</ele>
        <time>2026-03-08T12:52:52Z</time>
      </trkpt>
      <trkpt lat="46.23839" lon="6.69549">
        <ele>1958.262</ele>
        <time>2026-03-08T12:52:57Z</time>
      </trkpt>
      <trkpt lat="46.2383" lon="6.69565">
        <ele>1952.434</ele>
        <time>2026-03-08T12:53:02Z</time>
      </trkpt>
      <trkpt lat="46.23817" lon="6.69569">
        <ele>1943.35</ele>
        <time>2026-03-08T12:53:07Z</time>
      </trkpt>
      <trkpt lat="46.23807" lon="6.69584">
        <ele>1936.079</ele>
        <time>2026-03-08T12:53:12Z</time>
      </trkpt>
      <trkpt lat="46.23803" lon="6.69593">
        <ele>1932.378</ele>
        <time>2026-03-08T12:53:17Z</time>
      </trkpt>
      <trkpt lat="46.23802" lon="6.69593">
        <ele>1932.378</ele>
        <time>2026-03-08T12:53:22Z</time>
      </trkpt>
      <trkpt lat="46.23795" lon="6.69596">
        <ele>1929.154</ele>
        <time>2026-03-08T12:53:27Z</time>
      </trkpt>
      <trkpt lat="46.23785" lon="6.69593">
        <ele>1923.67</ele>
        <time>2026-03-08T12:53:32Z</time>
      </trkpt>
      <trkpt lat="46.23782" lon="6.69629">
        <ele>1919.332</ele>
        <time>2026-03-08T12:53:37Z</time>
      </trkpt>
      <trkpt lat="46.23785" lon="6.69634">
        <ele>1919.781</ele>
        <time>2026-03-08T12:53:42Z</time>
      </trkpt>
      <trkpt lat="46.23788" lon="6.69635">
        <ele>1916.148</ele>
        <time>2026-03-08T12:53:47Z</time>
      </trkpt>
      <trkpt lat="46.2379" lon="6.69635">
        <ele>1914.648</ele>
        <time>2026-03-08T12:53:52Z</time>
      </trkpt>
      <trkpt lat="46.2379" lon="6.69635">
        <ele>1914.66</ele>
        <time>2026-03-08T12:53:57Z</time>
      </trkpt>
      <trkpt lat="46.2379" lon="6.69635">
        <ele>1914.81</ele>
        <time>2026-03-08T12:54:02Z</time>
      </trkpt>
      <trkpt lat="46.2379" lon="6.69635">
        <ele>1914.372</ele>
        <time>2026-03-08T12:54:07Z</time>
      </trkpt>
      <trkpt lat="46.2379" lon="6.69635">
        <ele>1914.113</ele>
        <time>2026-03-08T12:54:12Z</time>
      </trkpt>
      <trkpt lat="46.2379" lon="6.69635">
        <ele>1912.887</ele>
        <time>2026-03-08T12:54:17Z</time>
      </trkpt>
      <trkpt lat="46.2379" lon="6.69635">
        <ele>1914.014</ele>
        <time>2026-03-08T12:54:22Z</time>
      </trkpt>
      <trkpt lat="46.23791" lon="6.69636">
        <ele>1915.345</ele>
        <time>2026-03-08T12:54:27Z</time>
      </trkpt>
      <trkpt lat="46.23792" lon="6.69637">
        <ele>1916.141</ele>
        <time>2026-03-08T12:54:32Z</time>
      </trkpt>
      <trkpt lat="46.23791" lon="6.69639">
        <ele>1917.509</ele>
        <time>2026-03-08T12:54:37Z</time>
      </trkpt>
      <trkpt lat="46.23792" lon="6.69641">
        <ele>1918.297</ele>
        <time>2026-03-08T12:54:42Z</time>
      </trkpt>
      <trkpt lat="46.23791" lon="6.69645">
        <ele>1918.565</ele>
        <time>2026-03-08T12:54:47Z</time>
      </trkpt>
      <trkpt lat="46.23792" lon="6.69648">
        <ele>1919.117</ele>
        <time>2026-03-08T12:54:52Z</time>
      </trkpt>
      <trkpt lat="46.23793" lon="6.69651">
        <ele>1919.515</ele>
        <time>2026-03-08T12:54:57Z</time>
      </trkpt>
      <trkpt lat="46.23792" lon="6.69652">
        <ele>1920.226</ele>
        <time>2026-03-08T12:55:02Z</time>
      </trkpt>
      <trkpt lat="46.23791" lon="6.69652">
        <ele>1920.378</ele>
        <time>2026-03-08T12:55:07Z</time>
      </trkpt>
      <trkpt lat="46.23791" lon="6.69652">
        <ele>1920.438</ele>
        <time>2026-03-08T12:55:12Z</time>
      </trkpt>
      <trkpt lat="46.23789" lon="6.69654">
        <ele>1922.003</ele>
        <time>2026-03-08T12:55:17Z</time>
      </trkpt>
      <trkpt lat="46.23788" lon="6.69655">
        <ele>1922.457</ele>
        <time>2026-03-08T12:55:22Z</time>
      </trkpt>
      <trkpt lat="46.23787" lon="6.69655">
        <ele>1923.061</ele>
        <time>2026-03-08T12:55:27Z</time>
      </trkpt>
      <trkpt lat="46.23786" lon="6.69656">
        <ele>1923.066</ele>
        <time>2026-03-08T12:55:32Z</time>
      </trkpt>
      <trkpt lat="46.23785" lon="6.69655">
        <ele>1924.21</ele>
        <time>2026-03-08T12:55:37Z</time>
      </trkpt>
      <trkpt lat="46.23784" lon="6.69655">
        <ele>1924.289</ele>
        <time>2026-03-08T12:55:42Z</time>
      </trkpt>
      <trkpt lat="46.23784" lon="6.69656">
        <ele>1925.032</ele>
        <time>2026-03-08T12:55:47Z</time>
      </trkpt>
      <trkpt lat="46.23783" lon="6.69657">
        <ele>1924.837</ele>
        <time>2026-03-08T12:55:52Z</time>
      </trkpt>
      <trkpt lat="46.23782" lon="6.69655">
        <ele>1925.164</ele>
        <time>2026-03-08T12:55:57Z</time>
      </trkpt>
      <trkpt lat="46.23782" lon="6.69655">
        <ele>1925.103</ele>
        <time>2026-03-08T12:56:02Z</time>
      </trkpt>
      <trkpt lat="46.23781" lon="6.69654">
        <ele>1925.597</ele>
        <time>2026-03-08T12:56:07Z</time>
      </trkpt>
      <trkpt lat="46.2378" lon="6.69654">
        <ele>1925.292</ele>
        <time>2026-03-08T12:56:12Z</time>
      </trkpt>
      <trkpt lat="46.23778" lon="6.69655">
        <ele>1926.929</ele>
        <time>2026-03-08T12:56:17Z</time>
      </trkpt>
      <trkpt lat="46.23774" lon="6.69657">
        <ele>1927.552</ele>
        <time>2026-03-08T12:56:22Z</time>
      </trkpt>
      <trkpt lat="46.2377" lon="6.69659">
        <ele>1927.685</ele>
        <time>2026-03-08T12:56:27Z</time>
      </trkpt>
      <trkpt lat="46.23767" lon="6.69661">
        <ele>1927.432</ele>
        <time>2026-03-08T12:56:32Z</time>
      </trkpt>
      <trkpt lat="46.23767" lon="6.69661">
        <ele>1926.761</ele>
        <time>2026-03-08T12:56:37Z</time>
      </trkpt>
      <trkpt lat="46.23767" lon="6.69661">
        <ele>1926.601</ele>
        <time>2026-03-08T12:56:42Z</time>
      </trkpt>
      <trkpt lat="46.23768" lon="6.69662">
        <ele>1926.524</ele>
        <time>2026-03-08T12:56:47Z</time>
      </trkpt>
      <trkpt lat="46.23765" lon="6.69666">
        <ele>1926.654</ele>
        <time>2026-03-08T12:56:52Z</time>
      </trkpt>
      <trkpt lat="46.23761" lon="6.69668">
        <ele>1926.268</ele>
        <time>2026-03-08T12:56:57Z</time>
      </trkpt>
      <trkpt lat="46.23758" lon="6.69673">
        <ele>1925.914</ele>
        <time>2026-03-08T12:57:02Z</time>
      </trkpt>
      <trkpt lat="46.23755" lon="6.69677">
        <ele>1925.769</ele>
        <time>2026-03-08T12:57:07Z</time>
      </trkpt>
      <trkpt lat="46.23753" lon="6.6968">
        <ele>1924.777</ele>
        <time>2026-03-08T12:57:12Z</time>
      </trkpt>
      <trkpt lat="46.23752" lon="6.69683">
        <ele>1923.453</ele>
        <time>2026-03-08T12:57:17Z</time>
      </trkpt>
      <trkpt lat="46.2375" lon="6.69686">
        <ele>1922.124</ele>
        <time>2026-03-08T12:57:22Z</time>
      </trkpt>
      <trkpt lat="46.23749" lon="6.69692">
        <ele>1921.513</ele>
        <time>2026-03-08T12:57:27Z</time>
      </trkpt>
      <trkpt lat="46.23746" lon="6.69695">
        <ele>1921.331</ele>
        <time>2026-03-08T12:57:32Z</time>
      </trkpt>
      <trkpt lat="46.23745" lon="6.69699">
        <ele>1920.116</ele>
        <time>2026-03-08T12:57:37Z</time>
      </trkpt>
      <trkpt lat="46.23745" lon="6.69699">
        <ele>1919.958</ele>
        <time>2026-03-08T12:57:42Z</time>
      </trkpt>
      <trkpt lat="46.23745" lon="6.697">
        <ele>1919.958</ele>
        <time>2026-03-08T12:57:47Z</time>
      </trkpt>
      <trkpt lat="46.23745" lon="6.697">
        <ele>1919.958</ele>
        <time>2026-03-08T12:57:52Z</time>
      </trkpt>
      <trkpt lat="46.23745" lon="6.697">
        <ele>1919.962</ele>
        <time>2026-03-08T12:57:57Z</time>
      </trkpt>
      <trkpt lat="46.23745" lon="6.697">
        <ele>1919.959</ele>
        <time>2026-03-08T12:58:02Z</time>
      </trkpt>
      <trkpt lat="46.23745" lon="6.697">
        <ele>1919.954</ele>
        <time>2026-03-08T12:58:07Z</time>
      </trkpt>
      <trkpt lat="46.23745" lon="6.697">
        <ele>1919.952</ele>
        <time>2026-03-08T12:58:12Z</time>
      </trkpt>
      <trkpt lat="46.23745" lon="6.69699">
        <ele>1919.834</ele>
        <time>2026-03-08T12:58:17Z</time>
      </trkpt>
      <trkpt lat="46.23745" lon="6.69699">
        <ele>1920.043</ele>
        <time>2026-03-08T12:58:22Z</time>
      </trkpt>
      <trkpt lat="46.23745" lon="6.69699">
        <ele>1920.058</ele>
        <time>2026-03-08T12:58:27Z</time>
      </trkpt>
      <trkpt lat="46.23745" lon="6.69699">
        <ele>1920.061</ele>
        <time>2026-03-08T12:58:32Z</time>
      </trkpt>
      <trkpt lat="46.23745" lon="6.69699">
        <ele>1920.062</ele>
        <time>2026-03-08T12:58:37Z</time>
      </trkpt>
      <trkpt lat="46.23745" lon="6.69699">
        <ele>1920.064</ele>
        <time>2026-03-08T12:58:42Z</time>
      </trkpt>
      <trkpt lat="46.23745" lon="6.69702">
        <ele>1920.224</ele>
        <time>2026-03-08T12:58:47Z</time>
      </trkpt>
      <trkpt lat="46.23747" lon="6.69708">
        <ele>1919.526</ele>
        <time>2026-03-08T12:58:52Z</time>
      </trkpt>
      <trkpt lat="46.23748" lon="6.69707">
        <ele>1919.574</ele>
        <time>2026-03-08T12:58:57Z</time>
      </trkpt>
      <trkpt lat="46.23748" lon="6.69708">
        <ele>1918.911</ele>
        <time>2026-03-08T12:59:02Z</time>
      </trkpt>
      <trkpt lat="46.23763" lon="6.69701">
        <ele>1915.651</ele>
        <time>2026-03-08T12:59:07Z</time>
      </trkpt>
      <trkpt lat="46.23762" lon="6.69718">
        <ele>1910.685</ele>
        <time>2026-03-08T12:59:12Z</time>
      </trkpt>
      <trkpt lat="46.23767" lon="6.69726">
        <ele>1903.32</ele>
        <time>2026-03-08T12:59:17Z</time>
      </trkpt>
      <trkpt lat="46.23759" lon="6.69741">
        <ele>1902.878</ele>
        <time>2026-03-08T12:59:22Z</time>
      </trkpt>
      <trkpt lat="46.23759" lon="6.69741">
        <ele>1899.183</ele>
        <time>2026-03-08T12:59:27Z</time>
      </trkpt>
      <trkpt lat="46.23761" lon="6.69742">
        <ele>1898.936</ele>
        <time>2026-03-08T12:59:32Z</time>
      </trkpt>
      <trkpt lat="46.2376" lon="6.69752">
        <ele>1896.128</ele>
        <time>2026-03-08T12:59:37Z</time>
      </trkpt>
      <trkpt lat="46.23758" lon="6.69771">
        <ele>1893.155</ele>
        <time>2026-03-08T12:59:42Z</time>
      </trkpt>
      <trkpt lat="46.23757" lon="6.69775">
        <ele>1892.475</ele>
        <time>2026-03-08T12:59:47Z</time>
      </trkpt>
      <trkpt lat="46.23757" lon="6.69776">
        <ele>1892.474</ele>
        <time>2026-03-08T12:59:52Z</time>
      </trkpt>
      <trkpt lat="46.23758" lon="6.69781">
        <ele>1889.473</ele>
        <time>2026-03-08T12:59:57Z</time>
      </trkpt>
      <trkpt lat="46.23764" lon="6.6979">
        <ele>1891.893</ele>
        <time>2026-03-08T13:00:02Z</time>
      </trkpt>
      <trkpt lat="46.23773" lon="6.69806">
        <ele>1876.948</ele>
        <time>2026-03-08T13:00:07Z</time>
      </trkpt>
      <trkpt lat="46.23788" lon="6.69781">
        <ele>1868.276</ele>
        <time>2026-03-08T13:00:12Z</time>
      </trkpt>
      <trkpt lat="46.238" lon="6.69771">
        <ele>1866.526</ele>
        <time>2026-03-08T13:00:17Z</time>
      </trkpt>
      <trkpt lat="46.23817" lon="6.69764">
        <ele>1865.128</ele>
        <time>2026-03-08T13:00:22Z</time>
      </trkpt>
      <trkpt lat="46.23826" lon="6.69778">
        <ele>1857.979</ele>
        <time>2026-03-08T13:00:27Z</time>
      </trkpt>
      <trkpt lat="46.23838" lon="6.69783">
        <ele>1851.842</ele>
        <time>2026-03-08T13:00:32Z</time>
      </trkpt>
      <trkpt lat="46.23847" lon="6.69778">
        <ele>1850.476</ele>
        <time>2026-03-08T13:00:37Z</time>
      </trkpt>
      <trkpt lat="46.23848" lon="6.69776">
        <ele>1848.827</ele>
        <time>2026-03-08T13:00:42Z</time>
      </trkpt>
      <trkpt lat="46.23849" lon="6.69776">
        <ele>1848.955</ele>
        <time>2026-03-08T13:00:47Z</time>
      </trkpt>
      <trkpt lat="46.23853" lon="6.69772">
        <ele>1847.749</ele>
        <time>2026-03-08T13:00:52Z</time>
      </trkpt>
      <trkpt lat="46.23862" lon="6.69772">
        <ele>1843.175</ele>
        <time>2026-03-08T13:00:57Z</time>
      </trkpt>
      <trkpt lat="46.23869" lon="6.69792">
        <ele>1834.972</ele>
        <time>2026-03-08T13:01:02Z</time>
      </trkpt>
      <trkpt lat="46.23887" lon="6.69783">
        <ele>1830.419</ele>
        <time>2026-03-08T13:01:07Z</time>
      </trkpt>
      <trkpt lat="46.23903" lon="6.6978">
        <ele>1829.727</ele>
        <time>2026-03-08T13:01:12Z</time>
      </trkpt>
      <trkpt lat="46.23917" lon="6.69781">
        <ele>1829.654</ele>
        <time>2026-03-08T13:01:17Z</time>
      </trkpt>
      <trkpt lat="46.2392" lon="6.69796">
        <ele>1825.359</ele>
        <time>2026-03-08T13:01:22Z</time>
      </trkpt>
      <trkpt lat="46.2392" lon="6.69796">
        <ele>1825.378</ele>
        <time>2026-03-08T13:01:27Z</time>
      </trkpt>
      <trkpt lat="46.2392" lon="6.69796">
        <ele>1825.316</ele>
        <time>2026-03-08T13:01:32Z</time>
      </trkpt>
      <trkpt lat="46.2392" lon="6.69796">
        <ele>1823.669</ele>
        <time>2026-03-08T13:01:37Z</time>
      </trkpt>
      <trkpt lat="46.2392" lon="6.69796">
        <ele>1823.061</ele>
        <time>2026-03-08T13:01:42Z</time>
      </trkpt>
      <trkpt lat="46.2392" lon="6.69796">
        <ele>1823.067</ele>
        <time>2026-03-08T13:01:47Z</time>
      </trkpt>
      <trkpt lat="46.2392" lon="6.69796">
        <ele>1823.071</ele>
        <time>2026-03-08T13:01:52Z</time>
      </trkpt>
      <trkpt lat="46.2392" lon="6.69796">
        <ele>1823.118</ele>
        <time>2026-03-08T13:01:57Z</time>
      </trkpt>
      <trkpt lat="46.2392" lon="6.69796">
        <ele>1822.973</ele>
        <time>2026-03-08T13:02:02Z</time>
      </trkpt>
      <trkpt lat="46.2392" lon="6.69796">
        <ele>1822.935</ele>
        <time>2026-03-08T13:02:07Z</time>
      </trkpt>
      <trkpt lat="46.2392" lon="6.69796">
        <ele>1822.977</ele>
        <time>2026-03-08T13:02:12Z</time>
      </trkpt>
      <trkpt lat="46.2392" lon="6.69796">
        <ele>1823.279</ele>
        <time>2026-03-08T13:02:17Z</time>
      </trkpt>
      <trkpt lat="46.2392" lon="6.69796">
        <ele>1823.664</ele>
        <time>2026-03-08T13:02:22Z</time>
      </trkpt>
      <trkpt lat="46.2392" lon="6.69796">
        <ele>1823.895</ele>
        <time>2026-03-08T13:02:27Z</time>
      </trkpt>
      <trkpt lat="46.2392" lon="6.69796">
        <ele>1823.975</ele>
        <time>2026-03-08T13:02:32Z</time>
      </trkpt>
      <trkpt lat="46.2392" lon="6.69796">
        <ele>1824.094</ele>
        <time>2026-03-08T13:02:37Z</time>
      </trkpt>
      <trkpt lat="46.2392" lon="6.69796">
        <ele>1824.195</ele>
        <time>2026-03-08T13:02:42Z</time>
      </trkpt>
      <trkpt lat="46.2392" lon="6.69796">
        <ele>1824.347</ele>
        <time>2026-03-08T13:02:47Z</time>
      </trkpt>
      <trkpt lat="46.2392" lon="6.69796">
        <ele>1824.481</ele>
        <time>2026-03-08T13:02:52Z</time>
      </trkpt>
      <trkpt lat="46.2392" lon="6.69796">
        <ele>1824.542</ele>
        <time>2026-03-08T13:02:57Z</time>
      </trkpt>
      <trkpt lat="46.2392" lon="6.69796">
        <ele>1824.603</ele>
        <time>2026-03-08T13:03:02Z</time>
      </trkpt>
      <trkpt lat="46.2392" lon="6.69796">
        <ele>1824.637</ele>
        <time>2026-03-08T13:03:07Z</time>
      </trkpt>
      <trkpt lat="46.2392" lon="6.69796">
        <ele>1824.669</ele>
        <time>2026-03-08T13:03:12Z</time>
      </trkpt>
      <trkpt lat="46.2392" lon="6.69796">
        <ele>1824.673</ele>
        <time>2026-03-08T13:03:17Z</time>
      </trkpt>
      <trkpt lat="46.2392" lon="6.69796">
        <ele>1824.69</ele>
        <time>2026-03-08T13:03:22Z</time>
      </trkpt>
      <trkpt lat="46.2392" lon="6.69796">
        <ele>1824.662</ele>
        <time>2026-03-08T13:03:27Z</time>
      </trkpt>
      <trkpt lat="46.2392" lon="6.69796">
        <ele>1827.804</ele>
        <time>2026-03-08T13:03:32Z</time>
      </trkpt>
      <trkpt lat="46.2392" lon="6.69796">
        <ele>1828.582</ele>
        <time>2026-03-08T13:03:37Z</time>
      </trkpt>
      <trkpt lat="46.2392" lon="6.69796">
        <ele>1828.574</ele>
        <time>2026-03-08T13:03:42Z</time>
      </trkpt>
      <trkpt lat="46.23918" lon="6.69801">
        <ele>1825.452</ele>
        <time>2026-03-08T13:03:47Z</time>
      </trkpt>
      <trkpt lat="46.23929" lon="6.69815">
        <ele>1818.174</ele>
        <time>2026-03-08T13:03:52Z</time>
      </trkpt>
      <trkpt lat="46.23934" lon="6.69832">
        <ele>1815.265</ele>
        <time>2026-03-08T13:03:57Z</time>
      </trkpt>
      <trkpt lat="46.23951" lon="6.69825">
        <ele>1812.489</ele>
        <time>2026-03-08T13:04:02Z</time>
      </trkpt>
      <trkpt lat="46.23965" lon="6.69833">
        <ele>1806.701</ele>
        <time>2026-03-08T13:04:07Z</time>
      </trkpt>
      <trkpt lat="46.23974" lon="6.69843">
        <ele>1801.827</ele>
        <time>2026-03-08T13:04:12Z</time>
      </trkpt>
      <trkpt lat="46.23977" lon="6.6986">
        <ele>1792.891</ele>
        <time>2026-03-08T13:04:17Z</time>
      </trkpt>
      <trkpt lat="46.23975" lon="6.69881">
        <ele>1785.665</ele>
        <time>2026-03-08T13:04:22Z</time>
      </trkpt>
      <trkpt lat="46.23993" lon="6.69887">
        <ele>1781.819</ele>
        <time>2026-03-08T13:04:27Z</time>
      </trkpt>
      <trkpt lat="46.2399" lon="6.69921">
        <ele>1777.073</ele>
        <time>2026-03-08T13:04:32Z</time>
      </trkpt>
      <trkpt lat="46.24008" lon="6.6994">
        <ele>1774.489</ele>
        <time>2026-03-08T13:04:37Z</time>
      </trkpt>
      <trkpt lat="46.24021" lon="6.69951">
        <ele>1773.083</ele>
        <time>2026-03-08T13:04:42Z</time>
      </trkpt>
      <trkpt lat="46.24022" lon="6.69952">
        <ele>1772.867</ele>
        <time>2026-03-08T13:04:47Z</time>
      </trkpt>
      <trkpt lat="46.24022" lon="6.69952">
        <ele>1772.317</ele>
        <time>2026-03-08T13:04:52Z</time>
      </trkpt>
      <trkpt lat="46.24022" lon="6.69952">
        <ele>1771.998</ele>
        <time>2026-03-08T13:04:57Z</time>
      </trkpt>
      <trkpt lat="46.24022" lon="6.69952">
        <ele>1771.992</ele>
        <time>2026-03-08T13:05:02Z</time>
      </trkpt>
      <trkpt lat="46.24022" lon="6.69952">
        <ele>1771.99</ele>
        <time>2026-03-08T13:05:07Z</time>
      </trkpt>
      <trkpt lat="46.24022" lon="6.69952">
        <ele>1771.986</ele>
        <time>2026-03-08T13:05:12Z</time>
      </trkpt>
      <trkpt lat="46.24022" lon="6.69952">
        <ele>1770.828</ele>
        <time>2026-03-08T13:05:17Z</time>
      </trkpt>
      <trkpt lat="46.24022" lon="6.69952">
        <ele>1771.206</ele>
        <time>2026-03-08T13:05:22Z</time>
      </trkpt>
      <trkpt lat="46.24022" lon="6.69952">
        <ele>1772.49</ele>
        <time>2026-03-08T13:05:27Z</time>
      </trkpt>
      <trkpt lat="46.24022" lon="6.69952">
        <ele>1772.441</ele>
        <time>2026-03-08T13:05:32Z</time>
      </trkpt>
      <trkpt lat="46.24022" lon="6.69952">
        <ele>1772.451</ele>
        <time>2026-03-08T13:05:37Z</time>
      </trkpt>
      <trkpt lat="46.24022" lon="6.69952">
        <ele>1772.447</ele>
        <time>2026-03-08T13:05:42Z</time>
      </trkpt>
      <trkpt lat="46.24022" lon="6.69952">
        <ele>1772.445</ele>
        <time>2026-03-08T13:05:47Z</time>
      </trkpt>
      <trkpt lat="46.24022" lon="6.69952">
        <ele>1772.445</ele>
        <time>2026-03-08T13:05:52Z</time>
      </trkpt>
      <trkpt lat="46.24022" lon="6.69952">
        <ele>1772.441</ele>
        <time>2026-03-08T13:05:57Z</time>
      </trkpt>
      <trkpt lat="46.24022" lon="6.69952">
        <ele>1772.448</ele>
        <time>2026-03-08T13:06:02Z</time>
      </trkpt>
      <trkpt lat="46.24022" lon="6.69952">
        <ele>1772.437</ele>
        <time>2026-03-08T13:06:07Z</time>
      </trkpt>
      <trkpt lat="46.24022" lon="6.69952">
        <ele>1772.447</ele>
        <time>2026-03-08T13:06:12Z</time>
      </trkpt>
      <trkpt lat="46.24022" lon="6.69952">
        <ele>1772.439</ele>
        <time>2026-03-08T13:06:17Z</time>
      </trkpt>
      <trkpt lat="46.24022" lon="6.69952">
        <ele>1772.437</ele>
        <time>2026-03-08T13:06:22Z</time>
      </trkpt>
      <trkpt lat="46.24022" lon="6.69952">
        <ele>1772.432</ele>
        <time>2026-03-08T13:06:27Z</time>
      </trkpt>
      <trkpt lat="46.24022" lon="6.69952">
        <ele>1772.296</ele>
        <time>2026-03-08T13:06:32Z</time>
      </trkpt>
      <trkpt lat="46.24022" lon="6.69952">
        <ele>1772.283</ele>
        <time>2026-03-08T13:06:37Z</time>
      </trkpt>
      <trkpt lat="46.24022" lon="6.69952">
        <ele>1772.286</ele>
        <time>2026-03-08T13:06:42Z</time>
      </trkpt>
      <trkpt lat="46.24022" lon="6.69952">
        <ele>1772.287</ele>
        <time>2026-03-08T13:06:47Z</time>
      </trkpt>
      <trkpt lat="46.24022" lon="6.69952">
        <ele>1772.119</ele>
        <time>2026-03-08T13:06:52Z</time>
      </trkpt>
      <trkpt lat="46.24022" lon="6.69953">
        <ele>1772.098</ele>
        <time>2026-03-08T13:06:57Z</time>
      </trkpt>
      <trkpt lat="46.24032" lon="6.69952">
        <ele>1767.598</ele>
        <time>2026-03-08T13:07:02Z</time>
      </trkpt>
      <trkpt lat="46.24041" lon="6.69949">
        <ele>1763.138</ele>
        <time>2026-03-08T13:07:07Z</time>
      </trkpt>
      <trkpt lat="46.24066" lon="6.69953">
        <ele>1759.594</ele>
        <time>2026-03-08T13:07:12Z</time>
      </trkpt>
      <trkpt lat="46.24085" lon="6.69955">
        <ele>1760.154</ele>
        <time>2026-03-08T13:07:17Z</time>
      </trkpt>
      <trkpt lat="46.24098" lon="6.69955">
        <ele>1758.659</ele>
        <time>2026-03-08T13:07:22Z</time>
      </trkpt>
      <trkpt lat="46.24102" lon="6.69968">
        <ele>1754.347</ele>
        <time>2026-03-08T13:07:27Z</time>
      </trkpt>
      <trkpt lat="46.24109" lon="6.69982">
        <ele>1750.363</ele>
        <time>2026-03-08T13:07:32Z</time>
      </trkpt>
      <trkpt lat="46.24119" lon="6.69996">
        <ele>1743.525</ele>
        <time>2026-03-08T13:07:37Z</time>
      </trkpt>
      <trkpt lat="46.24112" lon="6.70007">
        <ele>1740.659</ele>
        <time>2026-03-08T13:07:42Z</time>
      </trkpt>
      <trkpt lat="46.24112" lon="6.70008">
        <ele>1739.043</ele>
        <time>2026-03-08T13:07:47Z</time>
      </trkpt>
      <trkpt lat="46.24112" lon="6.70009">
        <ele>1738.827</ele>
        <time>2026-03-08T13:07:52Z</time>
      </trkpt>
      <trkpt lat="46.24108" lon="6.70038">
        <ele>1735.99</ele>
        <time>2026-03-08T13:07:57Z</time>
      </trkpt>
      <trkpt lat="46.24111" lon="6.70075">
        <ele>1734.14</ele>
        <time>2026-03-08T13:08:02Z</time>
      </trkpt>
      <trkpt lat="46.2412" lon="6.70098">
        <ele>1731.278</ele>
        <time>2026-03-08T13:08:07Z</time>
      </trkpt>
      <trkpt lat="46.24138" lon="6.70106">
        <ele>1725.038</ele>
        <time>2026-03-08T13:08:12Z</time>
      </trkpt>
      <trkpt lat="46.24157" lon="6.7011">
        <ele>1710.809</ele>
        <time>2026-03-08T13:08:17Z</time>
      </trkpt>
      <trkpt lat="46.24177" lon="6.70109">
        <ele>1699.518</ele>
        <time>2026-03-08T13:08:22Z</time>
      </trkpt>
      <trkpt lat="46.24197" lon="6.701">
        <ele>1693.131</ele>
        <time>2026-03-08T13:08:27Z</time>
      </trkpt>
      <trkpt lat="46.24208" lon="6.70127">
        <ele>1688.274</ele>
        <time>2026-03-08T13:08:32Z</time>
      </trkpt>
      <trkpt lat="46.24223" lon="6.70165">
        <ele>1683.573</ele>
        <time>2026-03-08T13:08:37Z</time>
      </trkpt>
      <trkpt lat="46.24232" lon="6.70196">
        <ele>1680.538</ele>
        <time>2026-03-08T13:08:42Z</time>
      </trkpt>
      <trkpt lat="46.24242" lon="6.70225">
        <ele>1677.12</ele>
        <time>2026-03-08T13:08:47Z</time>
      </trkpt>
      <trkpt lat="46.24251" lon="6.70255">
        <ele>1674.559</ele>
        <time>2026-03-08T13:08:52Z</time>
      </trkpt>
      <trkpt lat="46.24255" lon="6.70265">
        <ele>1671.755</ele>
        <time>2026-03-08T13:08:57Z</time>
      </trkpt>
      <trkpt lat="46.24254" lon="6.70266">
        <ele>1670.671</ele>
        <time>2026-03-08T13:09:02Z</time>
      </trkpt>
      <trkpt lat="46.24254" lon="6.70266">
        <ele>1670.645</ele>
        <time>2026-03-08T13:09:07Z</time>
      </trkpt>
      <trkpt lat="46.24254" lon="6.70266">
        <ele>1670.637</ele>
        <time>2026-03-08T13:09:12Z</time>
      </trkpt>
      <trkpt lat="46.24254" lon="6.70266">
        <ele>1670.652</ele>
        <time>2026-03-08T13:09:17Z</time>
      </trkpt>
      <trkpt lat="46.24254" lon="6.70266">
        <ele>1670.655</ele>
        <time>2026-03-08T13:09:22Z</time>
      </trkpt>
      <trkpt lat="46.24254" lon="6.70266">
        <ele>1670.649</ele>
        <time>2026-03-08T13:09:27Z</time>
      </trkpt>
      <trkpt lat="46.24254" lon="6.70266">
        <ele>1670.652</ele>
        <time>2026-03-08T13:09:32Z</time>
      </trkpt>
      <trkpt lat="46.24254" lon="6.70266">
        <ele>1670.66</ele>
        <time>2026-03-08T13:09:37Z</time>
      </trkpt>
      <trkpt lat="46.24254" lon="6.70266">
        <ele>1670.697</ele>
        <time>2026-03-08T13:09:42Z</time>
      </trkpt>
      <trkpt lat="46.24254" lon="6.70266">
        <ele>1670.731</ele>
        <time>2026-03-08T13:09:47Z</time>
      </trkpt>
      <trkpt lat="46.24254" lon="6.70266">
        <ele>1670.749</ele>
        <time>2026-03-08T13:09:52Z</time>
      </trkpt>
      <trkpt lat="46.24255" lon="6.70268">
        <ele>1670.068</ele>
        <time>2026-03-08T13:09:57Z</time>
      </trkpt>
      <trkpt lat="46.2426" lon="6.70297">
        <ele>1665.05</ele>
        <time>2026-03-08T13:10:02Z</time>
      </trkpt>
      <trkpt lat="46.24272" lon="6.70315">
        <ele>1656.797</ele>
        <time>2026-03-08T13:10:07Z</time>
      </trkpt>
      <trkpt lat="46.2429" lon="6.70315">
        <ele>1647.32</ele>
        <time>2026-03-08T13:10:12Z</time>
      </trkpt>
      <trkpt lat="46.24301" lon="6.70332">
        <ele>1639.544</ele>
        <time>2026-03-08T13:10:17Z</time>
      </trkpt>
      <trkpt lat="46.24305" lon="6.70362">
        <ele>1635.217</ele>
        <time>2026-03-08T13:10:22Z</time>
      </trkpt>
      <trkpt lat="46.24311" lon="6.70388">
        <ele>1630.772</ele>
        <time>2026-03-08T13:10:27Z</time>
      </trkpt>
      <trkpt lat="46.24317" lon="6.70419">
        <ele>1625.071</ele>
        <time>2026-03-08T13:10:32Z</time>
      </trkpt>
      <trkpt lat="46.2432" lon="6.70436">
        <ele>1623.801</ele>
        <time>2026-03-08T13:10:37Z</time>
      </trkpt>
      <trkpt lat="46.24331" lon="6.7044">
        <ele>1618.863</ele>
        <time>2026-03-08T13:10:42Z</time>
      </trkpt>
      <trkpt lat="46.24344" lon="6.70452">
        <ele>1612.334</ele>
        <time>2026-03-08T13:10:47Z</time>
      </trkpt>
      <trkpt lat="46.24355" lon="6.70456">
        <ele>1605.312</ele>
        <time>2026-03-08T13:10:52Z</time>
      </trkpt>
      <trkpt lat="46.24368" lon="6.70451">
        <ele>1598.087</ele>
        <time>2026-03-08T13:10:57Z</time>
      </trkpt>
      <trkpt lat="46.24375" lon="6.70467">
        <ele>1592.682</ele>
        <time>2026-03-08T13:11:02Z</time>
      </trkpt>
      <trkpt lat="46.2438" lon="6.70478">
        <ele>1588.428</ele>
        <time>2026-03-08T13:11:07Z</time>
      </trkpt>
      <trkpt lat="46.2438" lon="6.70478">
        <ele>1588.563</ele>
        <time>2026-03-08T13:11:12Z</time>
      </trkpt>
      <trkpt lat="46.2438" lon="6.70478">
        <ele>1588.401</ele>
        <time>2026-03-08T13:11:17Z</time>
      </trkpt>
      <trkpt lat="46.2438" lon="6.70478">
        <ele>1588.463</ele>
        <time>2026-03-08T13:11:22Z</time>
      </trkpt>
      <trkpt lat="46.2438" lon="6.70478">
        <ele>1588.463</ele>
        <time>2026-03-08T13:11:27Z</time>
      </trkpt>
      <trkpt lat="46.2438" lon="6.70478">
        <ele>1588.453</ele>
        <time>2026-03-08T13:11:32Z</time>
      </trkpt>
      <trkpt lat="46.2438" lon="6.70478">
        <ele>1588.45</ele>
        <time>2026-03-08T13:11:37Z</time>
      </trkpt>
      <trkpt lat="46.2438" lon="6.70478">
        <ele>1588.442</ele>
        <time>2026-03-08T13:11:42Z</time>
      </trkpt>
      <trkpt lat="46.2438" lon="6.70478">
        <ele>1588.44</ele>
        <time>2026-03-08T13:11:47Z</time>
      </trkpt>
      <trkpt lat="46.2438" lon="6.70478">
        <ele>1588.436</ele>
        <time>2026-03-08T13:11:52Z</time>
      </trkpt>
      <trkpt lat="46.2438" lon="6.70478">
        <ele>1588.432</ele>
        <time>2026-03-08T13:11:57Z</time>
      </trkpt>
      <trkpt lat="46.2438" lon="6.70478">
        <ele>1588.439</ele>
        <time>2026-03-08T13:12:02Z</time>
      </trkpt>
      <trkpt lat="46.2438" lon="6.70478">
        <ele>1587.896</ele>
        <time>2026-03-08T13:12:07Z</time>
      </trkpt>
      <trkpt lat="46.2438" lon="6.70478">
        <ele>1587.63</ele>
        <time>2026-03-08T13:12:12Z</time>
      </trkpt>
      <trkpt lat="46.2438" lon="6.70478">
        <ele>1587.642</ele>
        <time>2026-03-08T13:12:17Z</time>
      </trkpt>
      <trkpt lat="46.2438" lon="6.70478">
        <ele>1587.682</ele>
        <time>2026-03-08T13:12:22Z</time>
      </trkpt>
      <trkpt lat="46.24384" lon="6.70493">
        <ele>1584.556</ele>
        <time>2026-03-08T13:12:27Z</time>
      </trkpt>
      <trkpt lat="46.24399" lon="6.70502">
        <ele>1576.797</ele>
        <time>2026-03-08T13:12:32Z</time>
      </trkpt>
      <trkpt lat="46.24411" lon="6.70509">
        <ele>1572.298</ele>
        <time>2026-03-08T13:12:37Z</time>
      </trkpt>
      <trkpt lat="46.24425" lon="6.70534">
        <ele>1566.352</ele>
        <time>2026-03-08T13:12:42Z</time>
      </trkpt>
      <trkpt lat="46.24436" lon="6.70543">
        <ele>1560.699</ele>
        <time>2026-03-08T13:12:47Z</time>
      </trkpt>
      <trkpt lat="46.24452" lon="6.70543">
        <ele>1551.663</ele>
        <time>2026-03-08T13:12:52Z</time>
      </trkpt>
      <trkpt lat="46.24464" lon="6.7056">
        <ele>1544.3</ele>
        <time>2026-03-08T13:12:57Z</time>
      </trkpt>
      <trkpt lat="46.2448" lon="6.70564">
        <ele>1539.383</ele>
        <time>2026-03-08T13:13:02Z</time>
      </trkpt>
      <trkpt lat="46.24497" lon="6.70575">
        <ele>1532.85</ele>
        <time>2026-03-08T13:13:07Z</time>
      </trkpt>
      <trkpt lat="46.24517" lon="6.70587">
        <ele>1526.545</ele>
        <time>2026-03-08T13:13:12Z</time>
      </trkpt>
      <trkpt lat="46.24525" lon="6.70596">
        <ele>1524.483</ele>
        <time>2026-03-08T13:13:17Z</time>
      </trkpt>
      <trkpt lat="46.24528" lon="6.70618">
        <ele>1518.029</ele>
        <time>2026-03-08T13:13:22Z</time>
      </trkpt>
      <trkpt lat="46.24537" lon="6.70636">
        <ele>1511.512</ele>
        <time>2026-03-08T13:13:27Z</time>
      </trkpt>
      <trkpt lat="46.24537" lon="6.70653">
        <ele>1508.019</ele>
        <time>2026-03-08T13:13:32Z</time>
      </trkpt>
      <trkpt lat="46.24547" lon="6.7066">
        <ele>1502.055</ele>
        <time>2026-03-08T13:13:37Z</time>
      </trkpt>
      <trkpt lat="46.24556" lon="6.70678">
        <ele>1498.247</ele>
        <time>2026-03-08T13:13:42Z</time>
      </trkpt>
      <trkpt lat="46.24556" lon="6.70678">
        <ele>1494.837</ele>
        <time>2026-03-08T13:13:47Z</time>
      </trkpt>
      <trkpt lat="46.24556" lon="6.70678">
        <ele>1493.341</ele>
        <time>2026-03-08T13:13:52Z</time>
      </trkpt>
      <trkpt lat="46.24556" lon="6.70678">
        <ele>1492.134</ele>
        <time>2026-03-08T13:13:57Z</time>
      </trkpt>
      <trkpt lat="46.24556" lon="6.70678">
        <ele>1491.867</ele>
        <time>2026-03-08T13:14:02Z</time>
      </trkpt>
      <trkpt lat="46.24556" lon="6.70678">
        <ele>1491.859</ele>
        <time>2026-03-08T13:14:07Z</time>
      </trkpt>
      <trkpt lat="46.24556" lon="6.70678">
        <ele>1491.86</ele>
        <time>2026-03-08T13:14:12Z</time>
      </trkpt>
      <trkpt lat="46.24556" lon="6.70678">
        <ele>1491.852</ele>
        <time>2026-03-08T13:14:17Z</time>
      </trkpt>
      <trkpt lat="46.24565" lon="6.70671">
        <ele>1491.85</ele>
        <time>2026-03-08T13:14:22Z</time>
      </trkpt>
      <trkpt lat="46.24565" lon="6.70671">
        <ele>1491.859</ele>
        <time>2026-03-08T13:14:27Z</time>
      </trkpt>
      <trkpt lat="46.24565" lon="6.70671">
        <ele>1491.899</ele>
        <time>2026-03-08T13:14:32Z</time>
      </trkpt>
      <trkpt lat="46.24565" lon="6.70671">
        <ele>1491.919</ele>
        <time>2026-03-08T13:14:37Z</time>
      </trkpt>
      <trkpt lat="46.24565" lon="6.70671">
        <ele>1491.921</ele>
        <time>2026-03-08T13:14:42Z</time>
      </trkpt>
      <trkpt lat="46.24566" lon="6.70671">
        <ele>1491.79</ele>
        <time>2026-03-08T13:14:47Z</time>
      </trkpt>
      <trkpt lat="46.24569" lon="6.70686">
        <ele>1489.081</ele>
        <time>2026-03-08T13:14:52Z</time>
      </trkpt>
      <trkpt lat="46.24572" lon="6.70707">
        <ele>1484.351</ele>
        <time>2026-03-08T13:14:57Z</time>
      </trkpt>
      <trkpt lat="46.24569" lon="6.7072">
        <ele>1481.124</ele>
        <time>2026-03-08T13:15:02Z</time>
      </trkpt>
      <trkpt lat="46.2458" lon="6.70718">
        <ele>1477.47</ele>
        <time>2026-03-08T13:15:07Z</time>
      </trkpt>
      <trkpt lat="46.24584" lon="6.70728">
        <ele>1473.739</ele>
        <time>2026-03-08T13:15:12Z</time>
      </trkpt>
      <trkpt lat="46.24592" lon="6.70735">
        <ele>1469.838</ele>
        <time>2026-03-08T13:15:17Z</time>
      </trkpt>
      <trkpt lat="46.246" lon="6.70715">
        <ele>1468.27</ele>
        <time>2026-03-08T13:15:22Z</time>
      </trkpt>
      <trkpt lat="46.24608" lon="6.70723">
        <ele>1463.953</ele>
        <time>2026-03-08T13:15:27Z</time>
      </trkpt>
      <trkpt lat="46.24615" lon="6.70732">
        <ele>1462.674</ele>
        <time>2026-03-08T13:15:32Z</time>
      </trkpt>
      <trkpt lat="46.24615" lon="6.70715">
        <ele>1460.088</ele>
        <time>2026-03-08T13:15:37Z</time>
      </trkpt>
      <trkpt lat="46.24616" lon="6.70708">
        <ele>1458.63</ele>
        <time>2026-03-08T13:15:42Z</time>
      </trkpt>
      <trkpt lat="46.24619" lon="6.70701">
        <ele>1457.536</ele>
        <time>2026-03-08T13:15:47Z</time>
      </trkpt>
      <trkpt lat="46.24623" lon="6.70698">
        <ele>1458.663</ele>
        <time>2026-03-08T13:15:52Z</time>
      </trkpt>
      <trkpt lat="46.24624" lon="6.707">
        <ele>1458.746</ele>
        <time>2026-03-08T13:15:57Z</time>
      </trkpt>
      <trkpt lat="46.24632" lon="6.70714">
        <ele>1454.732</ele>
        <time>2026-03-08T13:16:02Z</time>
      </trkpt>
      <trkpt lat="46.24651" lon="6.70718">
        <ele>1453.924</ele>
        <time>2026-03-08T13:16:07Z</time>
      </trkpt>
      <trkpt lat="46.24664" lon="6.70732">
        <ele>1451.207</ele>
        <time>2026-03-08T13:16:12Z</time>
      </trkpt>
      <trkpt lat="46.24666" lon="6.70733">
        <ele>1451.279</ele>
        <time>2026-03-08T13:16:17Z</time>
      </trkpt>
      <trkpt lat="46.24667" lon="6.70734">
        <ele>1451.52</ele>
        <time>2026-03-08T13:16:22Z</time>
      </trkpt>
      <trkpt lat="46.24662" lon="6.70752">
        <ele>1450.032</ele>
        <time>2026-03-08T13:16:27Z</time>
      </trkpt>
      <trkpt lat="46.24658" lon="6.70779">
        <ele>1447.803</ele>
        <time>2026-03-08T13:16:32Z</time>
      </trkpt>
      <trkpt lat="46.24679" lon="6.70803">
        <ele>1444.559</ele>
        <time>2026-03-08T13:16:37Z</time>
      </trkpt>
      <trkpt lat="46.24703" lon="6.70824">
        <ele>1442.042</ele>
        <time>2026-03-08T13:16:42Z</time>
      </trkpt>
      <trkpt lat="46.24728" lon="6.70848">
        <ele>1438.221</ele>
        <time>2026-03-08T13:16:47Z</time>
      </trkpt>
      <trkpt lat="46.24738" lon="6.70882">
        <ele>1435.332</ele>
        <time>2026-03-08T13:16:52Z</time>
      </trkpt>
      <trkpt lat="46.24752" lon="6.70909">
        <ele>1431.067</ele>
        <time>2026-03-08T13:16:57Z</time>
      </trkpt>
      <trkpt lat="46.24777" lon="6.70922">
        <ele>1428.04</ele>
        <time>2026-03-08T13:17:02Z</time>
      </trkpt>
      <trkpt lat="46.24794" lon="6.70946">
        <ele>1424.444</ele>
        <time>2026-03-08T13:17:07Z</time>
      </trkpt>
      <trkpt lat="46.2481" lon="6.70978">
        <ele>1419.643</ele>
        <time>2026-03-08T13:17:12Z</time>
      </trkpt>
      <trkpt lat="46.2482" lon="6.71013">
        <ele>1415.38</ele>
        <time>2026-03-08T13:17:17Z</time>
      </trkpt>
      <trkpt lat="46.24827" lon="6.7104">
        <ele>1413.261</ele>
        <time>2026-03-08T13:17:22Z</time>
      </trkpt>
      <trkpt lat="46.2483" lon="6.71064">
        <ele>1410.526</ele>
        <time>2026-03-08T13:17:27Z</time>
      </trkpt>
      <trkpt lat="46.24842" lon="6.71084">
        <ele>1407.997</ele>
        <time>2026-03-08T13:17:32Z</time>
      </trkpt>
      <trkpt lat="46.24858" lon="6.71105">
        <ele>1404.492</ele>
        <time>2026-03-08T13:17:37Z</time>
      </trkpt>
      <trkpt lat="46.24856" lon="6.71142">
        <ele>1398.068</ele>
        <time>2026-03-08T13:17:42Z</time>
      </trkpt>
      <trkpt lat="46.24856" lon="6.71162">
        <ele>1396.472</ele>
        <time>2026-03-08T13:17:47Z</time>
      </trkpt>
      <trkpt lat="46.24856" lon="6.71162">
        <ele>1396.851</ele>
        <time>2026-03-08T13:17:52Z</time>
      </trkpt>
      <trkpt lat="46.24856" lon="6.71162">
        <ele>1396.834</ele>
        <time>2026-03-08T13:17:57Z</time>
      </trkpt>
      <trkpt lat="46.24856" lon="6.71162">
        <ele>1397.049</ele>
        <time>2026-03-08T13:18:02Z</time>
      </trkpt>
      <trkpt lat="46.24856" lon="6.71162">
        <ele>1397.036</ele>
        <time>2026-03-08T13:18:07Z</time>
      </trkpt>
      <trkpt lat="46.24856" lon="6.71162">
        <ele>1397.046</ele>
        <time>2026-03-08T13:18:12Z</time>
      </trkpt>
      <trkpt lat="46.24856" lon="6.71162">
        <ele>1397.044</ele>
        <time>2026-03-08T13:18:17Z</time>
      </trkpt>
      <trkpt lat="46.24856" lon="6.71162">
        <ele>1397.041</ele>
        <time>2026-03-08T13:18:22Z</time>
      </trkpt>
      <trkpt lat="46.24856" lon="6.71162">
        <ele>1397.035</ele>
        <time>2026-03-08T13:18:27Z</time>
      </trkpt>
      <trkpt lat="46.24856" lon="6.71162">
        <ele>1397.03</ele>
        <time>2026-03-08T13:18:32Z</time>
      </trkpt>
      <trkpt lat="46.24856" lon="6.71162">
        <ele>1397.017</ele>
        <time>2026-03-08T13:18:37Z</time>
      </trkpt>
      <trkpt lat="46.24856" lon="6.71162">
        <ele>1397.014</ele>
        <time>2026-03-08T13:18:42Z</time>
      </trkpt>
      <trkpt lat="46.24856" lon="6.71162">
        <ele>1395.282</ele>
        <time>2026-03-08T13:18:47Z</time>
      </trkpt>
      <trkpt lat="46.24856" lon="6.71162">
        <ele>1394.559</ele>
        <time>2026-03-08T13:18:52Z</time>
      </trkpt>
      <trkpt lat="46.24856" lon="6.71162">
        <ele>1393.891</ele>
        <time>2026-03-08T13:18:57Z</time>
      </trkpt>
      <trkpt lat="46.24856" lon="6.71162">
        <ele>1394.453</ele>
        <time>2026-03-08T13:19:02Z</time>
      </trkpt>
      <trkpt lat="46.24856" lon="6.71162">
        <ele>1393.85</ele>
        <time>2026-03-08T13:19:07Z</time>
      </trkpt>
      <trkpt lat="46.24856" lon="6.71162">
        <ele>1393.741</ele>
        <time>2026-03-08T13:19:12Z</time>
      </trkpt>
      <trkpt lat="46.24856" lon="6.71162">
        <ele>1394.213</ele>
        <time>2026-03-08T13:19:17Z</time>
      </trkpt>
      <trkpt lat="46.24856" lon="6.71162">
        <ele>1394.229</ele>
        <time>2026-03-08T13:19:22Z</time>
      </trkpt>
      <trkpt lat="46.24856" lon="6.71162">
        <ele>1394.231</ele>
        <time>2026-03-08T13:19:27Z</time>
      </trkpt>
      <trkpt lat="46.24856" lon="6.71162">
        <ele>1394.235</ele>
        <time>2026-03-08T13:19:32Z</time>
      </trkpt>
      <trkpt lat="46.24856" lon="6.71162">
        <ele>1394.239</ele>
        <time>2026-03-08T13:19:37Z</time>
      </trkpt>
      <trkpt lat="46.24856" lon="6.71162">
        <ele>1394.233</ele>
        <time>2026-03-08T13:19:42Z</time>
      </trkpt>
      <trkpt lat="46.24856" lon="6.71162">
        <ele>1394.23</ele>
        <time>2026-03-08T13:19:47Z</time>
      </trkpt>
      <trkpt lat="46.24856" lon="6.71162">
        <ele>1394.236</ele>
        <time>2026-03-08T13:19:52Z</time>
      </trkpt>
      <trkpt lat="46.2486" lon="6.71159">
        <ele>1394.407</ele>
        <time>2026-03-08T13:19:57Z</time>
      </trkpt>
      <trkpt lat="46.24852" lon="6.71192">
        <ele>1389.207</ele>
        <time>2026-03-08T13:20:02Z</time>
      </trkpt>
      <trkpt lat="46.24847" lon="6.71225">
        <ele>1383.231</ele>
        <time>2026-03-08T13:20:07Z</time>
      </trkpt>
      <trkpt lat="46.24846" lon="6.71262">
        <ele>1376.661</ele>
        <time>2026-03-08T13:20:12Z</time>
      </trkpt>
      <trkpt lat="46.2483" lon="6.71278">
        <ele>1374.939</ele>
        <time>2026-03-08T13:20:17Z</time>
      </trkpt>
      <trkpt lat="46.24822" lon="6.71295">
        <ele>1373.93</ele>
        <time>2026-03-08T13:20:22Z</time>
      </trkpt>
      <trkpt lat="46.24822" lon="6.71315">
        <ele>1367.75</ele>
        <time>2026-03-08T13:20:27Z</time>
      </trkpt>
      <trkpt lat="46.2483" lon="6.71333">
        <ele>1363.871</ele>
        <time>2026-03-08T13:20:32Z</time>
      </trkpt>
      <trkpt lat="46.24837" lon="6.7136">
        <ele>1359.266</ele>
        <time>2026-03-08T13:20:37Z</time>
      </trkpt>
      <trkpt lat="46.24845" lon="6.7139">
        <ele>1355.377</ele>
        <time>2026-03-08T13:20:42Z</time>
      </trkpt>
      <trkpt lat="46.24831" lon="6.71395">
        <ele>1355.174</ele>
        <time>2026-03-08T13:20:47Z</time>
      </trkpt>
      <trkpt lat="46.24821" lon="6.71413">
        <ele>1351.09</ele>
        <time>2026-03-08T13:20:52Z</time>
      </trkpt>
      <trkpt lat="46.24821" lon="6.71413">
        <ele>1350.01</ele>
        <time>2026-03-08T13:20:57Z</time>
      </trkpt>
      <trkpt lat="46.24821" lon="6.71413">
        <ele>1349.688</ele>
        <time>2026-03-08T13:21:02Z</time>
      </trkpt>
      <trkpt lat="46.24821" lon="6.71413">
        <ele>1349.497</ele>
        <time>2026-03-08T13:21:07Z</time>
      </trkpt>
      <trkpt lat="46.24821" lon="6.71413">
        <ele>1349.483</ele>
        <time>2026-03-08T13:21:12Z</time>
      </trkpt>
      <trkpt lat="46.24821" lon="6.71413">
        <ele>1349.488</ele>
        <time>2026-03-08T13:21:17Z</time>
      </trkpt>
      <trkpt lat="46.24821" lon="6.71413">
        <ele>1349.454</ele>
        <time>2026-03-08T13:21:22Z</time>
      </trkpt>
      <trkpt lat="46.24821" lon="6.71413">
        <ele>1349.452</ele>
        <time>2026-03-08T13:21:27Z</time>
      </trkpt>
      <trkpt lat="46.24821" lon="6.71413">
        <ele>1349.441</ele>
        <time>2026-03-08T13:21:32Z</time>
      </trkpt>
      <trkpt lat="46.24821" lon="6.71413">
        <ele>1349.439</ele>
        <time>2026-03-08T13:21:37Z</time>
      </trkpt>
      <trkpt lat="46.24821" lon="6.71413">
        <ele>1349.428</ele>
        <time>2026-03-08T13:21:42Z</time>
      </trkpt>
      <trkpt lat="46.24821" lon="6.71413">
        <ele>1349.417</ele>
        <time>2026-03-08T13:21:47Z</time>
      </trkpt>
      <trkpt lat="46.24821" lon="6.71413">
        <ele>1349.409</ele>
        <time>2026-03-08T13:21:52Z</time>
      </trkpt>
      <trkpt lat="46.24821" lon="6.71413">
        <ele>1349.405</ele>
        <time>2026-03-08T13:21:57Z</time>
      </trkpt>
      <trkpt lat="46.24821" lon="6.71413">
        <ele>1349.408</ele>
        <time>2026-03-08T13:22:02Z</time>
      </trkpt>
      <trkpt lat="46.24821" lon="6.71413">
        <ele>1349.403</ele>
        <time>2026-03-08T13:22:07Z</time>
      </trkpt>
      <trkpt lat="46.24821" lon="6.71413">
        <ele>1349.404</ele>
        <time>2026-03-08T13:22:12Z</time>
      </trkpt>
      <trkpt lat="46.24821" lon="6.71413">
        <ele>1349.405</ele>
        <time>2026-03-08T13:22:17Z</time>
      </trkpt>
      <trkpt lat="46.24821" lon="6.71413">
        <ele>1349.404</ele>
        <time>2026-03-08T13:22:22Z</time>
      </trkpt>
      <trkpt lat="46.24821" lon="6.71413">
        <ele>1348.682</ele>
        <time>2026-03-08T13:22:27Z</time>
      </trkpt>
      <trkpt lat="46.24822" lon="6.71429">
        <ele>1346.371</ele>
        <time>2026-03-08T13:22:32Z</time>
      </trkpt>
      <trkpt lat="46.24825" lon="6.71441">
        <ele>1343.979</ele>
        <time>2026-03-08T13:22:37Z</time>
      </trkpt>
      <trkpt lat="46.24828" lon="6.71456">
        <ele>1342.207</ele>
        <time>2026-03-08T13:22:42Z</time>
      </trkpt>
      <trkpt lat="46.24832" lon="6.71468">
        <ele>1339.818</ele>
        <time>2026-03-08T13:22:47Z</time>
      </trkpt>
      <trkpt lat="46.24841" lon="6.71478">
        <ele>1336.379</ele>
        <time>2026-03-08T13:22:52Z</time>
      </trkpt>
      <trkpt lat="46.2485" lon="6.7149">
        <ele>1332.91</ele>
        <time>2026-03-08T13:22:57Z</time>
      </trkpt>
      <trkpt lat="46.24858" lon="6.71501">
        <ele>1330.068</ele>
        <time>2026-03-08T13:23:02Z</time>
      </trkpt>
      <trkpt lat="46.24864" lon="6.71514">
        <ele>1327.184</ele>
        <time>2026-03-08T13:23:07Z</time>
      </trkpt>
      <trkpt lat="46.24867" lon="6.71515">
        <ele>1326.863</ele>
        <time>2026-03-08T13:23:12Z</time>
      </trkpt>
      <trkpt lat="46.24867" lon="6.71515">
        <ele>1327.169</ele>
        <time>2026-03-08T13:23:17Z</time>
      </trkpt>
      <trkpt lat="46.24867" lon="6.71515">
        <ele>1326.442</ele>
        <time>2026-03-08T13:23:22Z</time>
      </trkpt>
      <trkpt lat="46.24867" lon="6.71515">
        <ele>1325.507</ele>
        <time>2026-03-08T13:23:27Z</time>
      </trkpt>
      <trkpt lat="46.2487" lon="6.71523">
        <ele>1326.194</ele>
        <time>2026-03-08T13:23:32Z</time>
      </trkpt>
      <trkpt lat="46.24876" lon="6.7153">
        <ele>1323.874</ele>
        <time>2026-03-08T13:23:37Z</time>
      </trkpt>
      <trkpt lat="46.24877" lon="6.71542">
        <ele>1320.632</ele>
        <time>2026-03-08T13:23:42Z</time>
      </trkpt>
      <trkpt lat="46.24867" lon="6.71539">
        <ele>1319.838</ele>
        <time>2026-03-08T13:23:47Z</time>
      </trkpt>
      <trkpt lat="46.24861" lon="6.71539">
        <ele>1318.672</ele>
        <time>2026-03-08T13:23:52Z</time>
      </trkpt>
      <trkpt lat="46.2486" lon="6.71539">
        <ele>1318.366</ele>
        <time>2026-03-08T13:23:57Z</time>
      </trkpt>
      <trkpt lat="46.24859" lon="6.7154">
        <ele>1318.482</ele>
        <time>2026-03-08T13:24:02Z</time>
      </trkpt>
      <trkpt lat="46.24857" lon="6.71541">
        <ele>1317.139</ele>
        <time>2026-03-08T13:24:07Z</time>
      </trkpt>
      <trkpt lat="46.24857" lon="6.71541">
        <ele>1316.893</ele>
        <time>2026-03-08T13:24:12Z</time>
      </trkpt>
      <trkpt lat="46.24844" lon="6.71542">
        <ele>1314.678</ele>
        <time>2026-03-08T13:24:17Z</time>
      </trkpt>
      <trkpt lat="46.24839" lon="6.71542">
        <ele>1311.137</ele>
        <time>2026-03-08T13:24:22Z</time>
      </trkpt>
      <trkpt lat="46.24833" lon="6.71545">
        <ele>1310.35</ele>
        <time>2026-03-08T13:24:27Z</time>
      </trkpt>
      <trkpt lat="46.24816" lon="6.71552">
        <ele>1309.88</ele>
        <time>2026-03-08T13:24:32Z</time>
      </trkpt>
      <trkpt lat="46.24809" lon="6.71554">
        <ele>1308.935</ele>
        <time>2026-03-08T13:24:37Z</time>
      </trkpt>
      <trkpt lat="46.24807" lon="6.71554">
        <ele>1307.431</ele>
        <time>2026-03-08T13:24:42Z</time>
      </trkpt>
      <trkpt lat="46.24807" lon="6.71554">
        <ele>1306.448</ele>
        <time>2026-03-08T13:24:47Z</time>
      </trkpt>
      <trkpt lat="46.24807" lon="6.71554">
        <ele>1306.362</ele>
        <time>2026-03-08T13:24:52Z</time>
      </trkpt>
      <trkpt lat="46.24807" lon="6.71554">
        <ele>1306.509</ele>
        <time>2026-03-08T13:24:57Z</time>
      </trkpt>
      <trkpt lat="46.24807" lon="6.71554">
        <ele>1306.598</ele>
        <time>2026-03-08T13:25:02Z</time>
      </trkpt>
      <trkpt lat="46.24807" lon="6.71553">
        <ele>1306.915</ele>
        <time>2026-03-08T13:25:07Z</time>
      </trkpt>
      <trkpt lat="46.24807" lon="6.71551">
        <ele>1307.015</ele>
        <time>2026-03-08T13:25:12Z</time>
      </trkpt>
      <trkpt lat="46.24803" lon="6.71549">
        <ele>1307.358</ele>
        <time>2026-03-08T13:25:17Z</time>
      </trkpt>
      <trkpt lat="46.24799" lon="6.71549">
        <ele>1305.895</ele>
        <time>2026-03-08T13:25:22Z</time>
      </trkpt>
      <trkpt lat="46.24798" lon="6.71547">
        <ele>1306.532</ele>
        <time>2026-03-08T13:25:27Z</time>
      </trkpt>
      <trkpt lat="46.24793" lon="6.71544">
        <ele>1307.097</ele>
        <time>2026-03-08T13:25:32Z</time>
      </trkpt>
      <trkpt lat="46.24791" lon="6.71543">
        <ele>1306.726</ele>
        <time>2026-03-08T13:25:37Z</time>
      </trkpt>
      <trkpt lat="46.24788" lon="6.71543">
        <ele>1305.643</ele>
        <time>2026-03-08T13:25:42Z</time>
      </trkpt>
      <trkpt lat="46.24786" lon="6.71543">
        <ele>1303.816</ele>
        <time>2026-03-08T13:25:47Z</time>
      </trkpt>
      <trkpt lat="46.24783" lon="6.71543">
        <ele>1302.707</ele>
        <time>2026-03-08T13:25:52Z</time>
      </trkpt>
      <trkpt lat="46.24776" lon="6.71543">
        <ele>1299.261</ele>
        <time>2026-03-08T13:25:57Z</time>
      </trkpt>
      <trkpt lat="46.24771" lon="6.71546">
        <ele>1295.638</ele>
        <time>2026-03-08T13:26:02Z</time>
      </trkpt>
      <trkpt lat="46.24766" lon="6.71546">
        <ele>1296.221</ele>
        <time>2026-03-08T13:26:07Z</time>
      </trkpt>
      <trkpt lat="46.24762" lon="6.71549">
        <ele>1295.309</ele>
        <time>2026-03-08T13:26:12Z</time>
      </trkpt>
      <trkpt lat="46.24759" lon="6.71552">
        <ele>1295.599</ele>
        <time>2026-03-08T13:26:17Z</time>
      </trkpt>
      <trkpt lat="46.24754" lon="6.71553">
        <ele>1294.124</ele>
        <time>2026-03-08T13:26:22Z</time>
      </trkpt>
      <trkpt lat="46.2475" lon="6.71554">
        <ele>1293.516</ele>
        <time>2026-03-08T13:26:27Z</time>
      </trkpt>
      <trkpt lat="46.24748" lon="6.71557">
        <ele>1291.015</ele>
        <time>2026-03-08T13:26:32Z</time>
      </trkpt>
      <trkpt lat="46.24747" lon="6.71561">
        <ele>1291.041</ele>
        <time>2026-03-08T13:26:37Z</time>
      </trkpt>
      <trkpt lat="46.24743" lon="6.71564">
        <ele>1291.568</ele>
        <time>2026-03-08T13:26:42Z</time>
      </trkpt>
      <trkpt lat="46.2474" lon="6.71566">
        <ele>1291.843</ele>
        <time>2026-03-08T13:26:47Z</time>
      </trkpt>
      <trkpt lat="46.24736" lon="6.71569">
        <ele>1290.491</ele>
        <time>2026-03-08T13:26:52Z</time>
      </trkpt>
      <trkpt lat="46.24735" lon="6.71571">
        <ele>1286.826</ele>
        <time>2026-03-08T13:26:57Z</time>
      </trkpt>
      <trkpt lat="46.24731" lon="6.71572">
        <ele>1286.731</ele>
        <time>2026-03-08T13:27:02Z</time>
      </trkpt>
      <trkpt lat="46.24728" lon="6.71575">
        <ele>1285.639</ele>
        <time>2026-03-08T13:27:07Z</time>
      </trkpt>
      <trkpt lat="46.24724" lon="6.71578">
        <ele>1287.91</ele>
        <time>2026-03-08T13:27:12Z</time>
      </trkpt>
      <trkpt lat="46.24722" lon="6.71582">
        <ele>1289.363</ele>
        <time>2026-03-08T13:27:17Z</time>
      </trkpt>
      <trkpt lat="46.24719" lon="6.71583">
        <ele>1290.069</ele>
        <time>2026-03-08T13:27:22Z</time>
      </trkpt>
      <trkpt lat="46.24716" lon="6.71584">
        <ele>1287.983</ele>
        <time>2026-03-08T13:27:27Z</time>
      </trkpt>
      <trkpt lat="46.24714" lon="6.71585">
        <ele>1285.813</ele>
        <time>2026-03-08T13:27:32Z</time>
      </trkpt>
      <trkpt lat="46.24712" lon="6.71586">
        <ele>1285.36</ele>
        <time>2026-03-08T13:27:37Z</time>
      </trkpt>
      <trkpt lat="46.24708" lon="6.71586">
        <ele>1285.099</ele>
        <time>2026-03-08T13:27:42Z</time>
      </trkpt>
      <trkpt lat="46.24705" lon="6.71588">
        <ele>1283.103</ele>
        <time>2026-03-08T13:27:47Z</time>
      </trkpt>
      <trkpt lat="46.247" lon="6.7159">
        <ele>1281.079</ele>
        <time>2026-03-08T13:27:52Z</time>
      </trkpt>
      <trkpt lat="46.24698" lon="6.71591">
        <ele>1280.701</ele>
        <time>2026-03-08T13:27:57Z</time>
      </trkpt>
      <trkpt lat="46.24694" lon="6.71592">
        <ele>1276.207</ele>
        <time>2026-03-08T13:28:02Z</time>
      </trkpt>
      <trkpt lat="46.2469" lon="6.71592">
        <ele>1275.637</ele>
        <time>2026-03-08T13:28:07Z</time>
      </trkpt>
      <trkpt lat="46.24686" lon="6.71594">
        <ele>1274.798</ele>
        <time>2026-03-08T13:28:12Z</time>
      </trkpt>
      <trkpt lat="46.24682" lon="6.71597">
        <ele>1273.264</ele>
        <time>2026-03-08T13:28:17Z</time>
      </trkpt>
      <trkpt lat="46.24678" lon="6.71599">
        <ele>1271.319</ele>
        <time>2026-03-08T13:28:22Z</time>
      </trkpt>
      <trkpt lat="46.24675" lon="6.71598">
        <ele>1270.656</ele>
        <time>2026-03-08T13:28:27Z</time>
      </trkpt>
      <trkpt lat="46.24672" lon="6.71599">
        <ele>1270.38</ele>
        <time>2026-03-08T13:28:32Z</time>
      </trkpt>
      <trkpt lat="46.2467" lon="6.716">
        <ele>1270.475</ele>
        <time>2026-03-08T13:28:37Z</time>
      </trkpt>
      <trkpt lat="46.24666" lon="6.71603">
        <ele>1268.371</ele>
        <time>2026-03-08T13:28:42Z</time>
      </trkpt>
      <trkpt lat="46.24661" lon="6.71605">
        <ele>1265.413</ele>
        <time>2026-03-08T13:28:47Z</time>
      </trkpt>
      <trkpt lat="46.24658" lon="6.71607">
        <ele>1265.994</ele>
        <time>2026-03-08T13:28:52Z</time>
      </trkpt>
      <trkpt lat="46.24654" lon="6.71607">
        <ele>1265.46</ele>
        <time>2026-03-08T13:28:57Z</time>
      </trkpt>
      <trkpt lat="46.24652" lon="6.71609">
        <ele>1263.994</ele>
        <time>2026-03-08T13:29:02Z</time>
      </trkpt>
      <trkpt lat="46.2465" lon="6.7161">
        <ele>1262.127</ele>
        <time>2026-03-08T13:29:07Z</time>
      </trkpt>
      <trkpt lat="46.2465" lon="6.7161">
        <ele>1262.618</ele>
        <time>2026-03-08T13:29:12Z</time>
      </trkpt>
      <trkpt lat="46.2465" lon="6.7161">
        <ele>1261.78</ele>
        <time>2026-03-08T13:29:17Z</time>
      </trkpt>
      <trkpt lat="46.2465" lon="6.7161">
        <ele>1261.642</ele>
        <time>2026-03-08T13:29:22Z</time>
      </trkpt>
      <trkpt lat="46.2465" lon="6.7161">
        <ele>1261.403</ele>
        <time>2026-03-08T13:29:27Z</time>
      </trkpt>
      <trkpt lat="46.2465" lon="6.7161">
        <ele>1261.113</ele>
        <time>2026-03-08T13:29:32Z</time>
      </trkpt>
      <trkpt lat="46.2465" lon="6.7161">
        <ele>1261.627</ele>
        <time>2026-03-08T13:29:37Z</time>
      </trkpt>
      <trkpt lat="46.24648" lon="6.71612">
        <ele>1260.372</ele>
        <time>2026-03-08T13:29:42Z</time>
      </trkpt>
      <trkpt lat="46.24625" lon="6.71622">
        <ele>1253.901</ele>
        <time>2026-03-08T13:29:47Z</time>
      </trkpt>
      <trkpt lat="46.2463" lon="6.7165">
        <ele>1239.845</ele>
        <time>2026-03-08T13:29:52Z</time>
      </trkpt>
      <trkpt lat="46.24639" lon="6.71667">
        <ele>1235.851</ele>
        <time>2026-03-08T13:29:57Z</time>
      </trkpt>
      <trkpt lat="46.24647" lon="6.71685">
        <ele>1234.182</ele>
        <time>2026-03-08T13:30:02Z</time>
      </trkpt>
      <trkpt lat="46.24659" lon="6.71704">
        <ele>1229.746</ele>
        <time>2026-03-08T13:30:07Z</time>
      </trkpt>
      <trkpt lat="46.24679" lon="6.71712">
        <ele>1224.255</ele>
        <time>2026-03-08T13:30:12Z</time>
      </trkpt>
      <trkpt lat="46.24695" lon="6.71719">
        <ele>1220.186</ele>
        <time>2026-03-08T13:30:17Z</time>
      </trkpt>
      <trkpt lat="46.24713" lon="6.71736">
        <ele>1214.297</ele>
        <time>2026-03-08T13:30:22Z</time>
      </trkpt>
      <trkpt lat="46.24719" lon="6.71757">
        <ele>1210.578</ele>
        <time>2026-03-08T13:30:27Z</time>
      </trkpt>
      <trkpt lat="46.24718" lon="6.7176">
        <ele>1208.792</ele>
        <time>2026-03-08T13:30:32Z</time>
      </trkpt>
      <trkpt lat="46.24718" lon="6.7176">
        <ele>1209.131</ele>
        <time>2026-03-08T13:30:37Z</time>
      </trkpt>
      <trkpt lat="46.24718" lon="6.7176">
        <ele>1209.454</ele>
        <time>2026-03-08T13:30:42Z</time>
      </trkpt>
      <trkpt lat="46.24718" lon="6.7176">
        <ele>1209.454</ele>
        <time>2026-03-08T13:30:47Z</time>
      </trkpt>
      <trkpt lat="46.24718" lon="6.7176">
        <ele>1209.589</ele>
        <time>2026-03-08T13:30:52Z</time>
      </trkpt>
      <trkpt lat="46.24718" lon="6.7176">
        <ele>1209.681</ele>
        <time>2026-03-08T13:30:57Z</time>
      </trkpt>
      <trkpt lat="46.24718" lon="6.7176">
        <ele>1209.725</ele>
        <time>2026-03-08T13:31:02Z</time>
      </trkpt>
      <trkpt lat="46.24718" lon="6.7176">
        <ele>1209.79</ele>
        <time>2026-03-08T13:31:07Z</time>
      </trkpt>
      <trkpt lat="46.24718" lon="6.7176">
        <ele>1209.849</ele>
        <time>2026-03-08T13:31:12Z</time>
      </trkpt>
      <trkpt lat="46.24718" lon="6.7176">
        <ele>1209.872</ele>
        <time>2026-03-08T13:31:17Z</time>
      </trkpt>
      <trkpt lat="46.24718" lon="6.7176">
        <ele>1209.886</ele>
        <time>2026-03-08T13:31:22Z</time>
      </trkpt>
      <trkpt lat="46.24718" lon="6.7176">
        <ele>1209.892</ele>
        <time>2026-03-08T13:31:27Z</time>
      </trkpt>
      <trkpt lat="46.24718" lon="6.7176">
        <ele>1209.903</ele>
        <time>2026-03-08T13:31:32Z</time>
      </trkpt>
      <trkpt lat="46.24718" lon="6.7176">
        <ele>1209.931</ele>
        <time>2026-03-08T13:31:37Z</time>
      </trkpt>
      <trkpt lat="46.24718" lon="6.7176">
        <ele>1209.945</ele>
        <time>2026-03-08T13:31:42Z</time>
      </trkpt>
      <trkpt lat="46.24718" lon="6.7176">
        <ele>1209.947</ele>
        <time>2026-03-08T13:31:47Z</time>
      </trkpt>
      <trkpt lat="46.24718" lon="6.7176">
        <ele>1209.974</ele>
        <time>2026-03-08T13:31:52Z</time>
      </trkpt>
      <trkpt lat="46.24718" lon="6.7176">
        <ele>1210.008</ele>
        <time>2026-03-08T13:31:57Z</time>
      </trkpt>
      <trkpt lat="46.24718" lon="6.7176">
        <ele>1210.015</ele>
        <time>2026-03-08T13:32:02Z</time>
      </trkpt>
      <trkpt lat="46.24718" lon="6.7176">
        <ele>1210.049</ele>
        <time>2026-03-08T13:32:07Z</time>
      </trkpt>
      <trkpt lat="46.24718" lon="6.7176">
        <ele>1209.957</ele>
        <time>2026-03-08T13:32:12Z</time>
      </trkpt>
      <trkpt lat="46.24718" lon="6.7176">
        <ele>1213.282</ele>
        <time>2026-03-08T13:32:17Z</time>
      </trkpt>
      <trkpt lat="46.24718" lon="6.7176">
        <ele>1214.713</ele>
        <time>2026-03-08T13:32:22Z</time>
      </trkpt>
      <trkpt lat="46.24718" lon="6.7176">
        <ele>1215.438</ele>
        <time>2026-03-08T13:32:27Z</time>
      </trkpt>
      <trkpt lat="46.24718" lon="6.7176">
        <ele>1215.557</ele>
        <time>2026-03-08T13:32:32Z</time>
      </trkpt>
      <trkpt lat="46.24718" lon="6.7176">
        <ele>1215.699</ele>
        <time>2026-03-08T13:32:37Z</time>
      </trkpt>
      <trkpt lat="46.24718" lon="6.7176">
        <ele>1215.871</ele>
        <time>2026-03-08T13:32:42Z</time>
      </trkpt>
      <trkpt lat="46.24718" lon="6.7176">
        <ele>1215.923</ele>
        <time>2026-03-08T13:32:47Z</time>
      </trkpt>
      <trkpt lat="46.24722" lon="6.71765">
        <ele>1214.296</ele>
        <time>2026-03-08T13:32:52Z</time>
      </trkpt>
      <trkpt lat="46.24737" lon="6.71768">
        <ele>1211.264</ele>
        <time>2026-03-08T13:32:57Z</time>
      </trkpt>
      <trkpt lat="46.24752" lon="6.7177">
        <ele>1209.68</ele>
        <time>2026-03-08T13:33:02Z</time>
      </trkpt>
      <trkpt lat="46.24756" lon="6.71787">
        <ele>1207.802</ele>
        <time>2026-03-08T13:33:07Z</time>
      </trkpt>
      <trkpt lat="46.24766" lon="6.71806">
        <ele>1204.002</ele>
        <time>2026-03-08T13:33:12Z</time>
      </trkpt>
      <trkpt lat="46.24775" lon="6.71812">
        <ele>1201.224</ele>
        <time>2026-03-08T13:33:17Z</time>
      </trkpt>
      <trkpt lat="46.24775" lon="6.71812">
        <ele>1201.015</ele>
        <time>2026-03-08T13:33:22Z</time>
      </trkpt>
      <trkpt lat="46.24774" lon="6.71826">
        <ele>1199.589</ele>
        <time>2026-03-08T13:33:27Z</time>
      </trkpt>
      <trkpt lat="46.2479" lon="6.7184">
        <ele>1195.552</ele>
        <time>2026-03-08T13:33:32Z</time>
      </trkpt>
      <trkpt lat="46.24799" lon="6.71877">
        <ele>1191.392</ele>
        <time>2026-03-08T13:33:37Z</time>
      </trkpt>
      <trkpt lat="46.24808" lon="6.71911">
        <ele>1188.955</ele>
        <time>2026-03-08T13:33:42Z</time>
      </trkpt>
      <trkpt lat="46.24806" lon="6.71947">
        <ele>1184.856</ele>
        <time>2026-03-08T13:33:47Z</time>
      </trkpt>
      <trkpt lat="46.24802" lon="6.71979">
        <ele>1183.489</ele>
        <time>2026-03-08T13:33:52Z</time>
      </trkpt>
      <trkpt lat="46.24796" lon="6.72005">
        <ele>1184.43</ele>
        <time>2026-03-08T13:33:57Z</time>
      </trkpt>
      <trkpt lat="46.24789" lon="6.72027">
        <ele>1183.806</ele>
        <time>2026-03-08T13:34:02Z</time>
      </trkpt>
      <trkpt lat="46.24787" lon="6.72047">
        <ele>1182.476</ele>
        <time>2026-03-08T13:34:07Z</time>
      </trkpt>
      <trkpt lat="46.24787" lon="6.72047">
        <ele>1181.46</ele>
        <time>2026-03-08T13:34:12Z</time>
      </trkpt>
      <trkpt lat="46.24787" lon="6.72047">
        <ele>1181.224</ele>
        <time>2026-03-08T13:34:17Z</time>
      </trkpt>
      <trkpt lat="46.24787" lon="6.72047">
        <ele>1181.129</ele>
        <time>2026-03-08T13:34:22Z</time>
      </trkpt>
      <trkpt lat="46.2479" lon="6.72043">
        <ele>1181.133</ele>
        <time>2026-03-08T13:34:27Z</time>
      </trkpt>
      <trkpt lat="46.2479" lon="6.72043">
        <ele>1181.138</ele>
        <time>2026-03-08T13:34:32Z</time>
      </trkpt>
      <trkpt lat="46.24792" lon="6.72045">
        <ele>1180.017</ele>
        <time>2026-03-08T13:34:37Z</time>
      </trkpt>
      <trkpt lat="46.24791" lon="6.72065">
        <ele>1178.183</ele>
        <time>2026-03-08T13:34:42Z</time>
      </trkpt>
      <trkpt lat="46.24786" lon="6.72092">
        <ele>1176.554</ele>
        <time>2026-03-08T13:34:47Z</time>
      </trkpt>
      <trkpt lat="46.24779" lon="6.72113">
        <ele>1176.023</ele>
        <time>2026-03-08T13:34:52Z</time>
      </trkpt>
      <trkpt lat="46.24778" lon="6.72115">
        <ele>1176.077</ele>
        <time>2026-03-08T13:34:57Z</time>
      </trkpt>
      <trkpt lat="46.24778" lon="6.72116">
        <ele>1175.299</ele>
        <time>2026-03-08T13:35:02Z</time>
      </trkpt>
      <trkpt lat="46.24783" lon="6.7213">
        <ele>1173.69</ele>
        <time>2026-03-08T13:35:07Z</time>
      </trkpt>
      <trkpt lat="46.2479" lon="6.7216">
        <ele>1171.866</ele>
        <time>2026-03-08T13:35:12Z</time>
      </trkpt>
      <trkpt lat="46.24803" lon="6.72183">
        <ele>1166.944</ele>
        <time>2026-03-08T13:35:17Z</time>
      </trkpt>
      <trkpt lat="46.24811" lon="6.72198">
        <ele>1161.381</ele>
        <time>2026-03-08T13:35:22Z</time>
      </trkpt>
      <trkpt lat="46.24812" lon="6.72199">
        <ele>1161.396</ele>
        <time>2026-03-08T13:35:27Z</time>
      </trkpt>
      <trkpt lat="46.24812" lon="6.72199">
        <ele>1161.727</ele>
        <time>2026-03-08T13:35:32Z</time>
      </trkpt>
      <trkpt lat="46.24818" lon="6.7221">
        <ele>1158.655</ele>
        <time>2026-03-08T13:35:37Z</time>
      </trkpt>
      <trkpt lat="46.24834" lon="6.7222">
        <ele>1158.334</ele>
        <time>2026-03-08T13:35:42Z</time>
      </trkpt>
      <trkpt lat="46.24851" lon="6.72228">
        <ele>1155.062</ele>
        <time>2026-03-08T13:35:47Z</time>
      </trkpt>
      <trkpt lat="46.24858" lon="6.72232">
        <ele>1154.325</ele>
        <time>2026-03-08T13:35:52Z</time>
      </trkpt>
      <trkpt lat="46.24887" lon="6.72226">
        <ele>1149.418</ele>
        <time>2026-03-08T13:35:57Z</time>
      </trkpt>
      <trkpt lat="46.24908" lon="6.7223">
        <ele>1146.251</ele>
        <time>2026-03-08T13:36:02Z</time>
      </trkpt>
      <trkpt lat="46.24933" lon="6.72237">
        <ele>1144.484</ele>
        <time>2026-03-08T13:36:07Z</time>
      </trkpt>
      <trkpt lat="46.24951" lon="6.72226">
        <ele>1142.395</ele>
        <time>2026-03-08T13:36:12Z</time>
      </trkpt>
      <trkpt lat="46.24961" lon="6.72216">
        <ele>1141.066</ele>
        <time>2026-03-08T13:36:17Z</time>
      </trkpt>
      <trkpt lat="46.24969" lon="6.72212">
        <ele>1140.159</ele>
        <time>2026-03-08T13:36:22Z</time>
      </trkpt>
      <trkpt lat="46.24974" lon="6.7221">
        <ele>1137.91</ele>
        <time>2026-03-08T13:36:27Z</time>
      </trkpt>
      <trkpt lat="46.24974" lon="6.7221">
        <ele>1137.762</ele>
        <time>2026-03-08T13:36:32Z</time>
      </trkpt>
      <trkpt lat="46.24974" lon="6.7221">
        <ele>1136.463</ele>
        <time>2026-03-08T13:36:37Z</time>
      </trkpt>
      <trkpt lat="46.24974" lon="6.7221">
        <ele>1137.346</ele>
        <time>2026-03-08T13:36:42Z</time>
      </trkpt>
      <trkpt lat="46.24973" lon="6.72207">
        <ele>1136.239</ele>
        <time>2026-03-08T13:36:47Z</time>
      </trkpt>
      <trkpt lat="46.24974" lon="6.72206">
        <ele>1135.557</ele>
        <time>2026-03-08T13:36:52Z</time>
      </trkpt>
      <trkpt lat="46.24974" lon="6.72206">
        <ele>1136.038</ele>
        <time>2026-03-08T13:36:57Z</time>
      </trkpt>
      <trkpt lat="46.24975" lon="6.72206">
        <ele>1136.504</ele>
        <time>2026-03-08T13:37:02Z</time>
      </trkpt>
      <trkpt lat="46.24979" lon="6.72207">
        <ele>1136.617</ele>
        <time>2026-03-08T13:37:07Z</time>
      </trkpt>
      <trkpt lat="46.2499" lon="6.72208">
        <ele>1135.823</ele>
        <time>2026-03-08T13:37:12Z</time>
      </trkpt>
      <trkpt lat="46.25003" lon="6.722">
        <ele>1133.665</ele>
        <time>2026-03-08T13:37:17Z</time>
      </trkpt>
      <trkpt lat="46.25007" lon="6.72197">
        <ele>1134.006</ele>
        <time>2026-03-08T13:37:22Z</time>
      </trkpt>
      <trkpt lat="46.25008" lon="6.72197">
        <ele>1135.132</ele>
        <time>2026-03-08T13:37:27Z</time>
      </trkpt>
      <trkpt lat="46.25013" lon="6.72192">
        <ele>1134.798</ele>
        <time>2026-03-08T13:37:32Z</time>
      </trkpt>
      <trkpt lat="46.25015" lon="6.72191">
        <ele>1134.777</ele>
        <time>2026-03-08T13:37:37Z</time>
      </trkpt>
      <trkpt lat="46.25016" lon="6.72191">
        <ele>1134.386</ele>
        <time>2026-03-08T13:37:42Z</time>
      </trkpt>
      <trkpt lat="46.25017" lon="6.72191">
        <ele>1134.407</ele>
        <time>2026-03-08T13:37:47Z</time>
      </trkpt>
      <trkpt lat="46.25017" lon="6.72191">
        <ele>1133.681</ele>
        <time>2026-03-08T13:37:52Z</time>
      </trkpt>
      <trkpt lat="46.25017" lon="6.72191">
        <ele>1133.606</ele>
        <time>2026-03-08T13:37:57Z</time>
      </trkpt>
      <trkpt lat="46.25017" lon="6.72191">
        <ele>1133.6</ele>
        <time>2026-03-08T13:38:02Z</time>
      </trkpt>
      <trkpt lat="46.25017" lon="6.72191">
        <ele>1133.612</ele>
        <time>2026-03-08T13:38:07Z</time>
      </trkpt>
      <trkpt lat="46.25017" lon="6.72191">
        <ele>1133.721</ele>
        <time>2026-03-08T13:38:12Z</time>
      </trkpt>
      <trkpt lat="46.25017" lon="6.72191">
        <ele>1131.206</ele>
        <time>2026-03-08T13:38:17Z</time>
      </trkpt>
      <trkpt lat="46.25017" lon="6.72191">
        <ele>1130.786</ele>
        <time>2026-03-08T13:38:22Z</time>
      </trkpt>
      <trkpt lat="46.25017" lon="6.72191">
        <ele>1130.016</ele>
        <time>2026-03-08T13:38:27Z</time>
      </trkpt>
      <trkpt lat="46.25017" lon="6.72191">
        <ele>1131.115</ele>
        <time>2026-03-08T13:38:32Z</time>
      </trkpt>
      <trkpt lat="46.25017" lon="6.72191">
        <ele>1129.235</ele>
        <time>2026-03-08T13:38:37Z</time>
      </trkpt>
      <trkpt lat="46.25017" lon="6.72191">
        <ele>1128.99</ele>
        <time>2026-03-08T13:38:42Z</time>
      </trkpt>
      <trkpt lat="46.25017" lon="6.72191">
        <ele>1128.934</ele>
        <time>2026-03-08T13:38:47Z</time>
      </trkpt>
      <trkpt lat="46.25017" lon="6.72191">
        <ele>1129.765</ele>
        <time>2026-03-08T13:38:52Z</time>
      </trkpt>
      <trkpt lat="46.25017" lon="6.72191">
        <ele>1128.232</ele>
        <time>2026-03-08T13:38:57Z</time>
      </trkpt>
      <trkpt lat="46.25017" lon="6.72191">
        <ele>1128.699</ele>
        <time>2026-03-08T13:39:02Z</time>
      </trkpt>
      <trkpt lat="46.25017" lon="6.72191">
        <ele>1128.67</ele>
        <time>2026-03-08T13:39:07Z</time>
      </trkpt>
      <trkpt lat="46.25017" lon="6.72191">
        <ele>1128.023</ele>
        <time>2026-03-08T13:39:12Z</time>
      </trkpt>
      <trkpt lat="46.25017" lon="6.72191">
        <ele>1126.626</ele>
        <time>2026-03-08T13:39:17Z</time>
      </trkpt>
      <trkpt lat="46.25017" lon="6.72191">
        <ele>1123.963</ele>
        <time>2026-03-08T13:39:22Z</time>
      </trkpt>
      <trkpt lat="46.25017" lon="6.72191">
        <ele>1122.124</ele>
        <time>2026-03-08T13:39:27Z</time>
      </trkpt>
      <trkpt lat="46.25017" lon="6.72191">
        <ele>1122.181</ele>
        <time>2026-03-08T13:39:32Z</time>
      </trkpt>
      <trkpt lat="46.25017" lon="6.72191">
        <ele>1122.196</ele>
        <time>2026-03-08T13:39:37Z</time>
      </trkpt>
      <trkpt lat="46.25017" lon="6.72191">
        <ele>1122.221</ele>
        <time>2026-03-08T13:39:42Z</time>
      </trkpt>
      <trkpt lat="46.25017" lon="6.72191">
        <ele>1122.236</ele>
        <time>2026-03-08T13:39:47Z</time>
      </trkpt>
      <trkpt lat="46.25017" lon="6.72191">
        <ele>1122.266</ele>
        <time>2026-03-08T13:39:52Z</time>
      </trkpt>
      <trkpt lat="46.25017" lon="6.72191">
        <ele>1122.303</ele>
        <time>2026-03-08T13:39:57Z</time>
      </trkpt>
      <trkpt lat="46.25017" lon="6.72191">
        <ele>1122.355</ele>
        <time>2026-03-08T13:40:02Z</time>
      </trkpt>
      <trkpt lat="46.25017" lon="6.72191">
        <ele>1122.383</ele>
        <time>2026-03-08T13:40:07Z</time>
      </trkpt>
      <trkpt lat="46.25017" lon="6.72191">
        <ele>1122.388</ele>
        <time>2026-03-08T13:40:12Z</time>
      </trkpt>
      <trkpt lat="46.25017" lon="6.72191">
        <ele>1122.414</ele>
        <time>2026-03-08T13:40:17Z</time>
      </trkpt>
      <trkpt lat="46.25017" lon="6.72191">
        <ele>1122.438</ele>
        <time>2026-03-08T13:40:22Z</time>
      </trkpt>
      <trkpt lat="46.25017" lon="6.72191">
        <ele>1122.433</ele>
        <time>2026-03-08T13:40:27Z</time>
      </trkpt>
      <trkpt lat="46.25017" lon="6.72191">
        <ele>1122.447</ele>
        <time>2026-03-08T13:40:32Z</time>
      </trkpt>
      <trkpt lat="46.25017" lon="6.72191">
        <ele>1122.468</ele>
        <time>2026-03-08T13:40:37Z</time>
      </trkpt>
      <trkpt lat="46.25017" lon="6.72191">
        <ele>1122.564</ele>
        <time>2026-03-08T13:40:42Z</time>
      </trkpt>
      <trkpt lat="46.25017" lon="6.72191">
        <ele>1122.607</ele>
        <time>2026-03-08T13:40:47Z</time>
      </trkpt>
      <trkpt lat="46.25017" lon="6.72191">
        <ele>1122.633</ele>
        <time>2026-03-08T13:40:52Z</time>
      </trkpt>
      <trkpt lat="46.25017" lon="6.72191">
        <ele>1122.654</ele>
        <time>2026-03-08T13:40:57Z</time>
      </trkpt>
      <trkpt lat="46.25017" lon="6.72191">
        <ele>1122.68</ele>
        <time>2026-03-08T13:41:02Z</time>
      </trkpt>
      <trkpt lat="46.25017" lon="6.72191">
        <ele>1122.694</ele>
        <time>2026-03-08T13:41:07Z</time>
      </trkpt>
      <trkpt lat="46.25017" lon="6.72191">
        <ele>1122.728</ele>
        <time>2026-03-08T13:41:12Z</time>
      </trkpt>
      <trkpt lat="46.25017" lon="6.72191">
        <ele>1122.747</ele>
        <time>2026-03-08T13:41:17Z</time>
      </trkpt>
      <trkpt lat="46.25017" lon="6.72191">
        <ele>1122.982</ele>
        <time>2026-03-08T13:41:22Z</time>
      </trkpt>
      <trkpt lat="46.25017" lon="6.72191">
        <ele>1125.315</ele>
        <time>2026-03-08T13:41:27Z</time>
      </trkpt>
      <trkpt lat="46.25017" lon="6.72191">
        <ele>1126.377</ele>
        <time>2026-03-08T13:41:32Z</time>
      </trkpt>
      <trkpt lat="46.25017" lon="6.72191">
        <ele>1126.432</ele>
        <time>2026-03-08T13:41:37Z</time>
      </trkpt>
      <trkpt lat="46.25017" lon="6.72191">
        <ele>1126.481</ele>
        <time>2026-03-08T13:41:42Z</time>
      </trkpt>
      <trkpt lat="46.25017" lon="6.72191">
        <ele>1126.518</ele>
        <time>2026-03-08T13:41:47Z</time>
      </trkpt>
      <trkpt lat="46.25017" lon="6.72191">
        <ele>1126.542</ele>
        <time>2026-03-08T13:41:52Z</time>
      </trkpt>
      <trkpt lat="46.25017" lon="6.72191">
        <ele>1126.543</ele>
        <time>2026-03-08T13:41:57Z</time>
      </trkpt>
      <trkpt lat="46.25017" lon="6.72191">
        <ele>1126.539</ele>
        <time>2026-03-08T13:42:02Z</time>
      </trkpt>
      <trkpt lat="46.25017" lon="6.72191">
        <ele>1126.556</ele>
        <time>2026-03-08T13:42:07Z</time>
      </trkpt>
      <trkpt lat="46.25017" lon="6.72191">
        <ele>1126.556</ele>
        <time>2026-03-08T13:42:12Z</time>
      </trkpt>
      <trkpt lat="46.25017" lon="6.72191">
        <ele>1126.572</ele>
        <time>2026-03-08T13:42:17Z</time>
      </trkpt>
      <trkpt lat="46.25017" lon="6.72191">
        <ele>1126.588</ele>
        <time>2026-03-08T13:42:22Z</time>
      </trkpt>
      <trkpt lat="46.25017" lon="6.72191">
        <ele>1126.613</ele>
        <time>2026-03-08T13:42:27Z</time>
      </trkpt>
      <trkpt lat="46.25017" lon="6.72191">
        <ele>1126.61</ele>
        <time>2026-03-08T13:42:32Z</time>
      </trkpt>
      <trkpt lat="46.25017" lon="6.72191">
        <ele>1126.613</ele>
        <time>2026-03-08T13:42:37Z</time>
      </trkpt>
      <trkpt lat="46.25017" lon="6.72191">
        <ele>1126.606</ele>
        <time>2026-03-08T13:42:42Z</time>
      </trkpt>
      <trkpt lat="46.25017" lon="6.72191">
        <ele>1126.618</ele>
        <time>2026-03-08T13:42:47Z</time>
      </trkpt>
      <trkpt lat="46.25017" lon="6.72191">
        <ele>1126.62</ele>
        <time>2026-03-08T13:42:52Z</time>
      </trkpt>
      <trkpt lat="46.25017" lon="6.72191">
        <ele>1126.632</ele>
        <time>2026-03-08T13:42:57Z</time>
      </trkpt>
      <trkpt lat="46.25017" lon="6.72191">
        <ele>1126.643</ele>
        <time>2026-03-08T13:43:02Z</time>
      </trkpt>
      <trkpt lat="46.25017" lon="6.72191">
        <ele>1126.655</ele>
        <time>2026-03-08T13:43:07Z</time>
      </trkpt>
      <trkpt lat="46.25017" lon="6.72191">
        <ele>1126.661</ele>
        <time>2026-03-08T13:43:12Z</time>
      </trkpt>
      <trkpt lat="46.25017" lon="6.72191">
        <ele>1126.668</ele>
        <time>2026-03-08T13:43:17Z</time>
      </trkpt>
      <trkpt lat="46.25017" lon="6.72191">
        <ele>1126.686</ele>
        <time>2026-03-08T13:43:22Z</time>
      </trkpt>
      <trkpt lat="46.25017" lon="6.72191">
        <ele>1126.687</ele>
        <time>2026-03-08T13:43:27Z</time>
      </trkpt>
      <trkpt lat="46.25017" lon="6.72191">
        <ele>1126.688</ele>
        <time>2026-03-08T13:43:32Z</time>
      </trkpt>
      <trkpt lat="46.25017" lon="6.72191">
        <ele>1126.697</ele>
        <time>2026-03-08T13:43:37Z</time>
      </trkpt>
      <trkpt lat="46.25017" lon="6.72191">
        <ele>1126.698</ele>
        <time>2026-03-08T13:43:42Z</time>
      </trkpt>
      <trkpt lat="46.25019" lon="6.72183">
        <ele>1126.701</ele>
        <time>2026-03-08T13:43:47Z</time>
      </trkpt>
      <trkpt lat="46.25019" lon="6.72183">
        <ele>1126.718</ele>
        <time>2026-03-08T13:43:52Z</time>
      </trkpt>
      <trkpt lat="46.25019" lon="6.72183">
        <ele>1126.725</ele>
        <time>2026-03-08T13:43:57Z</time>
      </trkpt>
    </trkseg>
  </trk>
</gpx>